ECMWFFLT1_sfc_thetae_000.txt.gz
Theta_e
284 284 284 285 285 285 285 286 286 286 285 286 287 287 287 287 287 286 286 286 287 287 287 286 286 286 285 285 285 284 284 283 283 283 283 282 282 282 281 281 281 280 280 280 279 279 279 279 278 278 278 278 278 277 277 277 277 277 276 277 277 276
284 284 284 284 285 285 284 284 284 285 286 286 286 286 285 285 286 286 286 286 286 286 286 286 286 286 285 285 284 283 283 283 283 283 282 282 282 281 281 281 281 280 280 279 279 279 279 278 278 278 278 278 278 277 277 277 277 277 276 276 276 277
285 286 285 284 283 283 284 284 285 286 285 286 286 286 286 285 286 286 286 286 286 286 285 285 285 285 285 284 283 283 283 283 283 282 282 281 281 281 281 281 280 280 280 279 279 278 278 278 278 278 278 277 277 277 277 276 276 276 275 275 275 276
287 286 285 284 283 283 284 285 285 285 286 287 287 286 286 286 286 286 286 286 286 285 286 285 285 284 284 283 283 283 283 282 282 282 281 281 281 281 281 280 280 280 279 279 278 278 278 278 278 278 278 277 277 276 276 276 275 275 274 274 273 274
288 287 286 286 286 286 285 284 285 286 286 286 286 286 286 287 287 287 286 286 285 285 285 285 284 283 283 283 283 282 282 282 282 281 281 281 280 281 281 280 280 280 279 279 278 278 278 278 278 278 277 277 276 276 275 275 275 274 273 273 273 272
286 286 286 287 287 287 287 286 286 286 286 287 287 287 287 287 287 286 286 285 285 285 285 284 284 283 282 282 283 282 282 282 281 281 281 281 280 280 280 280 280 279 279 278 278 278 277 277 277 277 277 277 276 275 275 274 274 274 273 273 272 272
287 288 288 289 289 288 288 288 287 286 286 286 287 287 288 287 287 286 286 285 285 285 284 284 283 282 282 282 283 282 282 281 281 281 281 280 280 280 279 279 279 279 278 278 278 277 277 277 276 276 276 276 275 275 275 274 274 273 273 273 273 274
290 289 289 289 289 289 290 289 287 286 286 286 287 287 287 287 287 286 285 285 284 284 283 283 283 283 282 282 282 282 282 281 281 280 280 280 280 279 279 279 278 278 278 278 277 277 277 276 276 276 275 275 275 274 274 274 273 273 272 272 273 273
290 291 291 290 291 290 290 289 288 287 286 286 286 287 287 287 286 286 285 285 284 284 284 283 283 283 283 283 283 282 282 281 280 280 280 280 280 279 278 278 278 278 278 277 277 277 276 276 275 275 275 274 274 274 274 273 273 273 273 273 272 273
291 291 292 292 292 291 289 288 288 288 287 287 287 287 287 287 286 285 285 285 284 284 284 284 284 283 283 283 282 281 281 280 280 280 280 279 279 279 278 278 278 277 277 277 276 276 276 275 275 274 274 274 274 274 274 273 273 272 272 271 271 271
293 293 292 292 291 290 289 289 288 288 287 287 287 286 286 286 286 285 285 285 284 284 285 284 284 283 282 282 281 280 280 280 279 279 279 279 279 279 278 278 277 276 276 275 275 275 275 275 275 275 274 274 274 273 272 272 272 271 271 271 271 271
293 294 294 294 293 292 291 290 288 288 287 287 287 286 286 286 285 285 285 284 285 285 284 284 282 282 281 280 280 280 280 279 279 279 278 278 278 277 277 277 276 276 275 275 274 274 274 275 275 276 278 277 273 272 272 271 271 271 271 270 270 271
293 293 293 294 294 293 293 292 291 290 288 287 287 286 286 285 285 285 285 285 285 285 283 282 281 281 280 280 280 280 279 279 278 278 277 277 277 276 276 276 275 275 275 274 274 274 274 274 274 279 281 280 279 273 272 271 270 271 271 270 270 270
293 293 293 294 295 295 294 292 291 289 287 287 287 287 286 285 285 285 285 285 285 284 282 282 281 279 279 279 279 278 278 278 277 277 277 276 275 275 275 274 274 274 274 274 273 273 273 273 277 281 281 281 280 276 272 271 271 271 270 271 271 271
291 291 292 294 295 295 296 295 292 289 288 288 288 286 284 284 285 285 285 285 284 283 281 280 280 279 278 278 278 277 277 276 276 276 275 275 275 274 273 274 274 273 274 273 273 273 273 272 279 282 282 281 280 278 274 271 271 271 271 271 271 272
290 290 291 291 293 294 295 295 291 290 290 287 284 284 284 284 284 284 284 284 283 282 280 280 279 279 278 277 277 276 276 275 276 276 275 275 274 274 274 274 273 274 273 273 273 273 272 271 278 282 282 282 281 279 275 271 271 271 272 272 272 273
289 289 289 290 290 291 292 292 290 289 287 285 284 284 284 283 283 283 283 282 282 281 280 280 279 278 277 277 276 276 275 275 275 275 275 275 274 274 274 273 273 273 273 272 272 272 271 271 278 281 282 282 282 280 275 271 272 272 273 273 274 274
288 288 288 288 289 289 289 289 289 286 287 283 284 282 283 282 282 282 282 281 281 280 280 279 278 278 277 276 276 275 275 275 275 275 274 274 274 274 274 273 273 272 272 272 271 271 270 271 279 282 282 282 282 282 275 273 273 273 273 274 274 274
289 288 288 288 287 286 284 284 285 285 282 281 280 280 280 281 281 281 281 281 280 280 280 279 278 277 276 276 275 275 275 275 275 274 274 273 273 273 273 272 272 272 271 271 270 270 269 270 278 282 282 282 282 281 275 274 274 274 273 273 273 273
290 290 289 288 287 285 282 282 282 282 281 279 278 278 278 279 280 280 280 280 280 279 278 278 278 277 276 275 274 274 275 275 275 274 273 273 272 272 272 271 270 270 270 270 269 270 269 269 277 282 281 281 282 279 274 274 273 272 272 272 273 273
289 289 289 289 288 285 280 280 282 282 281 279 278 277 277 279 279 279 279 279 277 277 277 277 276 276 275 274 274 274 274 274 273 273 273 273 272 272 271 270 269 268 269 269 269 272 270 269 276 281 281 281 282 278 274 273 272 272 272 272 272 272
288 288 288 288 288 284 280 280 281 280 279 278 277 277 278 278 278 278 276 276 276 275 276 276 276 275 274 273 273 273 273 272 271 270 271 271 271 270 269 268 269 268 267 268 268 270 269 269 272 277 281 280 281 279 274 273 272 271 271 272 271 271
288 287 287 288 287 284 281 280 282 282 279 278 279 280 279 278 276 276 275 275 274 274 274 275 275 274 273 273 273 273 271 271 270 270 269 269 269 268 268 268 268 267 267 267 268 268 267 269 270 275 280 280 281 280 276 273 272 272 271 270 271 271
287 287 287 288 287 284 281 280 282 283 279 277 279 280 276 275 275 274 274 274 274 273 273 273 273 273 272 272 271 271 270 270 269 269 269 269 268 268 267 267 267 266 266 266 267 267 267 270 273 273 278 279 280 280 278 273 272 272 271 270 270 271
286 286 287 287 287 285 283 280 280 281 278 278 280 275 273 273 273 274 274 273 273 272 272 272 272 272 271 271 271 271 269 269 268 268 268 268 268 268 267 266 266 266 266 266 267 268 268 269 271 274 275 279 279 280 279 277 275 276 272 271 271 272
286 286 286 287 286 286 283 280 280 281 279 281 276 274 274 273 274 274 273 273 272 271 271 271 271 271 271 271 271 270 269 268 268 268 268 268 267 267 266 266 266 266 266 265 266 267 267 269 269 273 276 276 279 280 280 278 277 277 274 273 272 272
284 285 285 286 287 286 284 281 280 280 281 281 276 276 273 274 274 274 273 272 272 271 271 270 270 270 270 270 270 269 268 268 268 267 268 268 268 267 267 266 267 266 266 266 266 266 267 268 269 271 274 277 278 279 280 279 278 278 277 273 272 272
284 284 284 284 286 286 285 282 280 280 283 279 276 276 275 274 273 273 272 271 271 271 270 270 270 269 270 270 270 270 269 268 268 268 267 267 268 267 267 267 267 267 267 266 266 266 266 268 268 270 272 275 277 277 278 279 279 278 277 274 272 273
279 279 279 279 281 284 285 285 282 281 281 280 277 277 275 274 274 273 272 271 271 270 270 270 269 269 269 269 270 270 269 269 269 268 268 268 268 267 267 267 267 267 267 266 266 266 266 267 268 269 271 272 273 274 275 276 276 277 276 272 272 271
275 275 275 276 278 279 281 283 284 284 282 280 277 275 274 274 274 274 273 271 270 269 269 270 269 268 268 269 269 269 268 268 269 269 268 268 268 268 267 267 267 267 267 266 267 267 266 267 267 268 269 270 271 272 273 273 272 272 270 269 268 266
273 273 273 273 274 275 278 281 283 284 282 281 276 274 274 274 273 273 272 271 270 269 269 269 268 268 268 268 269 269 269 269 269 269 269 270 270 270 269 268 268 268 269 268 268 267 266 266 266 268 272 270 273 271 271 270 270 269 268 270 270 264
271 271 271 271 272 274 276 278 278 279 281 279 276 274 274 274 273 272 271 270 270 269 268 268 268 268 268 268 268 268 268 271 272 271 270 269 272 274 275 274 269 270 269 269 269 269 267 267 268 273 275 275 275 276 275 274 274 273 271 273 273 266
269 268 268 269 271 273 273 273 273 274 275 278 277 275 274 274 273 272 271 270 269 269 268 268 267 267 267 268 268 268 267 267 269 273 274 273 273 274 275 275 275 275 274 271 269 271 272 272 274 275 276 276 276 276 276 276 275 275 274 274 266 260
265 266 267 269 270 269 269 270 270 271 273 274 276 275 274 274 274 273 272 270 269 269 268 268 268 267 267 267 267 267 266 266 266 268 273 274 274 275 275 276 275 276 276 275 272 271 271 274 276 277 277 277 277 277 277 277 276 276 275 273 270 258
265 265 266 266 266 266 267 267 268 270 271 273 274 275 274 274 274 274 274 272 270 268 267 267 267 267 267 266 266 266 266 266 266 266 267 271 275 276 276 276 276 276 276 275 275 275 274 275 277 278 278 278 278 278 277 277 277 276 274 272 262 258
263 262 263 263 263 264 265 266 267 269 271 273 274 275 275 275 274 274 274 272 270 268 267 267 267 267 266 267 267 266 266 267 267 267 268 268 269 271 274 277 277 277 276 276 276 276 277 278 278 278 278 278 278 277 277 276 273 274 273 266 258 258
261 260 261 262 263 263 264 264 266 268 270 272 273 275 275 275 275 274 274 272 271 269 268 267 267 267 266 266 266 266 266 267 268 268 269 269 269 270 270 271 273 276 277 274 276 278 278 278 279 278 278 277 277 277 276 273 266 262 259 258 256 257
259 259 260 261 261 262 263 264 265 268 269 271 273 274 275 275 275 274 274 273 270 269 269 268 267 267 266 266 266 267 267 268 268 268 269 270 271 271 270 270 272 272 276 277 277 278 279 279 278 277 277 277 277 276 272 261 259 258 257 256 255 255

ECMWFFLT1_sfc_thetae_003.txt.gz
Theta_e
283 282 282 282 282 282 282 283 284 284 284 285 286 287 287 287 287 287 287 287 288 288 287 287 287 287 287 287 286 285 284 284 284 284 284 283 283 283 282 282 282 281 281 281 280 279 279 279 279 279 279 279 278 278 278 278 278 277 277 277 277 277
284 284 283 282 283 283 283 283 283 284 284 284 285 285 284 284 285 286 286 286 287 287 286 286 287 287 286 286 285 284 284 284 284 283 283 283 283 282 282 282 281 281 281 280 280 279 279 279 279 279 278 278 278 278 277 277 277 277 277 276 277 277
284 284 283 283 282 282 283 283 284 285 285 285 285 285 285 285 285 285 286 286 286 286 286 286 286 286 286 285 284 284 284 284 283 283 283 282 282 282 282 281 281 281 281 280 280 279 279 279 278 278 278 278 278 277 277 277 277 277 276 276 276 277
285 284 284 284 283 283 283 284 283 283 285 286 286 284 284 285 285 286 286 286 286 285 286 286 286 286 285 284 284 284 283 283 283 283 282 282 282 282 282 281 281 281 281 280 279 279 279 279 278 278 278 278 277 277 277 277 276 276 275 275 275 275
285 286 286 286 285 285 284 284 284 285 285 285 285 285 285 286 286 287 286 286 285 285 286 286 285 285 285 284 284 284 284 283 283 282 282 282 281 281 282 281 281 281 280 280 280 279 279 279 278 278 278 278 277 277 277 277 276 276 275 275 275 275
286 286 286 287 286 286 286 285 285 285 285 286 286 285 286 285 286 286 285 285 285 285 285 285 285 284 284 284 284 284 284 284 283 282 282 282 281 281 281 281 281 280 280 280 279 279 279 278 278 278 278 278 277 277 277 276 276 276 276 275 275 274
288 289 288 288 289 289 288 287 286 285 285 284 285 285 286 286 286 285 285 286 286 285 285 284 284 284 283 284 284 284 284 283 282 282 282 281 281 281 281 281 281 280 280 280 279 279 278 278 278 277 277 277 277 277 277 276 276 276 275 275 274 275
291 292 292 292 291 290 290 289 287 286 285 285 285 285 286 286 286 286 286 285 285 285 284 284 284 284 284 284 284 284 284 284 283 281 282 282 281 280 281 280 280 280 280 280 279 279 279 278 278 277 277 277 277 277 276 276 276 275 275 274 274 274
289 290 290 290 291 290 290 290 289 288 287 286 285 285 286 286 285 286 286 285 285 285 284 284 284 285 285 285 285 285 284 284 283 282 282 282 281 280 280 280 280 280 280 280 279 279 279 278 278 277 277 277 276 276 276 275 275 275 274 274 273 273
288 288 289 289 289 290 290 291 290 289 288 288 287 285 285 285 285 285 285 286 285 285 285 285 285 285 285 285 284 284 284 284 283 282 282 281 281 280 280 280 280 280 280 280 279 279 278 278 277 277 277 276 276 276 275 275 274 274 273 273 273 273
287 288 288 288 289 289 289 290 290 291 291 289 288 286 285 285 284 285 285 285 285 285 285 285 285 285 285 284 283 283 283 283 282 282 281 281 281 281 280 280 280 279 279 279 279 278 278 278 277 277 277 276 276 275 275 274 274 273 273 272 272 272
287 287 288 288 288 288 289 289 289 290 289 290 291 290 288 283 284 285 285 285 285 286 285 285 285 284 284 283 283 283 283 282 281 281 280 280 280 280 280 279 279 279 279 278 278 278 278 278 278 279 281 280 276 276 275 274 274 273 273 272 271 271
287 287 287 288 288 288 289 289 289 289 289 289 290 290 290 284 285 285 285 285 286 286 285 284 284 284 283 283 283 282 282 281 280 280 280 279 279 280 280 280 279 279 279 278 278 277 277 277 278 281 282 282 281 277 275 274 273 273 272 272 271 271
286 286 287 287 288 288 288 288 288 288 288 288 288 289 290 288 286 286 286 286 286 285 285 284 283 283 283 282 282 282 281 281 280 279 279 279 279 279 279 279 279 279 279 279 278 277 277 277 280 282 283 283 282 279 275 274 273 272 272 272 271 271
285 286 287 287 288 288 288 288 288 287 287 287 287 288 288 288 287 286 285 286 285 284 284 283 283 283 282 281 281 281 280 280 279 279 279 279 279 279 278 279 279 278 279 278 277 277 277 277 281 283 284 284 283 281 277 273 273 272 272 272 271 271
285 286 286 287 288 288 288 288 287 287 287 287 287 286 286 286 286 285 285 284 284 283 282 282 282 282 282 280 280 280 280 279 279 279 279 279 278 278 278 278 278 278 278 277 277 277 277 276 281 283 284 284 284 282 278 273 273 272 272 272 271 272
285 285 285 286 287 287 287 287 288 287 286 286 286 286 284 284 283 284 284 283 282 281 280 281 281 281 280 279 279 279 279 279 279 278 278 278 278 278 277 277 277 277 277 277 277 277 276 276 281 284 284 284 284 283 278 272 272 272 271 272 272 272
285 285 285 286 286 286 286 286 287 286 285 286 285 285 284 283 283 283 282 281 282 280 279 278 278 278 277 278 277 278 279 278 278 278 278 278 277 278 278 277 277 277 276 276 276 276 275 275 282 284 285 285 284 283 274 272 271 271 271 271 272 272
286 286 286 286 286 286 286 287 286 285 285 285 285 284 283 282 283 283 282 281 281 280 278 277 277 277 277 277 277 277 278 278 278 278 278 277 277 277 277 276 276 276 276 276 275 275 275 274 281 284 285 285 285 281 272 271 271 271 271 271 272 272
286 286 286 286 286 286 287 287 286 285 284 284 284 283 282 282 282 281 280 280 280 279 278 279 278 279 278 278 277 278 278 278 278 278 277 277 276 276 276 276 276 276 276 275 275 275 274 273 279 284 285 285 285 278 272 271 271 271 271 272 272 273
285 285 285 285 284 286 286 286 286 285 284 285 284 282 282 282 281 280 278 278 278 277 277 278 279 280 278 278 278 277 277 277 277 277 276 277 277 276 276 275 275 274 274 274 274 276 274 273 278 284 284 285 285 277 272 272 272 271 272 272 272 272
284 283 283 283 284 285 285 286 286 285 284 284 284 283 283 281 280 278 277 275 274 273 275 277 278 279 278 278 277 277 277 276 275 275 275 275 275 275 274 274 274 273 273 273 273 274 274 273 275 281 284 285 284 280 274 273 272 271 272 272 272 271
282 282 282 283 283 284 285 285 284 283 283 283 283 284 284 280 277 276 275 274 273 273 274 274 276 276 276 276 276 276 275 275 275 274 273 272 272 272 272 272 272 272 271 271 271 272 272 272 274 279 284 285 285 282 278 273 273 273 272 272 272 272
281 281 281 281 282 282 283 283 281 281 282 282 282 284 283 279 276 275 274 275 274 273 273 273 275 275 275 274 274 274 273 273 273 273 272 271 271 271 271 271 270 270 269 269 270 270 271 273 276 277 283 284 285 283 280 275 274 274 273 272 272 272
278 278 278 279 279 280 280 279 278 279 281 281 282 284 282 278 276 276 275 274 274 273 273 273 274 274 274 274 274 274 273 272 272 272 272 271 270 270 270 269 269 268 268 267 268 269 270 271 275 279 280 284 284 284 281 279 276 278 274 272 271 271
277 276 276 276 277 277 277 277 276 277 278 278 281 283 282 281 278 276 275 274 273 273 273 273 273 273 273 273 273 273 272 271 271 271 271 271 270 270 269 268 268 267 267 267 268 268 269 271 273 277 281 282 284 284 283 281 279 279 274 273 272 272
274 274 274 274 275 275 275 276 275 275 275 276 278 279 281 282 279 277 276 275 273 273 273 272 273 272 272 273 273 272 271 270 270 270 270 270 270 270 269 268 268 268 268 268 268 268 268 269 271 273 278 281 283 284 283 281 280 280 278 273 272 273
273 272 272 272 273 273 274 274 274 273 273 274 275 278 282 280 279 278 278 277 274 273 272 272 272 272 272 272 273 272 272 270 270 270 270 270 270 270 270 269 268 269 269 268 267 267 268 269 270 271 274 278 281 282 283 281 280 280 278 275 273 275
270 270 270 270 271 271 272 272 272 272 272 273 274 278 278 276 276 277 277 277 276 274 272 272 272 272 272 272 272 272 271 271 270 270 269 269 269 269 269 269 269 269 269 268 268 267 268 268 269 270 272 275 277 279 280 280 278 279 278 274 274 275
268 268 268 268 269 270 270 270 270 270 271 272 274 275 274 273 273 274 276 277 277 274 272 272 271 271 271 271 272 271 271 271 271 270 269 269 269 269 269 269 268 268 269 268 269 267 267 268 268 269 271 273 276 277 278 278 276 276 275 273 273 273
267 267 267 267 268 268 268 268 268 269 270 271 272 271 270 270 271 272 273 275 276 275 273 272 272 271 271 271 271 272 272 271 271 271 271 272 272 272 271 270 270 270 271 270 269 268 267 268 268 269 274 274 277 276 276 276 275 275 273 274 274 268
265 265 265 265 266 266 266 266 267 268 269 269 269 268 267 268 269 269 271 273 275 275 273 271 271 271 271 271 270 270 271 273 275 273 272 271 274 276 276 275 272 272 272 271 271 271 269 268 269 274 276 277 279 280 280 279 279 277 274 275 274 269
264 264 263 264 264 264 264 264 265 265 266 266 266 266 266 267 267 268 270 272 273 274 273 272 271 271 270 270 270 270 270 270 272 276 277 275 275 276 277 277 277 276 276 273 271 272 275 273 274 276 277 278 279 280 280 280 279 277 277 276 270 266
262 262 262 262 262 262 262 262 263 263 263 264 264 265 266 267 268 268 269 271 273 274 274 273 272 271 270 270 270 270 269 269 269 270 275 277 276 277 277 277 278 277 277 277 274 272 272 274 276 277 278 278 279 280 280 279 278 278 278 276 273 264
261 261 261 261 261 261 261 261 261 262 262 263 264 265 265 266 267 268 269 271 272 273 273 272 272 271 270 269 269 269 269 269 269 268 269 272 277 278 277 278 278 278 278 278 277 276 275 275 276 278 278 279 279 280 279 279 279 278 278 276 268 263
260 260 259 259 259 259 259 259 260 261 261 262 263 263 264 264 265 266 267 269 271 273 274 273 272 271 271 270 270 269 269 269 269 269 269 269 270 272 275 277 278 278 278 278 278 277 276 277 277 278 279 279 279 279 279 279 276 278 278 272 264 263
258 258 259 259 259 259 259 259 259 260 261 261 262 263 264 264 265 266 268 269 270 271 273 274 273 272 271 270 270 269 269 269 269 269 269 269 269 269 269 270 273 277 279 276 277 278 277 277 278 279 279 279 280 279 279 279 274 273 271 267 263 263
257 257 258 258 258 258 258 258 259 260 260 261 262 264 265 265 266 266 267 268 270 272 274 274 274 272 271 270 270 270 270 269 269 269 269 270 270 270 269 270 272 273 277 279 278 278 278 278 279 279 279 279 280 279 279 272 271 269 265 263 262 261

ECMWFFLT1_sfc_thetae_006.txt.gz
Theta_e
287 287 286 285 283 282 281 282 282 283 283 283 284 285 285 285 286 285 286 286 287 288 287 287 287 287 287 286 286 285 285 285 285 285 285 284 284 284 283 283 283 283 282 282 281 280 280 280 280 280 279 279 279 279 278 278 278 278 277 277 277 277
288 287 286 286 284 283 283 282 282 282 283 283 283 283 283 282 283 283 285 285 286 287 286 286 287 287 286 286 285 285 285 285 284 284 284 284 284 284 283 283 283 283 282 282 281 280 280 279 279 279 279 279 279 278 278 278 278 277 277 277 277 277
288 288 288 288 287 286 285 283 282 282 282 282 282 283 282 282 282 283 284 283 285 285 286 286 286 286 286 285 285 285 285 284 284 284 284 283 283 283 283 283 283 282 282 282 281 280 280 279 279 279 279 279 278 278 278 277 277 277 277 277 276 277
288 288 289 289 289 289 288 287 285 284 283 283 283 282 282 282 283 282 282 283 284 284 285 286 285 285 285 285 285 285 285 284 284 284 283 283 283 283 283 283 282 282 282 281 281 280 280 280 279 279 279 279 278 278 278 277 277 277 276 276 276 276
287 287 287 287 288 288 288 288 288 287 286 284 282 282 283 282 283 282 283 283 284 284 284 285 285 285 285 285 285 285 285 285 284 284 283 283 283 283 283 283 282 282 282 281 281 280 280 280 279 279 279 279 278 278 277 277 277 277 276 276 276 276
286 287 286 287 287 287 287 288 288 288 287 286 283 283 283 283 283 283 283 283 284 284 284 284 284 283 284 284 285 285 285 285 285 284 284 283 283 282 283 283 282 282 282 281 281 281 280 280 279 279 279 279 278 278 278 277 277 277 277 277 277 276
285 285 286 286 286 287 287 287 287 287 287 287 286 285 284 283 283 283 283 283 283 284 284 284 284 284 284 284 285 285 285 285 285 284 283 283 282 282 282 282 282 282 281 281 281 281 281 280 280 279 278 279 279 278 278 277 277 277 277 277 277 278
284 285 285 286 286 286 287 287 286 287 287 287 287 287 287 286 285 283 283 283 283 284 283 284 284 284 284 285 285 285 285 285 284 284 283 283 283 282 283 282 282 282 281 281 281 281 281 281 280 279 279 278 278 278 278 277 277 277 277 277 277 277
283 284 285 285 286 286 286 287 286 286 286 286 286 287 287 286 286 285 284 284 283 284 284 284 284 284 285 285 285 285 285 284 284 283 283 283 283 282 282 282 282 282 282 282 282 281 281 281 280 280 279 279 278 278 277 277 277 277 277 277 276 276
283 283 284 285 285 286 286 287 286 286 286 286 286 286 286 287 287 286 286 285 284 284 284 284 284 285 285 285 285 285 285 284 284 284 284 283 283 283 282 282 282 282 282 282 282 282 281 281 280 280 279 279 278 278 278 277 277 277 277 276 276 276
282 283 283 284 285 285 285 286 286 286 286 286 286 286 286 286 286 286 286 285 285 285 285 285 285 285 285 285 285 284 284 284 284 284 283 283 283 283 282 282 282 282 282 282 282 282 281 280 280 280 279 278 278 278 277 277 277 277 276 276 275 275
282 282 283 283 284 284 285 285 285 285 285 286 286 285 286 286 286 286 286 286 286 286 285 285 285 285 285 284 284 284 284 284 284 283 283 283 282 282 282 281 282 282 282 282 281 281 281 280 280 281 283 282 279 278 278 277 277 277 276 275 274 274
282 283 283 283 284 284 285 285 285 285 285 285 285 285 286 286 286 286 285 285 286 286 286 285 285 285 284 284 284 284 284 283 283 283 282 282 282 281 281 281 281 282 282 281 281 280 280 280 280 283 284 284 284 279 278 277 276 276 276 275 274 274
282 283 283 284 284 285 285 285 285 284 284 285 285 285 286 286 285 285 285 285 285 285 285 285 285 284 284 284 283 283 283 283 282 282 281 281 280 281 281 281 281 281 281 281 281 280 280 280 282 284 285 285 285 282 279 278 277 276 276 275 275 274
283 283 284 284 285 285 285 286 285 284 285 284 285 285 285 285 284 284 284 285 285 284 284 283 283 283 283 283 283 283 282 281 281 281 280 280 280 280 280 280 280 280 281 281 280 280 280 280 283 285 285 286 286 285 281 278 277 276 276 275 275 274
283 284 284 284 285 285 285 285 285 285 285 285 286 285 284 284 284 283 283 284 284 283 283 282 282 282 283 283 282 281 281 281 281 281 281 281 280 280 280 280 280 280 280 280 280 280 280 280 283 285 286 286 286 285 282 277 277 276 276 275 274 273
283 283 284 284 284 285 285 284 284 285 285 285 285 285 285 284 284 283 283 283 283 283 282 281 281 281 281 281 281 280 280 280 280 281 280 280 280 280 280 280 280 280 280 280 280 280 280 279 283 285 286 286 286 286 283 277 277 276 275 274 274 274
282 283 283 284 284 284 283 283 284 284 283 285 285 284 284 284 284 284 283 282 282 282 282 280 280 280 279 279 278 278 280 280 280 280 280 280 280 280 280 280 280 280 280 280 280 280 279 279 283 285 286 286 287 286 280 276 276 275 275 274 273 273
283 283 283 283 283 282 282 283 283 282 283 283 283 283 283 283 283 283 283 282 282 281 281 280 279 279 279 278 277 278 278 279 279 279 279 279 279 279 279 279 280 280 280 280 279 279 279 278 282 285 286 286 286 285 278 276 275 274 274 273 274 273
282 282 282 281 282 282 282 282 281 281 281 281 281 280 281 281 282 283 282 281 281 281 280 279 278 278 278 278 277 277 278 277 278 278 278 278 278 278 278 279 279 279 279 279 279 279 278 277 280 284 285 286 286 284 276 275 274 274 273 272 273 273
281 281 281 280 280 280 281 280 279 279 278 278 278 278 279 280 281 282 281 281 281 280 279 278 277 277 277 277 277 276 276 276 277 276 275 277 277 278 278 278 278 277 278 278 278 280 279 277 279 284 285 286 287 283 275 275 274 273 272 272 272 273
280 279 279 279 279 279 279 278 278 277 277 276 277 277 277 279 280 281 281 280 280 280 280 279 277 277 276 276 276 275 275 274 273 273 274 275 276 276 276 276 277 276 276 277 277 277 278 277 278 282 285 286 287 284 276 275 274 272 272 272 271 271
278 277 278 278 278 277 277 276 276 275 275 275 275 275 277 278 278 278 277 278 280 281 280 279 277 277 276 276 275 275 274 273 274 272 272 273 272 272 273 274 274 275 275 275 276 276 277 277 277 280 285 286 287 284 278 274 274 273 272 272 271 272
276 276 277 277 277 276 275 275 274 273 273 273 273 275 276 276 276 275 275 277 280 280 280 279 278 277 277 276 274 273 274 272 273 273 273 273 272 273 273 273 273 273 273 273 274 275 275 277 278 279 284 286 286 284 280 275 274 274 273 272 272 272
274 274 274 275 275 274 274 273 272 272 272 272 273 274 275 274 273 273 274 277 279 278 278 278 278 277 276 276 275 274 274 272 272 272 273 273 272 273 273 273 272 272 271 271 272 272 274 274 276 280 281 285 286 284 281 279 277 278 274 273 272 272
273 272 273 273 273 273 272 272 271 271 271 271 273 273 273 272 271 272 273 275 275 275 275 276 277 277 276 275 275 275 274 273 272 272 272 271 271 271 271 270 270 270 269 269 270 270 271 272 273 278 281 283 286 285 282 281 280 280 275 274 273 274
270 270 270 271 271 271 271 271 270 270 269 270 271 271 270 270 270 270 271 272 272 272 273 274 275 276 276 275 275 274 274 273 272 272 272 271 271 271 271 270 270 270 270 270 270 270 270 271 272 274 278 282 284 286 283 282 281 280 279 274 273 274
268 268 268 268 269 269 269 269 268 267 268 269 269 269 268 268 268 269 270 270 270 269 270 271 272 275 276 275 274 274 275 274 273 273 272 272 272 272 272 271 271 270 271 271 271 270 270 271 272 273 275 280 282 284 283 282 281 281 279 276 274 276
267 267 267 267 268 268 268 267 267 267 268 267 267 267 267 267 267 267 267 266 266 267 268 269 270 272 275 275 274 274 274 274 273 273 272 272 272 272 272 272 271 271 271 270 271 270 270 270 271 272 274 276 279 282 282 281 280 281 280 276 274 276
266 266 265 265 267 267 266 266 266 266 266 265 265 265 265 265 265 264 264 264 264 265 266 267 270 271 272 274 274 273 273 273 273 273 272 272 272 272 272 272 271 271 271 271 271 270 269 269 270 271 272 275 277 280 282 280 279 278 276 274 274 274
265 265 265 265 266 265 265 264 264 264 264 264 264 264 263 262 263 263 262 262 263 263 266 267 269 270 272 273 273 273 274 274 273 273 273 274 275 274 274 273 273 273 273 273 272 270 268 269 269 271 275 275 279 280 281 279 278 278 275 275 277 274
264 264 264 264 264 264 263 263 263 263 263 262 262 262 261 261 261 260 261 261 262 264 265 267 269 270 272 273 273 273 273 275 278 276 274 274 276 278 278 278 274 274 274 273 273 273 270 270 271 275 277 278 280 282 283 282 281 280 276 277 279 275
263 263 262 262 263 262 262 261 261 261 261 261 261 261 260 260 260 260 260 261 262 264 265 267 268 269 271 272 272 273 272 273 274 278 280 278 277 277 278 279 279 279 278 274 272 274 277 275 275 276 277 279 280 282 283 283 282 280 279 279 275 272
261 261 261 261 260 260 260 259 260 260 260 260 260 260 260 259 259 259 259 260 261 263 264 265 266 268 270 271 272 272 272 272 272 273 277 279 279 279 279 279 280 280 279 279 277 274 273 276 277 277 278 279 280 281 283 283 282 280 280 279 277 270
260 260 259 259 259 258 258 258 258 259 259 259 259 259 259 259 259 258 259 259 260 261 262 263 264 266 268 270 271 271 272 271 271 271 271 274 278 280 280 279 280 280 280 280 279 278 276 276 277 278 278 279 280 281 282 283 282 281 281 279 272 268
259 258 258 257 257 257 257 257 258 258 258 259 259 259 258 258 258 258 259 259 260 261 262 263 264 266 267 270 271 271 272 272 272 271 272 271 271 273 277 280 280 280 280 280 280 279 279 278 278 278 279 279 280 281 282 282 280 281 281 277 270 268
257 257 257 257 257 257 257 257 258 258 258 258 258 258 258 258 258 259 260 262 262 262 263 264 265 265 265 268 270 271 271 271 272 272 271 271 271 271 271 272 275 278 280 278 279 280 280 279 279 279 279 280 280 281 282 282 278 277 276 274 270 268
256 256 256 257 256 256 256 257 258 258 259 258 258 258 258 259 259 260 260 261 262 263 262 262 262 262 263 263 264 268 272 272 272 271 271 271 271 271 271 272 273 274 277 280 280 280 280 280 279 279 280 280 280 281 282 277 275 275 274 270 268 267

ECMWFFLT1_sfc_thetae_009.txt.gz
Theta_e
286 286 287 287 288 288 288 288 288 288 288 287 286 286 285 285 285 285 285 286 287 288 288 287 288 288 288 288 289 288 287 287 288 288 288 288 288 288 287 287 286 286 286 286 285 285 284 284 284 284 283 283 283 283 283 283 283 283 282 282 282 282
285 285 286 286 287 287 288 288 288 288 288 287 287 287 287 286 286 285 285 285 285 286 286 287 287 287 287 287 287 287 287 287 287 287 287 287 287 287 287 287 286 286 285 285 285 284 284 284 284 283 283 283 283 283 282 282 282 282 282 281 282 281
285 285 286 286 287 287 288 288 287 287 287 287 287 286 286 286 287 286 286 285 285 285 285 286 286 287 287 287 286 287 287 287 287 287 287 287 286 286 286 286 286 286 285 285 285 284 283 283 283 283 283 282 282 282 282 282 281 281 282 281 281 281
284 284 285 286 286 286 286 287 287 287 287 287 287 286 286 286 287 287 286 286 285 284 285 285 286 286 286 286 286 286 287 287 287 287 286 286 287 286 286 286 286 286 285 285 284 284 284 283 283 283 283 282 282 281 282 281 281 281 281 281 280 280
283 283 284 285 285 286 286 286 287 287 286 286 286 286 286 286 287 287 287 287 286 286 285 284 285 285 285 285 286 286 287 287 287 286 286 286 286 286 286 286 286 285 285 285 285 284 283 283 283 283 282 282 282 281 281 281 281 281 281 280 280 280
283 283 283 284 284 285 285 286 286 286 286 286 286 286 285 286 286 287 287 287 287 287 286 285 285 284 285 285 286 286 287 287 287 286 286 286 286 285 286 286 286 285 285 285 285 284 284 283 283 282 282 282 282 281 281 281 281 281 281 280 280 280
282 282 283 283 284 285 285 285 285 286 286 286 286 285 286 286 286 286 287 287 287 287 287 286 286 285 284 284 285 285 286 286 287 286 286 286 285 285 285 285 285 285 285 284 284 284 283 283 283 282 282 282 282 282 281 281 280 281 281 281 280 280
282 282 282 283 284 284 285 285 285 285 285 285 286 285 285 285 286 286 286 286 286 286 286 287 287 286 286 285 285 285 285 286 286 286 286 286 285 285 285 285 285 284 284 284 285 284 284 284 283 283 282 282 282 282 282 281 281 281 281 281 281 280
281 282 283 283 284 284 285 285 285 285 285 285 285 285 285 285 286 286 286 286 286 286 286 286 286 286 286 286 286 286 286 285 286 286 286 285 285 285 284 284 284 285 285 284 284 284 284 284 283 283 283 282 282 282 281 281 281 281 281 281 281 280
281 282 282 283 284 284 284 285 285 285 285 284 285 285 285 286 285 285 285 285 285 285 285 286 286 286 286 286 286 286 285 285 285 286 286 286 285 285 285 284 284 284 284 284 284 285 285 284 284 283 283 282 282 282 281 281 281 280 280 281 281 280
281 281 282 283 284 284 284 284 285 285 284 284 285 285 285 285 285 284 284 284 284 285 285 285 285 285 285 285 286 286 286 286 285 285 286 286 285 285 285 285 285 284 284 284 284 284 284 284 283 283 283 282 282 282 281 281 281 281 280 280 280 280
281 281 282 283 283 284 284 284 284 284 283 283 284 284 285 285 284 284 284 283 284 285 285 284 284 284 284 285 285 285 285 285 285 285 285 285 285 285 285 285 284 284 284 284 284 284 283 283 284 284 285 285 283 282 282 281 281 281 281 280 279 279
281 281 282 282 283 283 283 283 284 283 283 283 283 283 284 285 284 284 283 283 284 284 284 284 283 283 283 284 284 284 285 285 285 285 285 285 285 285 285 284 284 284 284 284 284 283 283 283 284 286 287 287 286 283 282 281 281 281 280 280 280 279
280 280 281 282 283 283 283 283 283 282 282 283 282 283 283 284 284 283 283 283 284 284 283 283 282 282 282 283 283 283 284 284 284 284 284 284 284 284 284 284 283 284 284 284 284 284 283 283 285 286 287 287 287 285 282 282 281 280 280 280 280 279
280 280 281 281 282 282 283 283 282 282 282 282 282 282 282 282 282 282 282 283 283 284 283 282 281 281 281 282 282 282 282 282 282 283 283 283 284 284 283 283 283 283 283 283 283 283 283 283 286 287 287 287 287 287 284 281 281 280 280 280 279 279
280 280 281 281 282 283 283 282 282 282 281 281 281 280 281 281 281 281 281 282 283 283 283 282 281 281 281 281 281 281 281 281 281 282 282 283 283 283 283 283 283 283 283 283 283 283 283 283 285 287 287 287 287 288 286 281 281 280 280 279 279 279
280 280 280 281 281 281 281 281 281 281 280 280 279 279 280 280 279 279 280 281 282 282 282 281 280 280 280 280 281 281 280 281 281 281 282 282 282 282 282 282 282 283 283 283 283 283 283 283 286 286 287 287 288 288 287 282 281 280 280 279 279 279
279 279 280 281 281 280 280 279 280 279 278 278 278 278 278 278 277 277 278 279 280 280 280 279 278 278 279 280 280 280 280 281 281 280 281 281 281 282 282 282 282 282 282 283 282 282 282 283 286 286 287 287 288 288 286 283 281 280 279 279 279 279
279 279 279 279 279 279 279 279 279 278 277 276 276 276 276 276 275 276 277 278 278 278 277 277 276 277 279 280 280 280 280 280 280 281 281 280 280 280 281 281 281 282 282 282 282 281 282 282 284 286 286 287 288 287 285 283 281 280 279 278 278 277
279 278 279 278 278 278 278 278 277 276 275 275 275 275 274 274 274 275 276 276 276 276 275 275 275 276 279 280 279 279 279 280 280 280 280 279 279 279 280 280 280 281 281 281 281 282 281 282 283 285 286 287 287 287 285 283 281 279 278 278 277 277
278 278 278 277 276 277 277 276 274 274 274 274 274 274 273 273 274 274 274 275 275 274 274 274 274 276 279 279 279 278 278 279 279 279 279 278 278 278 279 279 279 279 280 281 281 282 281 281 282 284 285 286 287 287 285 283 281 279 278 277 275 275
277 276 276 276 276 276 275 274 274 273 273 273 273 272 272 273 273 274 274 274 273 273 272 273 273 275 277 277 277 277 277 278 278 278 279 279 278 278 278 278 278 278 279 280 280 280 281 281 281 282 284 286 287 287 285 283 280 278 277 276 274 274
276 275 275 275 275 275 274 273 272 272 272 272 271 271 272 273 273 273 272 272 271 271 271 271 272 273 275 276 275 276 276 277 277 277 277 277 278 277 276 276 277 277 277 279 279 279 279 280 280 280 283 285 287 287 286 282 280 279 277 275 274 274
275 274 274 275 274 273 272 271 271 271 271 270 270 271 272 272 272 271 270 270 269 269 269 269 270 272 273 273 273 273 274 275 276 276 276 277 276 276 276 276 276 276 276 277 277 277 277 279 280 279 282 284 286 287 287 282 280 279 277 275 274 274
274 273 273 274 273 273 272 270 269 269 270 269 270 271 271 271 270 269 269 268 268 268 268 268 269 270 271 271 271 271 271 272 274 275 276 275 275 275 275 275 275 275 275 275 275 275 276 276 278 281 280 282 284 286 287 285 281 282 278 276 274 274
272 272 272 272 272 271 271 269 268 268 268 269 271 270 270 269 268 268 267 267 266 266 267 267 268 269 269 268 268 269 269 270 272 274 275 275 275 275 275 275 275 274 274 274 274 274 274 275 275 278 281 281 283 285 287 286 283 282 278 276 276 275
270 270 270 271 270 270 270 269 267 267 267 269 269 268 268 267 266 266 265 265 265 265 266 266 266 266 266 266 267 267 268 270 271 272 274 274 274 274 274 274 275 274 274 274 274 274 273 273 274 275 278 281 282 284 286 287 284 283 281 277 276 276
268 268 268 269 269 269 269 268 267 266 267 268 268 267 266 265 264 264 264 264 264 264 264 264 264 264 265 265 266 267 268 269 270 271 273 274 274 274 274 274 274 274 274 273 274 274 274 273 273 274 275 278 281 282 284 286 285 283 282 279 277 278
267 267 267 266 268 267 267 266 266 267 267 266 266 266 264 263 263 262 262 262 262 262 263 262 262 263 263 264 265 266 267 269 270 271 272 273 273 274 274 274 274 274 274 273 273 274 274 273 273 273 274 276 278 280 282 284 283 283 282 278 277 278
266 265 265 265 266 266 266 265 265 265 265 264 264 263 262 261 261 261 261 261 261 261 261 261 262 262 262 263 264 264 266 267 269 270 272 273 273 273 273 274 274 274 274 274 274 274 273 272 272 273 273 274 276 278 280 282 281 280 280 277 276 276
264 264 264 264 265 264 264 264 264 263 263 263 262 261 260 260 260 260 259 260 260 260 261 261 261 261 262 262 263 264 266 267 268 270 272 274 275 274 274 274 275 275 275 275 275 274 273 273 272 273 276 275 278 277 278 280 280 280 279 277 278 275
263 262 262 262 263 262 262 261 261 261 261 261 260 260 259 259 258 258 258 258 258 259 259 260 260 261 262 262 263 264 265 269 272 272 272 273 277 278 279 279 276 276 277 276 276 276 275 274 274 277 278 278 279 280 281 282 283 282 279 279 280 277
261 261 260 260 260 260 260 259 259 259 259 259 259 259 258 258 257 257 258 258 258 259 259 259 260 260 260 261 261 262 263 264 266 272 274 275 275 277 278 280 280 281 281 278 276 277 280 280 279 278 278 279 280 280 281 283 283 283 281 281 277 275
259 258 258 258 258 258 258 258 258 258 258 258 258 258 258 258 257 257 257 258 258 259 259 259 259 259 260 260 261 261 261 262 263 266 272 275 276 277 278 279 280 281 281 282 281 278 276 279 280 279 279 280 280 280 281 282 284 283 282 281 280 273
258 258 257 257 257 257 257 257 257 258 258 258 258 258 257 257 257 257 257 258 258 258 259 259 259 259 259 259 260 260 262 262 263 264 267 270 274 276 277 278 279 280 281 282 282 282 281 278 279 280 280 280 280 280 281 282 283 284 283 282 276 273
257 257 256 256 256 256 256 256 257 257 258 258 258 258 257 257 257 257 257 257 258 258 258 258 259 259 259 260 260 260 262 263 264 264 265 265 267 270 274 276 278 279 280 281 282 282 282 282 280 280 280 280 280 281 281 282 281 284 283 280 275 274
256 256 256 257 257 257 256 256 257 258 258 258 258 258 257 257 257 257 258 259 259 259 259 259 259 259 260 260 260 261 261 261 262 263 263 263 263 264 266 270 273 276 278 278 279 281 282 282 281 280 280 280 280 281 281 282 280 280 279 278 275 274
255 255 256 256 256 256 256 257 257 258 258 258 258 257 257 257 257 257 258 258 258 258 258 259 259 259 259 259 259 259 260 261 261 261 262 262 263 265 267 270 272 274 276 278 279 280 281 282 282 281 280 280 280 281 281 278 277 278 277 276 274 273

ECMWFFLT1_sfc_thetae_012.txt.gz
Theta_e
287 288 288 289 290 290 290 291 291 291 291 290 290 289 289 289 290 290 291 291 291 291 291 291 291 292 292 292 293 294 294 294 294 294 294 295 295 294 294 294 293 293 292 292 292 292 291 291 291 291 290 290 289 289 289 289 290 289 288 289 289 289
287 287 288 288 289 289 290 290 291 290 290 290 289 289 289 289 289 289 289 290 290 291 291 291 291 291 291 291 291 291 292 293 293 293 293 294 294 294 294 293 292 292 291 291 291 291 291 290 290 290 290 289 289 289 288 288 289 288 287 288 289 288
287 287 288 289 289 289 290 290 290 290 290 289 289 288 288 288 289 288 289 290 290 290 290 290 290 290 290 290 290 290 291 291 292 292 293 293 292 293 292 292 292 292 291 291 291 290 290 290 289 289 289 289 288 288 288 288 287 287 287 288 287 287
287 287 288 289 289 289 289 289 289 289 288 289 289 288 288 288 288 288 288 288 289 290 290 290 290 290 290 289 290 290 290 290 291 292 292 291 292 292 292 292 292 291 291 290 290 290 290 290 290 289 289 288 288 287 288 287 287 286 286 287 286 286
287 287 287 288 288 288 289 289 289 288 288 288 288 287 287 288 288 288 288 288 288 289 290 289 289 289 288 288 289 289 290 290 290 291 291 290 291 291 291 291 291 291 290 290 289 290 289 289 289 289 288 288 287 287 287 287 287 286 285 285 286 286
286 287 287 287 288 288 288 288 288 288 288 288 288 287 287 287 288 288 288 287 287 287 288 288 288 288 287 287 287 288 289 289 290 290 290 290 290 290 290 290 291 291 290 289 289 289 289 288 288 288 287 287 287 287 286 286 286 286 285 285 285 285
285 286 286 287 287 287 288 287 287 287 287 287 287 287 287 287 288 287 287 286 286 286 286 287 287 286 286 286 287 286 287 288 288 289 289 289 289 289 289 289 290 289 289 288 288 288 288 288 288 287 287 287 287 286 286 286 285 285 285 285 285 285
285 285 286 286 287 287 287 287 287 287 287 286 287 286 286 286 287 288 287 287 286 286 286 286 286 286 286 286 286 286 287 287 288 288 289 289 289 289 289 289 289 288 288 288 288 288 287 287 287 287 286 286 286 286 286 286 286 285 285 285 285 285
284 285 286 286 286 287 287 287 287 286 287 286 286 286 286 286 286 287 287 286 286 285 286 286 286 286 285 285 285 286 286 287 287 288 288 289 288 288 288 289 288 288 287 288 288 288 288 287 287 286 285 285 285 285 284 285 285 284 284 284 284 284
284 285 285 285 286 287 287 287 287 286 286 286 286 286 285 286 285 285 286 286 285 285 286 286 287 286 286 286 285 286 286 286 286 287 287 288 288 288 288 288 288 288 288 287 287 288 288 288 288 288 287 286 285 285 284 284 284 284 284 283 284 284
284 284 285 285 285 285 286 286 286 286 286 286 286 286 285 285 284 284 285 285 284 284 285 286 287 287 286 285 285 285 285 286 286 286 286 287 287 288 288 288 287 287 287 287 287 286 287 287 287 287 287 286 285 284 284 284 284 283 283 283 283 283
284 285 285 285 285 285 285 286 285 285 285 285 285 285 285 284 284 284 284 284 283 284 285 286 286 286 285 284 284 284 285 285 286 286 286 286 287 287 287 287 287 287 287 286 286 286 286 286 287 287 287 287 285 284 284 284 284 284 283 283 283 283
284 285 284 284 285 284 285 285 286 285 284 284 284 284 284 284 283 283 283 283 283 283 284 285 285 285 284 284 283 283 284 284 284 285 285 285 286 286 286 287 286 286 286 286 286 286 286 286 287 287 289 289 289 287 285 285 284 284 284 283 283 283
284 284 284 284 285 285 285 285 285 284 283 284 284 284 284 283 282 282 282 282 282 282 283 284 284 283 282 282 282 282 283 284 284 284 284 284 284 285 285 285 286 286 286 286 286 286 286 286 287 288 289 289 289 288 286 285 284 284 284 283 283 283
284 284 284 285 285 284 285 285 284 283 283 283 284 284 282 282 281 281 281 281 281 281 282 283 282 281 280 280 280 280 281 283 283 283 284 283 284 284 284 284 285 285 286 286 286 286 286 286 287 289 289 289 289 289 288 285 285 284 284 284 283 283
284 285 285 285 285 285 285 285 284 284 284 283 283 282 282 281 281 281 280 280 280 281 281 281 280 279 279 279 278 279 279 282 282 283 283 283 284 284 284 284 284 285 285 285 285 286 286 286 287 288 289 289 289 289 289 286 285 284 284 284 283 283
284 284 284 284 284 284 284 284 284 283 283 283 282 282 281 280 280 279 279 279 279 280 280 279 279 278 278 277 277 277 278 280 282 282 282 282 282 282 282 283 283 283 284 285 285 285 285 286 287 288 288 289 289 289 289 287 286 285 284 284 284 283
284 284 283 284 284 283 283 283 283 282 281 282 281 280 280 279 279 279 279 278 279 278 279 278 277 277 276 276 275 275 276 278 281 281 281 281 282 282 283 283 283 283 283 284 284 284 284 286 287 287 288 288 289 289 287 286 286 285 285 284 284 283
284 284 284 283 283 282 282 282 282 281 280 280 279 279 279 278 278 278 278 278 278 278 278 277 276 275 275 274 274 274 275 276 278 279 280 279 280 280 281 281 281 282 283 283 283 283 284 285 286 286 287 287 288 288 287 286 286 286 285 284 285 283
284 283 283 282 282 282 282 281 280 279 278 278 278 278 277 277 277 277 277 277 277 277 277 276 275 274 274 273 273 273 273 274 276 277 278 278 278 278 279 280 281 281 282 282 282 283 283 284 285 286 286 286 287 287 286 286 286 285 285 285 285 284
283 282 282 281 281 281 281 280 279 278 277 277 277 277 276 276 276 276 276 276 276 276 276 275 274 273 272 272 272 272 272 272 274 276 277 277 277 277 279 279 280 280 281 282 282 282 282 283 284 285 285 286 286 286 286 286 285 285 285 285 284 284
282 281 281 280 280 281 280 279 278 276 275 276 276 275 275 275 275 276 276 275 275 275 274 274 273 272 272 271 271 271 271 272 273 274 275 274 275 275 276 277 278 279 279 280 281 281 282 282 283 284 285 285 286 286 285 285 284 284 284 284 284 282
281 280 280 280 280 280 279 277 276 275 275 275 274 273 274 275 275 274 274 274 273 273 273 272 272 271 271 271 270 270 271 271 272 273 272 272 272 273 273 275 276 277 278 279 280 281 281 282 282 283 284 285 285 286 286 285 284 284 284 284 283 282
279 279 279 279 279 278 277 276 274 273 273 273 272 273 274 274 273 273 272 272 271 271 271 270 270 270 270 270 269 269 269 270 271 271 270 270 270 270 271 272 274 275 277 278 279 280 280 281 282 282 283 284 285 285 285 284 285 285 284 284 283 281
278 278 277 278 277 277 275 274 272 272 271 271 271 272 272 272 271 271 270 270 269 269 269 269 269 269 269 268 268 268 267 268 268 268 268 268 268 269 269 271 273 274 276 277 278 279 280 281 281 282 282 283 284 284 285 285 285 286 286 284 283 280
276 276 276 275 275 274 274 272 270 270 269 269 271 271 270 269 269 269 268 267 267 267 267 267 267 267 267 267 267 267 266 266 266 267 267 267 267 268 269 270 272 274 275 275 277 278 280 281 281 281 281 281 282 284 284 285 286 286 285 285 284 283
273 272 272 273 272 272 271 271 269 268 267 268 269 268 267 266 266 265 265 264 265 265 265 265 265 265 265 265 265 265 265 265 265 265 266 267 267 267 268 269 271 272 274 275 276 277 279 280 281 280 280 281 282 283 284 284 285 286 286 285 284 282
271 270 269 270 270 270 269 268 267 265 265 266 266 265 265 264 263 262 262 262 263 263 263 263 263 263 264 264 265 264 264 264 264 264 265 266 266 267 268 269 270 272 273 274 275 276 277 279 280 279 279 279 280 281 282 283 284 284 285 285 284 284
268 267 267 266 268 267 267 266 265 264 264 263 264 263 263 262 261 261 261 260 261 261 261 261 261 262 262 262 263 263 264 264 264 264 264 265 265 266 267 269 270 272 273 274 275 276 277 277 278 279 279 278 278 278 279 280 281 283 283 284 284 283
266 265 265 265 265 265 264 263 263 263 262 262 262 262 261 260 260 260 259 259 260 260 260 260 261 261 261 261 262 262 262 263 263 263 263 264 264 265 266 267 269 270 272 273 275 276 276 277 277 278 278 278 278 277 278 279 280 280 281 282 283 282
264 264 263 262 263 262 262 261 261 261 261 261 261 261 260 259 259 259 259 259 259 259 260 260 260 260 260 260 261 261 262 261 262 262 263 265 266 266 266 266 267 269 271 272 273 274 274 276 276 278 280 278 279 277 277 277 278 280 281 282 284 280
262 261 260 260 261 261 260 260 260 261 261 261 261 260 259 259 259 258 258 259 259 259 259 259 260 260 260 260 260 260 261 264 267 265 263 263 267 270 271 271 268 269 270 271 273 275 274 275 277 280 281 281 281 280 280 280 280 281 281 283 284 280
260 260 259 259 260 259 259 259 259 260 260 260 260 260 259 259 258 258 258 258 259 259 259 259 259 259 260 260 260 260 260 260 262 267 268 269 269 270 271 272 273 274 275 273 271 274 278 279 280 281 281 281 281 281 281 281 281 282 282 283 281 277
258 258 258 258 258 258 259 258 259 259 260 260 260 260 259 258 258 257 258 258 258 258 259 259 259 259 259 259 260 259 259 259 259 260 265 268 268 269 270 272 273 274 275 276 276 275 274 277 279 280 281 281 281 281 281 282 282 282 283 283 282 276
258 258 258 258 258 258 258 258 258 259 259 260 259 259 258 258 257 257 257 257 258 258 258 258 258 258 259 258 258 259 259 259 259 258 259 262 267 269 270 271 272 273 273 274 276 278 278 278 279 280 281 281 281 282 281 282 282 282 283 283 279 277
258 258 257 257 257 257 258 257 258 259 259 259 259 258 258 257 257 257 257 257 257 257 258 258 258 258 258 259 259 259 259 259 259 259 259 259 260 262 265 268 269 270 271 272 273 274 276 278 279 280 281 281 282 282 282 281 280 282 283 282 278 277
257 257 257 257 257 257 257 258 258 259 259 258 258 258 257 257 257 257 257 258 258 258 258 258 258 258 258 258 258 259 259 259 259 259 259 259 259 259 259 261 263 267 270 268 269 271 273 275 278 279 280 282 282 282 282 282 279 278 279 280 279 278
256 256 257 257 257 258 257 257 258 258 258 258 258 257 257 257 257 257 257 258 258 258 258 258 258 259 258 258 259 259 259 259 259 259 259 260 260 260 260 261 263 264 268 271 272 274 275 275 277 278 280 281 282 282 282 278 277 277 277 278 279 278

ECMWFFLT1_sfc_thetae_015.txt.gz
Theta_e
288 289 289 290 290 291 291 291 291 290 291 290 289 288 288 289 289 289 290 290 291 291 291 290 290 290 291 291 292 292 292 292 292 292 293 293 294 294 295 295 295 295 295 294 294 294 294 294 294 293 293 293 292 292 291 292 292 291 290 290 290 290
288 288 289 289 290 290 291 291 290 289 289 289 288 288 288 288 288 288 288 289 289 290 290 290 290 290 289 289 290 290 290 291 291 291 291 292 292 293 293 293 293 293 293 293 293 293 293 293 293 293 292 292 292 291 291 291 291 290 289 290 290 290
288 289 289 290 290 290 290 290 290 289 289 288 288 287 286 286 287 287 287 287 287 288 288 288 289 288 289 288 289 288 289 290 290 291 291 291 291 292 291 292 292 292 293 293 292 292 292 292 292 292 292 291 291 291 290 290 290 289 289 289 289 289
287 288 289 289 289 289 289 290 289 288 288 288 288 288 287 286 286 287 287 287 287 287 287 287 288 288 287 287 287 286 288 288 289 289 290 290 290 291 291 291 291 291 292 292 292 292 291 291 291 291 291 290 290 289 290 290 289 288 288 288 288 288
287 287 287 287 287 287 288 288 287 287 287 287 287 287 286 287 287 288 287 286 286 286 286 286 286 286 285 285 286 285 286 287 288 289 288 289 289 290 290 290 290 290 290 290 291 291 291 291 291 291 290 290 289 289 289 289 289 288 288 287 288 288
286 286 286 286 286 286 287 287 287 287 287 286 287 286 285 285 286 287 287 287 286 286 285 285 286 285 285 284 285 285 286 286 286 287 288 288 288 288 289 289 289 289 289 289 289 290 290 290 290 290 290 289 289 289 288 288 288 288 288 287 287 288
285 285 286 286 286 287 287 287 287 287 286 286 286 286 286 286 286 286 287 286 285 285 285 286 286 285 285 285 285 285 285 285 286 286 286 286 286 287 287 287 288 288 288 288 288 288 289 289 289 289 289 289 289 288 288 288 288 288 288 288 288 288
285 285 285 285 285 286 286 287 287 287 287 287 287 286 286 286 286 285 286 286 285 285 285 285 286 286 286 285 285 285 285 285 285 286 286 286 286 287 287 287 287 287 287 287 287 287 288 288 289 289 289 289 289 288 288 288 287 287 287 287 287 288
284 285 285 285 285 286 286 286 286 286 286 286 286 287 286 286 286 285 285 285 285 284 284 284 285 286 286 286 285 285 285 285 285 285 286 286 285 285 286 286 286 287 286 286 287 287 287 287 288 288 288 288 288 288 287 287 287 287 287 287 287 287
285 285 285 285 285 286 286 286 286 286 286 286 286 286 286 287 285 284 284 284 284 284 284 284 285 286 286 286 286 285 284 284 284 285 286 286 286 286 285 285 285 286 287 287 286 287 287 287 287 287 288 288 287 287 287 287 286 286 286 286 286 286
284 285 285 285 286 285 286 286 286 287 286 286 286 286 285 286 285 284 283 283 283 284 284 284 284 286 286 285 285 284 284 283 283 284 285 285 285 286 286 286 286 285 285 286 286 287 287 287 287 287 287 287 287 287 286 286 286 286 286 285 285 285
285 285 285 285 285 285 285 285 286 286 286 285 285 285 285 285 284 283 283 283 283 283 283 283 283 284 284 284 283 283 282 282 282 283 283 284 285 285 285 285 285 285 285 285 285 286 287 287 287 287 288 289 287 286 286 286 286 285 285 285 285 285
285 285 285 285 285 285 285 286 286 285 285 285 285 285 285 285 283 283 282 282 283 283 283 282 282 283 283 283 282 281 281 280 280 280 282 283 284 284 285 284 284 284 285 285 285 285 286 286 287 288 290 290 290 288 287 286 286 285 285 285 284 284
284 284 284 285 285 285 285 285 285 284 284 284 284 284 285 284 283 282 282 282 282 282 282 281 281 281 282 282 281 280 280 279 279 279 280 282 283 284 284 283 284 284 284 284 284 284 285 286 287 289 289 290 290 290 287 286 286 286 286 285 285 285
284 285 285 285 285 285 286 286 284 284 284 284 284 284 283 283 282 282 281 281 281 281 281 281 280 280 280 281 280 280 279 278 278 278 278 279 281 283 283 283 283 283 284 284 284 284 284 285 287 288 289 289 290 290 289 287 286 286 285 285 285 285
285 285 285 285 286 286 286 285 284 284 284 284 284 283 282 282 282 281 281 281 281 280 281 280 280 279 280 280 279 279 278 277 277 277 277 278 279 281 282 282 282 282 282 283 283 283 283 284 286 288 288 288 289 289 289 287 286 286 286 285 285 285
285 285 285 285 285 285 285 284 284 284 283 283 282 282 281 281 281 280 280 280 280 280 280 279 279 279 279 279 278 278 277 276 276 276 276 276 277 278 279 280 280 281 281 281 282 282 282 283 286 287 287 287 288 289 289 287 287 286 286 286 286 285
285 285 285 286 285 284 284 283 284 282 282 282 281 280 280 280 279 279 279 279 279 279 279 279 278 278 278 278 277 276 275 275 275 274 275 275 276 276 278 278 279 279 280 280 280 280 280 282 284 285 287 287 287 288 287 286 286 286 286 286 286 286
286 286 285 285 284 283 283 283 283 281 281 280 279 279 279 279 278 278 278 278 278 278 278 278 277 277 277 277 276 275 274 274 273 274 274 273 273 274 275 276 277 278 278 278 279 279 280 281 283 285 286 286 287 287 285 285 285 285 285 285 286 286
286 285 285 283 283 283 283 283 281 280 279 278 278 277 277 277 277 277 277 277 277 277 277 277 276 275 275 275 274 273 273 273 273 273 273 272 272 272 273 275 276 277 277 277 278 279 278 279 281 283 284 285 286 286 284 284 284 284 284 285 286 286
285 284 283 283 282 283 282 281 280 278 277 277 276 276 275 275 276 276 275 275 276 276 275 275 275 274 273 273 273 272 272 271 271 272 272 272 272 272 273 274 275 275 275 275 275 277 277 277 279 282 283 284 284 284 283 284 283 283 283 284 284 286
284 283 282 282 281 282 281 280 278 277 275 275 275 274 274 274 274 275 274 274 274 274 273 273 272 272 272 271 271 271 271 271 271 271 271 271 271 271 271 272 272 272 272 273 273 273 274 274 275 278 281 283 283 284 283 283 283 282 282 283 284 284
283 282 281 281 281 279 278 277 276 274 274 273 273 272 273 273 273 272 272 272 272 271 271 270 270 270 270 270 269 269 269 269 270 270 269 269 269 269 270 270 270 270 270 271 271 271 271 273 274 276 280 282 283 284 284 282 282 282 282 282 283 284
281 280 280 280 278 277 276 275 273 273 272 271 270 271 271 271 271 270 270 269 269 268 267 267 267 267 267 267 267 267 267 267 268 268 268 268 268 267 267 268 268 268 268 269 269 269 270 273 275 274 278 280 282 283 284 282 282 283 282 282 282 283
279 278 277 277 276 275 274 273 271 270 270 269 269 269 269 269 268 267 267 266 265 265 265 265 265 265 265 265 265 265 264 265 265 265 266 266 266 266 266 266 266 266 266 267 269 270 271 272 274 277 277 280 281 282 283 284 283 284 284 282 281 282
276 275 274 274 274 273 272 271 269 269 268 267 268 268 267 266 266 265 264 263 263 263 263 263 263 263 263 263 263 263 263 263 263 264 264 264 264 264 264 265 265 266 266 266 267 269 270 272 273 276 278 279 281 281 283 284 284 285 283 283 282 283
272 271 271 272 271 271 270 269 267 266 265 266 266 265 264 264 263 262 262 261 261 261 262 262 262 262 262 262 262 262 262 262 262 262 263 263 263 263 263 264 265 265 265 266 266 267 269 271 273 274 277 279 281 282 283 283 284 285 285 283 283 283
270 269 269 269 270 269 268 267 266 263 264 265 264 264 263 262 261 261 260 260 261 261 261 261 261 261 262 262 262 262 262 261 261 261 261 262 262 262 262 263 263 264 264 265 265 267 268 270 271 273 275 278 279 280 282 283 283 283 284 284 283 284
267 267 267 266 267 267 266 265 264 264 264 263 263 263 262 261 260 260 260 260 260 260 260 260 260 261 261 261 261 262 262 262 261 261 261 261 261 261 261 262 263 263 263 263 264 266 267 268 270 272 274 276 277 278 280 280 280 282 283 282 282 283
266 265 265 264 265 264 264 263 262 262 262 262 262 262 261 260 260 259 259 259 260 260 260 260 261 260 260 261 261 260 261 261 261 260 260 260 260 260 260 261 261 261 262 262 263 264 265 266 268 270 272 275 277 278 279 279 279 279 279 279 280 281
264 264 263 263 263 262 262 261 261 262 261 262 261 261 260 259 260 259 259 259 259 259 260 260 260 260 260 260 260 260 261 260 260 260 261 262 262 261 260 260 260 261 262 262 262 263 263 265 266 268 273 273 276 276 277 278 278 278 278 280 281 281
263 262 261 261 262 261 261 260 261 261 261 261 261 260 259 259 259 259 259 259 259 259 259 259 259 259 259 259 259 259 260 263 266 265 262 262 266 268 269 269 264 264 264 264 264 265 264 264 266 271 273 274 276 277 279 280 281 281 280 281 282 281
261 260 260 260 260 260 260 259 260 260 260 260 261 260 259 259 259 258 258 258 258 259 259 258 258 258 259 259 259 259 259 259 261 266 268 268 268 268 269 270 270 271 271 267 265 267 272 272 273 274 274 275 276 277 277 278 279 281 282 282 280 279
260 259 259 259 259 259 259 259 259 259 260 260 260 260 259 259 258 257 257 258 258 258 258 258 258 258 258 258 259 259 258 258 258 259 264 267 268 268 269 269 270 270 271 271 270 269 267 270 273 274 274 275 276 277 278 278 279 280 281 282 282 278
259 259 259 259 259 258 258 258 259 259 260 260 260 260 259 258 258 257 257 257 257 257 258 258 257 258 258 258 258 258 259 258 258 257 258 260 266 267 268 268 269 269 270 270 271 271 271 271 272 273 273 274 275 276 276 278 280 280 280 281 279 278
259 258 258 258 258 258 258 258 258 259 260 260 260 259 258 258 257 257 257 257 257 257 257 257 257 258 258 258 258 258 258 258 258 258 258 258 258 260 263 266 268 268 269 269 270 270 270 271 271 272 273 274 274 275 276 277 276 280 281 280 278 278
257 257 257 258 258 258 257 258 259 260 260 260 259 258 258 258 258 258 258 258 258 257 257 258 258 258 258 258 258 258 258 258 259 259 258 258 258 258 258 259 261 265 268 265 267 269 270 271 272 272 273 274 275 276 276 277 274 275 277 278 278 278
257 256 257 257 257 257 258 258 259 260 260 259 259 258 258 258 258 258 258 258 258 258 258 258 258 258 258 258 258 259 259 259 259 259 259 259 260 259 259 260 261 262 266 268 269 270 270 271 272 272 273 273 275 276 276 272 271 273 276 277 278 278

ECMWFFLT1_sfc_thetae_018.txt.gz
Theta_e
284 284 285 285 285 286 286 286 285 285 284 283 283 282 282 281 282 281 282 281 283 285 283 282 283 283 283 283 283 283 283 283 284 284 285 285 286 286 286 286 286 287 287 286 287 287 287 286 286 287 287 286 287 287 287 286 286 286 286 286 286 286
284 284 284 285 286 286 286 286 285 284 285 283 282 281 280 280 281 281 281 281 281 282 280 281 281 281 281 282 282 282 282 283 283 283 284 285 285 285 285 285 285 285 285 286 286 286 286 286 286 286 286 287 287 287 287 286 285 285 286 286 286 286
284 284 285 285 285 285 286 287 287 286 286 284 283 282 281 280 281 281 281 281 280 280 280 281 281 281 281 281 281 282 283 283 284 284 285 285 285 285 285 285 285 285 285 285 285 285 286 286 286 286 285 286 286 286 286 285 285 285 285 285 285 285
285 285 285 286 285 285 285 286 286 285 284 284 283 282 281 280 281 281 281 281 281 280 280 280 280 281 280 280 280 281 282 283 283 284 284 284 285 285 285 285 286 286 285 285 285 285 285 286 286 286 285 286 285 285 286 286 285 285 284 284 284 284
284 284 284 284 284 285 286 286 285 285 284 283 282 282 281 282 282 282 282 282 281 280 280 280 280 280 279 280 280 280 282 282 283 283 283 283 284 284 284 285 285 285 285 285 285 285 285 285 286 286 286 286 285 285 285 286 285 284 284 284 284 284
284 284 284 285 284 285 285 285 285 285 284 284 283 282 281 281 281 281 282 282 282 282 280 280 281 281 280 279 280 280 281 282 282 283 283 283 283 283 284 284 284 284 284 284 284 285 285 285 285 285 285 285 285 285 285 285 285 285 284 284 284 284
283 284 284 284 284 286 284 285 284 283 283 282 281 282 282 282 281 280 280 281 281 281 281 280 280 280 281 281 280 279 280 281 281 281 282 282 283 283 283 283 284 284 284 284 284 284 284 284 285 285 285 285 284 285 285 285 285 285 284 284 284 285
281 281 281 282 282 282 282 282 282 281 281 280 281 280 280 280 281 280 279 279 279 279 279 280 280 281 281 282 282 281 280 280 280 281 281 281 282 282 282 282 283 283 283 283 283 283 284 284 284 284 284 284 285 285 285 285 285 285 285 285 284 284
280 280 280 280 280 280 280 280 281 280 280 280 280 279 279 279 279 279 279 279 278 278 278 278 279 280 281 281 282 282 282 281 280 280 280 281 281 281 281 282 282 282 282 282 283 283 283 283 284 284 284 284 285 285 285 285 285 285 285 285 285 285
280 280 280 280 281 281 281 281 281 281 280 280 280 280 280 281 279 279 278 278 278 278 278 278 278 279 280 281 282 282 281 281 280 279 279 279 280 280 280 280 281 282 282 282 282 282 283 283 283 283 283 283 284 284 284 285 285 284 284 285 285 285
279 279 280 280 281 281 280 281 280 280 280 280 280 279 279 279 279 278 278 278 278 278 278 278 278 278 278 279 280 280 280 280 279 279 278 278 278 280 280 281 281 281 280 280 280 280 281 282 283 284 283 282 282 283 283 284 284 284 284 284 284 284
279 279 280 280 280 280 280 280 280 280 280 280 279 279 279 279 278 278 277 277 277 277 277 278 278 278 278 277 278 279 279 279 278 278 277 277 277 278 279 279 280 280 280 280 280 280 281 281 282 284 287 288 285 283 283 284 284 284 284 284 284 284
279 279 279 279 279 280 280 280 280 280 279 279 278 278 278 279 278 278 277 277 277 277 277 277 277 278 277 277 277 277 277 277 277 276 276 276 276 276 277 278 277 278 279 279 279 279 280 281 282 285 287 289 290 287 284 284 284 284 284 284 284 283
278 279 279 279 280 280 279 279 279 279 279 278 278 278 279 278 277 277 277 277 277 277 277 277 277 277 277 276 276 277 277 277 276 276 275 275 275 275 276 275 275 276 277 278 278 279 279 280 283 286 286 287 287 287 285 284 283 283 283 283 283 284
278 279 279 279 280 280 280 280 279 279 279 278 279 278 278 277 277 277 277 277 277 277 277 277 276 276 276 276 276 276 276 275 275 275 274 274 274 275 274 274 274 275 275 276 277 277 278 279 283 284 285 286 286 287 286 284 283 282 283 283 283 283
279 280 280 280 280 280 280 280 280 279 279 279 278 277 277 276 276 276 277 277 276 276 276 276 275 276 276 276 275 275 275 275 274 274 274 274 274 273 273 273 273 274 274 275 275 276 276 277 281 283 284 285 285 286 285 283 282 282 282 282 283 283
280 280 279 279 280 280 281 280 279 279 278 278 277 276 275 275 276 276 276 276 276 276 275 275 275 275 275 275 275 274 274 274 274 274 274 273 273 272 272 272 272 273 273 273 274 274 275 276 281 282 283 284 285 285 285 283 282 282 282 282 283 283
280 280 280 281 280 280 279 278 278 278 277 276 275 275 275 274 275 275 275 275 275 275 275 274 274 274 274 274 273 273 273 273 273 273 273 273 272 272 272 272 272 272 272 272 273 273 273 275 279 281 282 283 284 285 283 282 281 281 281 281 282 282
281 281 280 279 279 278 278 278 276 276 275 275 275 273 273 273 273 273 274 274 274 274 274 274 273 273 272 272 271 271 271 271 271 271 272 271 271 271 271 271 271 271 271 271 271 271 272 273 277 279 280 281 282 282 281 281 281 281 280 280 281 281
279 279 279 279 278 278 277 276 275 275 274 273 273 271 272 271 271 272 272 272 272 272 272 272 271 271 270 270 269 269 269 270 270 270 270 270 269 269 269 270 269 270 270 270 270 271 271 272 275 278 279 280 281 281 278 278 278 278 279 279 280 280
279 279 278 277 276 276 275 274 274 273 271 272 271 271 270 270 271 271 270 270 270 270 270 270 269 269 268 267 267 267 267 267 267 268 268 268 268 268 268 269 268 269 269 270 270 272 271 271 273 276 278 279 280 279 277 276 276 277 278 278 279 280
278 277 276 275 274 274 273 273 272 270 271 270 270 269 269 269 270 269 269 269 269 268 268 267 267 266 266 265 265 265 265 266 266 266 266 266 266 266 266 267 267 266 267 268 268 268 269 269 270 272 276 277 278 279 276 275 274 273 274 276 277 277
277 276 275 274 273 273 272 271 270 269 269 269 268 268 268 269 268 268 267 267 266 266 265 265 264 263 263 264 263 264 264 264 264 264 263 263 264 264 264 264 264 264 265 266 266 267 267 268 268 269 274 276 277 277 277 273 273 273 273 274 275 276
275 274 273 273 272 272 270 268 267 268 268 267 266 267 268 267 266 266 265 264 264 263 263 262 262 263 262 262 262 262 262 262 263 262 262 262 262 262 262 262 262 263 263 264 264 265 265 267 270 268 271 274 275 276 277 273 272 273 273 273 274 276
273 272 271 271 270 270 268 266 265 265 266 265 266 266 266 265 265 264 263 262 262 261 261 261 261 261 261 261 261 261 261 261 261 261 261 261 261 260 260 261 261 261 261 262 263 264 265 265 267 270 269 272 274 275 276 276 275 277 275 274 274 274
270 270 269 269 268 267 267 265 264 264 264 264 265 265 264 263 262 262 261 261 260 260 260 260 260 261 261 260 261 260 260 260 260 260 260 260 260 260 260 260 260 260 260 261 261 263 264 265 266 269 271 270 272 274 275 275 276 277 275 275 275 276
267 267 266 267 266 266 264 263 262 262 262 263 264 263 262 261 261 260 259 259 259 259 259 260 260 260 260 260 260 259 260 259 260 259 260 260 259 259 259 259 260 259 260 260 260 261 262 264 265 266 268 271 271 272 273 274 276 277 278 275 276 278
265 264 264 265 265 264 264 262 261 260 261 263 262 262 261 260 259 259 258 258 259 259 259 259 259 259 260 260 260 260 260 259 259 259 259 259 259 259 259 259 259 259 259 259 260 260 261 262 263 263 264 266 267 268 270 272 273 274 276 278 277 280
263 263 262 262 263 262 261 260 260 261 261 261 261 261 260 259 258 258 258 258 258 259 259 258 258 259 259 259 260 260 260 260 259 259 259 259 258 258 258 259 259 259 259 259 259 259 260 261 261 262 262 263 264 264 266 268 269 272 273 273 275 279
262 262 261 262 262 261 260 260 259 259 260 260 260 259 259 258 258 258 258 258 258 258 258 258 259 259 259 259 259 258 258 259 259 258 258 258 258 258 258 258 258 259 259 259 259 260 260 260 260 261 261 262 264 264 266 266 267 268 269 270 272 274
261 260 260 260 260 260 259 258 258 258 259 260 259 259 258 258 258 258 257 258 258 258 259 258 258 258 258 258 258 258 258 258 258 258 259 260 260 260 259 260 260 261 262 261 261 261 261 261 262 263 267 266 269 267 267 267 268 268 269 272 275 273
260 259 259 259 260 259 258 257 258 258 259 259 258 258 257 257 258 257 257 258 257 258 258 258 257 257 257 257 257 257 257 261 265 264 261 261 266 268 270 269 264 264 265 264 265 265 264 263 265 270 272 273 273 274 274 274 274 275 273 275 277 275
258 258 258 258 258 258 257 257 257 258 258 258 258 258 257 257 257 257 257 257 257 257 258 257 257 257 257 257 257 257 257 257 259 265 267 267 267 268 269 270 271 271 271 267 265 267 271 272 272 273 272 273 273 273 274 274 274 275 275 276 273 271
258 257 258 257 257 256 256 256 257 257 257 258 258 258 257 257 257 257 257 257 257 257 257 257 257 257 257 257 257 257 256 256 256 257 263 266 267 268 269 269 270 270 270 271 269 268 266 269 271 272 272 272 273 273 273 274 274 275 275 276 276 271
258 258 257 257 256 256 256 256 256 257 257 258 258 258 257 257 257 257 257 257 257 257 257 257 257 257 257 256 256 256 257 256 256 256 256 259 265 267 267 268 269 270 270 270 271 271 270 270 271 272 272 272 272 273 273 274 274 275 276 276 272 270
258 258 257 256 255 255 256 256 256 257 257 257 258 258 257 257 257 257 257 257 257 257 257 257 257 257 257 257 257 257 257 257 257 257 257 257 257 259 262 266 267 268 269 269 270 270 270 271 271 271 272 272 273 273 274 274 272 275 276 274 270 270
257 256 256 257 256 256 255 256 257 257 258 258 257 257 257 257 257 257 257 258 258 257 257 257 257 257 257 257 257 257 257 257 258 258 258 257 257 257 257 258 259 264 268 265 267 269 271 271 271 272 272 273 273 274 274 274 270 269 270 270 271 271
256 255 256 256 255 255 255 256 257 258 258 257 257 257 257 257 257 257 257 257 257 257 257 257 257 257 257 257 257 258 258 259 259 258 258 258 258 258 258 258 259 260 264 268 269 270 270 271 271 272 272 273 273 274 274 269 268 268 269 269 270 270

ECMWFFLT1_sfc_thetae_021.txt.gz
Theta_e
282 282 283 283 283 283 282 282 283 282 281 280 280 280 280 280 281 280 280 279 281 282 280 281 280 279 279 279 279 279 280 280 281 280 281 282 282 282 282 283 283 282 283 283 283 283 284 284 284 284 285 284 285 285 286 286 285 285 285 286 285 286
282 282 283 283 283 283 282 282 281 281 281 281 280 279 279 279 280 279 280 280 279 280 279 279 280 280 280 279 279 278 278 279 279 279 280 281 281 281 281 282 283 284 284 284 283 283 284 284 284 284 284 284 284 284 285 285 284 284 285 285 285 285
281 282 282 282 282 282 282 281 282 282 281 280 280 280 280 279 280 279 279 280 281 280 280 279 279 279 279 278 279 278 278 278 279 279 279 279 280 280 281 281 282 283 283 284 284 284 284 284 284 285 285 284 284 284 284 284 284 284 284 284 284 285
282 281 282 281 282 283 283 283 282 281 281 281 281 280 280 280 280 280 279 279 279 278 277 277 278 278 279 278 278 277 278 278 278 278 278 278 279 279 280 280 281 281 282 282 283 283 284 284 284 284 284 284 284 284 285 285 284 284 284 284 284 285
281 281 281 281 281 281 281 282 282 281 281 281 280 280 279 280 281 280 280 279 279 278 278 277 277 277 277 278 279 278 278 277 278 278 278 278 279 279 279 280 280 280 280 280 281 282 282 283 283 284 284 284 284 284 284 285 284 284 284 284 284 285
279 279 279 280 280 280 281 280 280 281 281 281 279 279 279 279 279 278 278 278 277 277 277 276 277 277 277 277 278 278 278 278 278 278 278 278 278 278 279 279 279 280 279 280 280 280 280 281 282 282 283 283 283 284 284 284 284 284 284 284 284 284
279 279 279 279 279 280 280 280 280 280 280 279 280 280 278 278 278 278 277 277 276 276 276 276 276 276 276 276 277 277 278 278 278 278 277 277 277 278 278 278 278 279 279 279 279 280 280 280 281 281 281 282 283 283 283 283 284 284 284 284 284 285
278 278 278 278 278 279 279 279 279 279 279 279 279 279 279 279 278 277 277 276 277 277 276 276 277 277 277 277 277 277 277 278 277 277 277 277 277 277 277 277 278 278 278 279 279 280 280 280 280 280 280 281 282 282 283 283 283 283 284 284 284 284
278 278 277 278 278 277 278 278 278 278 278 278 278 277 278 278 278 278 277 276 276 277 277 277 277 277 277 277 277 277 278 277 277 277 277 277 276 276 276 276 277 277 278 278 279 279 280 280 280 280 280 280 281 281 282 282 283 283 283 283 283 284
277 277 278 278 278 278 278 278 279 280 280 280 279 278 278 279 278 278 278 277 277 276 277 276 276 277 277 277 277 277 277 277 277 277 277 276 276 276 276 276 276 276 277 277 278 278 279 279 279 279 279 280 280 280 281 281 282 282 283 283 283 283
278 278 278 278 278 278 279 279 278 278 278 278 277 278 279 278 278 277 277 277 276 276 276 276 276 276 276 276 276 277 277 277 277 277 277 277 276 277 276 276 276 276 276 276 276 277 277 278 278 279 280 280 280 280 280 280 281 281 282 282 282 283
278 278 278 278 278 278 278 278 278 278 279 279 278 278 278 278 277 277 276 276 276 277 277 277 277 277 276 277 277 277 277 277 277 277 276 276 276 276 276 276 276 275 275 275 275 275 276 276 277 280 282 283 282 281 281 281 281 281 282 282 282 282
278 278 278 278 279 279 279 279 279 279 278 278 277 278 277 278 277 276 275 276 276 276 277 277 277 277 277 277 277 277 276 277 277 276 276 276 276 276 275 275 275 275 275 274 274 274 275 275 276 280 282 283 284 282 281 281 281 281 281 281 281 281
278 278 278 279 279 279 279 279 279 278 279 277 277 277 277 276 275 276 276 275 276 276 276 277 276 276 277 276 276 276 275 275 275 275 275 275 275 275 275 275 275 275 274 274 274 274 274 274 278 280 281 281 282 282 281 281 281 281 281 281 280 281
278 279 279 278 279 279 279 280 278 278 277 277 277 276 275 275 275 275 275 275 275 275 276 275 275 275 275 275 275 274 274 274 274 274 274 273 273 274 273 274 274 274 274 274 273 273 273 273 277 279 280 280 281 282 281 279 280 280 280 280 280 280
278 279 279 279 279 279 279 277 277 277 276 277 275 274 275 274 274 274 274 274 274 274 274 274 273 273 273 273 273 273 273 272 272 272 272 272 273 272 272 272 272 272 272 273 272 272 273 273 276 278 279 280 281 281 281 278 278 279 279 280 280 280
277 277 276 277 277 278 278 278 278 277 276 274 274 274 274 274 273 273 274 274 274 273 272 273 272 271 271 271 271 271 270 270 271 271 271 271 271 271 270 270 270 271 271 271 272 271 271 272 276 278 278 279 280 281 280 277 277 277 278 278 279 279
277 277 277 278 278 277 277 276 276 275 274 274 273 273 272 272 272 272 272 271 272 271 272 270 270 269 269 269 269 269 269 269 269 268 269 269 269 269 269 269 270 269 269 270 270 270 269 270 275 276 277 278 279 279 276 275 275 275 275 276 277 278
277 277 278 277 276 276 275 274 274 274 272 272 272 270 270 270 269 270 270 270 270 269 269 269 268 268 267 267 267 267 266 267 267 267 267 266 266 266 266 267 267 268 268 267 268 267 268 268 272 275 276 276 277 276 273 273 273 273 273 274 275 276
277 277 277 275 274 274 273 273 273 271 271 270 270 268 269 267 268 269 268 268 267 267 267 267 266 266 266 265 264 264 265 265 265 264 265 264 264 264 265 265 265 266 266 266 266 266 266 266 270 273 273 274 275 274 271 271 271 271 272 272 274 274
277 276 275 274 273 272 272 271 270 270 269 269 269 268 267 267 268 267 266 267 267 266 265 265 264 264 264 263 263 263 263 263 263 263 264 263 263 263 264 264 263 263 264 264 264 267 266 264 266 270 271 272 273 271 270 270 270 270 270 271 272 273
276 274 273 272 272 271 270 269 269 267 268 268 268 266 265 267 266 266 266 265 265 264 263 263 263 262 262 262 262 262 262 262 262 262 262 262 262 262 262 262 262 262 262 263 263 263 263 263 264 266 270 271 272 273 270 269 269 268 269 270 270 270
275 273 272 271 271 270 269 268 267 266 266 267 266 264 266 266 265 265 264 264 263 262 262 261 261 261 261 261 261 261 261 261 261 261 261 261 261 261 261 260 261 261 261 262 262 262 263 263 263 264 270 271 271 272 271 268 269 269 269 269 270 270
272 271 270 269 269 268 267 265 265 265 265 264 263 264 265 264 264 263 261 261 261 260 260 259 260 260 260 260 260 260 260 260 261 260 260 260 260 259 259 260 260 260 260 261 261 261 262 264 266 264 267 270 271 271 272 268 268 269 269 268 269 269
270 269 268 268 267 267 266 263 263 262 263 262 263 264 263 263 262 261 261 260 259 259 259 259 259 259 259 259 259 259 259 259 259 259 260 259 259 259 258 259 259 259 259 260 260 261 261 262 263 267 265 269 270 271 272 272 271 272 270 268 267 267
268 267 267 267 266 264 264 262 261 261 261 262 263 263 261 260 260 260 259 258 258 258 258 258 258 258 258 258 259 258 258 258 259 259 259 259 259 258 258 258 259 258 258 258 259 260 261 261 262 265 268 267 270 271 272 272 273 273 269 268 267 267
266 265 265 265 263 264 262 261 260 260 260 262 261 260 260 259 258 258 257 257 257 257 258 258 258 258 258 258 258 258 258 258 258 258 258 258 258 258 257 257 258 257 257 258 258 259 260 260 261 261 264 268 269 271 272 272 272 272 272 268 267 268
262 262 263 263 262 262 262 260 260 258 260 261 260 259 259 258 257 257 257 257 257 257 257 257 258 258 258 258 258 258 258 258 258 258 258 258 257 257 257 257 257 257 257 257 258 258 259 260 261 261 262 264 266 267 269 271 272 271 272 271 269 272
261 261 261 261 261 260 260 259 259 260 260 258 260 259 257 256 256 257 257 256 257 257 257 257 257 258 258 258 258 258 258 258 258 257 257 257 257 256 257 257 257 257 257 258 258 259 260 261 262 262 263 263 263 263 264 265 265 269 270 267 266 268
261 260 260 260 261 260 259 258 257 258 257 257 258 256 255 256 256 256 256 256 256 257 257 257 258 258 257 257 257 257 257 257 257 257 257 256 257 256 257 257 258 258 259 260 260 261 262 262 263 263 264 264 264 264 265 265 265 265 265 265 266 266
260 259 259 259 260 258 257 257 258 257 258 258 257 256 255 256 256 256 255 256 256 256 257 257 257 257 257 257 257 257 257 257 257 257 258 259 260 260 260 260 262 263 263 263 263 263 263 263 264 265 269 268 271 269 269 268 268 268 267 269 271 269
259 258 258 258 259 257 256 256 258 258 258 257 256 255 255 256 256 255 255 256 256 256 257 257 257 256 256 256 256 256 257 260 265 263 261 261 265 268 269 269 265 265 265 265 266 266 264 264 265 271 273 273 273 273 273 273 274 275 272 273 275 273
259 258 256 257 257 256 255 256 257 256 257 257 257 256 255 255 255 256 256 256 256 257 257 257 256 256 256 256 257 256 256 256 258 264 266 267 267 268 269 270 271 271 271 267 265 267 271 272 272 273 273 273 273 273 273 274 275 275 275 276 272 270
257 257 256 256 256 255 255 255 256 256 256 256 255 255 255 254 255 255 256 256 256 257 257 257 256 256 256 256 257 256 256 256 256 257 263 266 267 268 269 269 270 270 271 271 270 268 266 269 272 272 272 272 273 273 274 275 275 275 275 276 276 270
257 257 256 255 255 255 255 255 256 256 256 256 255 255 254 254 255 255 255 256 256 257 257 257 256 256 256 256 256 256 256 256 256 255 256 259 265 267 268 268 269 269 270 270 271 271 270 271 271 272 271 272 273 274 274 275 275 275 275 275 271 269
256 256 255 254 254 254 254 255 255 256 256 255 255 255 254 254 254 255 255 256 256 256 256 256 256 256 256 256 256 256 256 256 256 256 256 257 257 259 262 266 267 268 269 269 270 270 271 271 272 272 273 273 273 274 274 275 272 275 276 274 270 269
255 254 255 256 256 255 254 255 255 255 255 255 254 254 254 254 255 255 256 257 257 256 256 256 256 256 256 256 256 256 256 257 257 258 257 257 256 256 257 257 259 264 268 265 267 269 271 271 271 272 272 273 273 274 274 274 270 268 269 269 269 269
254 254 255 255 254 253 254 255 255 256 255 254 253 253 253 255 255 255 255 256 256 256 256 256 256 256 256 256 256 257 258 258 258 257 257 257 257 257 257 258 259 260 264 268 269 269 270 270 271 272 273 273 273 274 274 268 267 267 267 268 269 269

ECMWFFLT1_sfc_thetae_024.txt.gz
Theta_e
282 282 283 283 282 282 282 282 282 282 281 280 280 279 279 279 280 279 279 279 280 280 278 278 279 278 278 278 278 278 278 278 278 278 279 279 280 280 280 280 280 280 280 280 280 280 280 279 280 280 281 281 282 282 282 282 282 282 283 284 284 284
283 283 283 283 283 283 283 283 282 281 280 280 279 279 278 278 278 278 279 279 278 278 278 277 277 278 278 277 277 278 277 277 278 278 278 279 279 278 278 278 278 279 279 279 280 280 280 280 280 280 280 280 280 281 281 282 283 283 283 283 283 284
283 283 283 284 283 283 282 280 280 280 279 278 278 278 278 278 278 278 278 278 277 277 276 277 277 277 277 277 277 277 277 277 278 277 277 277 278 278 278 278 278 278 278 278 279 279 279 279 280 280 280 280 280 280 280 281 281 281 282 283 284 284
280 281 281 281 281 281 280 280 279 279 278 278 278 278 278 278 278 278 277 277 277 276 276 276 276 276 276 276 276 277 277 277 277 277 277 277 277 277 277 277 278 278 278 278 278 278 278 278 279 279 279 279 279 279 281 281 280 280 280 281 281 283
282 282 282 282 282 282 281 280 279 279 278 278 278 278 279 278 278 277 277 277 276 276 276 275 276 275 275 275 276 276 277 277 277 277 277 277 277 276 276 276 276 277 277 277 277 277 278 278 278 278 278 278 279 279 279 280 279 279 280 280 280 281
281 281 280 280 279 279 280 280 279 279 279 278 277 278 278 277 277 277 277 276 276 276 276 276 275 275 275 275 275 275 276 276 277 277 277 277 277 277 277 276 276 276 276 276 276 276 276 277 277 278 278 278 278 278 279 279 279 279 279 280 280 280
279 279 279 279 279 279 279 280 279 279 279 278 278 279 278 277 277 276 276 275 276 276 275 276 275 275 275 275 275 275 275 276 276 276 276 276 276 276 276 276 275 276 275 276 276 276 276 276 277 277 277 277 278 278 278 278 279 279 279 280 280 281
278 278 279 279 279 279 279 279 279 278 278 277 277 277 278 277 276 276 276 275 276 276 276 276 276 276 275 275 275 275 275 275 275 275 275 275 276 275 275 275 275 275 275 275 275 275 275 276 276 276 276 276 277 277 277 278 278 278 279 279 280 280
278 279 278 279 278 278 278 279 279 278 278 278 277 277 276 277 277 276 275 275 276 276 276 275 275 275 275 276 276 276 275 275 275 275 275 275 275 275 275 275 275 275 275 275 275 275 275 275 275 276 275 276 276 276 276 277 277 277 278 279 279 279
278 278 278 278 278 278 278 278 279 279 278 278 278 277 277 278 277 276 276 276 277 276 276 276 275 275 276 276 276 276 276 276 276 275 275 275 275 275 275 275 275 276 275 275 275 275 275 275 275 274 275 275 275 275 276 276 277 277 278 278 278 279
278 278 277 277 277 277 278 278 278 278 278 278 278 278 278 277 276 276 276 275 276 276 276 275 276 276 275 275 275 275 275 275 275 275 275 275 275 276 275 276 275 275 275 275 275 275 275 275 274 275 275 275 275 276 276 276 277 277 277 278 278 279
278 278 277 277 277 278 278 278 278 278 279 279 278 278 277 276 276 276 275 275 275 275 275 275 275 275 275 274 275 275 275 275 275 275 275 275 275 275 275 275 275 275 274 274 274 274 274 274 274 276 279 280 278 277 277 277 277 277 276 276 277 277
277 277 277 278 278 278 279 279 279 279 279 279 278 278 277 277 276 275 274 275 275 275 275 274 274 274 274 274 274 273 273 274 273 273 273 273 273 273 273 274 273 273 273 273 273 273 273 273 274 277 279 280 281 278 277 276 276 276 276 276 276 276
277 277 277 278 278 278 278 279 279 279 279 278 278 276 275 275 274 274 274 274 274 274 274 274 274 274 273 273 272 272 271 271 271 271 271 271 271 271 272 271 271 272 272 272 272 272 272 272 275 277 278 279 280 280 277 276 276 276 276 276 276 276
278 278 278 278 279 278 279 279 279 279 279 278 276 275 275 274 273 273 273 273 273 273 273 273 272 271 271 271 270 270 269 269 269 269 269 269 270 270 270 270 270 270 270 270 270 270 270 271 274 276 277 278 278 279 278 275 275 275 274 275 275 275
278 278 279 279 279 279 279 278 279 278 276 275 274 274 273 273 273 272 272 271 271 271 271 271 269 269 268 268 268 268 268 268 267 268 268 268 268 268 268 268 268 268 268 268 268 268 269 269 272 275 276 276 277 277 277 274 274 274 274 274 274 274
278 278 277 277 278 277 277 277 276 275 274 274 274 272 272 271 271 270 271 270 270 269 268 269 267 266 267 266 266 266 266 266 266 267 267 267 267 266 266 266 265 266 266 266 266 266 266 267 272 274 274 275 275 276 275 272 272 271 271 271 272 272
277 278 278 278 277 277 276 276 275 275 273 272 272 270 270 269 269 269 269 268 268 268 268 266 265 265 265 266 265 265 265 265 265 264 265 265 265 265 265 265 265 264 264 265 265 265 264 265 271 272 272 273 274 275 271 270 269 268 268 268 269 269
277 277 276 276 276 275 274 274 274 273 271 270 269 268 268 268 267 268 268 268 267 266 266 266 265 264 264 264 263 263 263 263 263 263 263 263 263 263 263 263 263 264 263 263 263 263 263 264 267 270 272 272 273 272 268 268 268 267 267 267 268 269
276 276 277 275 274 273 273 272 272 271 269 268 268 266 267 266 267 267 266 266 264 265 265 264 262 263 262 262 261 261 262 262 262 262 262 262 261 261 262 262 262 262 263 262 262 262 262 263 266 270 271 271 272 271 268 267 266 266 266 267 268 269
276 276 274 274 272 272 270 269 269 269 268 267 267 266 265 266 266 265 264 265 264 264 263 262 262 261 261 260 261 261 260 261 261 261 261 261 261 261 261 261 261 261 261 261 262 265 264 262 264 268 269 270 271 269 267 267 267 266 266 267 267 268
274 273 273 272 271 269 268 267 268 266 266 266 266 265 264 265 265 264 264 264 263 262 261 260 260 260 260 260 260 260 260 260 260 260 260 260 260 260 260 260 260 260 260 261 261 261 261 261 261 263 269 270 271 271 268 267 266 265 266 266 266 266
275 274 271 270 269 268 267 266 266 266 265 265 264 264 265 264 264 263 263 262 261 260 260 259 259 259 259 259 259 260 260 260 260 260 259 259 259 259 259 259 259 259 259 260 260 260 261 261 261 262 268 270 271 271 270 267 266 266 266 266 266 266
270 269 269 268 267 266 265 265 265 264 264 263 262 263 264 263 263 262 260 260 259 259 258 257 258 258 258 258 258 258 258 259 259 259 259 259 259 258 258 258 259 258 259 259 260 260 260 262 265 262 266 269 270 271 272 268 267 268 267 266 266 267
269 268 267 267 266 266 265 262 262 262 262 261 262 263 262 262 261 260 259 258 258 257 257 257 257 257 257 257 258 257 257 258 258 258 258 258 258 258 257 257 258 258 258 258 259 259 260 260 261 266 264 268 270 271 272 272 271 273 270 268 267 267
268 267 266 266 265 263 263 261 261 260 260 261 263 262 260 259 259 258 257 256 256 256 256 256 256 257 256 257 257 256 256 257 257 257 257 258 257 257 257 257 257 257 257 257 257 258 259 260 261 264 267 267 270 271 272 273 273 273 270 269 268 268
267 266 264 264 263 262 260 259 259 260 258 261 261 260 259 258 257 256 255 255 255 255 255 255 255 255 255 256 256 256 256 257 256 256 257 257 257 257 256 256 256 256 256 256 257 258 259 260 261 261 264 268 270 271 272 273 273 274 274 269 269 269
264 264 263 263 262 262 260 259 259 257 259 260 260 259 258 256 254 254 254 254 254 254 254 255 255 255 256 256 256 256 256 256 257 256 257 256 256 256 256 256 256 256 256 257 258 259 260 261 261 262 262 265 267 268 270 272 273 273 273 273 271 273
263 262 261 261 260 259 259 257 258 259 259 257 259 258 256 254 254 254 254 254 254 254 254 254 255 256 256 254 256 256 256 257 256 256 256 256 256 256 256 256 256 257 258 258 259 260 261 262 263 264 264 265 265 265 266 267 267 270 272 269 268 270
262 261 260 261 261 259 258 257 257 257 256 256 257 255 254 254 254 254 253 253 253 254 254 254 257 257 256 255 255 255 256 256 256 256 256 256 256 256 257 257 258 259 259 259 260 262 263 264 265 265 265 265 266 266 267 267 267 266 266 265 266 266
260 259 259 259 260 258 256 255 255 255 256 258 256 254 253 253 254 254 252 253 254 254 255 255 255 255 255 255 255 255 256 256 256 256 257 259 259 259 259 260 262 263 263 264 264 264 264 264 265 265 270 269 272 270 269 269 269 269 269 270 273 269
258 258 258 258 258 256 255 255 255 255 257 255 254 253 252 253 253 251 252 254 253 254 254 255 254 254 255 255 255 255 255 260 264 263 261 261 265 268 270 270 265 266 266 266 267 267 265 265 267 272 273 273 273 273 275 275 275 275 273 275 277 275
258 256 256 257 256 255 255 255 255 254 254 255 256 254 253 252 253 253 254 254 253 255 256 255 255 255 254 255 255 255 255 255 257 263 266 267 267 268 269 270 271 271 271 268 266 268 272 272 273 273 273 274 273 273 274 275 275 276 276 276 273 271
256 256 256 255 255 254 254 254 255 254 254 254 254 253 252 252 252 253 254 254 254 255 256 255 255 255 255 255 255 255 255 255 255 256 262 266 267 268 269 269 270 270 270 271 270 268 267 269 272 273 273 273 274 274 273 274 275 276 276 276 275 270
257 256 255 254 254 253 253 254 255 254 254 254 253 253 252 251 252 253 253 254 254 255 256 256 255 255 255 254 254 255 255 255 255 254 255 258 265 267 267 268 268 268 269 269 270 270 270 271 271 272 273 273 273 274 274 274 274 275 275 275 270 267
255 255 254 253 253 253 253 254 254 254 254 252 252 252 251 252 252 252 253 254 254 254 254 254 254 254 255 255 255 255 255 255 255 255 256 256 256 257 261 265 267 267 268 268 269 269 270 270 271 271 272 272 273 273 274 273 270 272 273 271 267 266
254 253 254 255 254 254 253 254 254 253 253 252 251 251 250 251 253 252 254 256 256 253 254 254 255 255 254 255 255 255 255 256 257 257 256 255 255 255 255 256 258 263 267 265 266 268 269 269 270 270 271 272 272 272 272 270 264 264 265 266 266 266
254 253 253 253 253 252 253 254 254 254 253 251 250 250 251 252 253 253 254 254 255 254 254 255 254 255 255 255 255 256 257 257 256 256 256 256 256 256 256 256 257 258 263 267 267 267 268 269 269 270 271 271 270 270 269 261 261 261 262 263 263 264

ECMWFFLT1_sfc_thetae_027.txt.gz
Theta_e
282 281 281 280 280 281 280 281 281 281 280 280 280 280 280 280 280 279 278 278 279 279 278 278 278 278 278 278 277 277 278 277 278 277 277 278 278 278 277 277 277 277 277 276 276 276 276 276 277 277 278 278 278 278 278 279 279 279 279 280 280 281
282 282 281 281 282 282 282 282 281 281 281 281 280 280 279 279 279 280 279 279 279 279 278 277 277 277 276 276 276 276 276 276 277 277 277 278 278 277 277 276 276 277 277 277 277 276 276 276 276 277 277 277 277 277 277 278 278 278 278 278 279 280
283 283 283 283 282 282 281 280 280 280 280 279 279 278 278 277 277 277 277 276 276 276 276 276 276 276 276 275 276 276 276 276 277 276 276 276 276 276 276 276 276 276 276 276 276 276 276 276 276 277 276 276 276 276 276 276 277 277 277 277 278 278
281 281 281 281 280 279 279 279 279 279 278 278 277 277 277 276 277 276 277 276 275 275 275 275 276 275 275 275 275 275 275 275 276 276 276 275 276 275 275 275 275 275 275 275 275 275 275 276 276 276 276 276 276 276 277 277 276 276 276 276 276 277
282 282 283 282 281 280 280 279 278 279 278 278 277 277 277 276 277 276 276 276 275 276 275 275 275 274 274 275 274 275 275 275 276 276 276 276 276 275 275 275 275 275 275 275 275 275 275 275 275 275 275 275 275 275 275 276 275 275 275 275 275 276
282 281 281 280 280 280 280 279 279 278 278 278 278 277 278 277 277 277 276 276 276 275 275 276 274 275 274 275 274 274 274 275 275 275 275 275 275 275 275 275 275 275 274 274 274 274 274 274 274 274 274 274 274 274 275 275 275 275 275 275 275 276
280 280 281 281 280 280 280 280 279 279 279 278 278 278 278 278 277 276 276 275 276 275 275 275 275 275 275 275 275 275 274 274 274 274 274 274 274 274 274 274 274 274 274 274 274 274 274 274 274 274 274 274 274 274 274 274 274 274 275 275 275 277
280 280 280 280 280 280 280 280 279 279 279 278 278 279 278 277 277 276 276 275 275 275 274 275 275 275 275 275 275 274 274 274 274 274 274 274 274 274 274 274 274 274 274 274 274 274 274 274 274 274 274 274 274 274 274 274 274 274 274 275 275 275
279 280 280 280 280 279 279 280 279 279 278 278 278 278 278 278 277 276 276 275 274 274 275 275 275 275 275 275 274 274 274 274 274 274 274 274 274 274 274 274 274 274 274 274 274 274 274 274 274 273 273 273 273 273 273 274 274 274 275 275 276 276
279 279 280 279 279 278 278 279 280 279 279 279 278 278 277 278 277 276 275 275 274 274 275 275 275 275 275 274 274 274 274 274 274 274 274 273 273 273 273 273 273 273 273 273 273 273 273 273 273 273 273 273 273 274 274 275 275 275 275 275 276 276
279 279 279 278 278 278 278 278 279 278 278 278 278 278 278 277 276 276 275 275 275 275 275 275 275 275 274 274 274 273 273 273 273 273 272 272 272 272 272 272 272 272 272 272 272 272 272 272 272 272 273 273 274 275 275 275 275 274 274 274 275 275
279 279 278 277 278 278 278 278 278 278 278 278 278 277 278 277 276 276 275 275 274 274 274 274 274 274 273 273 273 272 272 271 271 271 270 270 270 270 270 270 270 270 270 270 270 271 271 271 271 273 276 277 275 275 274 274 274 274 274 274 274 274
278 277 277 277 277 278 278 278 278 278 278 278 278 278 278 277 276 275 274 274 274 274 274 273 273 273 272 272 271 269 269 270 269 268 268 268 268 268 269 269 269 269 269 269 269 268 269 269 270 274 275 277 277 275 274 273 273 273 273 273 273 272
277 277 277 277 277 277 278 278 278 278 278 278 278 278 277 276 275 274 273 273 273 272 272 272 271 270 269 268 267 267 266 266 266 266 267 267 267 267 267 267 267 267 268 268 267 267 267 268 271 273 274 276 276 276 274 273 272 272 272 272 272 272
278 277 278 277 278 278 278 279 278 278 279 279 279 276 275 274 274 272 272 271 271 270 270 269 268 267 266 266 266 265 265 265 266 265 265 265 265 266 266 266 266 266 266 266 266 265 266 266 270 272 274 275 275 276 275 272 272 271 271 271 271 271
278 278 278 278 279 279 279 278 279 279 278 277 275 275 274 273 272 271 270 269 269 269 269 267 265 266 265 265 265 265 265 264 264 264 264 265 265 264 264 264 264 264 264 265 264 264 265 265 268 272 273 274 274 275 274 271 271 271 270 270 270 269
278 277 277 277 278 278 278 277 277 277 274 274 274 273 273 271 270 269 269 268 268 267 265 266 265 264 264 264 264 263 263 263 263 264 264 263 263 263 263 263 262 263 263 263 263 263 263 264 269 272 273 273 274 274 274 271 270 269 269 268 268 268
278 278 278 279 278 278 277 278 276 275 274 272 273 271 270 269 268 268 267 267 266 265 266 265 263 263 262 264 263 262 263 262 262 262 262 262 262 262 262 262 262 262 262 262 262 262 262 263 269 270 271 272 273 274 270 269 268 267 267 267 268 268
278 278 277 276 276 276 276 275 274 274 272 271 269 269 268 267 266 267 267 266 265 264 264 264 263 262 262 262 262 261 261 262 261 261 261 261 261 261 261 261 261 261 261 261 261 261 261 262 265 269 271 272 273 271 268 268 267 267 266 266 267 267
276 276 276 275 275 274 273 272 273 272 271 269 267 267 266 266 266 266 264 264 263 264 264 263 261 261 261 260 259 260 261 260 260 260 260 260 260 260 260 260 260 260 261 260 260 261 260 261 265 269 270 271 272 271 268 267 267 266 266 266 267 268
276 275 274 274 272 271 270 270 270 271 269 267 267 266 265 265 265 264 264 264 264 263 262 261 261 260 259 259 260 259 259 259 259 260 259 259 259 259 260 260 259 259 259 260 260 263 262 261 263 267 269 270 271 269 268 268 267 266 266 266 266 267
274 272 273 273 272 268 268 268 269 267 267 266 265 265 263 265 264 264 263 263 262 262 260 260 260 259 258 259 259 258 258 259 258 258 259 259 259 259 259 259 259 258 259 259 260 260 260 260 260 262 268 270 271 272 269 268 267 265 266 266 266 266
276 275 274 272 269 268 267 268 268 267 265 265 265 263 264 264 263 262 262 262 261 260 260 259 258 258 258 257 258 259 258 258 259 258 258 257 258 258 258 258 258 258 258 259 259 259 260 260 260 261 268 270 271 272 271 267 267 267 266 266 266 266
272 270 269 269 268 267 266 267 267 265 265 264 263 263 263 262 262 261 259 259 259 259 257 256 256 257 257 257 257 257 257 257 257 257 257 257 257 257 257 257 257 257 258 258 259 259 259 261 263 262 266 269 270 271 272 269 268 269 268 267 267 268
271 271 269 268 266 266 266 265 265 263 262 263 262 263 262 262 261 260 259 259 258 257 256 255 255 256 255 256 256 256 256 256 256 256 256 256 256 256 256 256 257 257 257 257 258 258 259 259 260 265 264 268 271 272 273 273 271 273 271 269 268 268
270 269 267 266 265 264 264 265 264 262 262 263 263 262 260 259 258 258 257 257 256 255 255 255 255 255 255 255 255 255 255 255 255 255 256 256 256 256 256 256 256 256 256 256 257 258 259 259 260 263 267 267 271 272 273 273 274 274 271 270 269 270
269 268 265 265 263 262 260 261 263 261 260 261 262 260 258 257 256 255 255 254 254 253 254 253 253 253 253 254 254 254 255 255 254 255 255 255 255 255 255 255 255 255 255 256 257 258 259 260 261 261 264 269 271 272 273 273 274 274 274 271 270 270
266 266 265 263 261 261 260 259 261 260 259 261 260 259 257 255 253 254 253 252 252 253 252 253 254 254 254 254 255 255 255 255 255 255 255 255 255 255 255 255 255 255 256 257 258 259 261 262 263 264 265 267 268 269 271 272 273 273 274 274 272 274
266 265 264 263 261 260 259 258 258 258 259 259 259 258 255 252 253 254 253 253 253 253 252 252 253 254 254 253 254 255 255 255 255 255 255 255 254 254 254 255 256 256 257 258 260 261 262 263 264 265 266 267 267 267 268 269 269 271 272 270 269 271
267 265 264 264 262 260 259 258 258 257 257 257 258 255 253 254 254 253 253 252 251 253 252 253 256 256 255 255 254 254 254 254 255 254 255 254 255 255 255 256 257 258 259 259 260 262 264 265 265 266 266 267 267 268 269 269 270 269 269 269 269 269
265 264 263 263 261 259 258 256 256 255 256 258 254 253 253 254 254 254 251 251 252 252 254 254 254 254 254 254 254 254 255 255 255 255 256 257 257 257 257 257 258 260 261 262 264 264 264 265 265 266 270 270 273 271 270 270 270 270 271 272 275 273
264 262 261 261 260 258 258 256 255 254 257 255 254 253 252 253 253 251 251 252 251 252 252 252 253 251 253 253 253 253 254 258 263 262 260 260 265 268 269 269 266 267 267 267 267 267 266 265 267 272 273 273 274 274 275 274 275 275 274 275 276 274
260 259 259 259 258 257 257 256 255 254 254 256 255 254 253 252 253 252 252 251 252 253 253 253 253 253 253 253 254 253 254 254 256 262 265 266 267 268 269 270 271 271 271 269 267 268 271 272 272 272 273 273 274 274 274 274 274 274 275 275 271 269
259 260 259 258 257 257 255 255 254 254 254 254 254 254 253 252 253 253 252 252 252 254 255 253 254 254 254 253 254 254 253 253 253 255 260 264 265 267 268 269 270 270 270 270 269 268 266 269 271 272 272 272 273 273 273 274 274 274 273 272 272 266
260 259 257 257 256 255 254 254 254 254 253 253 252 252 252 251 251 252 251 252 253 253 254 254 254 254 253 253 253 253 253 253 253 253 254 257 263 265 266 267 268 268 268 269 269 270 270 270 270 271 271 272 272 273 273 273 272 271 270 270 265 263
257 256 256 255 254 254 253 254 254 254 253 252 252 252 252 252 252 252 251 252 253 253 253 253 253 253 253 253 254 253 253 253 253 253 254 254 255 256 260 263 264 265 266 267 268 269 269 269 270 270 271 272 272 272 271 270 265 267 268 266 261 261
256 255 255 255 254 253 253 254 254 252 252 253 251 251 250 250 252 250 253 255 255 252 253 253 254 254 253 253 253 253 254 254 255 255 255 254 253 254 254 255 257 261 265 264 265 267 268 268 269 270 271 271 270 269 269 266 258 257 258 259 259 260
255 254 254 254 253 253 254 255 254 253 251 250 249 249 250 251 252 252 253 253 254 253 254 254 253 254 253 253 253 254 255 255 255 254 254 254 254 254 254 254 255 257 261 265 266 266 267 268 269 270 270 268 267 267 266 257 256 256 257 258 258 258

ECMWFFLT1_sfc_thetae_030.txt.gz
Theta_e
280 279 279 279 279 279 278 279 279 280 280 280 281 281 280 280 281 280 280 280 280 279 277 277 277 277 277 276 277 277 277 276 276 276 276 276 276 276 276 276 275 275 275 275 275 275 275 275 275 275 275 275 275 275 276 275 276 276 275 276 276 277
280 280 280 280 279 279 280 280 279 279 279 279 278 278 278 279 279 279 279 279 279 279 278 278 278 278 277 277 277 277 277 277 276 276 276 276 276 276 275 275 275 275 275 275 275 274 274 274 274 275 274 274 274 274 274 274 274 274 274 274 275 276
280 280 280 280 280 280 281 280 280 281 280 280 280 279 278 278 277 277 276 277 276 276 276 276 276 275 275 275 275 275 275 275 276 275 275 275 275 275 275 275 275 275 274 274 275 274 274 274 274 274 274 274 274 274 274 274 274 273 273 274 274 274
280 280 280 280 280 280 280 280 279 278 278 278 277 277 277 277 277 277 276 276 276 276 275 275 275 274 274 274 274 275 275 275 275 276 275 275 275 275 274 274 274 274 274 274 274 274 274 274 274 274 274 273 274 273 275 274 273 273 273 273 273 273
281 281 281 281 281 281 281 281 280 280 279 278 278 278 277 277 277 276 276 276 275 275 274 274 275 274 274 274 274 274 274 275 275 275 274 275 274 274 274 274 274 274 273 273 273 273 273 273 273 273 273 273 273 273 273 273 273 273 273 273 273 273
282 282 282 282 282 282 282 281 281 280 279 279 278 277 276 276 276 276 276 275 275 275 274 274 274 274 274 274 274 274 274 274 274 275 274 274 274 274 274 273 273 273 273 273 272 272 272 273 273 273 273 273 273 272 272 273 273 273 273 273 273 273
282 283 283 283 283 282 282 281 280 279 278 277 277 277 276 276 275 276 275 275 275 275 274 275 274 274 274 274 274 274 274 274 274 274 274 273 273 273 273 273 273 272 272 273 272 272 272 272 272 272 272 272 272 272 272 272 272 273 273 273 273 275
282 283 283 283 282 281 280 279 279 278 278 278 277 277 276 276 276 275 275 275 275 275 274 274 274 274 274 274 274 274 274 274 273 273 274 273 272 272 273 272 271 272 271 271 271 271 271 272 272 271 271 271 272 272 272 272 273 273 273 274 274 274
281 282 282 282 281 280 280 279 279 278 278 278 278 278 278 277 276 276 275 275 275 275 275 274 274 274 274 274 274 273 273 273 273 272 272 272 271 271 271 271 271 271 271 271 271 271 271 271 271 271 271 271 271 272 272 273 273 273 274 274 274 274
280 280 280 280 281 280 280 279 279 279 279 278 278 277 277 278 277 276 276 275 275 275 275 274 274 274 274 274 273 273 273 273 272 271 271 271 270 270 270 270 270 270 270 270 270 270 270 270 270 270 270 271 272 272 273 273 273 273 273 273 273 273
280 279 280 281 280 279 279 279 279 278 278 279 278 277 277 277 277 276 276 275 275 275 275 275 274 274 273 273 273 272 271 271 270 270 269 269 269 270 269 270 270 269 269 269 269 269 269 269 269 270 270 272 272 273 272 272 272 272 272 272 272 272
279 280 280 280 279 279 279 279 279 279 279 278 278 278 278 277 276 276 276 275 275 275 274 274 273 273 272 272 271 270 269 269 268 268 268 268 267 267 268 267 268 267 267 267 267 267 268 268 268 270 274 275 273 273 273 272 272 272 272 271 271 271
279 280 280 280 279 279 279 279 279 279 279 279 278 278 278 277 277 276 275 276 274 274 273 272 272 271 270 270 269 267 267 268 266 265 266 266 266 266 266 266 267 266 266 266 266 266 266 267 267 271 274 275 276 274 273 272 272 272 271 271 270 270
278 278 278 278 278 278 278 278 278 278 279 279 278 279 277 276 277 276 275 275 273 273 272 271 270 269 268 267 266 266 265 265 264 264 264 264 264 264 264 265 265 265 265 265 265 265 265 265 268 271 273 274 275 276 274 273 272 271 271 271 271 270
278 278 278 278 278 278 278 279 278 278 279 279 279 277 276 276 276 275 274 273 272 271 270 269 267 266 265 265 264 264 264 263 264 262 262 262 262 263 263 264 264 264 264 264 264 264 264 264 268 270 273 274 275 276 275 273 272 271 270 270 270 270
277 277 278 278 278 278 279 278 279 279 279 278 275 276 275 275 274 273 273 271 270 269 268 266 264 264 264 264 263 263 262 262 262 262 262 262 263 263 262 261 262 263 262 263 263 263 263 263 266 271 273 274 274 275 275 272 271 270 270 269 269 268
277 276 276 277 277 277 277 277 277 277 276 276 276 275 274 274 273 272 271 269 268 266 265 266 264 263 263 263 262 261 261 261 261 262 262 261 262 262 261 261 261 261 261 261 261 262 262 262 268 271 272 273 274 275 274 271 270 269 268 268 268 268
278 278 278 278 277 277 277 278 277 275 276 273 275 273 273 272 272 271 269 268 266 265 265 263 262 262 262 263 261 260 262 261 260 260 260 260 260 259 260 260 259 260 260 260 260 260 260 262 267 270 271 273 273 274 271 269 268 267 267 268 268 268
279 279 278 276 277 276 276 275 275 275 273 272 271 270 270 270 270 269 268 266 265 264 264 264 262 261 261 261 261 259 260 261 259 259 259 259 260 260 259 259 259 259 259 259 259 260 260 260 264 269 271 272 273 272 269 268 267 267 267 267 268 268
276 276 277 275 274 274 273 273 273 273 271 270 268 269 268 269 269 267 266 265 263 264 263 263 261 260 260 259 259 259 261 260 259 258 258 259 259 259 258 259 259 258 258 259 259 259 259 260 263 268 270 271 272 271 269 268 267 266 267 267 268 268
275 274 274 273 274 272 271 271 272 272 271 269 268 268 268 268 267 265 265 264 263 263 262 260 260 260 259 258 259 258 258 258 257 258 257 257 257 258 258 258 258 258 258 258 259 262 262 260 262 266 268 270 271 270 269 268 267 267 267 267 267 268
274 272 273 273 275 270 269 270 271 270 270 268 267 268 268 268 266 265 264 263 262 261 260 259 259 259 257 259 257 257 257 257 256 257 257 256 256 257 257 257 257 257 257 258 258 258 259 259 259 261 268 270 271 272 270 269 267 266 266 267 267 267
276 276 276 276 273 269 269 270 271 270 269 268 268 269 269 266 264 263 263 262 260 259 259 258 257 256 257 257 256 258 257 256 258 257 255 256 256 256 256 256 256 257 257 258 258 258 259 259 259 261 268 270 271 272 271 268 268 268 267 267 267 268
273 273 271 271 269 268 269 270 271 270 268 267 269 268 264 263 263 262 261 260 259 258 256 255 256 256 255 255 255 255 255 256 255 255 254 255 255 255 255 255 256 256 257 257 258 258 258 260 263 262 266 269 270 272 273 270 269 270 269 269 269 270
273 273 273 269 267 268 269 269 270 268 266 268 267 264 263 262 261 260 260 258 257 256 255 255 255 255 254 255 255 254 254 255 254 254 253 254 254 254 255 255 255 256 256 257 257 257 258 258 259 264 264 268 270 272 272 273 272 274 272 270 269 269
273 273 269 267 266 265 268 269 269 267 266 267 263 262 261 260 260 259 257 256 255 255 255 255 254 254 253 253 253 253 253 253 253 253 253 254 254 254 255 255 255 255 255 255 256 257 258 259 259 263 267 267 270 272 273 274 274 274 271 271 270 271
273 271 266 265 264 264 264 264 268 264 265 264 262 262 260 258 257 256 255 254 254 253 253 252 252 251 252 252 253 253 253 253 252 254 252 253 254 254 254 254 254 254 254 255 256 257 258 260 261 262 265 270 271 272 273 273 274 274 275 271 271 271
268 267 267 265 263 263 261 262 265 265 264 262 261 260 258 256 255 254 253 251 252 251 251 252 252 252 253 252 253 252 252 252 253 253 254 253 254 254 254 254 254 254 254 255 256 258 260 262 264 265 265 267 269 270 271 273 274 274 274 274 273 275
269 267 266 266 263 262 261 259 260 262 261 260 260 259 256 254 254 255 253 253 252 252 251 252 252 252 252 252 252 252 253 253 253 253 254 253 253 253 253 254 254 254 255 256 258 260 262 263 264 265 266 267 267 268 268 269 270 273 274 272 271 272
270 268 266 267 265 262 261 259 259 258 259 259 259 256 254 255 255 254 253 250 250 252 251 251 255 255 253 253 252 252 252 252 253 253 254 253 254 253 254 254 255 256 257 258 260 261 262 262 264 266 267 267 268 269 270 271 271 271 271 271 271 271
269 269 267 268 264 262 260 259 257 257 258 259 256 255 255 255 255 253 250 250 250 251 253 253 252 252 252 252 251 251 253 253 253 254 255 256 256 256 256 256 257 259 260 261 261 261 262 265 266 267 271 270 273 271 271 270 271 271 271 273 275 273
269 268 267 266 263 261 260 259 257 257 258 256 255 255 255 254 253 251 251 251 250 250 251 252 251 250 252 252 252 252 252 257 262 261 259 259 263 267 268 268 263 263 263 264 267 268 267 266 268 272 273 273 273 274 274 274 275 275 274 274 274 271
266 265 265 264 261 260 260 259 257 256 256 256 255 255 254 254 253 252 252 251 251 253 252 251 251 252 251 251 252 251 253 253 255 262 265 266 266 267 268 269 271 271 272 269 267 269 272 272 272 272 272 273 273 273 274 274 274 274 273 272 268 266
263 264 265 262 260 260 259 258 256 256 255 255 255 255 254 253 254 254 253 253 252 254 255 253 253 252 252 252 253 252 252 252 252 253 260 263 265 266 267 268 269 270 270 271 270 268 267 269 271 271 272 272 273 273 273 272 272 271 270 270 268 261
265 262 260 259 259 258 258 257 256 254 255 254 254 254 253 253 253 254 252 252 253 253 254 254 253 253 253 252 252 252 251 252 252 252 253 256 261 264 265 266 267 267 268 268 268 269 269 269 270 271 271 272 272 271 270 270 269 268 268 267 261 257
261 260 259 258 257 257 257 257 255 254 254 253 253 254 254 253 253 253 252 253 253 253 252 253 253 253 253 253 253 252 252 252 252 252 252 253 253 255 259 261 263 264 265 266 267 268 268 269 269 270 271 271 270 269 269 268 263 266 266 263 258 256
259 257 257 257 257 256 256 256 254 253 253 253 252 253 253 252 253 252 254 255 255 253 253 253 255 254 253 253 252 252 253 253 253 253 253 252 252 252 252 253 255 259 263 263 264 266 267 268 269 270 270 270 269 268 268 265 257 255 256 256 254 255
257 256 256 256 255 255 255 256 254 253 252 252 251 252 252 253 253 253 253 253 254 254 254 254 253 253 253 252 252 253 254 253 254 253 252 253 253 252 252 252 253 255 260 264 264 265 266 267 268 269 269 268 267 267 265 255 254 254 255 255 255 255

ECMWFFLT1_sfc_thetae_033.txt.gz
Theta_e
282 281 280 280 280 281 280 281 281 281 281 281 281 281 281 281 281 281 281 281 281 281 280 280 280 280 280 280 280 280 280 280 280 279 279 279 279 279 279 278 278 277 277 277 277 277 277 277 277 277 277 277 277 277 277 277 277 277 276 277 277 277
282 281 280 280 280 280 280 281 281 281 281 281 281 281 281 280 280 280 280 280 281 280 280 280 280 280 280 280 279 279 279 279 279 279 279 279 279 278 278 278 278 277 277 277 277 277 277 277 277 277 277 277 277 276 276 277 276 276 276 276 277 277
281 281 280 281 281 281 281 281 281 281 281 280 281 280 280 280 279 279 279 279 279 279 279 278 278 278 278 278 278 278 278 279 279 279 279 278 278 278 278 277 277 277 277 277 277 276 276 276 276 277 276 276 276 276 276 276 276 275 275 276 275 276
281 281 281 281 281 281 281 281 280 280 280 280 280 280 280 280 279 279 279 279 279 279 278 278 278 278 278 278 278 278 278 278 278 278 278 278 278 278 277 277 277 277 277 276 276 276 276 276 276 276 276 275 275 275 275 275 275 275 275 275 275 276
282 281 281 281 281 281 281 281 281 281 280 280 280 280 280 280 280 280 279 279 279 278 278 278 278 278 278 278 278 278 278 278 278 278 277 278 277 277 277 277 277 276 276 275 275 275 275 275 275 275 275 275 275 274 275 275 274 274 274 274 275 275
282 282 281 281 281 281 281 281 281 281 280 280 280 280 280 280 279 279 279 279 278 278 278 278 277 277 278 278 278 277 277 277 277 277 277 277 277 276 277 276 276 275 275 275 275 275 275 274 275 274 275 274 274 274 274 274 274 274 274 274 275 275
282 282 282 281 282 282 282 281 281 281 281 280 280 280 280 279 279 278 278 278 278 278 278 277 277 277 277 277 277 277 277 277 277 277 277 276 276 276 276 275 275 274 274 273 274 274 274 274 274 273 273 274 274 274 273 274 274 274 275 275 275 275
282 282 282 282 282 282 282 282 282 281 281 280 280 280 279 278 278 279 278 278 278 278 278 277 277 277 277 277 277 277 277 276 276 276 276 275 274 274 274 273 273 273 273 273 273 273 273 273 273 272 273 273 273 273 273 274 274 274 275 275 275 275
281 282 282 283 283 283 283 283 282 281 281 280 280 279 279 278 278 278 278 278 278 278 278 277 277 277 277 277 277 276 276 276 275 275 274 274 273 273 272 272 272 272 272 272 272 272 272 271 272 272 272 272 272 273 274 274 274 274 274 274 274 274
282 282 283 283 283 283 283 282 282 281 280 280 280 279 279 278 278 278 278 277 277 278 278 277 277 277 277 276 276 276 275 275 274 273 273 272 272 271 271 271 271 271 271 271 271 271 271 271 270 271 271 271 272 273 274 274 274 274 274 274 274 274
282 282 282 283 283 282 282 281 281 281 281 281 280 280 279 279 278 278 277 277 277 277 277 277 277 276 276 275 275 274 274 273 272 272 271 271 271 271 271 270 270 270 269 269 269 269 270 269 269 270 270 272 274 274 274 274 274 273 273 273 273 273
281 281 281 281 282 282 282 282 281 281 281 280 280 280 280 278 278 278 277 277 277 277 277 276 276 276 275 274 273 273 272 271 271 270 270 270 269 269 269 269 269 269 268 268 268 268 268 268 269 269 273 275 275 275 274 274 274 273 273 273 272 272
281 280 280 281 281 282 282 282 282 281 281 281 280 280 279 279 278 278 278 278 278 277 276 276 275 274 274 273 272 270 269 270 269 268 268 268 268 268 268 268 268 267 267 267 267 267 267 267 267 270 274 275 276 275 274 274 273 273 273 272 272 271
280 280 280 280 281 281 282 282 282 281 280 281 280 280 279 278 278 278 278 278 277 276 276 275 274 273 272 270 269 268 268 267 266 267 267 266 266 266 267 266 266 266 266 266 266 266 266 266 268 271 273 274 275 276 275 274 273 273 272 272 272 271
281 281 280 280 280 281 281 282 281 280 281 280 281 279 278 278 278 278 278 277 276 275 275 274 273 271 269 268 267 267 266 265 266 265 265 264 265 265 265 266 265 265 265 265 265 265 265 265 267 270 273 274 275 276 275 274 273 272 272 272 271 270
280 280 280 280 280 281 281 280 280 281 281 281 279 278 278 278 277 277 277 276 275 274 274 272 271 269 268 266 266 266 265 264 264 265 265 264 265 265 264 264 264 264 264 264 264 264 264 264 266 270 273 274 274 275 275 273 273 272 271 270 269 269
279 279 278 279 279 279 279 279 279 279 278 279 278 278 277 277 277 276 276 275 274 272 271 271 269 268 266 265 264 264 264 264 264 264 264 263 264 264 263 263 262 262 262 262 263 263 262 263 267 271 272 273 274 275 275 272 271 270 269 269 269 269
278 278 278 279 278 278 278 279 278 278 278 276 278 276 277 276 275 275 274 273 272 271 270 269 268 266 265 265 264 263 264 264 263 262 263 262 263 263 263 262 262 262 261 262 261 261 261 263 267 269 271 272 273 274 272 270 269 269 269 269 269 269
279 279 278 277 278 277 277 277 277 277 275 275 275 274 274 274 273 274 273 272 271 270 269 268 267 265 264 263 263 262 262 263 262 262 262 261 262 262 261 261 261 261 261 260 260 260 261 261 264 268 270 272 273 272 270 270 269 269 268 268 269 269
278 278 278 277 277 277 277 276 276 275 275 274 272 272 272 273 274 274 272 272 270 269 267 267 265 264 263 262 262 262 263 262 262 261 261 261 261 261 260 260 260 260 260 260 260 260 260 261 264 268 270 271 271 272 270 269 268 268 268 268 269 269
278 277 276 276 276 275 274 274 274 274 274 273 272 272 272 272 273 272 271 270 268 267 265 264 264 263 262 261 262 260 261 261 260 260 260 259 259 259 259 259 259 259 259 259 259 261 262 261 262 265 268 270 271 271 270 269 269 268 268 268 268 269
275 274 274 275 277 274 272 273 274 274 274 272 271 271 272 273 273 272 270 267 266 264 263 263 262 261 260 261 260 259 259 259 258 259 259 259 259 258 258 258 258 258 258 258 259 258 260 259 260 261 267 269 271 272 270 270 268 267 267 268 268 268
277 277 276 277 275 272 272 272 273 273 272 270 270 270 273 272 269 267 267 265 264 262 262 261 260 260 259 259 258 260 259 258 260 259 257 257 257 257 257 257 257 257 258 258 259 259 259 259 260 261 267 269 271 272 271 269 269 269 268 268 269 269
274 274 274 273 272 271 271 272 273 273 270 269 270 273 270 267 266 265 264 263 262 261 259 259 258 258 257 257 257 257 257 258 257 257 256 257 256 256 256 256 257 257 257 258 258 258 258 260 263 262 266 269 270 271 272 270 270 271 270 270 270 270
274 274 276 274 270 270 271 271 272 270 269 270 272 268 266 265 264 264 263 262 260 259 257 257 257 257 256 256 256 256 256 256 255 255 255 255 255 255 255 256 256 256 257 257 258 258 258 259 260 264 264 268 270 272 273 273 273 274 273 271 269 270
275 275 274 271 269 269 270 271 272 270 269 272 267 264 263 263 263 262 261 260 259 257 257 256 255 255 255 255 255 254 254 255 255 254 255 255 255 255 255 256 256 256 256 257 258 258 259 260 260 263 267 268 270 272 273 274 274 275 272 272 271 271
275 275 273 270 267 267 268 269 272 269 269 269 264 264 262 262 260 260 260 258 257 256 255 254 253 253 253 253 255 255 255 254 253 255 254 254 255 255 255 256 255 255 255 256 257 258 259 261 262 263 266 269 271 272 273 273 274 275 275 272 272 272
272 270 272 270 267 266 266 267 270 270 270 265 264 263 262 260 260 259 258 256 255 254 253 254 253 253 253 254 254 254 255 255 255 255 254 254 255 254 254 255 255 255 255 256 257 258 260 262 264 265 266 268 269 270 272 273 274 274 274 274 273 274
271 271 271 272 268 266 265 265 267 268 264 263 263 262 260 260 260 260 257 256 256 253 253 255 255 254 254 253 254 254 254 255 254 254 255 255 254 254 254 254 255 255 256 256 258 259 262 263 264 265 266 267 268 269 270 271 271 273 274 272 272 273
271 272 271 272 271 267 265 264 264 263 262 262 262 260 259 260 260 260 258 256 255 255 253 255 256 256 255 254 253 254 253 253 254 254 255 255 255 254 255 255 256 256 257 258 259 261 262 263 265 266 266 268 269 270 271 271 271 271 271 271 272 272
271 271 271 272 271 266 264 263 262 260 262 262 260 259 260 260 259 258 256 254 253 254 254 254 255 255 255 254 251 252 254 254 254 254 255 255 255 256 256 257 258 259 259 260 261 261 262 262 264 267 271 271 273 271 271 270 271 272 271 272 273 270
271 271 270 272 268 265 264 263 261 259 261 260 259 260 261 259 258 256 255 254 254 253 254 254 253 252 253 253 253 252 252 257 261 259 257 257 262 265 267 266 261 261 262 261 262 263 261 263 267 272 273 273 273 273 274 274 274 274 272 272 272 268
269 269 269 270 266 264 263 263 261 259 259 259 259 260 260 258 258 257 256 254 254 255 254 254 253 253 252 252 253 252 253 253 256 262 266 267 267 268 269 270 271 272 272 270 268 269 272 272 272 272 272 272 272 273 274 273 273 272 271 271 267 262
267 267 269 268 265 264 262 262 260 259 258 258 258 259 258 258 259 259 257 256 255 256 256 254 254 254 253 253 254 253 253 253 253 254 261 264 265 267 267 268 269 270 270 270 270 269 267 269 270 271 271 272 272 273 272 272 271 270 269 269 266 259
269 269 267 265 263 262 261 261 259 258 257 257 257 257 257 256 257 258 256 255 255 255 256 255 254 254 254 253 253 252 252 252 252 253 254 256 262 264 265 266 268 268 268 268 268 269 268 269 270 270 271 271 272 271 270 271 270 268 268 266 260 257
265 265 264 262 261 261 260 260 258 257 256 255 256 256 256 256 256 256 255 255 254 254 254 255 254 254 254 254 254 253 253 253 253 252 252 253 253 256 260 263 263 265 265 265 266 267 268 269 269 269 270 271 271 270 270 268 264 266 265 263 258 256
262 260 260 260 259 259 258 259 256 255 255 255 255 255 255 254 255 253 255 256 255 254 254 255 256 254 253 253 253 253 254 253 254 253 253 252 253 252 253 254 256 259 261 262 263 265 267 267 268 269 270 270 269 268 268 265 257 256 256 257 256 256
259 257 257 257 257 257 258 257 254 254 254 254 254 254 254 254 255 254 254 255 255 254 255 254 254 254 254 253 253 252 254 253 254 254 253 253 253 253 252 253 254 254 258 262 264 265 265 266 267 268 269 268 267 267 264 256 255 255 255 255 256 255

ECMWFFLT1_sfc_thetae_036.txt.gz
Theta_e
288 288 287 287 287 286 286 287 287 287 287 287 287 287 287 287 287 287 287 287 287 287 286 286 286 286 286 286 286 286 286 285 285 284 284 284 284 283 283 283 282 282 282 282 282 282 282 282 282 282 282 282 282 282 282 282 281 281 281 282 281 281
289 288 287 286 286 286 286 286 286 286 287 287 287 287 287 286 286 286 286 286 286 286 286 286 286 286 285 285 285 285 285 284 284 284 283 283 283 283 283 282 282 282 282 282 281 281 281 281 281 281 281 281 281 281 281 280 280 280 280 281 281 281
289 288 287 287 287 287 286 286 286 286 287 286 286 286 285 285 285 285 285 285 285 284 284 284 284 284 284 284 285 284 283 284 284 284 284 283 283 283 282 282 282 282 282 281 281 281 281 281 280 281 281 281 280 280 279 279 279 279 279 280 279 280
289 288 287 287 286 286 285 286 286 286 286 286 286 286 285 285 285 285 285 285 284 284 284 284 284 284 283 283 283 282 282 282 282 282 283 282 282 282 282 282 282 281 281 281 280 280 280 280 280 280 280 279 279 279 280 279 278 278 278 279 279 279
289 287 286 286 286 286 285 285 286 286 286 286 286 285 285 285 285 285 285 284 284 284 284 283 283 282 282 282 282 282 283 283 282 283 282 282 282 282 281 281 280 280 280 280 280 280 279 279 279 279 279 278 278 278 278 278 278 278 278 278 278 278
289 287 286 285 285 285 285 285 286 286 286 286 286 285 285 285 285 284 284 284 283 283 282 282 282 281 282 282 283 282 283 282 282 282 281 281 281 281 280 280 279 279 279 279 279 279 278 278 278 278 278 278 277 277 277 277 277 278 278 278 278 278
288 287 286 286 285 286 285 285 286 286 286 286 285 285 285 284 285 284 284 284 283 282 282 282 282 283 283 283 283 282 282 282 282 281 281 280 280 280 280 279 279 278 278 278 278 277 277 277 277 277 277 277 277 277 277 277 277 277 277 278 278 278
288 288 287 286 286 286 286 286 286 286 286 285 285 285 285 284 284 283 283 283 282 282 283 283 283 283 283 283 283 282 282 282 281 281 280 279 279 279 278 278 278 278 277 277 277 277 277 277 277 276 276 276 276 276 276 277 277 277 277 278 278 278
288 288 288 286 286 286 286 286 286 286 285 285 285 285 285 284 283 283 283 283 283 283 283 283 283 283 283 283 283 282 282 281 280 279 279 278 278 278 277 277 277 277 277 276 276 276 276 276 276 276 276 276 275 276 276 277 277 277 277 277 277 277
288 288 288 287 286 286 286 286 286 286 285 284 284 284 284 284 284 283 283 283 283 283 283 283 283 283 283 283 282 282 281 280 279 278 278 277 277 276 276 276 276 276 276 276 276 275 275 275 275 275 275 275 275 276 277 277 277 277 277 277 277 277
288 288 288 288 287 286 286 286 286 285 285 285 285 285 284 284 284 283 283 283 283 283 284 283 283 283 283 282 281 281 280 279 278 277 277 276 276 276 276 275 275 274 275 275 274 274 274 274 274 274 274 274 276 277 277 277 277 276 276 276 277 277
288 288 288 288 287 286 286 285 285 285 285 285 285 285 284 284 283 283 283 282 282 283 283 283 282 282 282 281 281 280 279 278 277 276 275 275 275 275 275 274 274 274 274 273 273 273 273 273 274 273 273 274 276 277 277 276 276 276 276 275 275 276
288 288 288 287 287 287 286 286 286 286 285 285 285 285 284 284 283 282 282 282 283 283 283 282 282 282 281 281 280 279 278 276 275 275 275 274 274 273 273 273 273 273 273 273 272 272 272 272 272 272 274 275 276 276 276 276 275 276 276 275 275 275
287 287 287 287 288 288 287 287 287 286 285 285 285 285 284 283 283 283 283 283 283 283 282 282 282 281 281 280 279 277 276 275 274 274 273 273 272 272 272 272 272 272 272 272 272 271 271 272 272 272 274 275 276 277 276 276 275 275 275 275 275 275
288 288 288 288 288 288 289 289 287 286 286 285 285 285 284 283 283 283 283 283 283 283 282 282 282 281 280 279 277 276 274 273 273 272 272 271 272 271 271 271 271 271 271 271 270 270 271 271 271 272 273 274 276 276 276 275 275 274 274 275 274 274
289 289 288 288 288 288 289 289 288 288 287 286 286 285 284 283 283 284 283 283 283 283 283 282 281 280 279 278 276 274 273 272 272 272 272 271 270 270 270 271 270 270 270 270 269 269 270 270 270 271 273 274 275 276 276 275 274 274 274 274 274 273
288 288 287 287 287 287 287 287 288 288 287 286 285 285 284 284 284 284 284 284 283 283 282 281 280 280 278 276 274 273 273 272 272 271 271 270 270 270 269 269 269 269 268 268 268 268 268 268 270 271 273 274 274 275 276 274 274 273 273 273 272 272
287 287 286 287 286 285 286 286 286 286 286 286 285 284 284 284 283 283 284 283 283 282 281 280 279 279 276 274 273 272 272 271 271 270 270 269 270 269 269 269 268 267 266 267 266 266 267 268 270 270 272 273 274 275 274 273 272 271 271 271 272 272
287 286 285 285 285 284 284 285 285 285 284 284 284 284 283 283 282 283 283 282 282 281 280 280 279 277 275 273 272 271 272 271 270 269 269 268 269 269 268 268 267 267 266 265 265 265 266 267 268 269 271 272 273 273 271 271 271 271 270 271 271 271
284 284 284 284 284 284 284 284 284 284 283 282 283 282 282 282 282 282 282 282 282 280 280 279 278 276 274 272 272 271 271 271 270 269 268 268 267 268 267 267 266 265 265 264 264 264 264 265 267 269 270 271 272 272 271 271 270 270 270 270 271 272
284 283 283 283 283 283 283 283 283 282 282 282 281 281 281 281 282 282 282 282 282 281 279 277 277 275 273 272 271 270 270 269 268 268 267 266 267 266 266 265 265 265 264 264 263 264 265 265 266 267 269 270 271 272 271 271 270 269 269 270 270 271
282 282 282 283 284 283 282 282 282 281 282 281 281 280 280 281 282 283 283 282 280 278 276 275 274 274 272 271 270 269 269 268 267 266 266 266 266 266 266 265 264 263 263 264 263 262 263 263 264 264 268 270 271 272 271 271 270 269 269 270 270 270
284 284 284 285 285 282 281 281 281 281 281 280 279 279 281 282 282 282 281 279 276 275 273 273 272 271 270 270 268 268 266 267 267 265 264 264 265 264 264 263 263 262 263 263 263 263 263 263 263 264 268 269 271 272 272 271 270 270 270 270 270 270
283 284 284 283 282 280 280 280 281 281 280 278 278 280 282 281 280 279 277 275 274 272 270 269 269 269 267 266 266 265 264 265 265 264 263 264 264 262 261 262 262 263 263 264 263 263 263 264 265 265 267 269 271 272 273 271 271 271 271 271 271 272
281 282 283 282 280 279 279 280 280 280 278 278 279 281 279 278 276 275 274 272 270 268 267 267 265 264 263 263 264 264 264 263 262 261 262 262 262 261 261 261 262 262 263 263 264 264 263 263 263 266 266 269 271 272 273 273 273 274 273 272 271 271
282 282 282 281 278 278 278 279 279 279 277 278 281 277 274 274 273 272 271 269 268 266 265 264 263 263 262 262 262 262 263 262 262 261 262 262 262 263 263 264 264 263 263 263 264 264 264 264 264 266 268 268 270 272 273 274 274 275 273 273 272 272
282 282 282 281 277 277 277 278 279 278 276 280 277 274 272 271 270 269 268 267 266 264 264 262 262 261 261 261 262 262 262 261 260 262 262 261 262 263 264 265 264 263 264 264 263 264 264 265 265 266 267 269 271 272 273 273 274 274 275 273 273 273
281 281 281 281 277 276 275 276 278 278 278 279 275 273 270 268 267 267 267 266 265 264 262 261 261 260 260 261 262 263 264 263 261 263 264 263 263 263 263 264 264 263 263 263 263 264 264 265 266 267 267 269 270 271 272 273 274 274 274 274 273 275
278 278 279 280 279 275 274 274 276 278 280 275 273 271 269 267 268 267 267 265 264 263 261 262 262 261 260 260 261 262 263 263 263 263 263 263 263 263 263 263 262 263 263 263 264 264 264 265 266 267 268 269 270 270 271 272 272 273 273 273 273 273
278 278 279 279 281 277 274 273 273 275 275 272 271 268 267 267 268 268 266 265 264 263 261 263 261 261 262 260 261 262 262 262 262 263 263 264 264 264 264 263 263 263 263 263 264 264 264 265 266 267 268 269 270 271 272 272 271 272 272 272 271 271
277 278 278 279 281 279 275 273 273 273 272 270 268 267 267 268 267 268 266 265 264 263 262 263 263 263 263 262 260 262 263 262 262 262 262 262 263 264 264 264 264 263 263 263 263 263 264 265 266 267 271 271 273 272 271 271 271 272 272 272 273 270
277 277 277 278 279 277 275 273 272 271 270 268 266 266 267 268 267 267 266 264 263 263 262 262 262 262 262 262 262 260 260 260 264 263 262 262 263 265 267 266 264 264 265 264 265 266 265 266 267 271 272 273 273 273 273 274 274 274 273 272 271 268
276 276 276 277 277 276 274 273 271 269 267 267 266 266 267 268 267 267 266 263 263 263 262 262 262 261 262 261 262 261 261 262 262 266 267 267 266 267 269 270 271 271 271 268 267 269 272 272 273 273 273 272 272 273 273 274 274 273 272 271 267 265
274 274 275 276 275 273 272 271 270 268 266 265 264 265 266 267 267 268 267 264 263 262 262 263 262 261 261 261 261 261 261 262 262 263 265 267 268 268 269 270 270 271 271 271 270 269 269 270 271 271 271 272 272 272 273 273 272 271 270 269 267 263
276 276 275 275 273 272 270 269 268 265 264 263 263 264 264 265 266 267 266 264 262 262 261 261 261 261 261 260 260 260 260 261 261 262 264 265 266 267 267 268 269 270 270 270 270 270 269 269 270 271 271 271 271 272 272 272 270 269 268 267 263 261
275 275 274 272 271 270 269 267 266 263 262 261 261 262 263 263 264 265 265 263 262 262 262 262 262 261 261 261 261 261 260 260 261 261 261 261 262 263 265 266 266 266 266 266 267 267 268 268 269 270 270 271 271 272 271 269 266 267 266 264 261 261
273 271 270 269 268 266 266 265 262 260 260 260 260 261 261 261 262 262 260 259 260 261 262 262 262 261 261 261 260 260 259 259 259 259 258 259 260 261 262 262 262 264 264 263 264 265 267 268 269 269 269 270 271 270 269 267 264 262 262 261 260 260
268 267 265 264 264 263 263 261 258 259 258 259 259 260 260 260 260 261 262 260 259 260 261 261 261 261 261 260 260 260 260 260 259 258 258 258 258 258 258 258 260 260 261 263 264 265 266 267 267 268 268 270 269 267 266 262 261 261 260 260 260 260

ECMWFFLT1_sfc_thetae_039.txt.gz
Theta_e
291 290 289 289 289 289 289 290 290 290 290 290 290 289 290 290 290 289 289 289 290 290 289 289 288 288 288 288 288 288 287 286 287 286 285 285 285 284 285 284 284 283 283 284 283 283 283 283 283 283 283 284 283 283 283 283 282 282 282 283 282 282
291 290 289 288 288 288 289 289 289 289 290 289 289 289 289 289 289 288 288 289 289 289 288 288 288 288 288 287 287 287 287 286 286 285 285 285 285 285 285 284 283 283 283 283 283 283 283 283 282 283 282 283 282 282 281 281 281 280 280 281 282 282
291 290 290 289 289 289 289 289 288 289 289 289 289 288 288 288 288 288 288 288 288 287 287 287 287 287 287 287 287 286 286 286 286 285 285 285 284 284 284 283 283 283 283 283 283 283 282 282 282 282 282 282 281 281 281 280 280 279 280 280 280 281
291 290 289 289 288 287 287 288 288 288 288 288 288 288 288 287 287 288 287 287 287 286 286 286 286 286 286 286 286 285 285 285 285 285 284 283 284 284 284 283 284 283 283 282 282 282 282 281 281 281 280 280 280 280 282 281 279 279 279 279 279 280
291 289 288 288 287 287 287 287 287 287 287 288 288 287 287 287 287 287 287 286 285 285 285 285 285 285 285 284 284 284 284 284 284 284 284 283 283 283 283 283 282 282 282 281 281 281 281 281 280 280 280 279 279 279 279 280 278 278 278 278 278 279
291 289 288 288 287 287 286 287 287 287 287 287 287 287 287 287 287 287 286 286 285 285 284 284 284 284 283 283 283 282 283 283 283 284 284 283 283 282 282 282 281 281 281 280 280 280 280 280 280 279 279 279 278 278 278 278 278 278 278 278 278 278
290 289 288 288 287 287 286 287 287 287 287 287 287 287 287 286 286 286 285 285 284 284 284 283 283 283 283 283 283 283 283 283 283 283 282 282 282 281 281 281 280 280 280 280 279 279 279 279 279 278 278 278 278 277 277 277 277 277 278 278 278 278
290 290 289 288 288 287 287 287 287 287 287 287 287 286 286 286 286 285 285 285 284 283 283 282 282 282 282 283 283 283 283 283 282 282 282 282 281 280 280 280 280 279 279 279 278 278 278 278 278 277 277 277 277 277 277 277 277 277 278 278 278 278
290 290 290 289 288 288 287 287 287 287 287 287 287 286 286 286 285 285 284 284 283 283 282 282 282 282 283 284 284 283 283 282 282 281 280 280 280 279 279 279 278 279 278 278 278 277 277 277 277 277 277 277 277 276 276 277 277 278 278 278 278 278
291 291 290 289 288 288 287 287 287 287 286 286 286 286 286 286 285 284 284 283 283 282 282 283 283 283 284 284 284 283 283 282 281 280 280 279 279 278 278 278 278 278 278 277 277 277 277 276 276 277 277 276 276 276 276 277 277 278 278 278 278 278
291 291 290 289 288 287 287 287 287 287 287 287 286 286 285 285 284 284 283 283 282 283 283 284 284 284 284 283 283 283 282 281 280 279 279 279 279 279 278 278 277 277 277 277 276 276 276 275 275 276 276 275 276 277 277 277 277 277 277 277 277 277
292 291 291 289 288 287 287 287 287 287 286 286 286 285 285 285 284 283 283 283 283 284 284 284 284 284 283 283 282 282 281 280 279 279 278 278 278 277 277 277 276 276 276 276 276 275 275 275 276 275 275 275 275 276 277 277 277 277 276 276 276 276
291 291 290 289 288 287 287 287 287 287 286 286 286 285 285 285 284 284 284 283 284 284 284 284 283 283 283 283 282 282 280 279 279 278 278 277 277 276 276 276 275 275 275 275 275 275 275 275 275 275 276 276 277 277 276 276 276 276 276 275 275 275
291 290 290 290 289 288 287 287 287 287 286 286 286 285 285 285 284 284 284 284 284 285 284 284 284 283 283 282 282 281 280 279 278 278 277 276 276 275 275 275 275 275 275 275 274 274 274 274 275 276 276 276 277 277 276 276 276 275 275 275 275 275
290 290 290 290 290 289 289 289 287 286 286 286 286 286 286 285 285 284 284 284 284 284 284 284 284 283 283 282 282 280 279 278 277 276 276 275 276 275 274 274 274 274 274 274 273 273 274 273 275 275 276 276 277 277 277 276 276 275 275 275 275 275
291 291 291 291 291 291 291 289 288 287 287 287 287 286 286 285 284 284 284 284 284 284 284 284 283 283 283 282 281 280 278 277 276 276 276 275 275 274 274 274 273 274 273 273 273 272 273 273 274 275 275 276 276 277 277 276 275 275 275 275 275 275
291 291 290 290 291 291 290 289 289 289 288 287 286 286 285 285 284 284 284 284 284 284 284 284 284 283 283 282 280 279 277 277 276 276 275 274 274 273 273 273 272 272 272 272 271 271 271 272 274 274 275 276 276 277 277 275 275 275 274 274 274 274
291 291 291 291 291 290 290 290 290 289 287 287 286 286 285 285 284 284 284 284 284 284 284 284 283 283 282 281 279 278 277 276 276 275 275 274 274 274 274 273 273 271 271 270 270 269 269 270 273 274 275 275 276 276 275 274 274 273 273 273 273 273
292 292 291 290 289 289 289 289 289 288 287 286 286 286 285 285 284 284 284 284 284 284 284 284 283 283 282 281 279 277 277 276 275 275 274 272 273 273 272 271 271 271 270 269 268 268 268 269 271 273 274 274 275 275 273 273 272 271 271 271 272 272
291 290 289 288 288 288 288 288 287 287 286 286 286 285 285 284 284 285 284 284 285 285 284 284 283 282 281 280 278 277 277 276 275 274 273 272 272 272 271 271 270 269 269 268 267 268 267 268 270 272 273 274 274 274 272 271 271 271 271 271 272 272
288 287 287 287 286 286 287 286 286 286 285 285 285 285 284 284 284 284 284 285 285 285 284 284 283 282 281 279 279 277 276 275 274 273 272 272 272 271 271 270 269 268 268 267 267 268 267 266 268 271 272 273 274 273 272 271 270 270 270 270 271 272
285 285 285 285 286 286 285 285 285 285 285 285 285 284 284 284 285 285 285 285 285 285 284 283 282 281 280 279 278 277 276 275 273 271 271 270 271 270 270 268 268 267 267 267 265 264 266 266 266 267 271 272 273 273 272 271 270 269 270 270 270 270
286 286 286 286 286 285 285 285 284 284 284 284 283 283 284 285 286 285 285 285 284 284 283 282 281 280 279 279 278 276 274 273 272 270 269 268 269 269 268 267 267 266 266 266 266 265 264 265 264 265 270 271 272 273 273 271 271 270 270 270 270 270
287 287 287 287 285 284 284 284 283 284 284 283 282 283 285 285 285 285 285 284 283 282 281 279 279 279 278 276 275 273 272 271 270 269 268 269 268 266 266 265 265 265 265 266 266 265 265 266 267 265 268 271 272 273 274 272 271 272 271 270 270 271
285 286 286 285 284 283 283 283 282 283 283 282 283 284 285 285 284 283 283 282 280 279 278 277 276 275 274 273 273 271 270 268 267 267 267 267 266 265 264 264 264 265 265 265 266 266 265 265 266 269 267 270 272 273 273 274 273 275 273 272 271 271
285 285 285 284 283 282 283 282 282 282 282 282 285 284 283 282 282 280 280 278 278 276 275 273 272 272 270 270 270 270 269 267 266 265 265 265 265 265 264 265 265 265 265 265 266 267 267 266 265 267 269 269 271 272 273 274 275 275 273 273 272 272
284 284 284 283 282 282 281 282 282 281 281 283 284 283 281 279 278 277 276 276 275 274 272 270 269 268 268 268 268 268 268 266 265 265 265 264 265 266 267 267 267 266 266 267 267 267 267 266 266 266 268 270 271 272 273 274 275 275 275 273 273 273
283 283 283 283 282 280 280 281 282 281 282 284 283 281 279 276 275 274 275 274 273 271 269 268 267 266 266 266 268 268 269 266 265 266 266 265 265 266 266 267 268 267 267 266 267 267 267 267 266 266 267 269 270 271 272 273 274 274 274 274 273 275
281 281 281 282 282 280 279 279 280 282 283 281 281 279 276 274 274 274 273 272 271 269 267 267 267 266 265 265 266 267 268 267 266 267 267 266 266 266 266 267 267 267 266 266 266 266 266 266 267 267 268 269 269 270 271 271 272 273 274 273 272 273
280 280 280 281 283 282 279 278 278 279 280 278 277 275 273 273 273 274 273 271 270 268 266 267 266 265 265 264 265 266 267 267 267 267 267 267 267 267 267 266 266 266 266 266 267 266 266 266 266 267 267 268 269 270 271 271 272 271 271 271 272 272
279 280 280 281 282 282 280 278 278 278 278 276 272 272 272 273 272 272 272 270 269 268 266 267 267 266 266 264 264 265 267 266 266 267 267 267 268 269 268 268 268 267 267 267 267 266 265 266 266 267 270 270 271 271 271 271 271 271 271 273 274 271
280 279 280 281 281 280 280 279 278 276 276 274 271 270 271 272 271 270 271 269 268 268 266 267 267 266 267 265 264 264 264 266 268 267 266 265 268 269 270 270 267 267 267 266 266 267 266 266 268 271 273 273 273 274 275 274 274 274 273 275 273 269
278 278 278 279 279 279 278 277 276 274 273 272 271 270 270 270 272 271 271 269 269 268 267 267 267 266 267 266 265 265 264 264 266 269 270 269 268 269 270 271 271 271 270 267 266 268 272 272 272 273 273 274 274 274 274 274 274 274 275 273 269 267
277 277 277 278 277 276 275 274 273 272 271 270 270 269 270 270 272 272 272 271 268 268 267 267 266 266 266 266 266 265 265 265 265 265 269 271 271 270 271 271 272 272 273 273 272 270 269 272 273 274 274 273 273 273 273 273 274 274 273 271 270 265
278 278 276 276 276 274 273 272 271 269 267 267 267 267 268 268 269 271 270 269 269 267 266 266 266 265 265 264 264 264 265 265 266 266 266 268 271 272 272 272 272 273 273 273 274 274 273 272 272 272 273 272 273 273 273 273 274 272 271 270 267 263
277 277 276 275 273 272 271 270 267 265 264 264 265 265 266 267 267 267 269 269 267 266 265 265 265 265 265 265 265 264 264 264 265 266 267 266 265 266 269 271 271 272 272 272 272 273 273 273 272 272 272 272 272 272 272 273 271 270 270 268 264 263
274 274 272 270 269 268 267 265 261 261 261 263 263 263 264 264 265 265 265 264 265 266 266 265 266 265 265 265 264 264 263 263 264 264 263 263 264 264 264 264 266 269 270 268 268 270 270 270 270 270 271 271 272 272 272 272 267 266 265 264 262 261
270 268 266 265 265 264 264 260 259 260 260 261 261 261 262 263 263 264 265 263 263 264 265 265 264 265 264 263 263 263 263 263 262 262 261 261 261 261 262 262 264 264 266 268 268 268 268 269 269 270 270 271 271 271 271 266 265 264 263 262 261 260

ECMWFFLT1_sfc_thetae_042.txt.gz
Theta_e
289 288 287 287 286 287 287 288 288 288 287 287 287 286 286 286 286 285 286 285 286 286 284 284 284 284 284 283 284 283 282 281 281 281 281 281 281 281 280 279 279 279 279 278 278 278 278 278 278 278 279 277 277 277 277 277 277 276 276 277 277 278
289 288 287 286 286 286 287 287 287 287 287 286 286 285 284 284 284 284 284 284 285 284 283 282 283 283 282 282 282 281 281 281 281 280 280 280 280 280 279 279 278 278 278 278 278 277 277 277 278 278 278 276 276 276 276 277 276 275 275 275 276 278
289 288 287 286 285 286 286 287 286 286 286 285 284 284 283 283 283 283 283 283 283 283 282 282 282 282 282 282 281 281 281 281 281 280 280 280 280 279 279 278 278 277 277 277 277 277 277 277 276 277 276 276 275 275 276 276 275 275 274 275 274 275
288 287 286 285 285 285 285 286 285 284 284 284 283 283 283 283 282 283 283 282 283 282 282 281 281 282 282 281 281 281 280 280 280 280 280 279 279 279 279 278 278 277 277 277 277 276 276 276 276 275 275 275 275 275 278 277 274 274 274 274 274 274
288 287 286 285 284 284 284 284 284 284 283 283 283 283 282 282 283 283 282 282 282 281 281 281 281 281 280 280 280 280 280 280 280 280 279 279 279 278 279 278 278 277 277 276 277 276 275 275 275 275 274 274 274 274 274 275 274 274 274 273 273 274
287 286 285 284 284 284 284 284 283 283 283 283 283 282 282 282 282 282 282 281 281 280 280 280 280 280 279 279 279 279 279 279 280 280 279 278 278 278 278 277 277 277 276 276 275 275 274 275 274 274 274 275 274 274 274 274 273 273 273 274 273 273
286 286 285 284 284 284 283 283 283 283 283 283 283 282 282 282 282 282 281 280 280 279 279 279 279 279 278 278 278 278 278 278 279 279 278 278 277 277 277 276 275 275 276 276 275 275 274 274 274 274 274 274 274 274 274 273 273 273 273 273 273 277
287 285 285 285 284 284 283 283 283 283 283 283 282 282 282 282 281 281 281 280 279 279 278 278 278 278 278 278 278 279 279 280 279 279 278 278 278 276 276 275 275 275 274 274 274 274 273 273 273 274 274 274 274 274 273 273 273 273 274 273 274 274
286 286 285 285 284 283 283 283 283 283 283 282 282 282 282 281 281 281 280 279 279 279 278 278 278 278 278 278 279 280 280 279 279 278 278 278 277 276 275 274 274 274 274 274 274 274 274 273 274 273 274 274 273 273 272 272 273 273 273 274 274 274
287 286 285 285 284 284 283 283 283 283 283 283 282 282 282 282 281 280 280 279 279 279 279 278 278 278 279 279 279 280 280 279 279 278 278 277 276 275 275 275 275 274 274 274 274 273 273 273 273 273 273 273 272 272 272 273 273 273 274 274 274 274
287 286 285 285 284 283 283 283 283 283 282 282 282 282 281 281 280 280 280 279 279 279 278 278 278 279 279 280 280 280 280 279 279 278 278 277 277 277 276 276 275 274 273 273 273 273 273 273 273 273 272 272 273 273 274 274 274 274 273 273 273 273
287 287 286 285 285 284 283 283 283 283 283 282 282 282 281 281 280 280 279 279 279 279 279 279 280 280 280 280 280 280 280 279 278 277 277 277 277 277 276 276 274 273 273 273 272 272 273 273 273 276 278 277 273 272 274 274 273 273 273 273 272 273
287 287 287 287 286 285 284 284 283 283 283 283 282 282 281 281 280 280 279 279 279 279 279 279 279 280 280 280 281 280 279 278 278 277 277 277 276 276 275 275 274 273 273 273 272 272 273 273 273 277 278 278 279 275 273 272 272 273 272 272 272 272
288 288 288 288 286 285 284 284 284 283 283 283 282 282 281 281 280 280 279 279 279 279 279 280 280 281 281 281 281 280 279 278 278 277 277 276 276 275 274 273 272 272 272 272 272 271 272 272 276 278 278 279 279 279 275 272 272 272 273 272 272 272
289 289 289 288 286 285 285 285 283 283 283 283 282 282 281 280 280 280 279 279 279 279 280 280 281 281 281 281 281 280 279 278 278 277 276 275 275 273 272 272 272 271 271 271 271 270 271 271 277 278 279 279 279 279 278 273 275 274 273 273 272 272
288 288 288 288 287 286 285 284 284 284 283 283 282 281 281 280 280 280 280 280 280 280 280 280 280 281 281 281 280 279 278 277 276 276 274 273 272 272 271 270 271 271 271 271 270 270 270 270 275 278 279 279 279 279 278 274 275 274 274 274 273 273
286 286 286 287 286 285 285 284 284 283 282 282 282 282 281 281 280 280 280 280 280 280 280 280 280 280 280 280 279 278 277 276 274 274 273 272 272 272 271 271 270 270 270 269 269 269 269 270 275 277 278 278 278 278 278 275 275 274 274 274 274 274
287 286 286 286 286 286 285 284 283 283 282 282 282 282 281 281 280 280 280 280 279 280 280 280 280 279 279 278 277 276 276 275 274 273 273 272 271 269 269 268 269 269 269 269 268 268 268 268 276 276 277 278 278 278 275 274 273 273 273 273 273 273
286 286 285 284 285 285 285 284 284 283 282 282 282 281 281 281 280 280 280 280 280 280 280 280 280 279 279 278 277 276 276 275 273 273 272 271 271 271 270 270 269 269 268 268 267 267 267 265 272 276 277 277 278 276 272 273 272 272 271 271 270 270
285 284 285 284 284 285 284 284 284 283 282 282 281 281 280 280 281 280 280 280 280 280 280 280 280 279 279 278 277 277 277 275 274 273 272 272 271 271 270 269 268 267 267 267 267 267 265 265 270 274 275 276 277 276 272 271 270 269 270 270 271 271
285 284 284 284 283 283 284 284 284 283 282 281 281 281 281 281 281 280 280 281 281 281 280 280 280 280 279 279 278 277 276 275 274 274 272 271 271 270 268 268 267 266 265 265 266 269 267 264 268 273 275 276 276 275 273 271 270 269 269 269 269 270
283 282 283 283 283 282 283 284 284 283 282 281 281 281 281 281 281 281 281 281 280 280 280 280 280 280 279 279 278 277 276 275 273 272 271 270 270 269 268 267 267 266 265 264 264 265 266 264 263 267 273 274 276 277 272 270 269 268 268 269 269 269
284 284 283 283 282 282 282 283 283 282 282 281 281 281 282 282 281 280 280 280 279 279 280 280 280 280 279 279 278 277 275 274 274 271 270 269 268 267 266 266 265 265 264 264 264 263 263 264 263 265 272 274 275 276 275 271 270 270 270 269 269 269
282 282 281 281 281 282 282 282 282 281 280 280 280 282 282 279 280 280 279 279 280 279 279 279 279 279 279 277 276 274 273 272 272 271 269 268 267 267 266 264 264 264 263 263 263 263 262 264 267 263 269 273 275 276 277 273 271 271 270 269 269 269
282 282 281 281 280 281 281 281 280 279 278 279 281 280 279 280 279 279 279 279 279 278 278 278 277 277 277 275 275 274 273 270 269 268 268 267 266 266 265 264 263 263 263 262 263 263 263 263 265 270 267 271 274 276 276 276 274 275 273 270 269 270
282 281 280 280 279 279 280 280 279 278 278 280 281 277 276 276 277 278 278 278 277 277 276 275 274 274 274 274 273 272 271 269 268 267 267 266 266 265 264 263 263 262 262 263 263 263 263 263 263 267 271 270 273 275 276 276 277 277 273 272 272 272
281 280 279 278 277 277 278 277 279 278 278 280 278 278 278 277 276 277 277 276 275 274 271 269 271 270 269 270 272 271 270 267 266 266 264 265 265 265 265 264 263 263 263 263 263 264 264 263 263 263 267 272 273 274 275 276 276 276 277 274 273 273
279 278 277 276 275 276 276 276 277 278 280 278 275 275 275 275 275 275 276 274 273 271 268 269 266 265 266 267 269 271 270 269 267 267 265 265 265 265 265 265 264 264 264 264 264 264 264 264 263 263 264 268 271 273 274 275 276 276 276 276 274 275
278 278 276 276 274 276 275 275 276 279 277 275 276 275 273 271 274 274 272 272 271 268 268 269 268 265 264 264 265 266 267 267 267 266 265 265 265 265 265 265 265 265 265 264 264 264 264 263 263 263 264 264 265 267 269 271 272 275 275 274 273 274
278 276 276 278 277 276 275 275 276 276 275 272 271 270 271 271 272 272 272 270 268 268 267 268 267 266 265 264 265 266 266 266 266 266 267 266 266 265 265 265 265 266 266 265 265 264 263 263 263 264 264 265 265 266 267 267 268 269 270 271 270 270
277 277 277 278 276 275 274 274 273 272 273 270 266 268 270 270 270 269 269 267 266 266 265 265 264 265 265 263 263 264 265 266 266 267 267 265 265 267 267 266 267 267 266 266 265 264 264 263 263 264 269 267 270 267 267 267 268 269 270 272 273 271
275 275 276 275 275 274 273 272 271 270 271 268 266 268 269 268 267 266 266 265 265 263 263 263 263 262 263 262 262 261 262 267 271 268 265 264 270 273 273 272 268 267 266 266 266 267 266 265 266 270 273 273 273 274 274 273 273 274 272 273 275 274
274 274 274 274 274 273 272 270 269 268 268 269 268 268 269 268 269 267 267 267 266 267 265 264 264 264 263 263 262 262 262 262 264 272 273 272 271 272 274 274 274 274 273 268 265 268 273 272 272 273 274 274 275 275 275 275 276 276 276 276 274 270
273 273 273 273 272 271 269 268 267 267 267 266 266 266 267 267 269 269 268 268 265 267 265 264 264 263 263 262 262 262 262 262 263 263 270 273 273 273 273 273 274 274 274 274 271 267 267 272 273 274 274 275 275 275 276 276 276 277 277 276 276 268
272 271 271 271 269 269 267 266 264 264 263 263 264 264 265 264 265 266 266 266 266 265 265 264 264 263 263 262 262 261 262 262 262 263 263 267 273 274 273 273 274 274 275 275 275 274 271 270 272 274 275 275 276 276 276 276 276 276 276 276 272 267
271 270 270 268 267 267 265 263 260 260 260 260 262 262 264 263 264 264 265 265 263 264 262 263 261 263 263 262 262 261 261 261 262 262 263 263 264 269 272 274 275 274 275 275 275 275 275 275 275 275 275 275 275 275 275 275 273 275 276 274 268 265
268 266 265 266 265 264 261 259 257 258 258 260 260 261 261 261 262 262 263 263 263 261 261 261 261 261 260 261 260 261 261 261 261 262 262 261 263 264 265 265 266 270 273 272 272 273 274 275 275 275 275 275 275 275 274 274 271 270 270 271 266 264
264 263 262 262 262 261 259 256 257 257 257 257 258 258 259 260 261 260 260 260 260 260 261 260 260 260 260 259 259 259 260 260 260 260 260 261 260 260 260 261 263 264 267 270 271 272 272 272 273 273 274 274 274 274 274 269 268 267 267 266 264 263

ECMWFFLT1_sfc_thetae_045.txt.gz
Theta_e
288 287 287 287 287 287 287 287 286 286 286 286 286 286 286 285 286 285 285 285 286 285 284 283 283 283 283 282 282 282 281 280 280 280 280 280 280 280 279 279 279 279 278 279 279 279 279 278 278 277 277 277 277 277 277 276 275 276 275 276 276 277
288 287 287 286 286 286 286 286 286 285 285 285 285 284 284 284 284 284 284 283 284 283 282 282 283 283 282 282 282 281 281 280 280 280 280 280 280 279 279 279 278 278 278 278 278 278 277 277 276 277 277 276 276 276 276 275 275 274 274 275 275 277
288 287 287 286 285 286 286 286 286 285 285 284 284 284 283 283 283 283 283 283 282 282 282 282 282 281 281 281 281 280 280 280 280 280 280 279 279 279 278 279 279 278 278 278 278 277 277 276 276 276 276 276 275 276 275 274 274 273 273 274 274 274
287 286 285 285 284 284 285 285 285 284 284 284 284 283 283 283 283 283 283 282 282 282 281 281 281 281 281 280 280 280 279 279 279 279 279 279 279 279 279 278 278 278 277 277 277 277 276 276 276 275 275 275 275 275 277 274 273 272 273 273 273 273
287 286 285 284 284 284 284 284 285 284 283 283 283 283 283 283 283 283 282 282 281 281 281 281 281 281 280 280 279 279 279 279 279 279 279 279 279 278 278 278 278 278 278 277 277 277 276 275 275 275 274 274 274 274 273 274 272 272 272 273 273 273
286 284 284 284 284 283 284 284 284 284 283 283 283 283 282 282 282 282 282 281 281 280 280 280 280 280 280 279 279 279 279 279 279 279 279 279 278 278 278 278 278 278 278 277 276 275 275 275 274 274 274 274 273 273 273 272 272 272 272 272 272 272
285 285 285 284 284 284 284 284 284 284 283 283 283 282 282 282 282 282 281 281 280 280 280 280 280 280 279 279 279 279 279 279 279 278 278 278 278 278 278 278 278 277 277 277 275 275 274 274 274 274 274 274 273 273 273 272 272 272 272 272 272 276
286 285 284 284 284 284 284 284 284 283 283 282 283 282 281 281 281 281 281 280 280 280 279 280 279 279 279 279 279 279 279 279 278 278 278 278 278 278 279 278 277 277 277 276 275 274 274 274 274 274 273 273 273 272 272 272 272 272 272 272 273 273
285 285 284 284 284 284 284 284 283 283 283 282 282 283 282 282 281 281 281 280 280 279 279 279 279 279 279 279 279 279 278 278 278 278 278 278 278 278 278 277 277 277 276 276 275 274 274 274 274 273 273 273 273 272 272 271 271 272 272 273 273 273
285 285 284 284 284 284 283 283 284 284 284 283 283 283 283 282 282 281 280 280 279 279 279 279 279 279 279 278 278 278 278 278 278 278 278 278 278 278 277 277 277 276 276 275 275 275 275 274 273 273 273 273 272 272 271 271 271 272 273 273 273 273
286 285 285 284 284 284 284 284 284 284 284 284 283 283 283 282 281 281 280 279 279 279 279 279 278 278 278 278 278 278 278 278 278 278 279 279 278 278 277 277 276 276 276 275 275 275 275 274 274 274 273 272 272 272 272 272 272 272 272 273 272 273
287 287 286 285 284 284 284 284 284 284 284 283 283 282 282 282 281 280 279 279 279 279 278 278 278 278 278 278 278 278 278 278 278 278 278 278 278 277 277 276 276 276 276 275 275 275 274 273 273 276 279 278 273 273 273 273 272 271 272 272 271 271
288 287 286 285 285 284 284 284 284 284 284 283 283 283 282 281 280 280 279 279 279 278 278 278 278 277 278 278 278 278 278 278 278 278 278 277 277 277 276 276 276 276 276 275 275 273 273 272 273 278 281 280 279 273 272 272 271 271 271 271 271 270
288 287 286 286 286 285 285 284 284 284 283 283 283 282 281 281 280 280 280 279 279 278 278 278 277 277 278 278 278 278 278 278 278 278 278 277 277 276 276 275 275 275 275 274 273 272 272 272 277 280 281 282 281 279 273 271 270 270 271 271 271 271
289 288 287 287 286 286 285 285 284 283 284 283 283 282 280 281 280 280 280 279 278 278 278 278 278 277 278 278 278 278 278 278 278 277 277 276 276 276 275 275 275 274 273 272 271 271 271 271 278 280 282 282 282 282 277 271 272 271 270 271 271 271
289 289 288 288 287 287 286 285 284 284 284 283 283 282 281 281 280 280 279 278 278 278 278 278 278 278 278 278 278 278 278 277 278 278 277 277 276 276 275 275 274 273 271 271 271 271 270 270 277 281 282 282 282 281 280 271 272 271 272 273 272 271
289 289 288 288 287 286 285 284 284 284 283 283 282 282 281 281 280 279 279 278 278 278 278 278 278 278 278 278 278 277 277 277 277 277 277 276 276 275 274 273 272 271 270 270 269 269 270 270 277 281 281 282 282 281 280 272 273 273 273 274 273 272
289 289 289 288 287 286 285 285 284 284 283 283 282 281 281 281 280 279 279 279 278 278 278 278 278 278 278 278 277 277 277 277 277 276 276 275 275 274 272 269 268 270 269 269 268 268 269 269 278 280 281 281 281 281 274 272 272 272 272 272 272 272
289 288 288 287 287 286 285 285 284 283 282 281 282 281 281 280 280 279 279 279 279 278 279 279 278 278 277 277 277 276 277 277 275 276 275 274 274 272 271 271 270 270 270 269 268 268 269 267 275 279 280 281 281 280 271 271 271 271 271 270 270 270
287 287 288 287 286 286 285 284 284 283 282 281 281 281 280 280 280 280 279 279 279 279 279 279 279 278 278 277 277 277 277 277 276 275 273 273 272 272 271 270 269 268 269 268 268 269 268 267 272 279 280 280 281 278 271 271 271 270 270 269 269 269
286 286 286 286 285 285 284 284 283 283 282 282 281 280 280 280 280 280 279 279 279 279 279 279 278 278 278 277 278 277 277 276 275 274 272 273 273 272 271 269 269 267 266 267 268 271 269 267 270 277 279 280 280 278 270 270 269 269 268 267 267 269
285 285 285 285 285 284 284 284 284 283 282 281 280 280 280 280 280 280 280 280 279 279 278 279 279 278 278 278 278 277 277 276 274 273 273 272 272 271 269 269 269 268 267 266 266 267 269 266 265 270 278 279 280 280 272 270 269 268 268 267 267 266
286 286 285 285 284 284 284 284 284 283 282 281 280 280 281 281 281 280 279 278 278 278 278 278 278 278 278 278 278 277 275 275 275 273 272 271 270 268 267 267 267 267 267 265 266 265 266 266 265 267 276 278 279 280 277 270 270 269 268 266 266 266
283 283 282 282 283 284 284 284 284 283 281 280 281 282 282 280 279 278 277 277 278 277 277 277 278 278 278 277 276 275 275 274 274 273 272 270 269 269 269 267 266 266 266 265 265 265 265 266 269 265 272 277 278 279 280 273 271 270 267 266 266 267
282 282 282 281 281 283 283 284 283 281 281 281 282 281 278 278 278 277 277 277 277 276 277 277 276 277 277 276 276 276 275 272 272 270 270 269 268 269 268 267 266 266 266 264 264 264 264 264 265 272 268 273 277 279 280 280 275 276 271 267 267 267
282 281 280 280 280 281 283 283 282 280 280 282 280 277 275 276 276 276 276 276 276 275 275 275 276 276 276 276 275 275 274 271 271 270 269 269 269 269 268 267 266 265 266 266 266 264 264 263 263 268 272 270 275 278 279 280 280 278 273 271 269 269
281 280 279 278 279 279 280 281 281 279 280 279 277 276 276 275 274 276 275 275 275 275 275 273 274 274 274 274 275 274 274 271 269 270 267 268 268 268 269 268 266 266 266 266 266 266 265 263 263 263 267 273 274 276 278 279 280 280 279 274 272 272
280 279 278 277 276 278 278 278 279 279 278 274 276 272 274 273 274 274 276 274 274 274 272 272 270 270 271 272 273 275 274 273 270 271 268 267 268 268 268 268 266 266 266 266 266 266 266 264 263 263 263 268 272 274 276 278 279 279 279 278 275 276
279 278 278 277 275 276 276 275 276 276 273 273 274 273 272 272 273 273 270 270 270 268 268 272 272 269 266 266 267 269 271 271 270 270 268 268 268 268 267 268 267 266 265 265 266 266 265 263 263 263 263 264 265 268 271 273 275 277 278 276 276 277
279 278 276 278 276 275 274 274 273 271 268 269 271 271 271 272 272 272 269 267 266 266 265 267 269 267 265 265 265 268 267 267 268 269 270 268 268 268 268 268 267 267 267 266 266 263 262 263 262 263 263 264 264 266 267 268 269 270 272 274 274 274
277 277 277 275 273 271 270 270 270 269 270 267 266 269 271 270 268 266 265 264 265 265 264 264 263 264 263 262 261 261 262 265 265 267 266 265 263 264 265 265 266 266 263 263 264 264 264 263 264 264 268 267 269 266 265 265 267 268 269 272 274 272
275 274 273 272 270 271 270 268 268 268 268 264 264 267 269 268 267 265 265 265 265 263 264 263 263 262 263 263 263 263 262 266 271 268 265 264 270 273 274 273 267 264 263 265 266 267 267 267 267 271 272 273 273 274 273 272 271 272 270 271 274 274
272 272 272 271 270 270 269 267 265 265 265 266 266 266 267 267 268 266 265 264 265 266 265 263 263 263 263 263 262 261 262 262 264 272 274 273 272 273 274 275 276 276 275 269 266 269 274 274 274 274 274 275 275 275 275 276 276 275 275 275 272 271
272 272 273 270 269 268 267 266 263 263 262 262 263 264 264 265 269 268 267 266 263 266 264 262 263 262 262 260 260 262 260 260 261 263 270 273 274 275 275 275 275 276 276 276 274 269 265 272 275 275 275 275 275 276 276 277 277 277 277 277 277 271
273 272 271 270 269 267 265 263 261 260 261 260 261 262 263 263 265 266 263 263 264 264 265 263 263 262 263 261 261 259 260 261 261 262 261 264 272 274 275 275 276 276 276 276 276 277 273 271 273 274 275 275 275 276 276 277 278 278 278 278 275 272
270 270 269 268 267 265 262 260 258 258 258 258 258 260 261 261 262 262 261 261 261 263 262 262 261 262 261 261 261 261 260 260 260 260 260 259 258 264 270 274 275 275 275 276 276 276 276 276 276 275 275 275 276 276 277 277 276 278 279 277 273 272
267 266 266 266 264 262 259 257 256 256 257 258 258 260 260 260 261 260 262 262 261 260 260 261 261 261 260 260 260 260 259 260 259 259 259 258 259 259 260 260 264 269 272 272 273 274 275 275 276 276 276 277 277 277 277 277 274 273 273 274 273 271
264 263 263 262 261 259 257 256 257 257 256 256 256 259 259 260 261 260 260 260 259 260 260 259 259 259 260 258 258 257 258 258 259 259 257 258 258 257 257 256 258 260 266 269 269 270 271 272 273 274 274 275 275 276 276 272 271 270 270 269 270 269

ECMWFFLT1_sfc_thetae_048.txt.gz
Theta_e
287 287 287 287 287 288 288 287 287 287 287 287 287 286 286 285 285 285 284 284 285 284 283 283 282 282 281 281 281 280 280 280 280 280 280 280 280 280 279 278 278 278 278 278 278 278 278 278 278 278 277 277 277 276 276 276 277 277 276 276 276 276
287 287 287 286 286 286 287 286 286 286 286 286 286 285 285 284 284 284 284 284 284 284 283 282 282 281 281 281 280 280 280 280 280 280 280 280 280 279 278 278 278 278 278 278 278 278 278 278 278 277 277 276 276 276 276 276 276 276 275 275 275 277
286 286 286 286 286 286 286 286 286 286 285 285 285 285 284 284 284 284 284 284 284 283 282 282 281 281 281 280 280 280 279 280 280 280 280 279 279 278 278 278 278 278 278 278 278 278 278 278 277 277 276 276 275 274 275 274 275 275 274 274 274 275
286 285 285 285 285 285 285 286 285 285 284 285 285 285 284 284 284 284 284 284 283 283 282 281 281 281 281 280 279 279 279 279 279 279 279 279 278 278 278 278 278 278 278 278 278 278 277 277 277 277 276 275 275 274 275 274 274 274 273 273 273 273
286 285 285 285 285 285 285 285 285 285 285 284 284 285 284 285 284 284 284 283 283 282 282 281 281 281 280 280 279 279 279 279 279 279 279 278 278 278 278 278 278 278 278 278 277 277 278 278 277 277 276 275 275 275 274 274 273 273 273 273 273 273
286 285 285 284 285 285 285 285 286 285 285 284 284 284 284 284 284 283 283 283 282 281 281 281 281 280 280 279 279 279 278 279 279 279 279 278 278 278 278 278 278 278 277 277 277 278 277 277 276 276 276 275 275 274 274 273 273 273 273 273 272 272
285 285 285 285 285 285 285 286 285 285 285 284 284 284 284 283 283 283 283 282 281 281 281 280 280 280 279 279 279 279 278 278 278 279 278 278 278 278 277 277 277 277 277 278 278 277 277 276 276 276 276 275 274 273 273 273 273 272 272 272 272 275
285 285 285 285 285 285 285 285 285 285 284 284 284 284 283 283 283 283 282 282 281 281 281 280 280 280 280 279 279 279 278 278 278 278 278 278 278 277 277 277 277 278 278 278 278 277 276 276 276 276 276 275 273 273 273 273 273 272 272 272 272 274
285 285 285 285 285 285 285 285 285 284 284 283 283 283 283 282 282 282 282 281 281 281 281 280 281 281 280 280 279 279 278 278 278 278 278 278 278 278 277 277 277 278 278 278 278 277 276 276 276 275 275 274 273 273 273 272 272 271 271 271 272 272
286 285 285 284 284 284 284 285 285 285 284 283 283 283 283 283 282 282 282 281 281 281 281 281 281 281 280 280 279 279 278 278 278 278 278 278 278 278 278 277 278 278 278 277 277 277 276 276 275 275 274 274 273 274 273 272 271 271 271 272 272 272
286 285 285 284 284 283 284 284 285 285 284 283 283 283 283 283 283 282 282 281 281 281 281 281 281 280 280 279 279 278 278 278 278 278 278 278 278 278 278 278 278 278 277 277 276 276 276 276 275 275 274 274 274 274 273 272 271 272 272 272 271 271
286 286 285 284 284 283 284 284 284 284 284 283 283 283 283 283 283 282 282 281 281 281 280 280 280 280 279 279 278 279 278 278 278 277 277 277 278 278 278 278 278 278 277 276 276 276 276 275 275 277 279 279 275 273 272 272 271 272 272 272 272 271
286 285 285 284 284 284 284 284 284 284 284 283 283 283 283 283 283 282 282 281 281 280 280 280 280 279 279 279 279 278 278 278 277 277 277 277 277 278 277 277 277 277 277 276 276 275 275 275 275 279 282 282 280 274 272 272 272 272 272 272 272 271
286 286 285 285 285 284 284 284 284 284 284 284 283 283 283 283 283 282 281 281 280 280 280 280 280 279 279 278 278 278 278 277 276 276 277 277 277 277 277 277 277 277 277 276 276 275 275 275 278 281 283 283 282 279 273 272 272 272 272 272 272 271
288 287 287 286 286 285 286 286 285 285 285 284 284 283 282 282 282 282 281 281 280 280 280 280 279 279 279 278 278 278 277 276 276 276 276 277 277 277 276 276 276 276 276 276 275 275 275 275 278 282 284 284 284 282 276 271 271 271 271 272 271 271
288 288 287 287 287 287 286 286 286 285 285 284 283 283 282 282 282 282 282 281 280 280 279 279 279 279 279 278 277 276 276 276 276 276 276 277 277 277 277 276 276 276 276 275 275 275 274 274 277 282 284 284 284 283 279 270 271 271 271 271 271 271
289 288 287 287 287 286 285 285 285 284 284 284 283 282 282 282 282 282 281 280 280 279 279 279 279 278 278 277 276 276 276 276 276 276 276 277 277 277 276 276 276 276 275 275 275 274 273 273 277 281 284 284 285 285 282 271 272 271 271 272 272 271
289 288 288 287 286 286 285 285 285 284 283 283 283 282 282 282 282 281 281 280 279 279 279 279 278 278 277 276 276 276 277 277 277 276 276 276 277 277 276 276 275 275 275 274 273 272 272 271 278 281 283 284 285 285 279 272 272 271 271 271 272 272
288 288 287 286 286 285 285 285 284 284 283 283 283 282 282 282 282 281 281 280 279 279 279 279 278 277 277 276 276 276 277 277 276 276 276 275 275 275 274 274 274 274 274 273 271 271 271 270 275 281 283 284 285 284 274 272 271 271 271 271 271 271
286 286 287 286 285 285 285 284 284 284 283 283 283 282 282 282 282 282 281 280 280 279 279 278 278 277 277 276 276 277 277 277 276 276 275 275 275 274 274 273 273 272 272 272 270 270 270 270 273 280 282 284 285 283 274 272 271 271 270 270 270 270
287 287 287 286 285 284 284 284 284 283 283 283 282 282 282 282 282 282 281 281 280 279 278 278 278 278 277 277 277 277 277 277 277 276 275 275 274 274 273 272 271 270 268 269 269 272 271 270 272 278 281 283 284 282 274 272 270 270 270 270 269 269
286 286 286 286 285 284 284 284 284 284 283 283 282 282 282 282 282 282 281 280 280 279 279 279 278 278 278 278 278 278 277 277 275 275 274 274 274 273 271 270 270 270 270 268 267 268 270 270 268 271 280 283 283 284 274 271 270 270 270 269 268 267
287 286 286 286 284 284 284 285 284 284 283 283 282 282 282 283 282 281 280 280 279 279 278 278 279 278 278 279 278 278 276 276 276 275 274 273 272 271 269 269 269 269 269 268 267 267 268 269 268 269 278 281 283 284 281 271 271 271 271 268 267 267
285 285 285 285 285 285 285 285 284 284 283 282 281 282 282 281 281 280 279 279 279 278 278 278 278 279 279 278 277 276 275 275 275 275 274 272 271 271 271 269 268 269 269 268 267 267 267 268 271 268 274 279 282 283 284 275 272 272 269 268 267 267
284 284 284 284 284 285 285 285 284 283 282 282 282 282 281 280 280 279 279 278 278 278 278 278 277 278 277 277 277 276 276 274 274 273 272 272 270 270 270 269 268 268 268 267 267 266 267 267 267 273 270 275 280 282 283 283 277 277 272 268 268 268
283 282 282 283 284 284 285 285 283 282 281 282 280 279 279 279 279 278 278 277 277 277 277 277 277 277 276 276 276 276 275 274 273 272 272 271 271 270 270 270 268 267 268 268 269 268 267 266 265 269 274 273 276 279 282 283 283 281 274 270 269 269
282 281 281 281 282 283 284 284 283 281 281 280 279 279 278 278 277 278 277 277 276 276 276 275 275 275 275 276 276 275 275 273 271 272 270 269 270 270 270 270 269 268 269 269 269 270 269 266 265 264 267 273 275 277 278 280 282 282 282 276 272 271
281 281 280 279 279 280 281 281 283 281 280 277 277 277 277 277 277 277 277 276 275 274 273 274 272 273 274 274 275 276 276 275 272 273 271 269 270 270 270 270 269 268 268 268 269 270 269 264 263 264 263 267 270 273 276 278 279 280 280 281 278 276
280 279 279 279 277 277 277 277 277 277 276 276 276 276 276 276 277 276 274 273 272 270 271 273 272 270 269 269 270 271 272 271 272 272 271 270 270 270 270 270 269 269 268 268 269 268 264 263 262 262 261 262 263 264 267 269 272 276 278 278 278 279
280 279 279 278 276 275 274 275 274 271 272 272 274 273 274 275 275 275 273 271 270 269 268 271 269 270 267 266 268 270 267 267 270 271 272 271 270 270 270 269 268 269 268 267 266 263 262 265 262 262 262 262 263 264 265 267 268 270 271 273 275 276
277 277 277 276 273 273 273 272 271 270 271 271 270 273 274 273 270 270 268 266 268 268 266 268 269 269 268 266 261 263 265 269 267 268 266 263 263 265 266 266 266 266 263 264 265 264 266 266 266 265 269 266 269 266 265 265 267 268 270 272 275 274
276 275 274 272 272 272 272 270 269 267 267 265 267 271 272 269 269 267 266 267 266 265 265 265 264 263 265 266 266 264 262 266 272 269 267 266 271 274 275 274 268 265 263 264 265 266 267 268 267 273 275 275 275 275 275 273 273 272 271 272 275 275
273 273 272 271 270 270 269 267 265 265 264 265 266 267 269 269 269 268 266 265 266 266 265 264 264 262 262 262 262 261 263 262 264 273 275 274 273 274 275 276 277 277 275 269 265 267 274 275 276 277 277 277 276 276 277 277 277 276 275 275 272 271
273 273 272 269 269 268 267 265 262 262 262 261 262 264 266 268 270 270 268 267 264 266 265 263 263 262 262 260 260 260 260 261 261 263 271 274 274 276 276 276 276 277 277 278 275 270 265 272 276 276 276 276 277 277 277 277 278 278 278 277 277 270
272 271 270 268 267 266 265 263 260 260 260 260 261 262 264 264 267 266 264 263 263 264 264 262 262 261 262 260 259 258 259 261 260 262 261 264 272 273 274 275 276 277 277 277 277 278 276 274 274 275 276 276 276 277 277 277 278 278 279 279 275 273
270 270 269 267 265 264 262 260 259 258 258 259 259 261 263 262 263 262 261 261 261 262 261 261 260 261 260 259 260 259 261 259 259 258 259 259 259 262 267 273 274 274 274 275 276 276 276 276 276 277 277 277 277 277 277 277 276 278 279 278 274 274
269 267 266 265 263 261 259 258 258 257 257 258 258 261 261 261 261 260 261 262 261 259 260 260 261 260 258 259 258 258 259 259 259 258 257 257 259 259 257 257 260 267 272 271 271 273 274 274 274 274 275 275 275 276 277 277 274 273 274 275 274 274
264 263 262 261 260 259 258 257 257 257 256 256 256 258 259 259 259 259 260 259 259 259 259 258 258 259 259 258 256 257 258 258 259 257 256 257 256 255 255 255 255 258 265 269 269 270 270 271 272 272 272 273 273 273 274 269 269 270 270 271 271 271

ECMWFFLT1_sfc_thetae_051.txt.gz
Theta_e
288 289 289 290 290 290 290 290 290 290 291 293 293 291 290 288 287 285 284 284 284 283 282 281 281 281 281 281 281 280 280 279 279 279 279 279 280 280 280 279 279 279 278 278 278 278 277 277 277 277 277 277 277 277 277 277 276 277 276 276 276 276
288 288 289 288 288 288 288 288 288 288 289 290 291 290 289 287 286 284 283 283 283 283 282 281 281 281 280 280 280 280 280 280 280 279 279 280 280 280 280 279 279 278 278 277 278 277 277 277 277 277 277 277 277 277 277 276 276 276 276 275 276 276
287 287 288 288 287 287 287 288 287 288 288 288 289 289 287 286 285 284 284 283 283 282 281 281 280 280 280 279 280 280 280 279 280 280 280 280 280 279 279 278 278 278 278 277 278 277 277 277 277 277 276 277 276 277 276 275 275 275 274 275 275 275
286 286 285 285 286 286 286 287 287 287 287 288 287 288 287 287 285 284 284 283 283 282 281 281 280 280 280 279 279 279 279 279 280 280 279 279 279 278 278 278 278 278 278 278 277 277 277 277 277 276 276 277 276 276 276 275 275 275 274 274 274 274
286 286 286 286 286 286 286 286 287 287 286 286 286 287 287 287 286 284 284 283 282 282 281 281 280 280 279 279 279 279 279 279 279 279 279 279 278 278 278 278 278 278 278 278 278 277 277 277 277 277 277 277 277 276 275 275 275 274 273 273 273 273
285 285 285 285 285 286 286 287 287 287 286 286 286 286 286 286 285 284 283 283 282 281 281 280 280 280 279 279 279 279 279 279 279 279 279 279 278 277 277 277 278 278 278 278 277 277 277 277 278 278 277 277 276 276 276 275 275 275 274 273 273 273
285 285 285 285 285 286 286 286 286 286 286 285 285 285 285 285 285 284 283 282 282 281 281 280 280 280 279 279 279 278 278 278 279 279 279 278 278 277 277 277 278 278 278 278 277 278 278 278 278 277 277 277 277 276 275 275 274 274 273 273 273 274
285 285 285 285 285 286 286 286 286 286 286 285 285 285 284 284 284 284 283 283 282 281 281 280 280 280 280 280 279 279 278 279 279 279 279 278 278 277 277 277 278 278 278 278 278 279 279 278 277 277 277 277 276 276 275 275 274 274 273 272 272 273
285 285 285 285 285 285 286 286 286 286 286 285 284 285 284 284 284 284 284 283 282 281 281 281 280 280 280 280 280 279 278 278 279 279 278 278 278 277 277 278 278 278 278 278 279 279 278 278 277 277 277 276 276 275 275 274 274 274 273 272 272 273
285 285 285 285 285 285 285 286 286 286 285 285 284 284 284 284 283 283 284 282 282 281 281 281 281 280 280 280 280 279 279 278 278 278 278 278 278 278 278 278 278 278 278 279 279 278 278 277 277 277 276 276 275 275 275 275 274 273 273 273 273 273
285 285 285 285 285 284 285 285 285 285 285 285 284 284 284 284 283 283 283 282 282 282 282 281 281 280 280 280 280 279 279 279 279 279 278 278 278 279 279 279 279 278 278 278 278 278 277 277 277 277 276 276 275 275 275 275 274 274 273 273 273 273
286 285 285 285 285 284 284 285 285 285 285 285 284 283 284 283 283 283 282 282 282 282 281 281 281 281 281 280 280 280 279 279 278 278 278 279 279 279 279 278 279 279 278 278 277 277 277 277 277 278 280 279 276 275 275 275 274 274 273 273 272 272
286 285 285 285 285 285 285 285 285 285 285 285 284 284 283 283 283 283 282 282 282 282 282 282 281 281 281 280 280 280 279 279 279 279 279 279 279 278 278 279 278 278 279 278 277 277 276 277 277 280 282 282 281 277 275 275 274 273 273 273 272 272
286 286 286 286 286 285 285 285 285 285 285 285 284 284 283 283 283 283 283 283 283 282 282 282 281 281 280 280 280 280 280 280 279 278 278 278 278 278 279 278 278 278 278 278 277 277 277 276 279 281 282 283 283 281 276 275 274 273 273 272 272 272
287 287 287 286 286 286 286 285 284 284 285 284 284 283 282 282 282 283 283 283 282 282 281 281 281 281 280 280 280 280 280 279 279 278 278 278 278 278 278 278 278 278 278 277 277 277 277 276 280 282 283 284 284 284 279 274 274 273 273 272 272 272
288 288 288 287 287 286 285 285 285 285 284 284 283 282 282 282 282 282 282 282 282 281 280 280 281 280 280 280 280 280 279 279 278 279 279 278 278 278 278 278 278 278 277 277 277 277 276 276 280 283 283 284 285 285 282 274 274 272 272 272 272 272
288 287 286 286 285 284 284 284 284 284 283 283 282 282 282 282 282 282 282 281 281 280 280 280 280 280 280 280 280 279 279 279 278 278 278 278 278 278 278 278 277 277 277 277 277 276 276 276 280 282 284 284 285 286 284 273 272 271 271 272 272 272
288 287 286 285 285 284 284 284 284 283 282 282 282 281 281 281 281 280 280 280 280 280 280 280 280 280 280 280 279 278 279 278 278 278 278 278 278 278 278 278 278 278 277 277 276 276 275 276 281 282 283 284 286 286 282 273 272 271 271 271 271 272
287 287 286 285 285 284 283 283 283 282 281 281 281 281 280 281 280 280 281 280 279 279 280 280 280 280 280 279 278 278 278 278 278 278 278 277 278 278 278 277 278 278 277 276 276 275 275 275 279 282 283 284 286 286 279 273 272 271 270 271 271 272
284 284 285 284 283 283 283 283 283 282 281 281 280 280 280 280 280 280 280 280 280 280 280 280 280 280 279 279 278 278 279 279 279 278 278 277 277 277 277 277 277 276 276 275 274 274 274 274 277 281 283 283 285 285 279 275 274 273 272 271 272 271
284 283 283 283 282 282 282 283 282 282 282 282 281 281 280 280 280 280 281 281 281 280 280 280 280 280 279 279 279 279 279 279 278 278 277 277 277 277 276 275 275 274 273 274 274 275 274 274 275 280 282 283 284 284 280 276 274 273 273 272 272 271
283 282 283 282 282 281 282 282 282 282 282 282 282 282 281 282 282 282 282 282 281 281 281 280 280 280 280 279 279 279 279 279 277 277 277 276 276 276 275 274 274 274 273 272 272 272 273 273 272 274 280 282 284 285 281 275 274 273 273 272 272 271
284 283 282 282 281 282 282 283 283 283 282 282 282 282 283 283 284 283 283 282 281 281 280 280 280 280 280 280 279 279 278 278 278 277 276 276 275 274 273 273 273 273 273 272 271 270 271 271 271 272 278 280 282 284 284 276 275 275 275 273 271 270
282 282 281 281 282 282 283 283 282 282 282 282 282 283 284 284 283 283 282 281 281 281 280 280 280 280 280 279 279 278 277 277 278 277 276 275 274 274 273 272 272 272 272 271 270 269 270 271 273 270 275 279 281 283 285 280 276 276 273 272 271 270
282 281 281 281 282 282 283 284 283 283 283 282 283 283 283 282 282 282 281 281 280 279 279 279 279 279 279 278 278 278 277 276 276 275 275 274 274 273 273 273 272 271 271 270 270 270 269 269 269 274 272 276 279 281 282 284 282 281 275 272 272 272
281 281 280 281 282 283 285 285 284 283 283 283 282 281 281 281 281 281 280 279 279 279 279 278 278 278 278 278 278 278 277 276 275 274 274 274 274 273 272 272 271 270 270 270 271 271 270 269 268 271 274 274 276 278 280 281 283 284 278 273 273 273
281 281 280 281 282 283 285 285 284 282 282 281 281 281 281 280 280 280 279 279 278 278 278 277 277 277 277 277 277 277 277 275 274 274 272 272 273 272 272 272 271 271 271 270 271 272 270 268 267 265 269 274 275 277 278 279 280 281 282 280 277 275
282 281 281 280 281 282 283 283 284 283 282 279 280 280 280 279 279 279 279 278 277 277 276 276 276 276 276 276 277 277 277 276 274 275 273 272 272 272 272 272 271 270 270 270 271 271 268 265 264 264 264 269 272 273 276 278 278 279 279 279 279 281
282 281 281 280 279 279 280 279 279 280 279 278 279 279 279 279 279 278 277 277 276 275 275 276 275 274 274 274 274 275 275 275 274 274 273 272 272 272 271 271 270 270 269 269 270 268 266 264 262 262 262 262 263 265 267 270 271 275 277 276 276 277
281 280 280 278 277 277 277 276 274 274 276 276 277 277 278 278 278 277 276 275 274 274 274 275 271 273 273 272 273 274 272 271 273 273 273 272 272 271 271 270 270 270 270 269 268 266 265 267 264 261 261 262 262 263 263 264 265 266 267 269 271 272
280 279 278 276 275 276 275 272 270 269 271 272 272 275 277 276 274 274 272 271 272 272 271 272 272 272 273 270 267 265 266 270 269 271 269 266 267 270 270 270 270 269 266 268 267 266 267 266 265 265 270 266 270 266 263 263 264 265 265 269 273 272
278 276 275 273 273 273 271 268 267 266 266 266 266 270 273 272 271 270 268 269 268 267 267 267 266 265 266 267 266 265 265 270 274 270 269 267 271 275 277 276 269 266 265 265 264 265 267 267 265 274 276 276 276 277 276 274 273 272 269 271 274 273
273 273 272 270 269 268 266 264 263 263 263 263 265 267 270 271 271 268 267 267 267 266 266 265 264 263 263 264 264 264 265 264 267 276 276 275 275 275 276 277 277 277 274 269 262 266 275 275 276 277 277 278 278 278 278 278 278 278 278 278 275 272
272 272 270 269 267 266 264 262 261 260 261 262 263 265 268 269 271 269 267 265 264 266 265 264 264 264 264 262 262 263 263 264 264 265 273 275 275 276 277 277 277 277 277 277 275 269 266 273 277 277 277 277 277 277 277 278 278 278 278 278 279 273
270 269 268 267 265 264 262 261 260 260 260 260 262 264 267 267 268 267 265 264 265 264 265 264 264 263 263 262 262 260 262 263 263 263 262 264 273 274 274 276 276 277 276 277 277 278 276 275 276 277 277 277 277 277 277 278 278 278 278 278 275 274
268 267 266 264 262 261 260 259 259 258 258 259 260 263 265 265 264 264 264 264 264 264 263 262 262 262 261 261 260 259 260 259 258 257 258 258 259 263 269 273 273 274 274 275 275 275 275 275 275 275 275 276 275 275 275 275 274 276 277 276 274 274
266 265 264 263 261 260 259 258 258 257 257 257 258 262 263 263 263 262 262 262 262 261 261 261 261 260 259 259 259 258 259 259 258 258 257 256 258 257 258 255 258 266 272 270 270 272 273 273 273 273 273 273 273 273 273 272 268 267 268 269 268 268
263 262 261 261 260 259 259 257 257 257 256 256 258 261 261 261 262 261 261 260 260 260 259 258 259 259 259 258 257 257 257 258 259 257 256 257 256 254 254 254 253 256 264 268 268 269 270 271 271 271 271 271 271 270 269 262 261 262 263 263 264 265

ECMWFFLT1_sfc_thetae_054.txt.gz
Theta_e
287 288 289 289 290 291 291 292 293 294 294 294 294 293 292 291 291 290 289 287 287 287 287 286 286 286 285 284 283 281 280 280 279 279 279 279 280 280 280 279 279 279 278 278 278 278 278 278 278 278 278 278 277 277 277 277 277 277 277 276 277 277
287 288 288 289 289 289 290 290 291 292 293 293 293 292 291 290 289 288 287 286 286 285 284 284 284 284 284 283 281 280 280 280 279 279 278 279 280 280 279 279 279 278 278 278 278 278 277 277 277 277 277 277 277 277 277 276 277 277 276 276 276 277
286 286 287 288 287 287 288 289 290 291 291 291 292 292 290 290 289 288 288 286 285 284 283 283 282 282 282 281 280 280 280 279 279 279 279 279 279 279 279 279 279 278 278 277 278 277 277 277 277 277 277 277 277 276 277 276 276 276 276 276 276 276
285 285 285 285 286 287 287 288 288 289 289 290 290 290 289 289 288 288 287 286 285 284 283 282 282 281 280 280 279 279 279 279 279 279 279 279 279 279 279 279 278 277 277 277 277 277 277 277 277 276 277 277 276 276 277 276 276 276 276 277 276 275
285 286 286 286 287 287 287 287 288 288 288 288 289 289 289 289 288 288 287 286 285 284 283 282 281 280 279 279 279 279 278 278 278 278 279 279 279 279 279 278 278 277 277 277 278 277 277 277 277 276 276 277 277 277 277 277 277 276 276 276 276 275
284 284 285 285 286 286 286 287 287 287 288 288 288 288 288 288 288 287 286 285 285 284 282 282 281 279 279 279 279 279 278 278 278 278 279 279 278 278 278 277 278 277 278 278 277 277 276 276 276 276 277 277 278 278 278 277 276 276 277 277 276 275
284 285 285 286 286 286 286 287 287 287 287 287 287 287 287 287 287 287 286 285 284 283 282 281 280 280 279 279 278 278 278 278 278 278 278 278 277 277 277 277 278 278 278 278 277 277 277 277 277 277 277 278 278 278 278 277 277 276 276 276 276 277
285 285 285 285 286 286 286 286 287 287 287 287 287 287 285 286 285 286 286 285 284 283 282 281 280 280 279 278 278 278 278 278 278 278 278 278 278 277 277 277 277 278 278 278 278 278 278 278 278 278 277 277 277 277 277 277 277 276 276 275 276 276
284 285 285 285 285 286 286 286 287 287 287 287 286 286 286 285 285 285 286 285 284 283 282 282 281 280 279 279 279 279 278 278 278 278 278 278 278 277 277 278 278 278 278 278 278 278 278 278 278 278 277 277 277 277 277 276 276 275 275 275 275 275
285 285 285 285 285 285 286 286 287 287 287 287 286 286 285 285 284 284 285 285 284 284 283 282 282 281 280 279 279 279 279 279 279 279 279 278 278 278 278 278 278 278 278 278 278 279 279 278 278 278 277 277 277 276 276 276 276 275 275 274 274 275
285 285 285 285 285 285 285 285 286 286 286 287 286 285 285 285 284 284 284 284 285 284 284 282 282 281 280 280 279 279 279 279 279 279 278 278 278 279 278 278 279 278 278 278 278 278 278 278 278 278 277 277 276 276 276 276 276 275 275 274 274 274
285 285 285 284 285 285 285 285 285 286 286 286 286 285 285 284 284 284 284 284 284 285 284 283 282 281 280 279 279 279 279 279 279 279 279 279 279 279 278 278 278 278 278 278 278 278 278 278 278 280 281 280 277 276 276 276 275 275 275 275 274 274
285 285 285 285 285 285 285 286 286 286 286 286 285 285 284 284 284 284 284 284 284 284 283 283 282 281 280 280 280 279 279 279 279 279 279 279 279 278 278 278 278 278 278 278 278 278 278 278 278 281 283 283 282 277 276 276 276 275 275 275 274 274
286 285 286 286 286 285 285 285 285 285 285 286 285 285 284 284 284 284 284 283 283 283 283 283 282 281 281 280 280 280 279 279 279 279 279 279 278 278 278 278 278 278 278 278 278 278 278 278 281 283 284 284 284 281 277 276 276 276 275 274 274 274
288 287 287 287 286 286 286 286 285 285 285 285 285 284 283 283 283 283 283 282 282 282 282 282 282 282 281 281 281 280 280 279 279 279 279 278 279 278 278 278 278 278 278 278 278 277 278 277 281 283 284 285 285 284 280 276 276 276 275 274 274 274
289 288 288 288 287 287 286 285 285 285 285 285 284 283 283 283 282 283 282 281 281 281 281 282 282 282 281 281 281 280 279 279 279 279 279 279 279 278 278 278 278 278 278 278 278 277 277 277 281 283 284 285 285 286 283 276 276 276 275 274 274 274
289 288 287 287 285 284 284 284 284 284 284 284 283 283 282 282 282 282 282 281 281 280 281 282 282 282 281 281 280 280 279 279 279 279 279 279 279 278 278 278 278 278 278 278 278 277 277 277 282 283 285 285 286 286 286 278 276 275 275 274 274 274
289 289 288 284 284 284 284 284 284 283 283 283 283 282 282 282 281 281 281 281 280 280 281 282 282 282 281 280 280 279 279 279 279 279 279 279 279 278 278 278 278 278 278 278 277 277 277 277 282 283 284 285 286 286 284 279 276 275 274 274 274 274
287 287 284 283 284 283 283 283 283 283 282 282 281 281 281 281 281 281 281 280 280 281 281 282 282 281 281 280 280 279 279 279 279 279 279 278 279 278 278 278 278 278 278 278 277 277 277 277 281 283 284 285 286 286 283 280 277 275 274 274 274 274
284 284 283 282 282 282 282 282 282 282 281 281 280 280 280 280 280 280 280 280 280 281 281 281 281 281 280 280 279 279 279 279 278 277 277 278 278 278 278 278 278 278 278 278 277 277 277 278 279 283 284 284 285 285 282 280 277 276 275 275 274 273
281 281 282 282 281 281 281 282 282 281 280 280 279 280 279 280 280 280 280 280 280 280 280 280 280 280 280 279 279 278 278 278 278 278 278 279 279 278 278 278 278 277 277 277 278 279 278 277 278 281 283 284 285 284 282 280 277 277 276 275 275 274
281 281 281 281 280 280 281 281 281 280 280 279 279 279 279 280 280 279 280 279 280 280 280 281 281 280 280 280 279 279 279 279 279 278 278 278 278 278 278 277 277 277 277 276 276 276 277 276 275 277 282 283 284 285 283 280 278 277 277 277 276 275
281 280 279 279 280 280 281 281 281 280 279 279 279 279 279 279 279 280 280 279 279 280 280 280 281 281 280 280 279 280 279 279 279 279 278 278 277 277 276 276 276 276 276 275 274 274 274 274 274 275 280 281 283 284 284 281 279 279 278 277 276 275
280 279 279 279 280 280 281 281 280 279 279 279 278 277 279 280 280 280 280 280 280 280 280 280 281 281 281 281 280 279 279 279 279 279 278 278 277 276 276 276 275 275 275 274 273 273 273 274 276 273 277 280 281 283 284 282 280 279 277 276 275 274
279 279 279 279 279 280 281 281 279 279 279 279 278 279 280 281 281 281 281 280 280 280 280 281 281 281 281 280 280 280 279 278 278 278 277 277 276 276 275 275 274 273 273 273 273 272 272 271 271 276 273 277 279 281 282 283 282 283 278 275 275 276
279 279 278 278 279 279 281 281 280 279 279 278 279 279 280 280 280 281 281 281 280 280 280 280 280 280 280 280 280 279 278 277 277 276 276 276 275 275 274 274 273 273 272 273 273 272 271 270 269 273 276 275 277 278 280 281 282 283 279 276 276 277
279 279 278 278 278 278 279 279 280 280 280 280 281 281 281 281 281 281 281 280 280 280 280 279 279 279 279 279 279 278 277 276 276 275 274 275 275 274 274 273 273 272 272 272 272 272 270 269 268 267 271 276 276 278 279 280 280 281 281 279 278 277
279 279 279 278 278 279 278 279 281 281 279 279 280 280 280 281 281 281 280 280 279 279 278 278 278 278 278 278 279 278 278 277 276 276 274 274 274 274 274 273 272 272 271 271 270 270 268 265 265 266 265 270 274 276 278 279 279 279 280 280 278 280
279 278 278 277 275 276 276 277 277 278 278 278 279 280 280 280 280 279 279 278 278 277 278 278 277 277 276 277 277 277 277 276 276 275 274 273 273 272 272 271 271 270 269 269 268 266 265 263 262 263 263 263 265 267 269 271 271 275 276 275 274 275
278 277 276 275 274 273 272 272 273 274 276 277 278 279 280 279 279 278 277 276 276 275 276 276 272 274 275 274 275 275 274 273 274 274 274 273 272 272 270 269 269 269 270 269 268 266 264 265 264 263 264 264 263 263 263 263 263 263 263 265 267 267
277 276 275 274 272 271 270 269 268 268 270 272 273 278 278 276 275 274 274 273 274 273 272 273 273 273 273 271 267 266 267 270 270 271 267 266 268 271 271 270 269 269 267 268 267 266 266 265 265 267 271 267 270 266 262 261 263 263 263 267 272 270
277 275 274 273 272 270 268 267 265 265 264 265 267 272 273 272 272 271 269 269 270 269 270 269 268 268 269 269 268 269 270 272 275 271 268 266 273 276 277 276 268 266 265 265 265 266 267 265 265 274 276 276 276 276 276 273 273 273 270 272 276 275
275 273 271 269 268 266 265 264 262 262 262 263 264 270 272 272 271 270 269 269 268 268 268 267 266 265 266 267 268 268 268 267 271 277 277 276 276 277 278 278 278 277 274 268 260 265 275 275 276 277 277 278 278 278 278 278 278 278 278 278 276 274
273 271 268 266 265 264 263 262 261 261 261 261 263 266 270 271 272 270 267 267 266 267 266 265 265 264 265 263 263 266 266 267 266 268 276 277 277 278 278 278 278 278 277 277 274 268 267 274 277 277 277 278 278 278 278 278 278 278 279 279 279 275
270 268 266 264 263 263 262 262 261 260 260 261 262 265 268 268 269 267 266 265 265 265 265 265 265 264 264 264 263 263 265 265 265 265 262 268 276 277 277 277 278 278 278 278 278 278 276 276 277 277 277 276 276 277 276 277 277 277 277 277 273 272
268 266 264 263 262 262 262 261 259 258 258 259 262 266 267 266 266 266 265 265 265 265 264 263 263 262 262 261 262 262 263 261 262 262 264 263 263 267 270 273 275 275 275 276 276 276 275 275 275 275 275 275 275 274 275 274 272 275 275 272 267 268
265 264 263 263 262 262 261 260 258 257 257 258 261 265 265 264 264 263 263 263 263 263 262 262 262 261 260 260 260 261 260 260 258 260 262 262 263 262 259 257 259 268 273 270 271 273 274 273 273 274 273 273 273 272 272 271 265 264 264 264 264 264
264 263 262 261 261 261 260 258 257 257 255 257 260 263 263 263 263 262 262 261 261 261 261 260 260 260 260 260 258 258 259 259 260 259 257 257 257 257 256 255 255 258 265 268 268 271 271 272 272 271 271 271 270 269 269 257 256 256 257 258 258 258

ECMWFFLT1_sfc_thetae_057.txt.gz
Theta_e
288 288 289 290 291 292 293 294 296 297 297 298 299 299 298 296 296 295 295 294 294 293 292 291 291 291 291 290 290 288 287 286 285 285 286 285 284 284 284 283 282 282 282 282 282 282 282 282 282 282 282 282 281 281 281 281 282 282 281 281 281 281
287 288 289 289 290 291 292 293 294 295 296 296 297 298 297 295 294 294 293 292 293 291 290 290 290 290 290 289 288 286 285 285 284 284 284 284 283 284 283 283 282 282 281 281 281 281 281 281 281 281 281 281 281 281 281 281 281 281 280 280 281 280
287 287 288 289 289 290 290 292 293 294 294 295 295 295 294 294 294 293 293 291 291 290 289 289 289 288 289 288 287 286 285 284 284 284 284 283 283 283 282 282 282 281 281 281 281 281 280 280 280 280 280 280 280 280 280 280 280 280 280 280 279 280
286 286 287 287 288 288 289 290 291 292 293 294 294 294 293 293 292 293 292 290 290 289 289 288 288 288 288 287 286 285 284 283 283 283 282 282 282 282 282 282 281 281 281 281 280 280 280 280 280 280 280 280 280 279 279 279 280 279 279 279 279 279
286 286 287 287 288 288 288 289 290 291 292 292 293 293 293 293 292 291 291 290 289 289 288 287 286 286 285 285 284 284 283 283 282 282 282 282 281 282 282 281 281 280 280 280 280 280 280 280 279 279 280 280 280 279 279 279 279 279 279 279 278 278
285 286 286 286 287 287 288 289 289 290 291 292 292 292 292 291 291 290 289 289 288 288 287 286 285 284 284 284 283 283 283 282 281 281 281 281 281 281 281 281 280 280 280 280 279 279 279 279 279 279 280 279 280 279 279 279 279 280 280 279 279 278
285 286 286 287 287 287 288 288 289 289 290 291 291 292 292 291 290 289 289 288 288 287 286 285 284 284 283 283 283 282 282 281 280 281 281 280 280 280 280 280 280 279 279 279 279 279 279 279 279 279 279 279 280 280 279 279 279 279 279 279 279 279
286 286 286 286 287 287 288 288 288 289 289 290 291 291 291 290 289 289 288 288 287 286 285 285 284 284 283 283 283 282 281 281 280 280 280 281 280 280 280 280 279 280 279 279 279 279 279 279 279 279 279 279 279 279 279 279 279 279 279 279 279 279
285 286 286 286 287 287 287 288 288 288 289 289 289 290 290 289 288 288 288 287 287 286 285 285 284 284 283 283 283 282 281 280 280 280 280 280 280 280 280 280 279 280 279 279 279 279 279 279 279 279 279 279 279 279 279 279 278 278 278 278 278 279
286 286 286 286 286 287 287 287 288 288 288 288 289 289 289 288 287 288 288 287 287 287 286 285 284 284 283 283 282 281 280 280 280 280 280 280 280 280 280 279 279 279 279 279 279 279 279 279 279 279 279 279 279 279 279 279 278 277 277 277 277 278
288 287 286 286 286 286 286 287 287 287 288 288 288 288 288 288 287 287 287 287 287 287 286 285 284 284 283 282 282 281 280 280 280 280 280 280 280 280 280 280 279 279 279 279 279 279 279 279 279 279 279 278 278 279 279 278 278 278 277 277 276 277
289 288 287 286 286 286 286 286 287 287 287 288 288 287 288 287 287 287 287 287 287 287 286 285 284 283 283 282 281 281 280 280 280 280 280 280 280 280 280 279 279 279 279 279 279 279 279 279 279 280 282 281 279 279 278 278 278 278 277 276 276 275
288 287 287 287 286 286 286 287 287 287 287 287 287 287 287 287 286 286 286 287 286 286 285 284 284 283 282 282 282 281 280 280 280 280 280 280 280 279 279 279 279 279 279 279 279 279 279 279 279 282 284 284 283 279 278 278 278 278 277 277 276 276
291 289 288 288 287 287 286 286 286 286 286 287 287 287 286 286 286 286 286 286 286 285 284 284 283 283 282 282 281 281 281 281 280 280 280 280 279 279 279 279 279 279 279 279 279 279 279 279 282 285 285 285 284 282 279 279 278 278 277 277 277 277
294 292 290 289 288 287 287 287 286 286 287 286 287 286 285 286 286 286 286 285 285 284 284 283 283 282 282 282 281 281 281 280 280 280 279 279 279 279 279 279 279 279 279 279 279 279 279 279 284 285 286 285 285 284 280 278 278 278 278 277 277 276
292 290 289 289 289 288 288 287 287 287 287 287 286 286 285 285 285 285 285 284 284 283 283 282 282 282 282 282 282 281 280 280 280 281 281 280 279 279 279 279 279 279 278 279 278 278 278 278 284 286 286 286 286 285 282 278 278 279 278 277 277 276
290 289 288 288 287 286 286 286 286 286 285 285 285 285 284 284 284 284 284 284 283 282 282 282 282 281 282 282 282 281 280 280 281 281 280 280 279 279 279 279 278 278 279 279 279 278 278 278 284 286 286 286 287 287 285 280 279 279 278 278 277 276
289 289 290 288 285 285 286 286 285 285 284 285 285 284 284 283 283 283 283 283 282 282 282 281 281 281 281 281 281 281 281 280 281 280 280 280 279 279 279 279 279 279 279 279 279 278 278 278 284 286 286 287 287 287 285 282 280 279 278 277 277 277
287 287 286 284 284 284 284 284 284 284 283 283 283 283 282 282 282 282 282 282 281 281 281 282 281 281 281 281 281 281 280 280 280 280 280 279 279 279 279 279 279 279 279 279 278 278 278 278 283 285 286 286 287 287 284 284 282 280 278 278 278 277
284 284 284 283 282 282 283 283 283 283 282 282 281 282 281 282 282 281 281 281 281 281 281 282 281 280 280 280 280 280 281 280 280 279 280 279 279 279 279 279 278 278 279 278 278 278 278 278 281 285 286 286 286 286 284 283 282 281 280 279 279 278
282 281 281 282 281 281 282 282 282 282 281 280 281 281 281 281 281 281 281 280 280 281 281 281 281 281 280 280 280 280 280 280 280 279 279 280 280 279 279 278 278 278 278 278 278 280 279 279 280 284 285 285 286 286 284 283 282 281 280 279 279 279
281 281 281 281 280 281 281 282 282 281 280 280 280 280 280 280 281 281 281 280 280 280 280 281 281 280 280 280 281 281 281 280 279 278 279 279 279 279 278 278 278 278 278 278 278 278 279 278 278 280 284 284 285 286 284 283 282 280 280 280 280 279
281 281 280 280 280 281 281 281 281 280 279 279 280 279 280 280 280 280 280 280 279 279 280 280 281 280 281 281 281 281 280 280 279 279 279 278 278 278 278 278 278 278 277 277 277 277 278 278 277 278 282 284 284 285 285 283 282 281 281 280 280 279
279 279 279 279 280 280 281 281 280 279 279 279 279 279 279 279 280 279 279 279 279 279 279 279 279 280 280 280 280 279 279 280 279 279 279 279 278 278 277 277 277 277 277 276 276 276 276 277 279 277 280 282 283 284 285 283 282 282 280 279 279 279
279 278 278 278 279 280 280 279 278 278 278 279 278 279 279 279 279 279 278 278 278 278 278 279 279 279 280 280 280 280 279 279 279 279 279 278 278 278 277 277 276 276 276 275 275 275 275 274 275 279 277 280 282 283 284 284 283 284 282 279 278 279
278 278 278 278 278 278 279 279 278 277 277 277 278 278 279 279 278 278 278 278 278 278 278 279 279 280 281 281 281 280 279 279 279 279 278 278 278 277 277 276 275 275 275 274 275 274 273 273 272 275 278 277 279 281 282 283 283 284 281 280 279 279
278 278 277 277 277 276 277 277 279 277 277 277 278 278 278 278 278 278 278 277 277 278 278 279 280 280 281 281 281 280 279 278 278 277 277 277 277 277 276 276 275 275 274 274 274 274 273 272 272 271 274 278 278 279 280 281 282 282 282 281 280 279
278 278 277 276 276 277 277 277 279 278 277 277 277 278 278 278 278 278 277 277 277 277 278 278 278 279 280 281 281 280 280 278 278 277 276 277 276 276 276 275 274 274 273 273 273 273 272 270 270 270 269 272 275 277 279 280 280 280 281 280 280 280
278 277 277 275 274 275 275 275 275 276 277 277 278 278 278 278 277 277 276 276 276 276 277 277 278 278 278 278 278 278 278 278 278 277 276 276 276 275 275 274 274 273 273 273 272 271 270 268 267 268 267 267 267 269 271 272 272 274 275 273 272 273
278 276 275 274 272 272 272 272 272 272 275 276 278 278 278 278 277 277 276 275 276 277 277 277 274 276 277 277 277 277 276 277 277 276 275 275 275 274 274 274 273 273 272 272 271 270 268 269 268 267 267 268 267 267 267 266 266 267 267 267 268 268
277 275 274 272 271 270 270 268 267 267 272 275 276 278 278 277 275 275 274 274 275 274 274 275 275 275 274 272 271 271 273 275 275 275 271 268 271 274 274 273 272 271 270 271 270 269 269 267 268 269 272 269 271 268 265 264 266 266 266 269 273 271
275 274 272 271 270 270 269 267 266 265 266 268 275 276 276 274 273 273 272 272 272 271 272 272 272 272 272 271 271 272 272 273 275 272 271 269 275 278 277 276 269 269 269 269 268 269 269 268 268 275 276 276 276 276 275 274 274 274 271 273 278 277
274 272 271 269 269 268 268 267 266 265 265 267 272 275 274 273 273 271 270 271 271 271 270 270 269 269 269 269 270 271 271 272 275 278 278 277 278 278 279 278 278 277 274 271 265 267 276 275 276 277 277 278 278 278 278 279 279 279 279 279 277 275
272 270 269 269 268 267 266 265 263 263 263 265 269 273 273 273 273 272 270 270 269 269 269 269 268 268 268 268 269 270 271 272 272 274 278 279 279 279 279 279 278 278 277 277 272 268 268 275 277 278 278 278 278 278 278 278 279 278 278 278 278 275
272 269 268 268 267 266 266 265 263 261 262 264 267 271 272 272 272 270 269 268 268 267 267 267 268 268 268 267 267 268 269 270 271 270 271 275 279 279 279 279 279 279 278 278 278 278 277 278 278 278 278 277 277 277 277 277 277 277 276 276 271 269
269 268 267 267 266 266 266 265 261 261 260 261 266 269 271 270 270 270 269 268 268 267 267 267 267 267 268 268 268 268 268 268 269 270 271 270 269 270 273 276 278 278 278 278 278 278 277 277 277 276 276 275 275 275 275 274 273 275 274 272 267 267
267 266 266 265 265 265 265 263 260 259 258 262 266 268 268 268 267 267 266 265 266 268 267 266 266 266 265 265 266 266 265 265 265 268 269 269 268 267 266 264 266 272 275 273 274 275 276 275 275 275 274 273 273 272 273 271 263 263 261 261 262 263
266 265 264 264 264 264 263 261 259 259 258 262 265 267 266 266 266 266 266 264 264 264 264 264 263 264 264 264 263 262 263 262 264 265 263 263 263 263 261 260 261 262 268 271 272 274 274 274 273 272 272 270 270 270 270 260 258 258 258 257 257 258

ECMWFFLT1_sfc_thetae_063.txt.gz
Theta_e
308 306 305 305 305 305 306 306 307 308 308 308 308 308 308 309 310 309 309 308 308 308 308 307 307 308 307 307 307 306 304 304 304 304 304 303 302 299 295 293 293 293 291 292 292 291 291 292 292 294 294 294 294 294 294 293 294 294 293 293 292 292
309 307 305 304 304 304 305 306 306 306 307 307 308 308 309 309 309 308 307 308 307 307 307 307 307 307 306 306 305 303 303 304 303 302 301 301 300 297 295 293 292 291 290 290 290 290 291 291 291 292 293 293 294 294 294 293 293 292 291 290 290 290
308 306 305 305 304 304 304 305 305 306 307 307 307 307 308 308 308 308 307 307 306 306 305 306 306 304 304 303 303 302 302 302 300 300 299 297 296 296 294 292 291 290 290 289 289 289 290 290 290 291 291 292 292 293 292 291 292 291 289 288 288 289
306 305 304 303 303 302 302 303 304 305 305 306 307 307 308 307 307 307 307 306 306 305 305 305 305 304 302 302 301 301 300 300 299 298 296 295 295 294 292 291 291 290 289 289 289 289 289 289 289 290 290 291 291 291 291 290 290 289 287 287 286 286
306 304 303 302 302 302 302 302 302 303 304 305 306 306 306 307 308 308 307 306 305 304 304 304 303 301 301 301 300 300 299 298 296 295 295 294 293 292 292 292 290 289 289 288 288 288 288 288 288 289 289 290 289 289 289 290 289 288 286 286 285 286
304 302 301 301 301 301 301 301 302 303 303 304 305 305 305 306 307 307 306 305 304 304 303 303 303 300 300 300 301 301 299 297 294 293 293 293 291 290 291 291 290 289 288 287 287 287 287 287 287 288 288 289 289 289 288 288 288 288 287 286 285 284
302 302 303 302 302 301 301 301 301 302 302 303 303 304 305 305 306 305 305 304 303 303 302 302 301 299 298 298 298 299 298 297 294 292 292 292 290 290 290 289 289 288 287 286 286 286 286 287 287 287 287 288 288 288 288 288 287 287 286 285 284 285
305 304 303 303 302 302 301 301 301 301 302 302 303 303 303 304 304 304 303 303 302 302 301 301 300 298 297 296 295 295 295 295 294 292 291 291 290 290 290 288 288 288 286 286 286 286 286 286 286 286 287 287 287 287 287 287 287 286 285 284 284 284
306 305 304 303 302 302 302 302 301 301 301 301 301 302 302 303 303 303 302 302 302 301 300 300 299 297 297 296 295 295 294 294 293 291 290 290 289 289 288 287 287 287 287 286 286 286 285 285 285 286 286 286 286 286 286 286 285 285 284 284 284 283
306 305 304 303 302 302 302 302 302 301 300 300 300 300 301 302 302 301 301 301 301 300 299 299 299 297 297 296 295 294 294 293 290 289 289 289 289 288 287 287 286 287 286 286 286 286 285 285 285 285 285 285 286 285 285 285 284 283 283 283 283 283
306 306 306 305 303 302 301 300 300 300 300 300 299 299 300 301 301 300 300 300 299 300 300 299 298 297 296 295 294 294 294 292 289 288 288 288 288 288 287 287 286 286 285 285 285 285 285 285 285 285 284 284 284 285 284 284 284 283 282 282 281 282
307 307 307 306 304 302 301 300 299 299 298 298 299 299 299 300 299 299 298 298 298 299 299 299 297 296 294 294 293 293 294 292 289 288 287 286 287 286 286 285 285 285 285 285 284 284 285 284 285 285 286 287 284 284 285 284 283 282 282 281 280 280
309 308 307 306 306 305 303 302 301 300 298 298 298 298 298 299 298 298 298 297 298 298 298 298 296 294 293 293 293 293 293 290 287 287 286 286 286 285 285 284 284 283 283 283 283 283 284 284 284 286 288 288 288 285 284 283 283 283 282 281 281 279
309 308 307 306 306 305 304 303 302 299 298 298 297 298 298 297 297 297 297 297 297 297 297 296 294 293 292 292 292 292 290 288 287 286 285 285 285 285 285 284 283 283 283 284 283 283 283 283 285 288 288 289 289 287 284 284 283 283 282 281 281 280
308 309 309 308 307 305 305 304 301 299 299 298 297 297 296 296 296 296 296 296 296 296 296 295 293 292 291 291 289 289 288 287 286 286 285 284 285 284 284 283 283 283 283 283 283 282 282 282 285 288 289 289 289 288 286 284 284 283 282 281 281 280
309 310 310 309 308 307 306 303 302 300 299 298 297 296 295 295 295 295 295 295 295 295 295 294 290 290 290 289 288 288 287 286 285 285 285 285 284 284 283 284 283 283 282 282 282 282 282 282 285 287 288 289 289 289 287 284 283 283 282 281 281 280
308 309 308 308 307 304 301 300 299 299 297 296 295 295 294 294 294 293 294 293 294 294 293 291 290 289 289 288 287 286 286 285 285 285 285 284 284 283 283 283 283 283 283 283 283 283 282 281 286 287 288 289 288 288 286 284 284 283 282 281 280 280
308 308 309 306 302 299 299 298 298 296 295 295 294 293 293 293 292 292 293 292 293 292 292 290 289 288 288 287 286 286 285 285 285 285 284 284 284 284 284 284 283 283 283 283 283 282 282 283 286 287 287 288 288 287 284 283 283 282 281 280 279 279
308 307 304 300 299 297 297 297 295 295 293 292 293 292 291 291 291 291 291 291 291 291 291 290 289 288 287 286 285 285 285 284 284 284 285 283 283 283 283 283 283 283 283 283 283 282 282 283 286 287 287 287 287 285 283 283 282 282 280 279 279 279
297 297 299 296 295 296 295 294 293 293 291 291 290 290 290 290 290 291 291 290 291 290 290 289 288 287 286 286 285 285 285 285 285 284 284 284 283 282 282 283 283 283 283 283 283 283 282 282 285 287 288 287 286 285 283 282 282 281 281 280 279 279
298 294 294 295 293 292 293 292 291 291 290 289 289 289 289 289 290 290 290 290 290 290 289 288 288 287 286 285 285 285 284 284 284 284 284 284 284 283 283 283 283 283 283 283 283 283 282 283 285 287 288 287 287 284 283 283 282 280 280 280 280 280
292 292 292 292 293 290 290 290 290 289 289 289 289 288 288 289 289 290 290 290 289 289 288 287 286 286 285 285 285 285 285 285 284 284 284 283 283 283 282 282 282 281 282 282 282 282 282 282 284 286 287 287 286 285 284 284 282 281 281 281 282 281
294 293 292 292 290 289 290 290 289 288 289 288 288 287 288 289 290 289 289 289 288 287 287 287 286 285 285 285 285 285 285 284 284 283 283 282 282 282 281 281 281 281 281 281 281 281 281 282 284 285 287 288 287 286 285 284 284 284 284 283 284 284
290 289 288 288 289 289 289 288 288 288 288 287 287 288 289 289 289 288 288 286 286 286 286 285 285 285 285 285 285 284 283 284 284 283 283 282 281 281 280 280 280 280 280 280 281 280 280 282 284 285 287 288 287 287 286 285 285 285 285 284 284 284
288 288 287 287 287 288 288 287 286 286 286 286 287 287 287 287 287 286 286 286 285 285 285 285 284 284 284 284 284 283 282 283 283 283 282 281 281 281 280 280 280 280 279 279 279 280 280 281 283 285 285 287 287 287 287 286 285 286 285 284 283 284
288 287 286 286 287 287 287 286 285 285 286 285 286 286 286 286 286 285 285 284 284 284 284 284 284 284 284 284 283 282 281 282 282 282 282 281 281 280 279 279 280 279 278 278 278 278 278 279 280 282 284 285 287 287 287 287 286 286 284 284 283 283
286 286 285 285 285 286 285 286 285 285 284 284 285 285 285 284 284 284 283 283 283 283 283 283 283 283 283 283 283 282 282 282 282 281 282 281 281 280 279 279 279 278 278 278 277 278 278 279 279 280 282 283 284 286 286 287 287 286 286 284 284 284
286 285 284 284 285 285 285 285 285 284 283 284 284 284 284 283 282 282 282 282 282 282 283 282 282 283 283 283 284 283 282 281 281 281 281 281 280 280 279 279 279 279 278 278 278 278 277 277 277 277 279 281 281 282 284 285 285 285 284 283 281 281
285 284 284 283 284 284 284 284 285 284 284 283 283 283 283 282 282 282 282 282 282 282 282 282 282 282 283 283 283 283 282 282 282 281 281 281 280 280 279 279 279 279 279 279 279 278 277 277 277 277 277 279 279 280 280 281 281 281 281 280 280 279
284 284 283 282 282 283 283 283 283 283 283 283 283 283 283 282 282 282 282 282 282 282 283 282 280 282 282 282 282 282 281 282 282 281 281 281 280 280 279 279 279 280 280 280 280 279 278 277 277 277 277 277 278 278 279 278 278 278 278 278 276 276
284 283 282 280 281 281 281 282 282 283 283 283 283 282 282 282 281 281 281 282 282 282 282 282 282 283 282 282 281 281 282 282 282 282 280 281 283 283 282 281 281 281 282 281 279 278 278 277 276 276 278 277 278 277 275 275 275 276 276 277 277 274
283 281 279 279 279 279 279 279 280 282 282 282 283 283 282 281 281 281 281 281 281 281 281 281 281 281 280 280 278 278 278 279 282 282 281 279 280 281 283 283 281 281 281 279 279 279 278 277 278 280 280 279 279 279 278 278 278 278 277 278 279 277
279 278 277 277 278 278 278 278 278 280 281 282 282 282 281 281 280 280 280 280 280 280 281 280 280 280 280 280 279 278 277 278 279 281 281 281 280 281 281 281 282 282 281 278 276 279 281 281 281 280 280 279 279 279 279 279 279 280 280 280 278 277
278 277 276 276 276 276 276 276 277 278 279 281 281 281 281 281 280 280 280 280 280 280 280 280 279 279 279 279 279 278 278 277 277 277 280 281 280 281 281 280 280 281 281 280 279 278 278 280 280 280 280 279 280 279 280 280 280 280 280 280 280 276
279 277 276 275 275 275 275 275 274 274 276 278 280 280 281 281 281 280 280 279 279 279 278 278 278 278 278 278 278 278 278 277 277 276 276 278 281 281 280 280 280 281 281 281 280 280 279 279 280 280 280 280 280 280 280 280 280 280 280 280 278 276
277 276 275 275 274 274 274 273 272 271 272 274 278 280 280 280 280 280 279 278 278 278 277 277 278 278 277 277 278 278 278 277 277 277 276 275 276 277 279 280 280 280 280 280 280 280 280 280 280 280 280 280 280 280 280 279 277 279 279 278 275 274
276 275 274 273 274 274 273 271 269 268 268 272 278 279 278 278 277 277 274 273 274 277 277 277 277 276 276 277 277 277 277 277 277 277 276 276 275 275 275 275 277 279 280 279 280 280 281 280 280 280 280 280 279 279 278 278 275 273 272 271 270 270
275 274 273 273 273 272 270 268 267 267 268 272 276 277 276 276 275 275 275 275 275 276 277 277 276 277 276 276 277 277 276 276 276 276 276 276 274 273 272 271 272 275 279 280 279 279 279 278 278 277 277 277 277 277 277 272 271 270 269 268 267 267

ECMWFFLT1_sfc_thetae_069.txt.gz
Theta_e
299 299 299 299 298 298 298 298 298 299 299 300 301 302 302 302 303 303 303 303 304 304 303 303 303 304 304 303 302 302 303 303 302 301 302 301 301 301 300 299 296 296 296 296 296 295 296 296 296 297 298 299 299 296 296 295 295 295 294 293 294 294
299 299 298 297 298 297 296 296 296 298 299 299 300 300 300 300 301 302 302 302 303 303 301 301 303 302 302 302 301 301 301 302 302 301 298 301 299 299 298 297 297 296 295 294 294 294 294 294 294 294 295 294 296 295 295 294 294 294 294 293 291 292
298 297 295 295 293 294 294 295 297 298 297 299 299 300 300 300 301 301 302 301 301 299 300 300 299 299 300 298 299 300 300 300 299 299 299 294 295 295 297 298 298 297 296 295 294 294 293 293 293 293 293 293 294 293 294 293 293 294 293 292 290 290
295 294 292 292 293 292 292 293 294 295 297 299 299 299 299 300 300 301 301 300 301 299 299 298 296 298 297 297 296 296 296 296 296 295 292 294 294 295 297 297 297 296 296 295 295 294 293 293 293 292 292 293 293 293 294 293 293 293 292 291 291 289
294 293 293 293 293 293 291 291 294 296 295 296 297 298 299 298 299 297 298 299 298 298 297 296 295 296 294 294 294 294 293 293 292 291 294 294 293 293 296 296 296 295 295 295 294 294 293 293 292 291 292 292 293 293 292 293 293 293 292 291 291 289
291 291 292 292 293 292 293 293 292 294 296 297 297 297 297 296 296 295 296 297 297 296 293 294 294 293 294 294 294 293 292 291 291 290 292 293 293 293 293 295 295 294 294 294 293 292 292 292 292 291 291 292 292 293 292 292 292 293 292 292 291 289
294 295 294 294 293 292 292 293 295 295 296 296 296 298 296 296 294 295 296 296 295 293 292 293 292 293 293 293 292 292 291 290 290 290 291 291 291 291 292 293 293 293 292 292 292 291 291 291 291 291 291 291 292 292 292 291 291 291 291 292 291 289
295 294 292 293 293 294 294 294 295 296 296 297 296 297 295 295 293 296 297 296 295 294 292 293 292 293 293 293 291 291 290 290 290 291 290 290 291 290 291 292 292 292 292 292 291 291 291 291 291 291 291 291 291 291 291 290 290 290 290 290 289 289
297 298 296 294 293 293 294 295 295 295 295 295 294 295 294 294 294 295 296 295 293 294 294 293 293 293 292 292 291 290 290 290 290 290 290 289 290 290 289 289 291 290 291 291 290 290 290 290 290 290 290 290 290 291 290 290 290 289 289 289 288 288
298 296 296 295 296 296 295 295 295 295 295 295 294 293 293 295 293 294 294 293 293 294 295 294 292 291 291 291 290 290 290 290 290 290 289 288 289 289 289 289 289 289 289 289 289 289 289 288 288 289 289 289 290 290 289 289 288 288 288 288 287 287
298 297 297 297 296 296 297 297 296 294 293 294 294 292 293 293 293 293 294 293 293 295 296 293 291 291 290 290 290 290 290 290 290 289 289 288 288 288 288 288 289 288 288 288 288 287 287 287 287 288 288 288 288 289 289 288 288 288 287 286 286 285
297 296 297 297 297 298 298 297 297 296 296 295 294 292 293 289 292 293 293 293 294 295 295 292 291 291 290 290 291 290 290 290 289 289 288 288 288 287 287 286 287 287 287 287 286 286 286 286 287 287 288 289 288 288 288 288 287 287 286 285 284 283
295 295 296 297 298 298 299 299 298 297 296 295 294 294 293 291 292 292 293 294 295 295 293 291 291 291 290 291 290 289 289 289 289 288 287 287 286 287 286 286 286 286 287 287 286 286 286 286 286 287 290 290 290 288 287 287 287 286 285 284 283 282
295 295 296 297 297 298 298 299 299 298 297 296 295 295 292 290 291 292 293 293 293 292 292 292 291 290 291 290 290 289 288 288 288 287 287 286 285 285 285 285 286 287 287 287 286 286 286 286 287 289 290 290 290 288 286 286 286 285 284 284 283 282
296 296 296 295 296 297 297 298 297 298 299 298 298 293 289 291 291 292 292 292 292 291 291 290 290 290 290 290 289 288 287 287 287 287 286 285 285 284 284 285 285 286 286 286 286 285 285 285 287 289 289 290 290 289 287 285 285 285 284 283 282 281
297 297 295 295 296 296 297 295 296 298 298 298 296 291 291 291 291 291 292 291 290 290 289 289 289 289 289 288 287 287 287 287 287 286 286 285 284 284 284 285 285 286 285 285 285 285 285 285 286 289 289 289 290 290 288 285 285 284 284 282 282 281
296 295 295 296 295 293 293 294 294 294 294 295 294 292 291 290 290 290 290 290 289 288 289 289 289 289 288 287 287 287 287 287 286 285 284 284 284 284 284 285 285 285 285 285 285 285 284 284 287 289 289 290 290 290 289 285 284 284 283 282 281 281
294 294 294 293 292 292 291 293 293 291 294 291 291 291 289 289 289 289 288 289 288 288 288 288 288 288 287 286 286 286 286 285 285 284 283 282 282 282 283 285 285 285 284 284 284 284 284 283 287 289 289 289 289 290 285 284 284 283 282 281 280 281
291 292 290 291 292 292 293 291 288 289 290 289 289 287 287 287 288 289 289 288 288 287 287 288 288 287 286 285 285 285 285 284 283 282 282 282 281 282 283 284 284 284 284 284 284 284 284 283 286 288 288 289 290 288 283 283 283 282 281 280 280 280
289 290 290 290 290 291 289 288 287 287 288 288 286 285 286 286 288 289 288 288 287 286 286 286 287 287 285 284 285 285 284 283 283 282 282 282 281 281 282 283 284 284 284 284 283 284 283 283 285 288 288 288 289 287 284 283 282 281 280 280 279 279
289 288 288 289 290 292 288 286 286 287 289 288 286 284 286 287 288 287 287 287 285 285 285 285 286 286 285 284 284 284 283 282 282 280 280 281 281 281 281 283 283 283 283 283 283 284 283 283 284 287 288 288 289 287 284 283 281 280 279 279 278 279
286 288 289 289 290 288 285 284 285 286 288 288 284 285 287 288 288 286 283 283 284 284 284 284 285 284 284 284 283 282 282 280 279 279 280 279 280 280 281 283 283 282 282 282 282 283 283 283 284 286 288 288 289 287 283 282 280 279 279 278 278 278
289 288 287 288 287 285 284 283 285 287 286 285 284 286 287 285 283 282 282 282 281 281 282 281 283 283 281 282 282 281 279 279 279 279 279 279 280 281 281 281 282 281 281 281 282 282 282 283 283 285 288 288 288 286 284 281 281 280 279 278 278 279
288 288 288 286 284 283 283 283 285 286 285 284 285 286 282 281 281 281 281 280 280 280 280 279 279 280 280 279 280 279 277 276 278 279 279 280 281 281 281 281 281 280 280 280 281 281 281 283 284 284 287 288 288 286 285 282 281 281 279 279 279 279
287 287 286 286 283 282 282 281 283 284 284 283 285 282 280 281 280 280 279 279 279 278 277 277 277 279 279 279 279 278 277 277 278 278 280 281 281 281 280 280 279 279 279 279 279 280 281 283 284 285 285 287 287 286 285 284 283 283 281 279 279 279
286 286 286 284 283 281 281 281 283 284 283 283 281 279 280 279 279 278 278 277 276 276 276 276 277 278 278 278 278 278 277 277 278 279 280 280 280 280 279 279 279 278 278 277 278 279 280 282 283 284 285 285 287 286 286 285 285 284 281 281 280 281
284 284 285 285 281 280 280 279 281 282 282 280 279 279 279 278 278 278 277 276 275 276 275 276 277 277 276 276 278 277 277 277 277 277 278 280 280 279 278 278 278 278 277 277 278 279 280 281 282 283 284 285 285 286 286 285 285 285 285 282 282 282
282 283 283 284 282 280 279 280 279 281 281 279 279 278 277 277 277 276 276 275 275 275 276 276 275 275 275 275 276 277 277 277 277 277 277 279 279 279 278 278 278 277 277 277 278 278 279 280 282 282 284 285 285 286 287 287 286 285 284 283 283 284
283 283 283 282 282 277 278 276 278 279 278 277 277 277 276 276 276 276 275 275 276 275 276 276 276 275 276 275 275 276 276 277 277 277 277 278 278 278 278 278 277 277 277 277 277 278 278 279 281 281 282 284 284 284 284 283 283 284 284 283 284 284
281 281 281 281 282 277 276 275 276 276 275 275 276 275 275 276 276 276 275 275 276 277 277 277 278 278 277 277 278 277 276 276 277 278 278 278 278 278 278 278 277 277 277 276 277 277 278 278 279 280 282 283 283 282 282 282 281 281 281 281 281 280
281 281 280 280 279 275 274 274 273 273 274 275 275 275 276 276 277 276 275 276 278 278 279 279 279 279 279 279 279 278 277 279 279 280 280 280 281 280 279 278 278 278 278 277 277 277 277 277 278 279 283 281 283 281 280 279 279 279 279 279 280 277
279 279 279 279 275 273 273 272 272 272 273 273 275 276 278 278 278 276 277 278 279 279 279 279 279 279 279 279 279 279 279 281 282 281 280 280 282 283 282 281 279 279 278 277 277 278 278 278 279 282 284 284 283 283 282 281 281 280 279 281 281 278
279 277 277 277 273 272 271 272 271 273 273 274 276 279 280 279 279 279 279 279 280 280 280 279 279 279 279 279 279 279 278 279 281 283 283 283 282 283 283 282 282 282 280 278 277 279 281 282 282 283 284 284 284 283 283 282 282 282 282 281 277 274
280 278 278 276 273 273 271 272 272 274 274 275 277 280 281 281 280 280 280 280 281 281 280 279 279 279 278 278 278 278 278 278 277 279 283 284 284 284 284 284 283 282 281 281 280 279 279 282 283 284 284 284 284 283 283 283 283 283 282 281 279 273
280 278 276 274 273 274 274 274 273 272 274 278 281 282 282 282 282 281 281 281 281 280 279 279 278 278 278 277 277 277 277 277 277 276 277 280 284 284 284 284 283 283 283 282 282 282 281 282 283 283 283 283 283 283 283 283 284 283 283 281 275 272
278 277 275 273 273 273 275 277 276 274 274 275 281 282 282 282 282 282 281 280 280 279 278 278 278 277 277 277 276 277 277 277 277 277 277 277 278 279 281 283 283 283 283 283 283 282 283 283 283 283 283 283 283 283 283 283 282 283 283 278 272 272
277 276 274 274 274 274 276 277 275 273 272 274 278 281 282 281 280 280 278 276 277 279 278 278 278 277 277 276 276 276 276 276 276 277 276 276 276 276 276 277 279 281 282 281 282 283 283 283 283 282 282 282 283 283 283 282 279 278 277 275 269 270
276 275 273 273 274 275 275 274 272 271 271 273 275 279 280 280 280 279 278 278 277 278 278 277 277 277 277 276 276 276 276 276 276 275 275 275 275 275 275 276 277 278 280 282 282 282 282 282 282 282 282 282 282 282 282 277 276 276 275 272 270 269

ECMWFFLT1_sfc_thetae_072.txt.gz
Theta_e
295 296 296 296 296 296 296 295 295 296 296 297 298 300 300 300 301 300 300 301 303 304 303 302 303 303 303 303 301 300 301 302 302 301 302 300 299 300 299 299 297 297 297 299 300 299 300 300 301 302 304 305 305 303 302 302 301 301 300 299 298 299
294 295 295 295 295 296 296 295 293 295 296 296 297 298 297 297 298 298 299 299 300 302 300 300 302 302 302 301 300 300 301 302 301 301 298 300 298 299 298 298 296 295 296 296 297 298 297 296 297 297 299 299 301 300 299 299 299 298 298 297 295 297
295 293 292 293 291 290 291 292 295 296 295 296 296 297 298 298 298 297 299 297 299 298 299 300 299 299 299 298 299 299 300 300 299 300 299 294 297 296 295 295 295 295 295 296 296 297 296 296 296 295 295 295 296 296 297 297 296 297 297 296 294 293
293 292 289 287 288 291 290 293 291 292 294 296 296 296 297 298 297 297 298 297 298 298 299 298 296 297 296 297 297 297 298 297 297 296 292 295 295 293 295 295 294 293 294 294 295 295 295 296 297 295 295 295 295 295 296 296 295 295 295 293 294 292
293 292 292 291 291 292 289 289 291 294 293 293 293 294 297 297 297 296 296 297 297 297 297 296 296 295 294 295 296 295 295 294 292 291 294 294 292 291 293 294 293 293 293 294 294 295 295 295 295 294 294 295 296 296 295 295 294 295 295 293 294 293
295 295 295 296 294 291 293 293 292 293 293 294 293 294 296 295 295 294 294 296 296 296 293 295 294 292 293 294 295 295 294 292 292 291 292 293 291 292 291 291 293 293 293 293 293 295 295 294 293 293 293 295 295 296 295 294 293 294 294 294 294 293
297 298 298 295 293 292 292 292 293 293 294 293 294 296 296 295 293 293 295 294 295 293 293 293 292 292 293 294 294 293 293 291 291 290 292 292 292 292 291 290 290 292 292 294 294 294 294 294 294 293 293 293 293 294 295 294 294 294 294 294 294 292
296 297 297 297 294 293 292 292 292 293 293 294 294 295 295 295 291 293 294 294 294 295 293 293 292 293 293 293 293 293 292 291 290 291 290 291 293 292 291 292 290 291 292 292 293 294 294 294 293 293 293 293 293 292 293 293 293 293 293 293 293 292
297 297 297 296 294 291 292 292 293 293 293 293 293 293 294 294 292 293 293 294 293 295 294 294 294 294 294 293 293 292 291 291 290 290 291 290 291 292 291 290 291 290 291 292 292 292 293 293 293 293 293 292 292 292 292 292 291 292 292 292 292 291
295 295 296 296 297 296 295 294 293 294 294 294 294 291 291 293 291 292 292 293 293 294 295 295 295 294 294 293 292 292 291 291 290 290 290 289 290 291 291 291 291 290 290 291 291 291 292 293 293 292 292 292 292 291 291 291 291 291 291 290 290 290
295 295 295 295 295 295 296 296 297 296 295 293 293 290 291 290 290 291 291 292 292 294 296 296 295 293 292 292 291 291 291 291 290 289 289 289 290 290 290 290 290 290 289 289 289 289 290 292 292 292 291 291 291 291 291 291 291 290 290 289 289 289
293 293 293 293 294 294 295 296 297 297 297 297 296 292 291 287 289 290 291 291 292 294 294 294 293 293 292 290 291 292 291 290 289 289 289 289 289 289 289 288 288 289 289 288 288 288 289 290 291 289 291 291 291 290 291 290 290 290 290 289 288 287
292 292 292 293 293 294 295 296 296 296 296 296 296 295 293 288 289 289 290 291 292 293 293 292 293 292 291 291 291 290 290 289 288 288 288 288 288 288 287 287 288 288 288 288 288 288 288 289 289 289 291 292 292 290 289 289 289 289 289 289 288 287
292 293 293 293 293 293 294 295 296 295 295 296 296 296 292 289 288 290 290 291 291 291 292 291 291 290 291 290 290 290 288 287 287 288 288 288 287 287 286 286 287 287 287 287 287 287 288 288 288 290 291 292 292 291 289 289 288 288 288 288 287 287
293 293 293 293 294 294 295 294 293 294 295 295 296 294 293 292 290 290 291 291 291 291 290 290 290 290 290 290 289 289 288 287 288 288 288 288 288 285 286 287 286 286 286 286 286 287 287 287 289 291 291 291 292 292 289 288 287 287 287 287 286 286
292 292 292 292 292 293 293 292 292 293 293 293 293 293 294 293 293 291 291 291 290 290 289 289 289 289 289 289 288 287 288 287 288 288 288 287 286 286 286 286 286 286 285 286 286 287 287 287 288 290 291 290 291 292 290 287 287 287 287 286 285 284
292 292 291 292 291 290 290 291 292 292 292 292 292 293 293 293 292 292 291 290 290 288 288 288 288 288 289 288 287 287 287 288 288 287 287 287 286 286 286 285 285 285 285 285 286 286 287 287 289 290 290 290 291 291 291 286 286 286 286 285 284 284
291 291 291 291 290 290 290 290 290 289 290 290 290 291 291 290 290 291 291 290 289 289 288 287 288 288 287 287 286 287 287 287 287 287 285 285 284 285 284 284 284 284 284 284 285 286 286 286 288 289 290 290 290 291 288 286 285 285 285 284 283 283
290 290 289 288 288 288 289 289 289 288 288 288 290 290 289 289 289 290 290 289 289 288 287 286 287 287 287 286 286 287 287 287 286 285 284 284 283 283 283 284 284 284 284 284 285 285 286 286 287 288 289 290 290 290 287 285 285 284 284 283 282 282
288 288 287 287 287 287 288 287 287 286 286 287 288 288 289 289 289 290 289 289 289 287 286 285 286 287 287 286 286 287 286 285 282 284 283 284 283 282 282 282 282 282 283 284 285 285 285 285 285 287 289 289 290 289 286 285 284 284 283 282 281 281
287 287 286 287 287 289 287 286 285 284 285 286 287 287 287 288 289 289 289 289 288 287 285 285 285 286 286 286 286 285 285 284 284 281 280 281 280 281 279 280 281 279 280 282 285 285 285 284 284 287 288 289 290 288 285 285 284 283 281 280 280 281
285 286 286 286 288 287 286 285 284 284 285 286 286 286 286 287 288 288 287 286 286 285 284 283 284 284 285 285 284 283 283 280 278 278 279 277 279 279 279 279 281 281 281 282 284 284 284 284 284 285 288 289 289 289 285 284 283 282 280 280 279 279
285 286 286 286 287 285 284 284 283 284 284 284 284 285 286 287 286 285 285 285 284 283 283 282 281 283 282 282 282 280 277 278 279 278 278 278 278 277 277 278 278 280 281 282 283 283 283 284 283 284 287 288 288 289 285 283 283 282 280 279 279 279
285 285 286 284 284 283 282 282 282 284 284 283 284 285 285 285 284 284 283 283 282 281 279 278 278 278 279 277 277 276 276 275 277 278 278 278 278 278 278 277 279 280 280 281 281 282 282 283 284 284 286 288 288 289 286 283 282 281 279 279 278 279
286 286 286 287 286 283 281 278 280 282 283 283 284 285 283 283 282 281 281 280 279 277 275 274 276 276 276 276 276 276 275 275 276 276 278 278 278 279 279 279 280 280 279 279 280 280 281 282 283 284 285 287 288 288 286 284 283 283 281 279 278 279
287 286 286 286 286 285 282 280 281 282 282 283 284 283 282 280 280 278 278 277 275 274 274 274 274 275 275 274 274 275 275 275 275 276 278 279 279 279 279 279 279 279 278 278 279 279 280 281 282 284 285 286 288 287 286 285 285 284 281 281 280 280
285 285 285 286 286 286 284 278 280 281 281 283 281 281 281 279 278 277 277 275 274 273 272 273 273 274 274 274 276 276 275 274 274 276 275 278 279 279 279 279 279 279 278 278 278 279 280 281 282 283 285 285 286 286 286 286 285 284 284 281 281 281
284 284 284 285 285 284 284 282 278 280 282 283 281 280 279 277 276 276 275 272 273 272 272 273 273 273 273 274 274 275 276 276 276 276 276 277 278 279 279 278 278 278 278 277 278 279 280 281 282 282 283 285 285 285 286 285 285 284 283 282 282 283
284 284 284 284 285 284 283 281 280 280 280 280 280 278 276 275 275 276 274 272 271 271 272 272 272 273 272 273 273 273 274 275 276 277 278 279 279 279 279 278 278 277 277 278 278 279 280 280 281 282 282 283 284 284 284 284 283 283 283 282 283 284
284 283 283 283 284 283 281 280 279 279 278 277 277 275 274 276 276 276 274 271 271 272 271 272 276 274 272 272 272 274 273 274 276 278 278 279 279 279 278 278 278 277 277 278 279 279 280 280 281 282 283 283 283 283 283 282 282 282 282 282 283 284
282 282 282 282 283 281 279 278 278 277 276 276 275 273 274 276 276 275 272 271 272 272 275 273 273 273 273 273 273 273 275 277 277 278 277 278 279 281 280 279 278 278 279 279 279 279 279 280 280 282 284 283 284 282 282 281 282 282 282 283 284 282
281 281 281 281 281 280 279 278 277 276 275 274 273 272 275 276 275 273 273 272 272 271 274 274 273 273 274 274 273 274 276 282 282 280 279 279 282 282 282 282 279 279 279 279 280 281 280 280 282 285 285 285 284 284 284 283 284 284 283 284 284 281
281 280 280 281 281 280 279 277 276 275 274 273 273 272 274 274 275 275 274 275 274 275 274 273 273 274 274 274 275 276 277 278 281 283 283 282 282 282 282 282 282 282 281 280 279 281 284 284 285 285 285 285 284 284 284 284 284 284 284 284 279 277
280 280 280 280 279 278 278 277 276 274 273 271 272 273 274 275 275 276 276 275 276 277 277 275 275 276 276 276 277 278 278 279 279 280 282 283 282 282 282 282 282 282 282 282 281 281 282 284 285 285 285 284 284 284 284 284 284 285 284 282 281 275
280 280 280 279 278 278 277 276 276 274 271 271 272 273 276 277 278 277 276 276 276 277 278 278 278 278 278 278 278 278 279 279 279 278 278 281 283 283 282 283 283 282 282 282 282 283 283 284 285 285 285 284 284 284 284 284 285 284 283 282 277 274
278 278 278 278 278 277 276 276 276 274 272 270 272 274 277 279 279 280 280 279 278 278 278 278 278 278 278 278 278 278 278 278 279 279 279 278 279 280 282 283 283 282 282 282 282 283 284 284 285 285 284 284 284 284 284 284 283 284 283 280 274 274
275 276 277 277 277 276 275 275 275 272 268 268 270 273 277 280 281 281 279 278 278 279 279 278 278 277 277 277 277 277 277 277 277 278 278 278 277 277 278 278 280 282 282 281 282 283 284 284 285 285 284 284 284 284 285 284 281 280 279 276 271 273
274 274 275 275 275 274 274 274 274 269 267 268 270 273 276 279 280 280 280 279 279 279 279 278 278 278 277 277 277 277 277 277 277 276 276 276 277 277 277 277 278 280 282 282 282 283 284 284 285 284 285 284 285 285 285 280 279 278 277 274 270 270

ECMWFFLT1_sfc_thetae_075.txt.gz
Theta_e
294 294 295 294 292 292 293 294 293 292 292 293 294 296 297 296 297 296 297 297 299 300 300 300 301 301 301 301 300 298 300 301 300 300 301 298 297 297 298 297 297 297 297 298 299 298 299 300 302 303 305 305 306 306 306 306 305 304 304 304 303 303
293 293 294 295 296 294 293 292 290 292 292 292 293 294 294 294 295 294 296 296 296 298 298 299 300 300 300 300 299 299 300 301 300 300 298 299 296 298 296 297 296 295 295 294 296 297 297 298 299 300 302 303 304 304 303 302 303 303 302 301 299 301
294 294 292 292 290 288 289 289 291 292 291 291 292 293 295 295 295 293 296 293 296 295 297 298 296 297 298 297 297 299 300 300 299 299 298 292 297 294 295 295 296 296 295 296 296 298 299 299 299 298 300 300 301 300 300 299 298 299 299 298 297 297
294 295 294 290 291 294 293 293 290 290 290 291 291 291 294 294 295 294 295 294 295 295 297 296 293 296 295 296 296 297 298 298 297 296 292 294 296 292 295 295 295 293 294 295 296 296 297 298 300 298 298 298 298 297 298 298 296 296 297 296 296 295
291 291 291 292 291 292 290 291 293 293 292 291 289 290 294 293 294 293 292 293 293 294 294 293 294 294 292 293 295 294 296 295 293 291 294 294 294 291 293 294 293 293 293 294 295 296 296 296 296 296 296 296 297 297 296 297 295 295 296 296 296 296
292 292 294 295 294 293 293 292 291 292 291 291 291 292 294 294 293 291 290 291 292 292 291 292 293 291 291 292 294 294 294 293 293 291 293 294 293 293 292 292 293 293 293 293 294 294 294 294 294 294 294 296 296 296 296 295 295 295 295 296 296 295
293 293 293 293 293 293 293 292 292 291 291 291 291 292 293 293 292 291 292 290 291 291 290 291 290 291 291 292 293 293 293 292 291 290 292 292 292 293 292 291 291 292 292 293 294 294 293 293 293 293 293 293 293 294 295 295 295 295 295 295 296 294
293 294 293 294 294 293 292 292 291 291 290 291 289 291 292 292 289 290 291 291 290 292 291 291 290 291 292 292 292 292 292 291 291 291 291 291 293 292 291 292 291 291 292 293 293 293 293 292 292 292 293 292 292 292 293 294 294 294 294 294 294 294
293 292 293 292 292 292 292 292 293 293 293 294 292 290 289 291 290 290 290 291 289 291 292 292 292 292 292 292 292 291 291 291 291 290 292 290 291 292 292 291 292 291 291 292 292 292 293 292 292 292 292 292 292 292 293 293 293 293 293 294 294 294
291 292 292 292 292 292 293 293 292 292 293 293 294 292 290 291 289 289 289 289 290 291 292 293 292 292 292 291 291 291 291 291 290 290 290 288 290 291 292 292 292 291 290 292 292 292 291 291 291 291 291 291 291 291 291 292 291 292 292 292 292 292
291 291 291 291 292 292 293 293 293 293 293 292 292 291 292 289 289 290 289 288 289 291 292 292 292 292 291 290 290 291 291 290 290 289 289 288 289 290 290 291 291 291 290 290 290 291 290 291 292 292 291 291 290 290 290 291 291 291 291 291 291 291
290 290 290 291 291 292 292 293 293 293 292 293 293 292 291 289 290 289 289 289 290 291 291 291 290 291 290 290 291 291 290 290 289 288 288 289 289 289 289 289 289 290 291 291 290 290 290 291 292 291 292 292 291 290 291 291 291 291 291 290 290 290
289 289 290 290 291 291 291 292 292 292 292 292 292 292 292 290 290 290 289 290 290 289 289 289 289 289 289 290 290 290 290 290 289 288 288 288 288 288 288 288 288 289 289 290 290 290 290 291 291 291 293 294 294 291 289 290 290 290 290 290 290 290
289 289 290 290 290 290 290 291 291 290 291 291 291 291 290 290 290 290 291 291 291 290 289 288 289 288 289 288 289 289 289 288 288 288 288 288 288 288 287 287 288 289 289 289 289 289 290 290 290 292 293 294 294 293 290 290 290 290 290 289 289 289
288 288 288 289 290 290 290 289 288 289 290 290 290 289 289 289 289 290 290 290 290 290 290 289 289 289 288 289 288 288 288 287 287 288 288 288 288 287 287 288 287 288 288 288 288 288 288 288 290 292 293 293 293 294 292 290 289 289 289 289 289 289
288 288 287 288 288 288 288 287 287 288 288 288 288 288 288 288 289 289 289 289 289 289 289 288 288 288 288 288 288 287 287 287 288 288 288 288 287 287 287 287 287 287 287 287 287 288 288 287 289 291 292 292 292 293 293 289 288 288 288 289 289 288
288 288 288 289 288 287 288 288 287 287 287 286 286 286 286 287 287 288 288 288 288 288 288 288 288 288 288 288 287 287 287 287 287 287 287 287 288 287 287 288 287 287 287 286 286 287 287 287 290 291 291 292 292 292 292 288 287 287 287 288 287 287
288 287 288 288 287 288 287 287 287 286 287 286 285 286 286 286 286 287 287 287 288 287 287 287 287 287 287 287 287 286 287 287 287 287 287 286 286 286 285 286 286 286 286 286 286 286 286 286 289 290 291 291 292 292 289 288 287 286 286 286 286 286
287 287 286 286 286 286 287 287 286 285 285 285 286 286 286 286 286 287 287 287 287 287 287 286 286 286 287 287 286 286 287 287 287 287 285 285 286 286 285 286 286 286 286 285 285 285 285 285 287 290 290 291 291 291 287 287 286 286 285 285 285 284
286 286 286 286 286 286 286 285 285 284 284 285 285 285 285 285 286 286 286 286 286 286 286 286 285 285 286 286 286 286 287 286 286 286 285 285 286 285 285 285 285 284 284 284 284 284 284 285 286 289 290 290 291 289 287 286 286 285 285 284 283 283
285 285 285 284 285 286 285 284 283 283 284 284 284 284 284 285 286 286 286 286 285 285 285 285 284 284 284 285 285 286 286 286 286 285 282 283 284 285 283 282 282 282 281 282 283 283 284 284 284 288 289 290 290 289 286 286 285 284 283 283 282 282
284 284 285 285 286 286 285 284 283 283 283 284 284 284 284 285 286 285 285 285 285 284 284 284 283 283 283 284 284 284 285 284 283 283 282 282 281 282 280 279 281 281 281 280 280 281 282 282 282 285 288 289 289 290 287 286 285 284 283 282 282 281
283 284 285 286 286 285 284 283 283 283 283 283 283 284 285 285 285 284 284 284 283 283 283 283 282 282 282 282 282 282 282 281 282 281 279 280 279 277 278 278 279 279 279 278 278 278 279 282 283 284 287 289 289 290 287 285 285 285 283 281 280 280
282 283 283 283 284 284 283 282 282 282 283 282 283 284 285 284 283 283 283 283 282 282 282 281 281 279 280 280 279 280 280 278 275 277 278 278 276 277 278 276 277 278 277 277 276 277 280 282 284 284 286 288 289 289 288 285 285 284 282 280 280 280
282 283 283 284 283 283 282 278 280 281 282 282 283 284 284 283 282 282 281 281 281 281 281 280 279 279 278 278 278 277 279 276 274 274 274 275 275 276 277 276 276 276 276 276 277 278 280 281 283 284 284 286 288 289 289 287 285 285 282 280 279 279
282 283 283 284 284 281 280 279 280 280 280 281 284 283 282 281 281 280 279 280 280 280 280 279 278 277 276 276 276 275 276 276 274 273 275 275 276 276 276 275 276 275 276 276 277 278 280 281 282 283 284 285 287 288 288 287 286 285 281 281 280 280
282 282 282 283 282 283 281 278 280 280 280 282 282 281 281 280 279 278 278 278 279 278 278 277 276 276 275 274 273 275 276 275 272 274 273 274 276 276 276 276 276 276 277 276 278 279 280 281 282 282 284 285 286 287 288 287 286 285 284 281 281 281
281 281 281 282 281 282 282 280 277 279 281 282 281 280 279 278 277 277 278 278 278 277 276 275 276 275 274 273 272 273 274 275 275 275 274 273 274 275 275 275 275 276 277 278 279 279 279 280 281 282 283 284 285 286 287 286 285 284 283 282 281 282
280 280 280 280 281 280 281 281 281 280 280 280 280 279 277 276 276 277 277 278 277 276 274 274 276 276 275 272 272 271 272 273 273 274 275 275 276 277 277 277 278 278 278 278 279 279 280 280 281 282 283 284 285 285 285 284 284 283 283 281 281 282
278 279 279 279 280 280 280 280 280 280 279 279 279 277 275 275 276 277 277 277 276 275 274 274 276 276 275 273 272 272 272 272 272 274 276 278 279 279 279 279 279 279 278 278 279 279 280 280 281 282 282 283 283 283 283 283 282 281 280 280 281 282
277 278 278 278 279 279 279 279 279 279 278 278 277 275 274 275 276 276 276 276 275 275 275 275 275 274 273 273 272 271 273 273 274 276 276 278 279 279 279 279 279 279 280 280 279 279 279 280 280 282 284 284 284 283 282 281 281 281 281 282 283 283
276 276 277 277 278 278 278 278 278 278 278 276 275 274 273 275 276 276 276 276 275 275 274 274 273 272 272 272 271 272 274 278 281 279 278 277 281 283 283 283 280 280 279 279 280 281 280 280 281 285 285 285 284 284 283 283 283 283 283 284 285 284
275 275 275 275 276 276 276 276 277 277 277 276 275 273 273 274 275 276 277 276 276 276 275 274 273 272 271 272 273 273 274 275 278 283 283 283 282 282 283 283 282 282 282 281 279 281 284 284 285 285 285 285 285 284 284 284 284 284 285 286 284 281
272 272 272 273 273 274 274 275 276 276 276 276 274 273 273 273 275 276 277 277 276 276 276 275 275 274 274 273 273 274 273 275 277 278 282 283 282 283 282 282 282 282 282 282 282 281 281 284 285 285 285 285 285 284 284 285 285 285 285 285 284 280
269 269 269 270 271 272 273 274 275 276 276 276 274 273 272 273 274 275 276 277 277 277 277 277 275 276 276 276 276 275 275 275 277 278 278 280 283 282 282 282 283 282 282 282 282 283 283 284 285 285 285 285 285 285 284 285 285 285 285 285 281 278
267 267 268 269 270 271 272 273 274 275 275 274 273 272 271 272 273 274 276 277 277 277 278 277 276 276 277 277 278 278 278 278 279 279 279 278 279 280 281 283 283 282 282 282 283 283 284 285 285 285 285 285 284 285 285 285 284 285 286 282 278 277
265 266 268 270 271 272 272 273 273 274 274 273 272 271 270 271 272 274 275 276 277 279 279 279 279 277 277 278 278 278 278 278 278 278 278 278 278 277 277 278 279 282 282 281 282 283 284 285 285 285 284 284 284 284 285 285 283 281 281 277 274 275
266 267 269 271 272 273 272 271 272 273 272 270 269 269 271 272 274 275 275 277 277 279 279 280 280 279 279 279 278 278 278 278 277 277 277 276 276 277 277 277 278 279 281 282 282 283 284 285 285 284 284 284 284 285 285 281 279 279 277 273 271 270

ECMWFFLT1_sfc_thetae_078.txt.gz
Theta_e
293 292 292 291 292 293 292 292 292 293 291 290 291 292 291 292 292 292 292 292 295 296 296 296 298 298 299 299 298 297 299 300 299 299 300 297 296 297 297 296 296 296 296 297 298 298 299 300 302 303 305 306 306 306 306 307 306 306 306 306 305 305
292 292 292 293 293 293 293 292 293 293 292 291 292 292 291 291 291 290 291 292 292 294 293 294 295 296 297 297 297 298 298 299 299 299 297 298 296 297 295 296 296 295 295 295 296 297 297 297 297 298 301 302 304 304 304 304 304 304 304 305 304 305
292 292 291 291 291 291 293 293 292 292 292 293 292 292 293 294 293 291 292 290 291 290 292 293 292 293 294 294 294 296 297 298 296 297 297 292 295 293 294 295 296 296 295 295 295 296 297 298 298 299 300 300 301 302 302 303 302 302 303 302 300 299
292 292 292 292 293 293 292 292 293 293 292 291 291 291 293 292 294 293 293 292 291 290 291 291 289 291 290 291 292 293 295 295 295 294 290 293 296 292 295 295 295 294 294 295 296 296 297 298 299 299 299 300 300 300 301 301 300 299 299 298 299 298
289 289 289 290 290 290 289 291 292 291 291 290 290 290 292 290 291 290 289 290 290 290 289 288 289 289 288 289 291 290 292 292 290 289 292 293 293 290 292 294 293 293 293 293 294 296 296 296 297 298 299 299 300 300 300 300 299 298 297 297 297 297
287 291 292 292 292 291 291 291 291 291 291 291 291 292 292 291 291 290 290 290 290 288 287 288 288 287 287 288 290 290 290 291 290 288 289 291 291 291 290 290 292 292 292 292 293 294 295 295 295 295 296 298 298 299 299 298 297 298 297 297 297 297
289 290 290 290 290 289 289 290 290 290 290 290 291 291 290 290 290 290 290 289 290 290 290 289 288 287 288 288 288 289 289 289 289 288 289 289 290 290 290 290 289 290 291 293 293 294 294 295 295 295 295 296 297 297 297 297 297 296 296 296 296 295
288 288 288 288 288 288 288 289 289 290 290 290 288 290 290 290 288 289 289 289 289 290 290 290 290 290 289 289 289 289 289 289 288 289 288 288 290 290 290 291 290 290 291 291 292 293 294 294 294 294 295 295 295 295 295 296 296 296 296 296 295 295
288 289 289 288 288 288 288 289 290 290 290 290 289 289 289 289 289 290 289 289 288 289 290 290 290 291 290 290 289 289 289 289 288 288 289 288 289 289 290 289 290 290 290 291 291 292 292 293 293 293 294 294 295 294 294 294 294 294 294 295 295 294
288 288 288 289 289 289 289 288 288 289 289 289 289 289 288 289 289 289 289 289 289 289 290 290 289 290 290 290 289 289 289 289 289 288 288 287 288 289 289 289 290 290 289 290 291 291 291 291 292 293 293 293 293 293 293 293 293 293 293 293 293 293
288 288 288 288 289 289 289 289 289 288 288 287 287 287 288 287 287 287 288 288 288 289 289 289 289 289 288 289 289 289 289 289 289 289 288 287 288 288 288 289 289 289 289 290 289 290 290 291 292 293 292 292 293 292 292 292 292 292 292 292 292 292
287 287 287 288 288 288 288 289 289 289 288 288 288 287 287 286 286 286 286 286 287 287 287 287 287 287 287 288 288 288 288 288 288 288 288 288 288 288 288 287 287 288 289 289 290 290 290 291 293 291 292 293 292 292 292 292 292 292 292 291 291 291
286 286 287 287 287 287 288 288 288 287 287 287 287 287 286 285 285 285 286 287 286 286 286 285 286 286 286 287 286 287 287 288 287 287 287 287 287 288 288 287 287 287 287 288 289 289 290 291 292 292 294 295 295 293 291 291 291 291 291 291 291 291
286 287 287 287 287 287 287 287 287 287 288 287 287 287 286 286 286 286 286 286 286 286 286 286 286 285 285 285 286 286 286 286 286 286 287 287 287 287 286 286 287 287 287 288 288 288 289 290 291 293 294 294 295 294 292 291 291 291 291 290 290 290
285 285 286 286 287 287 287 286 286 287 287 287 286 286 286 286 286 286 287 287 287 287 287 287 287 286 286 286 286 286 285 285 285 285 286 287 286 285 286 287 287 287 287 287 288 288 289 290 291 293 293 294 294 295 293 292 291 291 290 290 290 290
285 285 285 285 285 285 285 285 285 286 285 285 285 285 285 285 286 286 286 286 286 286 286 286 286 286 286 286 286 286 286 286 286 286 286 286 286 285 286 286 286 286 286 286 287 288 288 289 290 292 293 293 293 294 294 292 291 291 290 290 290 290
284 284 285 285 285 285 284 285 284 285 285 284 284 284 284 285 285 285 286 286 286 286 286 285 285 285 285 285 285 286 286 286 286 287 287 287 287 286 287 287 287 287 287 286 286 287 287 288 290 291 292 292 293 294 293 292 290 290 289 289 289 289
285 285 285 284 283 284 283 285 285 285 285 284 283 284 284 284 284 285 285 286 285 285 285 284 284 284 284 284 285 285 285 285 286 286 287 287 287 286 286 286 285 286 286 287 286 286 287 288 290 291 291 292 293 293 290 290 289 289 288 288 288 288
284 284 284 284 284 285 285 285 284 284 284 284 285 284 284 284 285 285 285 285 285 284 284 284 283 283 283 283 283 284 284 284 285 286 285 285 286 286 286 286 286 286 286 286 286 286 286 287 288 290 290 291 292 292 289 288 288 288 287 287 287 287
284 283 283 284 284 284 284 284 283 283 283 284 284 284 284 284 285 285 285 285 284 284 284 283 283 282 282 283 282 283 283 284 284 285 284 284 284 285 286 286 286 285 284 284 285 285 286 286 287 288 290 290 291 290 288 288 287 287 287 286 286 286
284 283 283 283 284 285 283 282 281 282 283 283 283 283 283 284 285 285 284 284 284 283 283 282 282 282 282 282 282 282 282 283 283 283 283 283 283 283 284 283 283 284 284 282 283 283 284 284 285 287 289 290 290 290 287 287 287 286 286 286 285 285
283 285 285 284 284 284 283 282 282 281 282 282 282 282 283 284 284 284 284 283 283 283 282 282 281 281 281 281 281 281 281 281 281 281 282 282 282 282 282 281 281 281 282 282 281 281 281 282 283 284 288 289 290 290 288 286 286 286 286 285 285 284
282 283 283 283 283 283 282 281 281 282 282 281 281 282 283 283 283 283 283 282 282 282 281 281 280 280 280 279 279 280 280 279 280 280 280 280 280 280 280 280 280 280 280 280 279 279 279 280 281 282 286 288 289 290 289 286 286 286 286 285 284 283
282 282 282 282 282 281 281 280 280 281 281 280 281 282 282 282 282 282 281 281 281 280 280 280 280 280 279 279 278 278 279 279 278 278 278 278 278 278 278 279 278 279 279 279 277 277 278 279 281 280 284 286 288 289 290 287 286 286 286 285 283 282
281 282 282 282 281 281 280 277 278 280 280 280 281 282 282 282 281 281 280 279 279 279 279 279 279 279 279 278 278 277 277 278 278 278 276 276 276 277 277 278 278 277 278 278 277 276 277 277 279 283 283 285 287 288 289 289 288 288 286 284 282 281
280 281 281 281 279 277 278 276 278 278 279 280 282 281 281 280 280 279 278 278 278 278 278 278 278 278 277 277 277 276 276 277 278 277 276 275 275 276 277 278 277 276 277 277 278 278 277 278 278 281 283 284 285 287 288 289 289 289 285 283 282 282
279 279 279 279 279 279 276 275 275 277 277 279 280 280 280 279 278 277 277 277 277 277 278 278 278 277 277 276 275 275 277 277 277 277 277 274 275 275 276 277 276 276 278 278 279 280 280 280 281 281 282 284 284 285 287 288 289 289 288 283 282 282
274 274 276 277 277 278 276 275 274 276 278 279 278 278 278 277 276 276 276 276 277 277 277 277 277 277 277 276 275 274 275 275 275 276 276 274 275 275 275 276 277 278 279 279 280 281 281 281 281 281 282 283 284 284 285 287 288 286 286 284 282 282
274 273 273 274 275 276 276 274 274 276 277 277 277 277 276 275 275 275 275 275 276 277 276 276 276 277 277 276 275 274 274 274 274 274 275 275 275 275 276 277 278 279 280 280 280 281 280 280 280 281 281 282 283 284 285 285 285 285 284 282 282 282
272 273 273 273 275 275 275 275 274 275 275 275 276 275 274 274 274 274 275 275 275 276 276 275 276 276 276 276 275 275 276 275 273 274 275 276 276 276 277 278 279 280 280 280 280 280 280 280 280 281 281 282 283 283 283 283 282 282 281 280 281 281
271 271 271 271 272 272 272 272 272 273 273 274 274 274 274 274 274 274 274 274 275 275 276 275 275 275 275 275 275 275 274 275 275 276 275 276 276 277 277 277 278 279 280 280 279 279 279 280 280 281 284 283 284 283 282 281 281 281 280 281 282 282
269 268 269 270 270 269 269 269 270 271 272 273 274 274 273 273 273 273 274 275 275 275 276 276 276 275 275 275 275 275 276 277 279 278 276 276 279 281 282 282 279 279 279 279 280 281 280 279 281 284 285 285 285 285 284 283 283 283 281 283 284 283
267 267 266 267 267 267 267 268 270 271 272 274 275 274 273 272 272 273 273 274 275 275 276 276 276 277 277 277 276 276 276 276 278 281 282 282 281 282 282 283 283 284 284 281 279 280 283 284 284 284 285 285 285 285 284 284 284 283 283 284 283 281
264 264 264 265 265 266 267 269 271 272 274 274 273 273 272 272 271 271 272 273 274 275 275 276 277 277 278 278 278 277 276 276 277 278 281 283 283 283 283 283 283 284 283 283 283 281 280 283 284 285 285 285 285 284 284 284 284 284 284 284 284 280
263 263 263 264 265 266 268 270 272 274 273 272 272 272 270 270 270 270 270 271 273 274 275 276 277 277 278 278 278 278 278 278 277 277 278 280 284 284 283 283 283 284 284 283 283 283 282 282 284 285 285 285 284 284 284 284 284 284 284 285 282 279
262 262 263 264 266 268 269 271 271 271 270 271 271 270 269 268 269 269 270 271 272 273 274 275 276 277 278 279 279 279 279 279 279 279 279 278 279 280 282 284 284 283 283 283 283 283 283 283 284 285 285 285 284 284 284 284 283 284 285 284 279 278
261 262 264 266 268 268 268 267 267 269 270 270 269 268 268 268 268 269 270 272 272 273 274 275 276 277 278 279 279 279 279 279 279 279 279 278 278 278 278 279 280 282 283 282 282 283 283 283 284 285 285 285 284 284 284 284 281 281 282 279 277 277
262 263 265 266 264 263 263 265 267 269 269 269 269 268 267 268 268 268 269 269 270 271 273 274 275 276 277 278 279 280 280 279 279 279 279 279 278 278 278 278 279 279 281 282 282 282 283 284 284 285 285 284 284 284 284 281 280 278 276 275 274 274

ECMWFFLT1_sfc_thetae_081.txt.gz
Theta_e
293 293 293 293 293 293 293 294 294 294 294 293 294 295 295 295 295 294 294 294 295 296 297 297 298 298 299 300 300 300 300 301 302 302 303 302 302 302 302 301 301 301 301 302 303 304 304 305 306 307 308 309 309 309 309 310 310 310 309 310 310 310
292 292 292 293 293 293 293 294 294 294 294 294 294 294 294 294 294 293 294 293 294 294 294 295 295 296 297 298 298 299 299 300 300 301 300 302 301 301 300 300 300 300 300 300 301 301 302 302 303 303 305 306 306 307 307 307 307 307 307 307 307 307
292 292 292 292 292 292 293 293 293 293 293 293 293 294 294 294 294 294 294 293 293 292 293 294 293 294 295 294 295 296 297 298 298 298 299 296 298 299 298 298 299 299 299 299 299 299 300 301 301 301 302 302 303 304 305 305 305 305 305 305 305 305
291 292 292 292 292 292 292 292 293 293 292 292 292 293 293 293 293 293 292 293 292 292 292 292 291 292 292 292 293 293 294 294 295 295 294 295 297 296 297 297 298 298 298 298 299 299 299 299 300 301 301 300 300 301 303 303 303 303 303 303 302 303
290 290 290 291 290 291 291 292 292 292 291 291 291 291 291 291 291 291 291 292 292 292 291 290 291 290 290 290 292 291 292 293 292 292 293 294 295 294 295 296 296 296 296 296 297 298 298 299 299 300 300 300 300 300 301 302 301 301 301 300 301 300
289 291 291 291 291 291 291 291 291 291 291 290 291 291 290 291 290 290 290 290 290 291 290 290 290 290 290 291 291 291 291 291 291 291 291 292 292 292 293 292 293 293 294 294 295 295 296 296 296 297 298 299 300 300 300 300 300 300 300 300 300 299
290 290 290 290 289 289 290 290 290 290 290 290 290 290 290 290 290 290 290 290 291 291 291 291 291 291 291 291 291 291 291 290 290 290 291 291 291 292 292 292 292 292 292 293 294 295 295 295 295 296 297 297 298 298 299 299 299 299 299 299 299 296
288 289 289 289 289 289 289 289 289 289 289 290 289 289 289 290 289 290 290 290 290 291 291 291 291 291 291 290 291 290 290 290 290 290 290 290 291 291 291 291 291 292 292 292 293 293 294 294 295 295 295 296 296 296 297 297 297 297 298 298 298 298
289 289 288 288 288 288 289 289 289 289 289 289 289 289 289 289 288 289 289 289 289 290 290 290 290 290 290 290 290 290 290 290 290 290 290 290 290 290 290 291 291 291 291 292 292 292 293 293 293 295 295 296 296 296 295 295 295 295 296 296 297 297
288 287 288 288 288 288 288 288 288 288 288 288 289 288 288 288 288 288 288 288 289 289 289 289 289 289 289 289 289 290 290 290 290 290 290 289 290 290 290 290 290 291 290 291 291 292 292 292 292 293 294 294 295 295 294 294 294 294 295 295 295 295
287 286 287 287 287 288 288 288 288 288 288 288 288 287 288 287 287 287 288 288 288 289 289 289 289 289 289 289 289 289 289 289 289 289 289 290 290 290 290 290 289 289 290 290 290 290 291 291 292 293 293 293 294 294 293 293 293 293 293 294 294 294
286 286 287 287 287 287 287 287 287 287 287 287 287 287 287 287 286 286 287 287 288 288 288 288 288 288 288 288 288 288 288 288 288 288 288 289 289 289 289 289 289 289 289 289 290 290 290 291 292 290 291 292 293 293 294 293 293 293 293 293 293 293
286 286 286 286 286 286 286 286 286 286 286 287 287 286 286 286 286 286 286 287 287 287 287 287 287 287 287 287 287 287 287 287 287 287 287 288 288 288 288 289 289 289 290 289 290 290 290 291 291 290 292 293 294 293 293 292 292 292 292 292 292 292
286 286 286 286 286 286 286 286 286 286 287 286 286 286 286 285 286 286 286 287 287 287 287 286 286 286 286 286 286 286 286 286 286 286 286 287 287 287 287 287 288 288 289 289 289 289 289 290 290 291 292 293 293 293 292 292 292 292 292 292 292 292
286 286 285 286 286 286 286 285 285 286 286 286 286 285 285 285 286 286 286 287 286 286 286 286 286 286 286 286 285 285 285 285 285 285 286 286 287 286 286 287 287 287 288 288 288 288 289 289 290 291 292 292 293 293 293 293 292 292 291 292 292 292
285 285 285 285 285 285 285 284 285 285 285 285 285 284 285 285 286 286 286 286 286 286 286 285 285 285 285 285 285 285 285 285 285 286 286 286 286 286 286 286 286 287 287 287 288 288 288 288 289 291 291 292 292 293 293 292 292 292 292 292 292 292
285 284 285 285 285 285 284 285 285 285 284 284 284 284 284 285 285 286 286 286 286 286 285 285 285 284 285 285 285 284 285 285 285 285 285 286 286 285 286 286 286 286 286 287 287 287 287 288 289 291 291 292 292 293 293 292 292 292 291 292 291 291
286 285 285 284 284 284 284 285 284 284 284 284 284 284 284 284 285 285 285 285 285 285 285 284 283 284 284 284 284 284 284 284 284 284 285 285 285 285 285 286 285 285 285 286 286 286 286 287 289 290 290 291 291 292 291 290 290 290 290 290 291 291
284 284 284 284 284 284 284 284 283 283 283 283 284 284 284 284 285 285 284 284 284 284 284 284 283 283 283 283 282 282 283 283 283 283 284 283 284 284 284 284 285 285 285 285 285 285 285 286 287 288 289 290 291 290 289 288 289 289 289 290 290 290
284 284 283 283 284 284 283 283 283 283 283 284 284 283 283 284 284 284 283 283 283 283 283 283 282 281 281 281 281 281 282 282 282 282 282 282 282 282 283 283 284 284 284 283 283 284 284 284 285 287 288 289 289 289 288 288 288 287 288 288 289 289
284 284 284 284 283 283 283 282 282 283 283 283 283 282 282 283 283 283 283 283 283 283 282 282 281 281 280 280 280 281 280 280 281 281 281 281 281 281 282 282 282 282 283 283 283 283 283 283 284 285 286 287 288 288 287 287 287 287 287 288 288 289
284 283 283 283 283 282 282 282 282 281 282 282 281 281 282 282 282 283 282 282 282 282 281 281 280 280 279 279 280 280 280 280 280 280 280 280 281 281 281 281 281 280 281 282 281 281 282 281 282 283 285 286 287 288 287 287 287 286 286 287 287 287
282 282 282 282 282 282 281 281 281 281 281 280 280 280 281 282 282 282 282 281 281 280 280 280 279 278 279 279 279 279 279 279 279 279 279 279 280 279 279 279 280 280 280 281 281 281 280 281 281 282 284 285 286 287 287 286 286 287 287 287 287 287
282 282 282 281 281 280 280 279 279 280 280 279 279 280 281 281 281 281 280 279 279 279 278 278 278 278 278 278 278 278 278 279 278 278 278 279 278 278 278 278 279 279 280 281 281 280 280 280 281 281 282 284 285 286 287 286 286 286 286 286 286 286
281 281 281 281 279 279 279 276 276 277 277 277 279 280 279 279 279 279 278 278 277 277 277 277 277 277 278 278 278 277 277 278 277 277 278 277 277 277 277 278 278 278 279 280 281 281 280 280 280 281 281 283 284 286 286 287 287 288 287 286 285 286
280 279 279 279 278 277 276 275 275 276 276 276 279 278 278 277 277 277 276 276 276 276 276 276 277 277 277 277 277 276 276 276 277 277 278 277 277 277 277 278 278 278 278 279 280 281 282 280 281 282 282 282 284 285 286 287 287 287 287 287 286 286
276 276 276 276 275 275 274 273 273 274 274 276 277 276 275 275 275 275 275 275 275 275 275 276 276 276 276 276 276 276 277 276 276 277 277 276 276 277 277 277 278 278 278 278 279 280 281 282 282 281 282 283 284 285 286 286 286 287 287 286 287 286
272 272 273 275 275 275 273 272 272 271 273 274 274 274 274 275 275 275 275 275 275 274 274 274 275 276 276 276 277 276 276 276 276 276 276 277 277 277 277 277 278 278 278 278 279 280 281 282 282 281 281 282 283 283 284 285 285 285 285 285 286 285
270 270 272 272 272 272 271 269 270 270 271 271 272 273 274 275 275 275 275 274 274 274 274 274 275 276 276 277 277 277 277 276 276 276 276 276 276 276 277 277 278 278 278 279 279 280 280 280 281 281 281 282 282 283 283 284 284 285 285 285 284 284
268 268 268 269 270 270 269 268 267 268 269 271 272 273 274 274 274 273 273 273 273 274 274 275 275 275 276 277 277 277 277 278 278 277 277 277 277 277 278 278 278 278 279 279 279 279 279 279 280 280 281 281 282 283 284 284 284 284 284 284 283 282
266 265 266 267 268 266 266 265 266 268 270 271 273 274 274 272 272 272 272 272 272 273 274 275 275 275 275 276 277 278 278 278 278 278 279 279 279 278 278 278 278 279 279 279 278 278 278 279 279 280 283 283 284 284 283 283 283 284 283 283 283 282
264 264 264 265 265 264 264 265 267 269 271 272 273 273 270 270 270 270 270 270 271 271 272 272 273 274 275 275 276 276 278 279 281 281 279 279 281 282 282 281 279 279 279 279 279 280 278 279 280 283 284 284 284 285 285 285 285 285 283 283 284 283
263 262 262 263 264 263 265 266 268 270 271 273 271 270 270 269 269 268 268 269 269 270 270 271 272 273 274 275 275 276 276 277 279 282 283 283 282 283 283 283 284 284 284 282 281 282 284 284 284 284 284 284 284 285 285 285 286 285 285 284 283 281
261 261 261 262 262 263 266 267 269 271 270 268 269 270 269 269 268 267 267 268 268 269 270 271 271 272 273 274 275 275 276 276 277 278 282 283 283 283 284 284 284 285 285 285 284 283 282 284 284 284 284 284 284 285 285 285 285 285 285 284 284 280
260 261 261 261 263 264 266 267 267 266 266 267 268 269 268 268 268 267 267 268 268 269 269 270 270 271 272 272 273 274 275 275 276 276 277 280 283 284 284 284 284 285 285 285 285 285 284 284 284 285 284 284 284 284 285 285 285 285 285 284 282 280
260 260 260 261 263 265 264 262 262 263 265 267 268 268 268 268 267 267 267 267 268 268 268 269 270 270 271 272 272 273 274 275 276 276 277 277 278 280 282 284 284 284 285 285 285 284 284 284 284 284 284 284 284 285 285 285 284 285 285 284 281 279
258 259 261 264 263 261 260 260 261 263 264 265 266 267 266 265 265 265 266 267 267 267 267 268 269 270 270 271 271 272 272 273 275 276 277 277 277 277 278 279 281 283 284 283 283 284 284 284 284 284 284 284 284 285 285 285 283 281 281 281 279 278
259 259 260 260 259 258 258 259 262 263 263 264 265 264 263 262 263 263 263 264 265 265 266 267 268 269 269 269 270 271 272 274 275 276 276 277 278 278 278 278 280 281 282 282 283 283 283 283 283 283 283 284 284 285 285 281 280 279 277 277 276 276

ECMWFFLT1_sfc_thetae_087.txt.gz
Theta_e
303 303 303 303 304 304 304 305 305 305 305 305 305 304 304 305 306 305 305 306 306 306 305 306 306 306 306 306 307 308 307 306 306 306 307 308 307 306 307 307 307 307 308 308 308 309 309 309 309 310 310 310 310 310 310 311 311 310 310 311 311 311
303 303 303 303 303 304 304 304 305 304 304 304 304 304 304 304 304 304 304 304 305 305 304 304 304 304 304 304 304 304 304 304 304 304 304 303 305 305 305 305 305 305 305 306 306 307 307 307 307 308 308 308 308 308 307 308 308 307 307 308 309 309
302 302 302 302 303 303 304 304 303 303 304 303 303 303 302 302 303 303 303 303 303 303 302 302 302 302 303 303 303 303 302 302 302 302 302 303 303 303 303 303 303 303 304 304 304 305 305 305 305 306 306 306 306 306 306 306 305 305 304 305 305 306
301 302 303 303 303 302 302 303 303 302 302 303 302 302 302 301 302 302 302 302 302 301 301 301 301 302 302 302 301 301 300 300 300 300 301 301 301 301 302 301 301 302 302 302 302 303 303 303 304 304 304 303 303 303 304 303 303 302 302 303 302 303
302 302 302 302 302 302 302 302 302 302 301 301 301 300 300 301 301 302 302 301 301 301 301 301 301 301 301 301 300 300 299 300 300 300 299 300 300 301 301 300 300 300 300 300 301 301 302 302 302 302 302 301 301 301 301 302 301 301 300 300 301 302
302 301 301 302 302 301 301 301 301 301 301 300 300 299 299 300 301 301 301 301 301 301 301 300 300 300 299 299 299 299 299 299 299 299 299 299 300 299 300 300 300 300 300 300 300 300 300 300 301 301 301 301 301 300 300 300 300 300 300 300 300 300
301 302 302 301 301 301 301 301 300 300 299 300 299 299 299 299 300 300 300 301 300 300 299 299 299 298 298 298 298 298 298 298 298 298 298 298 298 298 299 299 299 299 299 299 298 299 299 299 299 299 299 300 300 300 300 300 300 299 299 299 299 296
302 301 300 300 300 300 300 300 300 299 299 298 299 299 299 299 299 299 300 300 299 298 298 298 298 297 297 297 297 297 297 297 297 297 297 297 296 297 298 297 298 297 297 297 298 298 298 298 298 298 298 299 299 299 299 299 299 299 298 298 298 298
300 300 300 299 299 299 299 299 299 299 298 297 297 298 298 298 298 298 298 298 298 297 297 296 296 296 296 296 296 296 296 296 296 295 295 295 295 295 295 296 296 296 296 297 297 297 297 298 298 298 298 298 298 298 298 297 297 297 297 297 297 297
299 299 299 298 298 298 298 297 297 297 297 297 297 297 296 297 297 297 297 298 297 296 296 296 296 296 295 296 296 296 295 295 295 295 295 294 294 294 294 294 294 295 295 296 296 296 297 296 296 297 298 297 296 295 295 295 295 295 296 296 296 296
299 299 298 298 298 297 297 297 297 297 297 296 296 296 295 296 296 296 296 296 295 295 295 295 295 295 295 295 294 294 294 294 293 293 293 293 294 294 294 294 294 294 294 294 295 295 295 296 296 297 296 294 293 293 293 294 294 294 294 294 295 295
299 298 298 297 297 297 297 297 296 296 296 295 295 295 294 295 295 295 295 294 294 294 294 294 294 294 294 293 293 292 292 292 292 292 292 292 293 293 293 293 293 293 293 293 293 294 295 295 296 294 292 292 292 292 292 292 292 293 293 293 293 293
299 298 297 297 297 296 296 296 296 296 295 295 295 294 294 294 294 294 293 293 293 293 293 293 292 292 292 292 292 291 291 291 291 291 291 291 291 291 292 292 292 292 292 292 292 292 294 295 295 292 293 293 293 292 291 291 291 291 292 292 292 292
297 296 296 296 295 295 295 295 295 295 294 294 293 293 293 294 294 293 293 292 292 292 291 291 291 291 291 291 290 290 290 290 289 290 290 290 290 290 290 290 291 291 291 292 292 292 292 292 291 293 293 292 292 291 290 290 290 291 291 292 292 292
297 297 296 295 295 295 294 294 294 294 293 293 293 292 292 293 293 293 292 291 291 291 291 290 290 290 290 290 289 289 289 287 288 288 287 287 289 289 289 290 289 290 290 291 290 290 290 291 291 292 292 292 291 291 290 290 290 290 290 291 291 291
297 296 296 296 295 294 294 293 293 293 293 292 292 292 292 292 292 291 291 291 290 290 289 289 289 288 288 288 288 288 288 287 287 287 288 287 288 288 288 288 288 288 289 289 288 289 289 289 290 291 291 291 291 291 291 290 289 289 290 290 291 291
296 295 294 294 293 293 293 292 292 292 291 292 291 291 291 291 291 290 289 289 289 288 288 288 287 287 287 287 287 286 286 286 286 286 286 287 287 286 286 287 286 287 287 287 287 288 287 289 290 290 290 290 291 291 290 289 289 289 289 290 290 291
295 294 293 293 292 292 292 292 292 291 291 291 290 290 290 290 290 289 288 288 288 288 287 287 286 286 286 286 285 285 285 285 285 285 286 286 286 286 286 286 286 286 286 286 286 287 287 287 289 289 290 290 290 290 288 288 288 288 288 289 289 290
295 294 292 292 292 291 290 290 290 290 290 289 289 289 289 289 288 287 287 287 287 287 286 286 285 285 284 284 284 284 284 284 284 285 286 285 285 285 285 285 285 286 286 286 286 286 286 286 287 289 289 289 289 289 287 286 286 286 287 287 288 289
292 292 291 290 289 289 289 289 289 290 288 288 288 288 287 287 286 286 286 286 286 285 286 285 284 283 283 283 282 282 282 283 283 284 285 284 284 284 284 285 285 286 286 285 285 285 285 285 286 287 288 289 289 288 286 286 286 286 286 287 288 289
291 290 289 288 287 288 288 288 288 288 287 287 287 287 286 285 284 284 284 284 285 285 284 284 283 282 281 280 281 281 280 281 282 283 284 284 283 283 284 285 285 284 285 285 285 285 285 285 285 287 288 289 289 288 286 286 285 285 285 286 286 287
288 288 287 286 286 286 286 287 287 286 286 286 286 284 283 282 283 283 283 283 283 283 282 281 281 280 279 279 279 280 280 281 282 282 282 282 282 283 284 284 284 283 283 284 284 285 285 285 285 286 288 288 289 289 287 286 285 284 284 285 285 285
288 287 286 286 285 285 285 286 286 285 285 285 283 282 281 281 282 282 281 281 281 280 280 279 279 278 278 279 278 279 279 280 280 281 281 281 282 282 282 281 282 282 283 284 284 284 285 285 285 286 287 288 289 289 288 286 285 285 285 285 285 285
285 284 283 284 283 283 283 284 284 283 284 282 280 279 279 280 280 280 279 279 278 278 278 278 278 278 277 278 278 278 278 279 280 280 280 281 281 280 280 281 282 282 283 283 284 284 285 286 286 286 286 288 288 289 289 286 285 286 285 284 284 285
283 282 282 281 280 280 280 282 281 281 281 278 277 278 278 278 278 278 278 277 277 277 277 277 277 276 277 277 278 277 277 278 279 279 280 280 280 280 280 280 281 281 282 282 284 284 285 285 286 286 286 287 288 288 289 289 287 288 286 285 284 284
282 281 280 279 278 277 277 278 278 279 277 275 276 277 277 277 277 277 276 276 276 276 276 276 276 276 276 277 277 277 277 277 278 279 280 280 280 280 280 281 281 281 281 281 282 283 284 285 285 286 286 286 287 288 289 288 288 289 286 285 285 285
280 279 278 277 276 276 274 275 275 275 274 274 275 275 275 276 276 275 274 274 274 274 274 274 275 275 276 276 276 276 277 277 277 277 279 279 279 279 279 280 280 280 281 281 281 282 283 284 284 285 285 285 286 287 288 288 288 288 288 286 285 285
280 278 276 275 274 273 273 273 273 272 272 274 274 275 275 274 273 273 273 273 273 273 273 273 274 275 275 275 276 276 276 276 276 277 277 278 278 279 279 279 279 280 279 280 280 281 281 282 283 283 284 285 285 286 287 287 287 286 286 285 285 285
277 277 275 273 273 272 271 271 272 272 273 273 275 275 274 272 272 272 272 272 272 272 273 272 273 273 274 274 275 275 275 276 276 276 276 277 277 278 278 278 278 278 278 279 279 280 280 280 281 282 282 284 284 285 285 285 285 285 285 285 285 285
275 275 274 272 271 270 270 270 271 272 273 273 273 272 271 271 271 271 271 271 271 272 272 272 273 273 273 273 273 273 274 275 275 275 275 276 276 276 276 276 276 277 277 277 278 278 279 279 280 281 281 282 283 284 284 284 284 284 284 284 285 285
273 272 272 270 270 269 269 269 271 272 271 270 270 270 269 270 270 270 270 271 271 271 272 272 271 271 271 272 272 273 274 274 274 274 275 276 277 277 276 276 276 277 278 278 278 277 277 278 278 280 283 283 284 283 283 283 283 284 284 285 286 285
270 270 269 269 268 268 268 269 271 270 269 269 269 269 269 269 269 269 270 270 271 271 271 270 270 270 271 271 271 271 272 275 276 276 275 275 277 279 280 280 277 277 278 277 278 279 278 277 279 282 283 283 284 284 285 285 285 286 286 286 286 285
267 267 267 267 267 267 268 269 269 267 267 267 268 268 268 268 268 269 269 270 269 270 269 269 269 270 270 270 270 270 271 271 273 276 277 277 277 278 278 279 280 280 281 279 278 279 281 282 282 283 283 283 284 284 284 285 285 286 286 286 285 283
267 267 266 267 266 266 268 267 266 266 266 266 266 267 267 267 267 267 268 267 267 267 268 268 268 268 269 269 270 270 270 269 269 270 274 276 276 276 277 278 278 279 279 280 280 279 279 281 282 283 283 283 283 283 284 285 285 285 285 286 286 282
267 266 266 266 266 267 266 264 264 265 264 265 265 266 265 265 265 264 264 264 265 267 267 267 267 267 268 268 268 268 268 268 268 267 268 270 274 275 275 276 277 278 279 279 280 280 281 281 282 282 283 282 283 283 283 284 284 285 285 285 283 281
266 265 265 265 266 264 263 262 263 264 264 264 265 265 263 262 262 262 263 264 264 264 265 266 266 266 267 267 267 267 267 267 267 267 267 267 268 269 272 274 276 276 277 278 279 279 279 280 280 281 281 282 282 283 283 283 283 285 285 284 281 281
264 264 265 265 264 262 262 261 262 263 263 263 262 261 261 260 261 261 263 264 264 264 264 265 265 265 265 266 266 266 266 266 266 267 267 267 267 267 268 268 270 273 275 274 275 277 278 279 280 281 281 281 281 282 282 283 281 280 280 281 282 282
263 264 264 262 262 261 260 260 262 263 262 261 260 259 259 260 261 261 262 263 263 263 264 264 264 265 264 264 264 265 265 265 266 266 266 267 267 267 267 268 269 270 272 274 275 276 277 278 279 279 279 279 280 280 281 278 278 279 279 280 281 281

ECMWFFLT1_sfc_thetae_090.txt.gz
Theta_e
297 297 297 298 298 298 298 299 300 300 299 299 299 299 299 299 300 300 300 300 301 300 299 299 299 299 299 299 300 299 299 298 298 298 298 298 298 299 298 298 297 297 297 297 296 297 297 297 297 298 298 297 300 298 297 298 298 297 298 300 302 303
297 297 298 298 298 298 298 298 299 299 299 299 298 298 298 298 298 298 298 298 298 298 298 298 298 298 298 297 297 297 297 297 296 295 295 297 297 296 296 294 294 294 294 294 295 295 295 296 296 296 296 297 297 297 298 297 295 295 297 298 299 301
296 297 297 297 297 297 297 298 298 298 298 298 297 297 297 297 297 297 297 297 297 296 296 296 297 297 297 296 296 296 295 295 295 295 294 293 294 292 292 292 292 292 292 293 294 293 294 294 295 294 293 293 293 294 293 293 293 293 295 295 296 295
296 296 296 295 296 296 297 298 297 297 297 297 296 296 296 296 296 296 297 296 297 296 296 296 295 296 295 295 294 294 293 292 292 291 290 291 291 291 291 291 291 291 292 292 292 292 292 291 294 292 292 293 292 292 295 295 292 292 293 291 293 294
295 295 296 296 296 296 296 295 296 296 295 295 294 295 295 295 296 296 296 296 296 295 294 294 293 293 292 292 292 291 291 290 290 290 290 291 291 292 292 291 292 291 291 290 291 291 290 292 291 292 291 292 291 291 292 293 291 291 292 292 292 293
295 296 296 297 296 296 296 295 295 295 294 294 294 293 293 294 294 295 295 294 294 293 293 293 292 291 291 290 289 289 289 289 290 290 291 291 290 292 291 290 290 289 290 289 290 289 289 290 290 290 289 291 290 291 292 292 291 291 291 291 292 292
295 296 296 296 295 295 295 295 294 294 293 293 293 293 292 293 293 294 293 293 292 292 292 291 290 290 290 290 290 290 290 290 290 290 289 289 289 289 288 289 287 288 288 291 289 290 289 289 289 290 290 291 289 289 290 290 290 291 291 291 291 291
296 296 295 295 294 294 294 293 293 292 292 292 291 292 292 292 292 292 293 292 291 290 290 290 290 290 290 289 289 289 288 289 287 286 287 287 287 286 286 286 287 287 287 286 288 287 289 289 288 288 289 290 290 289 289 289 290 290 290 291 291 291
296 296 295 294 293 292 292 292 293 292 292 292 291 290 291 291 291 291 291 290 290 290 289 289 289 289 288 288 288 288 287 287 286 286 287 286 286 286 285 285 285 285 286 287 286 288 289 289 289 289 290 290 288 287 287 288 288 288 289 289 290 290
295 294 293 292 292 292 292 291 292 292 291 291 290 289 290 292 290 290 290 289 289 289 289 288 288 287 288 287 287 287 286 286 285 285 284 285 284 285 285 285 286 286 285 287 287 289 289 288 288 288 288 288 288 287 286 286 287 287 287 288 288 289
294 293 292 292 291 291 291 291 291 291 290 290 289 288 288 288 289 289 289 288 288 287 287 287 288 288 287 287 286 286 285 285 284 284 284 284 284 287 285 285 286 286 286 286 286 286 287 288 289 290 290 289 288 287 287 286 286 286 286 287 287 287
294 293 293 292 292 292 292 292 291 290 290 289 288 288 287 288 288 288 288 287 287 286 286 287 287 287 287 286 285 285 284 284 284 284 284 285 284 284 284 284 284 284 284 285 285 285 287 288 289 289 291 292 290 288 287 286 286 285 285 285 286 286
294 293 293 292 292 292 292 291 291 290 289 288 288 288 286 286 287 286 286 287 286 285 285 285 286 285 285 285 284 283 283 284 284 283 283 283 283 283 283 283 283 283 283 284 284 284 286 287 288 290 292 293 293 290 287 286 285 285 285 285 285 285
294 293 293 292 292 292 291 291 290 289 289 288 287 286 286 286 286 286 285 285 285 285 285 285 284 284 284 283 283 282 282 282 281 281 281 282 281 282 281 282 281 282 282 283 282 282 284 284 287 290 291 292 292 291 288 286 286 285 285 285 285 285
294 294 293 292 292 291 290 290 289 289 288 287 287 286 286 285 285 285 285 285 284 284 284 284 283 283 283 282 282 282 281 280 280 279 280 281 281 281 281 281 281 281 282 282 282 282 283 283 287 289 290 291 291 291 290 286 285 285 285 285 285 285
294 293 292 291 290 290 289 289 289 288 287 287 286 286 285 285 285 284 284 284 283 283 283 283 283 282 282 282 281 281 280 279 280 279 279 280 279 280 280 279 280 281 281 282 282 282 282 282 286 289 290 290 290 291 290 286 285 285 284 284 284 285
292 291 290 290 289 288 288 288 287 287 286 286 286 285 286 285 284 284 283 283 283 283 283 282 282 281 281 280 279 279 279 279 279 279 280 279 279 280 281 281 281 281 281 281 281 281 282 283 287 289 289 289 290 290 290 285 285 284 284 284 284 284
292 291 290 288 288 288 287 287 287 287 286 285 285 285 284 285 284 283 283 282 282 282 282 281 281 280 280 279 278 278 278 278 278 279 279 279 279 278 278 279 277 280 280 281 281 281 281 282 287 288 288 289 289 290 286 284 283 283 283 284 284 284
291 290 288 288 288 287 287 287 286 286 285 285 284 284 283 283 282 282 282 281 281 281 281 280 279 279 278 277 277 276 277 277 277 278 278 278 278 279 279 279 279 280 280 281 281 280 281 281 284 287 288 288 289 289 284 283 283 283 283 283 284 284
289 288 288 287 286 286 286 286 286 285 284 284 283 283 282 282 281 281 280 280 280 280 279 279 278 276 276 275 275 275 275 276 276 276 278 277 278 277 278 279 280 280 279 280 280 280 280 281 283 286 287 288 288 288 284 283 283 283 283 283 284 284
288 287 286 286 285 285 285 285 284 284 283 283 282 282 281 280 280 279 279 279 279 278 278 278 277 275 274 274 274 274 274 274 276 276 276 276 275 277 277 279 279 279 279 277 279 281 281 281 282 285 287 287 288 287 284 283 283 282 283 283 283 284
286 285 284 284 284 284 284 284 284 283 283 282 281 281 279 279 278 278 278 278 278 277 277 275 275 274 273 272 272 273 274 274 275 275 275 276 276 277 277 277 278 277 278 279 278 279 280 280 281 283 286 287 288 288 286 284 283 282 282 283 283 283
285 284 283 283 283 283 283 283 283 282 281 281 280 278 278 278 278 278 278 278 278 277 275 275 274 272 272 272 272 273 273 274 274 275 274 275 276 276 276 276 277 277 278 279 279 279 279 280 280 282 285 286 287 287 287 284 283 283 283 283 283 283
282 281 281 280 281 281 282 282 282 281 280 279 277 276 277 278 278 278 278 278 276 276 275 274 273 272 271 271 272 272 273 272 273 273 274 274 274 274 275 275 276 277 277 278 279 279 279 280 281 281 283 285 286 286 287 284 283 284 284 283 283 283
281 280 278 278 278 279 280 281 280 280 278 276 275 277 277 277 277 277 277 276 275 273 272 272 271 271 271 271 272 271 271 272 272 272 273 273 273 274 274 274 275 276 276 277 278 278 279 279 280 282 282 283 285 285 285 286 285 286 285 283 283 283
279 277 276 276 276 276 277 280 279 278 276 275 276 276 277 276 276 275 273 272 272 271 270 270 270 270 270 271 271 270 270 271 271 271 273 273 273 273 274 274 275 275 275 275 276 277 278 278 279 281 282 282 283 284 285 285 286 286 284 284 284 284
277 276 275 275 274 274 275 277 278 276 274 275 275 275 275 274 273 271 270 269 269 269 268 268 269 269 269 269 270 270 271 270 270 271 271 271 272 272 273 273 274 274 274 275 275 275 276 277 278 278 279 281 282 283 284 284 285 285 285 282 282 283
276 275 274 273 273 273 273 273 275 273 273 274 275 275 274 272 270 270 268 268 268 268 268 268 269 269 269 268 269 268 269 270 270 270 271 270 271 270 271 272 273 273 273 273 274 274 275 276 276 277 277 279 280 280 282 282 283 282 283 283 283 284
275 274 273 271 271 271 271 271 271 272 273 274 274 272 271 270 270 270 268 267 268 267 268 269 269 269 269 267 267 268 269 269 269 269 270 269 270 270 271 271 272 272 272 272 273 274 274 275 275 276 276 277 277 278 279 280 281 282 283 282 283 283
274 273 272 270 270 270 270 271 272 273 273 271 271 269 268 268 268 267 266 266 266 267 267 268 271 269 267 267 267 268 268 267 268 268 269 269 269 270 270 270 271 271 271 272 273 273 273 274 274 275 275 276 277 278 279 280 281 281 281 281 282 282
273 272 270 269 269 269 269 270 271 270 270 269 268 268 267 267 268 267 265 266 267 266 269 268 265 266 266 266 267 266 267 268 268 268 269 268 268 268 270 271 272 273 272 273 273 273 272 273 274 275 279 279 281 280 279 279 280 280 281 282 283 282
272 270 269 268 268 268 269 270 269 268 268 267 267 268 267 267 266 265 265 266 266 265 266 265 264 264 265 265 266 266 266 272 273 273 271 270 274 277 277 277 274 274 275 274 274 274 273 273 275 279 281 281 281 281 281 281 282 282 282 282 283 282
270 268 267 267 267 268 269 268 267 266 265 266 266 266 266 265 266 266 265 265 264 266 264 263 263 265 263 265 265 265 266 266 267 271 274 275 275 275 275 276 277 277 278 276 274 275 279 279 279 279 279 279 280 280 281 281 282 282 282 282 280 279
268 267 266 266 267 268 268 266 265 264 263 263 264 264 265 265 265 264 263 263 262 264 264 264 263 263 263 264 263 264 264 264 264 265 270 273 273 273 274 275 276 276 277 277 276 275 273 276 277 278 278 278 279 279 280 280 280 281 281 281 282 278
267 267 266 265 266 267 266 264 263 263 262 262 263 264 263 262 261 261 260 260 262 263 264 264 263 263 262 262 263 263 263 263 263 263 263 266 270 271 272 273 274 274 274 275 275 275 275 275 276 277 277 278 278 278 278 279 279 280 281 281 278 278
266 265 265 265 265 264 263 262 261 262 261 261 262 261 259 258 259 259 259 260 261 261 261 261 261 261 261 261 261 261 262 261 262 262 262 263 264 265 268 271 271 272 273 273 274 274 274 275 275 276 276 276 277 277 277 278 277 279 280 279 276 277
265 264 264 265 263 262 261 260 260 260 260 259 258 257 257 257 258 258 261 263 263 260 260 261 261 260 260 261 260 260 260 260 262 263 263 263 263 263 263 264 265 269 271 270 271 272 274 274 274 275 275 275 276 277 277 277 274 273 274 275 277 277
264 264 264 263 261 260 260 259 260 260 259 258 257 257 258 258 259 260 262 262 261 260 260 260 259 259 259 259 258 260 260 261 261 262 262 263 263 263 263 263 264 265 268 270 271 272 273 273 274 274 274 275 275 276 276 271 271 271 273 274 276 277

ECMWFFLT1_sfc_thetae_093.txt.gz
Theta_e
294 295 294 294 294 295 295 296 297 297 297 297 298 298 298 298 298 297 297 297 298 297 297 296 296 296 296 296 295 295 295 294 294 294 293 294 293 294 293 292 291 290 290 290 290 291 291 291 292 291 292 290 291 290 289 290 291 290 290 291 291 294
294 294 295 295 295 295 295 295 296 296 296 297 297 296 296 296 296 296 296 295 296 295 295 295 295 295 295 294 294 294 293 292 293 292 293 292 291 291 289 288 288 288 289 289 290 289 289 289 289 288 288 288 288 288 289 289 289 290 289 290 290 291
293 293 293 294 293 293 295 296 296 296 296 296 296 296 295 295 295 295 294 294 294 294 294 294 294 293 293 293 293 293 292 292 291 291 289 288 289 286 288 287 287 286 286 286 287 286 287 287 289 289 289 288 288 288 287 289 288 288 288 286 289 288
293 293 293 292 294 294 294 295 295 295 295 295 295 295 295 294 294 294 294 294 294 293 293 292 292 292 292 292 291 290 290 289 289 286 287 288 285 285 286 286 286 286 285 285 286 286 286 287 289 287 288 288 288 288 290 286 287 287 287 286 288 288
293 293 293 294 294 294 294 293 294 294 293 293 293 294 293 294 294 294 293 293 292 291 291 290 290 289 289 289 289 288 288 287 286 285 287 286 285 285 286 286 286 285 285 286 286 287 287 287 286 286 286 287 285 286 287 285 285 286 286 287 288 288
291 293 293 294 294 293 293 293 293 293 292 292 292 292 292 292 292 292 292 291 290 289 289 289 288 288 288 288 287 287 285 285 285 285 285 284 285 287 286 285 286 286 286 286 286 286 286 286 286 286 285 285 285 286 287 286 284 285 285 286 287 287
292 294 294 294 293 292 292 292 292 291 291 290 291 291 290 291 290 290 290 290 289 288 288 287 287 288 287 287 286 286 285 285 285 285 286 286 286 285 286 287 285 286 286 286 285 285 284 285 284 285 285 285 284 284 284 284 285 284 285 285 286 287
293 293 292 293 292 292 292 291 290 290 290 289 289 291 290 289 289 289 289 289 289 288 287 287 287 287 286 286 285 285 285 285 285 285 285 284 286 285 284 284 284 283 283 283 283 283 284 284 284 284 284 285 285 284 283 283 283 283 284 284 285 285
293 293 293 292 291 290 290 290 290 289 290 289 288 288 290 289 289 288 288 288 288 287 286 286 286 286 285 285 285 285 285 285 284 285 285 283 283 282 283 282 282 283 283 284 283 284 284 284 284 284 283 284 284 284 283 285 284 285 284 284 285 285
293 292 291 290 291 290 290 289 290 290 290 289 288 288 289 289 288 288 287 287 287 287 286 285 285 285 285 284 284 284 284 284 284 283 282 281 283 282 283 283 283 283 282 282 282 283 282 282 283 283 283 283 284 284 284 284 285 285 284 284 285 284
293 292 291 291 290 290 289 289 288 288 287 287 287 288 288 287 288 287 287 287 287 286 285 285 284 284 284 284 284 284 284 283 281 281 281 281 281 283 282 282 282 282 282 282 282 283 283 284 285 285 284 285 285 284 285 285 284 284 284 284 283 283
293 292 292 291 291 290 290 289 289 288 288 288 287 288 286 287 287 287 286 286 286 285 284 285 284 284 284 284 283 282 281 281 281 281 280 281 280 280 281 281 281 281 281 282 282 282 283 284 284 285 288 290 287 285 285 284 284 283 283 283 283 283
293 292 291 291 290 290 290 290 289 288 287 287 287 287 286 286 286 286 286 285 284 284 284 284 284 283 283 281 281 280 280 281 280 280 280 280 280 280 280 280 280 280 280 281 281 282 283 284 284 287 290 290 291 288 284 283 283 283 282 282 282 282
293 292 292 291 290 290 290 289 288 288 288 287 287 287 286 286 286 285 285 284 284 284 284 283 283 282 281 281 280 280 280 279 278 279 279 279 279 279 279 279 280 280 279 280 280 280 282 282 285 288 289 290 290 290 286 284 283 283 283 282 282 282
294 293 292 291 290 290 290 290 289 288 288 287 287 286 286 285 285 285 285 284 284 283 283 282 282 281 281 280 279 279 279 277 277 276 277 277 279 279 279 279 279 279 279 279 279 280 281 280 285 287 289 290 290 290 288 284 283 283 282 282 282 282
294 293 292 291 291 291 290 289 289 288 287 287 286 286 286 285 285 284 284 283 283 283 282 282 281 281 280 279 279 278 278 276 278 277 277 277 278 278 278 277 278 279 279 279 279 279 280 280 283 287 288 288 289 289 289 284 283 282 282 282 282 282
293 291 291 291 291 289 288 287 287 287 286 286 286 286 285 285 284 283 283 283 282 282 281 281 280 280 279 278 277 276 276 277 276 276 276 276 277 277 278 278 277 279 277 278 276 278 279 280 285 286 287 288 288 289 288 283 282 282 281 282 281 281
293 292 292 290 289 288 288 287 287 287 286 286 286 285 285 284 284 283 282 282 282 281 280 280 279 279 278 278 276 275 275 275 275 275 276 276 276 276 276 276 276 277 277 277 276 277 278 279 284 285 286 287 287 288 284 282 281 281 281 281 281 281
293 291 289 288 289 288 288 287 287 286 286 285 285 284 284 283 283 282 282 281 281 280 279 279 278 277 276 276 275 273 274 274 274 275 275 275 275 275 275 275 275 276 276 275 275 276 277 277 281 284 285 286 287 286 282 282 281 281 281 281 281 282
290 289 289 288 288 288 287 286 286 286 286 285 284 283 283 282 282 281 281 280 279 279 278 278 277 275 274 273 273 274 274 274 273 273 274 274 275 274 275 275 275 274 274 274 274 275 276 277 280 283 284 285 286 286 282 281 280 280 280 280 281 281
289 288 288 288 287 286 286 286 286 285 285 284 284 283 282 281 280 280 279 279 278 277 277 276 276 275 273 272 272 273 272 272 273 274 273 273 272 274 274 275 274 274 273 273 274 278 277 276 278 282 284 284 285 284 281 281 280 279 279 280 280 281
287 287 287 287 287 286 286 285 285 284 284 283 283 282 281 280 279 279 278 277 277 277 276 275 274 273 272 271 271 271 272 273 274 273 272 272 272 272 272 272 272 273 274 274 275 275 275 276 276 278 283 283 284 284 282 280 279 278 278 279 280 280
289 288 288 288 287 286 285 285 284 283 283 282 281 280 279 278 278 277 277 277 276 275 275 274 273 271 271 272 272 273 274 273 272 271 269 270 271 270 271 272 273 273 274 274 274 274 273 274 276 277 281 282 282 283 282 279 278 279 279 279 279 279
286 285 285 285 285 285 284 284 283 282 282 281 279 278 277 277 277 277 276 275 274 274 273 272 271 271 271 272 272 271 270 270 269 269 269 269 269 270 271 271 272 273 273 273 272 271 274 274 277 276 279 281 281 282 283 280 279 281 280 278 278 279
284 284 283 283 283 283 283 283 282 281 280 279 276 276 276 276 276 276 275 274 274 273 271 270 271 271 271 270 270 269 268 268 268 268 269 269 269 270 270 271 271 271 272 272 273 271 273 274 275 278 277 279 281 281 282 282 281 282 280 279 278 279
282 280 279 279 280 281 281 282 281 279 278 275 276 275 275 275 275 275 274 274 272 271 270 270 270 269 268 268 268 267 267 267 267 267 268 269 269 269 269 270 270 270 271 271 272 273 273 273 274 276 278 278 280 280 281 282 282 282 280 280 279 280
279 278 277 276 276 277 278 278 279 277 275 275 275 275 275 274 274 273 272 271 270 269 267 267 267 267 266 266 266 266 267 266 267 267 266 268 268 268 268 268 269 269 269 270 270 271 272 273 274 274 276 278 278 280 280 281 281 281 281 278 279 280
277 276 275 274 273 275 275 277 278 276 274 275 275 275 274 273 272 271 270 269 268 266 266 266 267 267 266 266 266 266 266 267 267 267 267 267 265 264 266 267 268 268 268 269 270 271 272 273 273 273 274 275 276 278 279 279 280 279 280 279 279 280
275 274 274 273 271 272 273 273 273 274 274 274 274 273 272 271 270 270 269 268 268 266 266 265 265 265 265 264 265 265 266 266 266 265 266 265 264 264 265 265 267 268 268 269 269 270 271 271 272 272 273 274 276 276 277 277 277 278 279 278 279 279
275 273 273 272 271 271 271 272 272 273 274 274 273 271 270 270 269 268 267 266 266 266 265 265 270 267 264 264 264 265 265 264 264 264 264 265 264 264 264 265 266 267 268 268 270 270 270 271 271 271 272 274 275 276 276 276 277 277 277 277 277 278
274 273 272 271 270 270 271 271 272 272 272 271 270 270 269 269 269 268 267 266 266 266 267 264 263 263 263 263 262 264 264 264 263 264 263 265 264 263 265 265 267 267 266 267 269 270 270 271 270 271 276 276 278 276 275 275 275 276 276 277 279 278
274 272 271 270 270 270 271 270 270 270 270 269 269 269 268 268 268 266 266 266 265 264 264 263 262 263 263 262 262 263 264 269 272 270 267 264 273 275 276 276 269 270 269 269 268 270 271 270 271 276 277 278 278 278 278 278 278 279 277 278 280 278
272 271 270 269 269 270 270 269 269 268 268 268 269 268 268 268 267 267 266 265 263 264 263 261 262 262 262 262 262 262 263 262 264 271 273 274 273 273 274 275 276 275 275 272 269 269 275 275 276 276 277 277 277 277 278 278 278 278 279 279 276 274
271 270 269 269 269 269 269 268 267 267 267 267 267 267 266 267 267 266 264 263 263 265 264 262 263 262 261 261 262 262 261 261 259 261 269 271 270 272 273 274 274 273 273 274 273 271 269 273 275 276 276 276 276 276 277 277 278 278 278 278 277 272
271 270 268 268 268 269 268 266 265 265 265 265 265 266 265 265 264 263 262 262 263 263 264 263 262 262 261 261 261 261 261 259 259 259 259 263 269 271 272 272 272 272 272 273 273 274 273 274 274 275 275 275 276 276 276 277 277 277 276 276 272 271
269 268 267 267 268 267 266 265 264 264 263 263 264 263 262 262 261 261 261 262 262 261 261 262 261 261 261 261 261 260 259 259 259 258 259 259 259 261 266 269 270 270 271 271 272 273 273 273 273 274 274 275 275 275 275 275 273 274 275 273 270 270
267 266 266 267 266 265 264 263 262 262 261 261 261 260 259 259 259 259 263 264 263 261 262 262 263 262 261 260 259 259 259 259 259 261 260 259 259 259 259 258 260 266 269 268 269 271 272 272 273 273 274 274 274 274 275 274 268 267 268 269 271 271
265 265 265 265 265 264 263 262 261 261 260 260 259 259 258 259 260 261 262 262 263 262 262 262 261 262 261 261 259 259 258 260 260 260 259 260 260 259 259 259 259 261 266 268 268 269 270 271 272 272 273 272 273 273 273 266 266 267 267 267 268 267

ECMWFFLT1_sfc_thetae_096.txt.gz
Theta_e
292 292 292 292 292 294 297 298 301 303 303 304 306 304 303 303 303 302 301 301 301 300 299 298 296 296 295 294 294 294 294 293 293 292 291 291 290 290 290 289 287 286 286 287 286 287 287 288 288 287 287 286 287 285 285 286 285 284 285 285 286 287
291 292 292 292 292 292 293 296 299 300 300 300 300 299 299 299 299 299 298 297 296 294 294 294 294 294 294 293 293 293 292 291 291 291 290 290 288 287 286 286 286 286 286 285 285 285 284 285 284 284 284 284 284 284 284 284 284 285 284 285 284 286
291 290 290 291 290 290 291 294 296 297 297 297 298 298 297 296 295 295 294 294 293 293 293 292 292 292 292 292 292 291 290 289 289 289 288 285 286 285 286 286 285 285 285 284 284 284 284 285 284 283 283 283 284 283 284 284 284 285 284 283 285 284
290 289 289 289 291 290 291 292 293 293 293 294 294 294 294 293 293 293 293 293 293 292 292 291 291 291 291 290 289 288 287 286 286 285 285 286 283 285 285 286 284 283 283 284 284 284 284 284 284 283 283 284 284 284 284 283 284 284 284 283 284 284
290 289 290 290 291 290 290 290 292 292 292 292 291 293 291 292 292 292 292 292 292 290 290 289 288 288 287 287 287 286 286 285 284 284 286 285 284 283 284 283 283 282 282 284 283 284 284 284 284 282 283 283 284 284 284 283 284 284 284 284 284 284
288 289 290 291 290 290 291 291 290 291 291 291 291 290 290 290 291 291 291 290 289 288 288 287 287 287 286 286 286 285 284 285 284 283 285 284 283 284 282 282 282 282 283 284 284 284 284 284 283 283 282 283 283 284 284 284 283 283 283 283 284 284
289 291 291 291 290 289 289 290 290 290 289 288 290 289 289 289 289 289 289 288 288 287 287 286 286 286 286 285 285 285 284 284 284 283 283 283 284 282 283 283 283 284 284 284 283 283 283 283 283 283 283 283 282 282 283 284 284 283 284 283 283 284
291 290 289 290 289 289 289 289 289 288 288 288 288 289 289 288 288 288 288 287 287 287 286 286 286 286 286 285 285 284 284 284 284 283 282 282 284 283 283 283 283 282 282 282 282 282 281 281 281 282 283 283 283 282 281 282 282 283 283 283 284 283
291 291 290 290 288 288 289 289 289 288 288 288 288 288 289 288 288 287 287 287 287 287 286 286 286 286 285 285 284 284 284 283 283 283 283 282 283 283 283 282 282 281 282 282 282 282 282 282 282 281 281 282 282 282 283 282 282 283 282 283 283 283
291 291 291 289 289 288 288 288 289 289 289 289 288 288 288 288 287 287 287 287 286 286 286 285 285 285 284 284 283 283 283 283 282 282 282 282 283 283 281 281 282 281 280 280 280 281 280 280 280 280 280 280 281 281 281 281 282 282 282 282 282 282
292 292 290 289 288 288 288 288 288 287 287 288 288 288 287 287 287 287 287 286 286 286 285 285 284 284 283 283 283 283 283 282 281 281 281 281 281 282 280 281 281 281 281 281 281 281 280 281 282 281 281 282 283 281 282 282 282 282 282 282 282 282
292 292 291 290 289 289 289 289 288 288 288 288 287 288 287 287 287 287 286 286 286 285 285 284 284 283 283 283 283 282 282 281 281 281 281 280 280 280 279 279 279 280 280 280 280 279 281 281 281 283 288 289 285 283 283 283 282 282 281 281 281 281
292 292 291 291 290 290 290 290 289 288 288 288 288 288 287 286 286 286 286 286 285 285 284 284 283 283 283 282 282 281 281 281 281 280 280 279 279 279 278 279 280 280 279 279 279 280 281 281 282 286 288 289 289 286 282 282 282 281 281 280 280 280
293 292 292 291 291 290 290 290 289 289 289 288 288 287 286 286 286 286 285 285 285 284 284 283 283 282 282 282 281 280 280 279 279 279 278 278 278 278 278 279 279 279 279 279 279 279 280 280 284 287 287 288 288 288 285 282 282 281 280 280 280 280
294 293 293 292 291 291 290 290 289 289 289 288 287 286 285 285 285 285 285 284 284 284 283 283 282 282 281 281 280 280 279 278 277 276 276 276 277 278 279 278 278 278 278 279 279 279 279 279 283 285 287 287 287 288 287 282 281 280 279 279 279 279
294 294 293 293 292 291 290 290 290 289 288 287 286 286 285 285 285 285 285 284 284 283 282 282 282 281 280 280 279 279 278 277 276 275 275 276 277 277 277 277 277 277 278 278 278 278 278 278 282 285 286 286 287 287 286 280 280 279 279 279 279 279
294 293 292 292 291 290 289 288 288 287 287 287 286 285 285 284 284 284 284 284 283 283 282 282 281 280 279 279 278 277 277 276 275 275 275 276 276 277 276 276 275 276 275 276 276 277 277 278 283 284 285 286 286 287 285 280 280 279 278 279 278 278
294 294 293 292 290 289 289 289 288 288 287 286 286 285 284 284 284 283 283 283 282 282 282 281 280 279 278 278 277 276 276 275 274 274 275 275 275 274 274 274 274 274 274 275 274 276 276 277 282 283 284 285 285 285 281 279 279 278 278 278 278 278
295 294 291 290 290 289 289 288 288 287 286 285 285 284 284 284 283 283 283 283 282 281 281 280 279 278 277 277 276 275 274 274 274 274 274 273 274 273 273 273 274 274 274 274 274 274 275 275 279 282 283 284 285 283 278 278 277 277 277 277 278 278
290 289 291 290 289 289 288 287 287 287 286 286 285 284 283 283 283 283 282 282 281 280 279 279 278 277 276 275 274 274 274 272 272 272 273 273 272 272 272 273 273 273 273 273 274 274 274 274 277 281 282 283 283 283 278 277 277 276 276 277 278 278
291 289 289 289 288 288 287 287 287 286 286 285 284 284 283 283 282 282 282 281 280 279 278 277 276 275 274 274 273 273 272 271 271 271 270 271 270 271 272 272 272 272 272 272 273 276 275 272 275 280 281 282 282 281 277 276 275 275 276 276 277 278
288 288 288 289 289 288 287 287 287 286 286 285 284 283 283 282 282 281 280 279 278 277 276 275 274 274 273 273 272 271 271 271 270 270 271 269 270 270 271 270 271 272 274 274 273 272 271 271 272 275 281 281 282 282 279 275 274 275 275 277 277 277
290 290 290 290 289 287 287 287 287 286 285 284 283 283 283 282 280 279 279 278 277 275 274 274 273 273 272 271 272 272 271 270 271 270 269 269 270 270 270 270 272 272 272 272 271 270 270 271 271 274 279 280 281 282 280 274 275 276 277 277 277 277
287 286 286 287 287 287 287 287 286 286 284 284 283 282 280 279 279 278 277 276 275 274 273 273 272 272 271 271 271 270 270 269 269 270 270 270 270 271 271 271 271 270 270 269 269 270 270 271 276 273 276 279 280 281 281 278 277 279 278 277 276 277
286 286 286 285 286 286 286 286 285 284 283 283 281 278 278 278 277 277 276 275 274 273 272 272 272 271 270 270 270 270 270 270 271 271 271 271 271 271 270 269 268 268 268 268 268 269 269 270 271 276 275 278 279 280 280 280 279 280 278 277 276 276
285 284 282 284 284 285 285 286 284 283 282 281 277 277 277 277 276 276 274 274 273 272 272 271 270 269 269 269 269 269 270 271 271 270 270 270 269 268 268 267 267 267 267 267 268 268 270 269 269 274 276 276 278 279 279 279 280 280 278 277 276 276
283 282 281 281 282 282 283 284 284 281 281 278 277 277 276 276 275 274 273 272 271 271 270 269 269 268 267 268 270 271 271 270 270 269 269 268 267 266 266 266 266 266 266 266 267 268 269 269 269 269 273 276 276 278 278 279 279 279 279 276 276 276
280 280 280 278 279 280 280 281 282 281 279 276 276 276 276 275 274 273 271 271 270 270 270 270 269 269 270 270 270 270 270 270 270 269 268 265 264 264 264 266 266 265 265 266 266 267 268 269 268 267 269 273 275 276 277 278 278 277 278 277 276 278
279 279 278 278 275 277 277 278 277 278 276 276 275 275 274 273 273 272 271 270 270 270 270 271 270 270 269 269 269 269 269 269 268 268 266 263 262 263 264 265 266 266 266 266 266 266 267 267 267 268 270 273 275 275 276 276 276 277 277 276 276 277
279 278 277 277 275 274 275 275 274 275 275 274 274 273 273 272 272 271 270 270 270 270 270 270 270 269 268 268 268 268 267 266 265 263 263 263 262 262 264 263 264 265 265 265 265 265 265 266 267 269 271 274 275 275 275 275 275 275 275 275 276 276
278 277 277 276 273 273 273 273 273 274 274 274 272 272 272 272 271 271 270 270 270 269 269 269 269 268 267 266 265 265 265 263 261 262 262 263 263 262 263 263 265 266 263 262 264 265 266 266 267 269 276 275 277 275 274 274 274 275 275 276 278 275
277 276 276 274 271 272 272 272 272 272 273 272 272 272 271 271 270 270 269 269 269 269 268 267 267 266 265 265 264 264 263 270 272 268 263 265 272 274 276 274 266 265 264 263 264 265 267 267 270 275 276 276 277 277 277 277 277 277 276 277 277 274
273 273 273 272 271 271 271 271 271 270 270 271 271 272 271 271 270 269 269 268 267 267 267 266 265 265 264 263 263 263 264 264 267 274 274 273 273 274 276 276 275 274 274 270 265 267 274 274 275 275 276 276 276 276 276 276 277 276 276 276 273 270
273 273 273 271 271 271 271 270 270 270 270 270 271 271 270 270 270 269 268 267 267 267 266 265 265 264 263 262 262 263 264 265 263 262 270 272 272 274 275 273 273 273 273 273 273 270 268 272 274 275 275 275 275 275 276 275 275 275 275 275 273 268
274 273 272 271 271 271 270 270 269 269 269 269 269 269 269 269 270 269 268 266 266 266 265 265 264 263 263 262 262 261 262 263 264 264 263 266 271 273 272 271 271 271 271 272 272 273 272 272 273 274 274 274 274 275 274 273 273 273 274 272 267 265
271 271 270 270 270 270 269 269 268 268 267 267 267 267 268 268 267 267 266 266 266 265 265 264 264 263 263 262 262 262 262 262 263 263 264 263 262 262 265 269 269 269 270 271 271 271 271 272 273 273 273 273 273 273 273 271 268 271 271 270 264 264
270 269 269 269 269 269 268 268 266 266 265 265 266 266 266 265 264 263 264 265 265 265 264 264 264 263 262 262 262 262 262 262 262 263 262 261 261 258 257 254 257 265 269 267 267 269 271 271 272 272 272 272 272 272 271 268 263 262 263 263 263 263
269 268 268 268 268 268 267 266 265 264 263 264 263 264 264 263 263 263 264 264 264 263 263 263 262 262 262 262 262 263 262 263 263 262 260 259 259 257 256 257 255 258 265 268 267 268 269 270 271 271 270 270 271 270 268 260 261 261 261 261 261 261

ECMWFFLT1_sfc_thetae_099.txt.gz
Theta_e
292 290 292 293 297 301 303 303 304 305 307 308 308 308 307 306 306 305 305 307 306 305 304 303 301 301 299 298 297 296 295 293 292 292 291 290 289 289 289 288 286 286 285 286 285 285 285 285 285 285 285 285 286 284 284 283 282 284 283 283 283 284
290 290 291 292 295 298 300 302 304 304 304 305 305 303 303 303 304 304 303 302 302 300 300 300 299 298 297 296 295 294 292 292 291 290 289 289 288 287 286 285 285 285 285 284 284 284 284 285 284 283 283 283 283 283 284 283 283 284 283 283 282 283
289 289 289 289 289 293 298 301 303 303 302 303 303 303 302 302 302 302 300 300 299 299 298 297 296 295 295 293 292 292 291 290 290 289 287 285 285 285 285 285 285 285 284 285 284 285 284 284 283 282 282 283 283 283 283 284 284 285 283 283 283 282
288 288 287 287 288 292 296 298 300 300 301 301 301 301 301 300 299 299 298 298 298 298 296 295 294 293 292 291 290 289 288 287 287 285 285 286 283 284 285 285 283 283 284 285 284 284 283 283 283 282 283 284 284 284 284 284 284 284 284 282 283 283
288 288 289 289 290 291 292 294 298 299 299 298 298 300 298 299 298 297 297 296 295 294 293 291 289 288 288 288 287 287 286 286 285 285 286 285 284 282 284 284 284 284 284 284 283 283 283 283 283 282 283 283 284 284 283 283 283 283 283 283 283 283
286 288 288 289 289 289 291 294 295 296 296 297 296 296 294 294 294 294 294 293 291 290 289 288 287 287 287 287 287 286 285 285 285 284 285 284 284 284 282 283 283 283 283 283 283 283 283 283 283 283 282 283 283 283 283 283 282 282 282 282 283 282
287 290 290 290 289 288 289 290 292 292 293 292 293 292 291 291 291 292 291 290 288 287 287 286 287 287 287 286 286 285 285 284 284 284 284 284 284 283 283 282 281 283 283 284 283 283 283 283 283 283 283 282 280 282 282 282 282 282 282 282 282 283
289 289 289 290 289 290 289 289 289 288 288 289 289 289 288 288 288 289 288 288 287 287 286 286 286 287 286 286 285 285 284 284 284 283 282 283 283 282 282 282 282 283 283 282 282 282 282 281 282 282 282 282 282 281 281 281 281 281 282 282 282 282
290 291 290 290 288 288 288 288 288 287 287 287 287 288 288 287 287 287 288 287 287 287 286 286 286 286 286 285 285 284 284 283 283 283 283 282 283 283 282 282 282 281 282 282 282 282 282 282 282 281 280 281 281 281 281 280 280 281 280 281 282 281
291 290 290 289 289 288 287 287 288 289 288 288 287 287 287 287 287 287 287 287 287 287 286 286 285 285 285 284 284 283 283 283 282 282 281 282 282 282 282 282 282 281 281 281 281 281 280 281 281 280 280 280 280 280 280 280 279 280 280 280 280 280
291 291 291 290 288 288 288 288 287 287 288 288 287 287 287 286 287 287 287 287 287 286 286 285 285 284 284 283 283 283 283 282 282 281 282 281 281 281 281 281 281 281 281 280 281 280 280 281 281 281 281 281 281 280 280 280 280 280 280 280 280 280
292 291 291 289 289 289 288 288 288 288 288 287 287 287 286 287 287 287 287 287 286 286 285 285 284 283 283 283 283 283 282 282 281 282 281 281 280 280 280 280 280 280 280 280 279 279 280 280 280 284 288 288 283 282 280 280 280 279 279 280 279 279
292 291 291 290 289 289 289 289 288 288 287 287 287 287 286 287 287 287 287 286 286 285 284 284 283 283 283 282 282 282 281 281 281 281 281 280 280 280 279 280 279 279 279 279 279 279 279 280 281 287 287 288 288 283 281 280 280 279 279 279 278 278
291 291 291 291 290 290 289 289 289 288 288 288 288 287 286 287 287 287 286 286 285 284 283 283 283 282 282 282 282 281 280 280 280 280 280 280 279 279 279 279 278 278 278 278 278 278 278 278 284 286 287 287 287 288 283 280 279 279 279 278 278 278
292 293 292 291 291 290 290 290 289 289 289 288 288 287 286 286 286 285 285 284 284 283 283 283 283 282 282 281 281 280 280 280 280 279 279 279 278 278 278 277 278 277 277 277 277 277 277 277 284 285 286 286 287 287 284 279 278 278 278 278 277 277
294 293 293 293 292 291 290 289 290 289 288 287 286 286 286 285 285 285 284 284 284 283 283 283 282 282 281 280 280 280 280 280 279 278 277 277 276 277 276 275 277 277 277 277 277 277 277 276 283 285 285 285 286 286 283 278 277 277 277 277 277 277
293 292 290 291 291 289 288 288 288 287 287 286 286 285 285 285 284 284 284 284 283 283 282 282 282 281 281 280 280 280 279 279 277 277 276 276 276 276 276 276 275 276 275 276 275 276 276 278 283 284 284 285 285 285 282 277 278 277 276 277 276 276
293 293 293 291 289 289 289 289 287 287 286 286 286 285 285 285 284 284 284 284 283 282 282 282 281 281 280 280 279 279 278 278 277 277 275 274 275 274 274 274 275 275 274 274 274 275 275 276 282 283 284 284 284 284 279 276 276 276 276 276 276 276
294 292 289 289 290 289 289 288 287 287 286 285 286 285 285 284 284 284 284 284 283 282 282 282 281 280 280 279 278 278 277 276 275 275 274 275 275 275 274 274 273 273 273 273 274 275 276 275 279 281 283 283 284 282 274 274 273 273 275 275 276 276
289 288 291 289 289 289 289 288 288 287 286 286 285 285 284 284 284 284 284 284 283 282 282 281 281 280 278 278 278 277 276 275 274 274 274 275 275 274 273 272 273 273 273 273 274 276 276 276 278 280 282 282 283 282 275 273 272 272 273 273 276 277
291 290 289 289 289 288 289 288 288 287 287 286 285 285 284 284 284 284 284 284 283 282 281 280 280 279 278 277 277 276 275 275 274 273 272 273 273 272 273 273 274 274 274 274 275 278 276 275 276 279 281 282 282 280 274 274 271 272 275 276 276 276
288 288 289 289 290 289 288 288 288 287 287 286 285 285 284 284 285 284 284 282 281 280 279 279 278 277 277 276 275 275 275 274 273 272 272 272 272 272 273 274 275 275 275 275 275 275 275 275 274 276 280 281 281 281 278 274 273 274 275 276 276 275
290 290 290 290 289 288 288 288 288 287 287 286 285 285 285 285 284 283 282 281 279 278 277 276 276 276 275 275 275 274 273 273 273 272 272 272 273 273 274 274 274 274 274 275 275 274 274 274 273 273 278 280 280 280 279 275 275 276 276 276 275 275
286 286 286 285 287 287 287 287 287 287 286 286 285 286 285 283 282 281 280 278 277 276 275 275 274 274 274 273 273 273 272 271 272 273 273 273 274 273 273 273 273 273 274 274 274 273 273 273 275 272 276 278 279 279 280 277 277 278 277 275 275 275
285 285 285 284 286 286 287 287 287 286 286 285 286 283 282 281 280 279 278 276 275 274 274 273 273 273 273 272 273 273 272 272 272 273 273 273 273 273 272 272 272 272 272 272 272 272 272 271 270 275 272 276 278 279 279 279 278 279 277 275 274 274
283 283 281 283 285 286 286 287 287 286 285 285 281 280 279 279 278 277 276 275 274 273 273 272 272 272 272 272 272 272 272 272 272 273 273 273 272 272 271 271 271 271 271 270 271 271 271 270 268 272 275 274 277 278 278 279 279 279 277 276 275 275
284 282 281 282 284 285 286 287 287 285 285 282 279 279 278 278 277 276 275 274 273 272 272 271 271 271 270 271 272 272 272 272 272 271 271 272 272 271 271 270 270 270 270 270 270 270 270 268 267 267 272 275 276 277 278 278 278 278 278 276 275 276
280 281 281 280 281 283 283 285 286 285 284 278 279 278 278 277 276 275 274 273 272 271 271 271 270 270 271 272 273 273 273 272 272 272 271 271 271 271 270 270 269 269 269 269 269 268 267 266 266 268 271 274 275 276 276 277 277 277 277 277 276 277
280 279 279 280 278 278 279 279 280 280 277 277 278 278 277 276 276 275 273 272 271 271 271 271 271 271 271 272 272 272 272 272 272 272 271 270 270 270 269 269 269 268 268 267 266 265 264 264 265 268 271 273 274 275 275 275 275 276 276 275 275 276
278 278 277 278 276 276 276 276 276 276 277 277 277 276 276 276 275 274 272 271 271 271 271 271 271 271 271 270 270 270 270 270 271 271 271 270 270 270 269 268 268 268 267 266 263 262 262 263 265 268 271 273 274 274 275 275 275 274 274 273 274 274
275 275 276 275 274 273 274 273 274 275 276 276 276 276 276 275 273 273 271 271 271 271 271 271 271 271 270 270 270 270 270 270 269 270 270 269 268 269 269 268 268 267 264 263 263 263 264 265 267 269 275 275 276 275 274 274 274 274 273 275 276 272
274 274 274 272 271 271 272 271 272 273 274 274 275 275 275 274 272 271 271 271 271 271 271 270 270 270 269 268 268 268 268 270 272 270 269 269 271 274 274 273 266 266 264 263 262 265 266 267 269 274 275 276 276 276 276 276 276 275 274 275 274 271
272 273 272 271 270 270 271 271 271 272 272 273 274 275 275 273 273 272 271 271 271 271 270 270 269 268 268 268 268 269 269 270 272 275 275 274 274 276 277 276 276 275 273 269 264 267 275 273 274 274 275 275 275 275 275 274 274 275 274 273 268 263
272 273 272 271 270 270 270 270 269 270 271 272 273 273 273 273 273 272 272 271 270 270 269 269 268 268 267 267 268 269 270 270 269 270 274 275 276 277 277 275 275 275 274 274 272 269 268 272 274 274 274 274 274 274 273 273 273 273 272 270 269 261
272 271 270 270 270 269 269 269 268 268 269 270 271 271 272 272 272 272 270 270 269 269 268 268 267 267 266 266 266 267 269 269 268 267 268 270 275 277 275 274 274 274 273 274 274 274 272 272 273 273 273 273 273 272 271 271 272 272 271 268 261 258
270 270 270 269 269 270 269 269 268 268 269 268 269 270 270 271 271 270 270 269 269 268 268 268 267 267 266 266 267 268 268 269 269 268 268 268 268 269 269 272 271 272 273 273 272 272 272 272 273 272 272 272 272 271 270 269 266 270 269 265 258 258
270 269 269 270 269 269 269 269 268 267 266 266 267 268 268 268 268 267 267 267 267 268 268 268 268 267 266 265 266 266 266 266 266 266 267 267 267 266 265 263 263 268 271 267 268 270 271 272 272 271 271 271 270 269 269 266 258 257 258 259 258 258
270 270 268 268 268 268 268 269 267 267 266 266 267 267 267 267 267 266 266 267 267 267 267 266 266 266 265 265 265 265 265 265 264 265 266 266 266 265 264 262 262 261 266 269 269 270 270 271 271 270 270 270 269 267 266 256 256 256 256 257 256 256

ECMWFFLT1_sfc_thetae_102.txt.gz
Theta_e
292 292 293 294 297 300 302 302 303 304 306 307 308 308 308 308 309 308 309 310 310 310 311 310 310 309 307 305 304 303 301 299 298 298 295 293 292 290 289 288 287 286 285 285 285 285 285 285 285 285 285 285 285 284 283 282 283 284 283 282 283 282
291 291 292 293 296 300 302 302 303 304 306 306 306 307 307 306 306 306 308 307 307 306 306 306 307 305 303 302 302 301 300 297 296 294 293 291 289 289 288 287 286 285 285 284 285 284 284 284 283 283 284 284 283 283 284 283 284 284 283 282 281 282
289 288 289 290 292 297 301 302 303 304 303 305 305 305 304 305 305 305 305 305 304 304 304 302 301 300 300 300 300 298 296 294 293 293 290 287 287 286 286 286 286 285 285 284 284 284 284 284 283 282 283 283 283 283 283 283 283 283 282 282 282 282
288 288 287 287 289 293 298 301 302 303 302 303 303 304 304 304 303 304 302 303 303 303 301 299 299 298 298 297 296 294 293 291 290 287 287 287 285 286 286 286 284 284 284 284 284 283 283 283 283 282 283 283 283 283 282 282 283 283 282 282 282 281
288 288 289 289 290 294 297 298 301 302 301 300 301 302 301 302 302 301 301 301 300 298 297 297 296 295 295 294 292 291 290 288 287 287 287 286 285 284 285 285 284 284 284 283 283 283 283 283 282 282 283 283 283 283 282 282 282 283 282 281 281 281
286 287 288 289 289 291 295 297 299 300 300 300 298 299 298 297 298 298 299 298 296 295 294 294 293 293 292 292 290 289 287 286 286 286 286 285 285 284 283 283 284 283 283 283 283 283 283 282 282 282 282 282 282 282 282 282 282 282 281 281 281 281
287 289 289 289 288 289 292 296 297 298 297 296 297 295 294 294 294 295 295 294 293 292 292 291 291 292 291 290 289 287 286 286 285 285 285 285 284 283 283 282 283 283 283 283 283 282 282 282 282 282 282 282 281 282 282 281 281 281 281 281 281 282
288 288 288 289 288 289 291 293 294 293 294 294 293 294 292 291 292 293 293 293 292 291 290 290 291 291 290 288 287 286 286 285 285 285 284 285 284 283 283 282 282 283 282 282 282 282 282 281 282 282 282 281 281 281 281 281 281 281 281 281 281 281
288 289 289 289 288 288 289 290 292 291 291 291 291 292 292 291 292 291 292 292 292 291 290 290 290 290 289 287 286 285 285 285 284 284 284 283 283 283 282 282 282 281 282 282 282 282 282 282 281 281 281 281 282 281 281 281 281 281 280 281 280 280
289 288 289 287 288 287 286 287 289 291 292 292 290 290 290 290 291 291 291 291 291 291 290 289 289 288 286 286 286 285 285 284 284 283 282 282 282 282 282 282 281 281 281 281 281 281 281 281 281 281 281 281 281 281 281 281 280 280 280 280 280 279
290 290 289 289 287 287 287 287 287 287 289 290 290 289 290 290 291 290 291 291 291 290 289 288 286 286 285 285 285 284 284 283 283 282 282 282 282 282 281 281 281 281 280 280 281 280 281 281 282 282 281 282 281 281 281 281 280 280 280 279 279 278
292 291 291 290 289 288 287 288 288 288 288 288 288 289 289 289 290 290 290 290 290 288 287 286 285 285 285 285 284 284 283 283 282 282 281 281 281 281 281 280 280 280 280 280 279 279 280 281 282 285 288 286 282 281 281 281 280 280 279 279 278 278
292 291 291 291 290 289 289 289 289 288 288 288 287 287 287 288 288 289 289 289 288 286 285 285 285 284 284 284 284 283 283 282 282 281 281 281 280 280 280 280 279 279 279 279 279 279 280 282 283 288 288 288 287 282 280 280 279 279 279 278 277 277
292 291 292 291 291 290 289 289 289 288 288 287 287 286 285 286 287 287 287 286 285 285 285 285 284 284 284 283 283 283 282 282 281 281 280 280 279 279 279 279 279 279 278 278 278 278 279 281 287 288 288 288 287 283 280 279 279 278 278 277 277 277
292 293 292 291 291 290 290 290 288 288 288 287 287 285 286 287 287 287 286 285 285 285 285 284 284 284 283 283 282 282 281 281 281 280 280 280 279 278 278 278 278 278 278 278 277 277 278 280 286 287 287 287 286 284 281 278 278 278 278 277 277 276
292 292 291 291 291 290 289 288 289 288 287 287 286 286 286 286 286 286 285 285 285 285 284 284 284 283 283 282 281 281 281 281 280 280 279 278 278 278 277 277 277 277 277 277 277 277 278 279 285 286 287 286 285 283 281 277 278 278 278 278 277 277
292 289 289 290 290 288 288 287 288 287 287 287 286 286 286 286 285 285 285 284 284 284 284 283 283 282 282 281 281 280 280 280 279 278 278 278 278 277 277 277 276 276 276 276 276 277 278 281 285 286 286 286 284 283 281 277 278 278 278 278 277 276
292 292 292 288 289 288 289 288 287 287 287 286 286 285 286 286 285 285 285 284 284 284 284 283 282 282 281 281 280 280 280 279 278 278 276 276 276 276 276 275 276 275 275 275 275 275 276 279 284 285 285 285 283 282 278 277 278 277 277 277 277 277
291 291 288 288 289 288 288 288 287 287 286 286 286 286 285 285 285 285 284 285 284 284 283 283 282 281 281 280 280 279 279 278 277 276 276 276 276 276 275 275 274 274 274 273 274 274 275 276 282 284 284 284 283 280 277 277 276 276 276 276 277 276
287 287 290 288 288 288 288 287 287 287 286 285 285 285 285 285 285 285 285 285 284 284 283 283 282 281 280 280 280 279 279 277 276 276 276 277 276 275 275 274 274 273 273 274 274 275 275 277 281 283 284 283 282 279 277 276 275 275 276 276 277 277
289 288 288 288 288 287 287 287 287 287 286 285 285 285 285 285 285 285 285 285 284 283 283 282 281 281 280 280 280 279 278 277 277 275 275 275 275 274 273 273 274 273 273 274 276 277 276 276 278 282 283 283 282 279 277 276 274 275 276 276 275 276
287 286 288 288 289 287 287 287 287 287 287 286 285 285 285 286 287 287 286 285 283 283 282 281 281 280 280 280 279 278 277 275 274 274 274 273 274 273 273 274 274 274 274 275 275 275 275 275 276 279 282 282 281 281 277 276 275 275 275 276 275 274
289 289 289 288 287 287 287 287 287 287 287 286 285 285 287 287 286 285 284 283 282 281 281 280 280 279 279 278 277 277 275 275 275 274 273 273 273 273 273 274 274 274 274 275 275 275 275 275 274 277 280 281 281 281 279 276 276 276 276 275 274 274
286 286 285 284 286 287 287 287 287 287 286 285 286 286 284 285 284 283 282 281 281 280 279 278 278 277 277 275 275 275 274 273 274 274 273 273 273 273 273 273 274 274 274 274 274 274 273 275 276 275 278 279 280 280 280 277 277 278 276 275 274 274
285 284 283 283 285 286 286 287 287 286 286 286 286 284 284 283 282 281 281 280 279 278 277 276 276 275 275 275 275 275 274 273 273 273 273 273 273 274 273 274 274 273 273 273 273 273 273 273 273 276 275 278 279 279 279 279 278 279 277 275 274 273
282 282 281 282 283 285 286 287 287 286 286 285 282 282 281 281 280 280 279 278 277 276 275 274 274 274 274 274 274 274 273 273 272 272 273 273 273 273 273 273 273 273 272 272 272 273 273 273 272 274 276 276 278 278 279 279 278 278 277 276 275 274
281 281 280 281 281 282 283 283 286 284 284 281 280 280 280 279 279 278 277 277 275 275 273 273 273 273 273 273 274 273 273 272 272 272 272 273 273 273 273 272 272 272 272 272 272 272 272 272 272 272 274 276 276 277 277 278 278 277 277 274 274 275
280 280 280 279 280 280 280 281 282 284 282 279 280 279 279 278 278 277 276 275 274 273 272 272 271 271 272 272 273 273 274 273 273 273 273 273 274 273 272 272 272 272 272 271 272 271 271 271 271 271 272 274 275 275 276 276 276 276 276 276 275 276
280 279 279 279 278 279 279 280 280 280 278 278 279 279 278 278 277 277 275 274 273 272 272 272 272 271 271 271 271 272 273 273 274 274 273 273 273 273 272 272 271 271 271 271 270 270 270 269 270 271 272 273 274 274 275 275 274 275 275 274 274 274
278 277 277 278 277 277 277 277 275 276 277 277 278 277 277 277 277 276 274 273 273 272 272 273 272 272 271 271 272 272 272 273 274 274 273 273 273 273 272 272 271 271 271 271 270 269 268 268 268 270 271 273 274 274 274 274 274 274 272 271 273 271
275 275 276 275 274 274 274 273 273 275 277 277 277 277 277 277 275 275 273 272 272 271 272 272 272 272 271 271 271 271 272 273 274 274 274 273 273 274 274 273 273 273 273 272 270 268 268 268 269 270 274 274 276 275 273 273 273 272 272 274 274 268
273 273 273 273 272 272 272 271 272 273 274 275 276 277 277 275 274 273 272 272 272 271 271 271 271 270 271 271 270 270 270 273 275 273 273 271 274 275 275 276 272 273 271 270 270 270 270 270 271 275 277 277 277 276 276 276 275 275 273 273 272 267
271 271 271 270 270 270 270 270 270 271 271 273 274 276 276 275 274 273 272 271 271 271 271 271 270 270 269 270 270 270 270 271 273 275 275 274 275 276 276 276 275 274 273 271 268 270 274 274 276 277 277 277 276 276 275 275 275 275 273 272 265 260
271 272 271 270 269 268 269 269 269 270 270 271 272 273 274 274 275 274 272 272 271 271 270 270 269 269 269 269 270 270 271 271 271 273 275 276 277 277 277 277 276 276 275 274 272 271 272 275 276 276 276 276 275 275 274 274 274 273 272 270 269 258
271 270 269 268 268 268 268 268 268 268 269 269 270 271 271 272 273 273 272 271 270 270 270 269 269 268 269 268 269 269 271 272 272 271 271 274 277 278 278 277 277 276 276 275 275 275 274 275 275 276 276 275 275 274 273 273 273 272 271 269 260 256
269 268 268 267 267 268 267 268 267 267 268 268 269 269 270 270 270 270 270 270 270 270 269 269 269 268 268 269 269 270 271 272 273 272 271 271 273 274 274 276 277 276 277 276 276 275 275 276 276 275 275 275 274 273 273 272 270 271 270 265 257 255
268 268 267 268 267 267 267 268 267 266 265 266 267 268 268 268 269 267 268 269 269 269 269 269 269 268 268 268 269 270 271 272 272 272 271 271 271 270 268 269 271 274 276 274 274 275 275 275 275 274 274 274 273 272 272 270 264 260 258 257 256 256
267 267 267 267 267 267 267 267 266 265 265 265 265 266 267 266 267 266 267 267 268 268 268 267 267 267 267 267 268 270 271 271 270 270 271 271 271 270 268 267 268 268 273 274 273 274 274 275 274 274 274 273 272 271 270 261 259 258 256 256 255 255

ECMWFFLT1_sfc_thetae_105.txt.gz
Theta_e
293 293 292 294 296 299 300 300 301 302 304 306 307 308 309 309 311 312 314 316 316 317 317 318 318 318 318 316 314 312 310 307 305 304 303 299 297 296 295 295 293 292 292 292 291 291 291 291 291 290 290 290 289 288 288 287 289 288 287 287 288 287
291 291 292 295 296 298 300 302 302 302 304 305 306 307 308 308 308 309 311 313 314 315 315 315 316 316 315 312 311 310 308 305 303 301 298 297 296 296 295 293 292 291 291 290 290 290 289 289 289 289 289 289 289 288 288 288 288 287 287 286 287 287
290 290 291 293 295 299 302 303 303 303 304 305 306 306 307 307 307 308 309 310 311 310 312 311 311 310 310 309 309 308 306 303 301 299 298 295 294 293 292 292 291 291 290 290 290 289 289 288 288 288 288 288 288 288 288 287 287 287 286 286 286 286
290 289 288 288 291 297 301 302 303 303 304 305 305 306 306 306 306 307 308 308 309 308 309 307 307 307 306 306 305 303 301 299 298 295 293 294 292 292 292 291 290 290 289 289 288 288 288 287 287 287 288 288 287 287 287 287 287 286 286 286 285 285
290 290 290 290 292 296 299 300 302 303 303 303 303 304 304 305 305 305 305 306 306 305 304 303 302 302 302 301 299 298 296 294 293 293 293 292 291 291 291 290 289 288 288 288 288 287 287 287 287 287 287 287 287 286 286 286 286 286 286 285 285 285
287 288 289 290 290 294 297 299 301 302 302 302 302 302 301 301 302 302 303 303 301 300 299 299 298 299 299 298 296 294 293 292 292 292 292 291 290 290 289 289 288 288 287 287 286 287 286 286 286 286 287 287 287 286 286 285 286 286 285 285 284 284
287 290 290 290 290 292 295 298 299 300 300 300 299 299 298 298 298 299 299 299 297 296 297 296 296 297 296 295 294 292 291 291 291 291 290 290 289 288 287 287 287 287 287 286 286 286 286 286 286 285 285 286 286 286 285 285 285 285 285 285 284 284
289 288 288 290 289 291 294 296 298 297 298 297 296 296 295 295 296 297 297 297 297 295 294 294 294 295 294 293 292 291 291 290 290 290 289 289 288 287 287 286 286 286 286 286 286 286 285 285 286 285 285 285 285 285 285 285 285 285 284 284 284 284
289 289 289 290 289 289 292 295 296 295 295 295 294 295 295 294 295 295 296 295 296 295 293 293 293 293 292 292 291 290 290 290 289 289 288 288 287 287 286 286 285 286 286 285 285 285 285 285 285 285 285 285 285 285 285 285 284 284 284 284 284 283
289 289 289 288 289 288 289 290 294 295 294 294 293 293 293 293 294 294 294 293 293 293 293 293 292 292 291 290 290 289 289 288 288 288 287 287 286 286 285 285 285 284 284 284 284 284 284 284 284 285 285 285 285 285 285 284 284 284 283 283 283 283
290 290 289 289 288 288 288 289 290 291 292 293 293 292 292 291 293 293 293 292 293 292 291 291 290 290 289 289 289 288 287 287 287 286 286 286 285 285 285 285 284 283 283 283 283 284 284 285 285 285 285 285 285 285 284 284 283 283 282 282 282 282
290 290 290 289 289 288 288 288 289 291 292 292 291 291 292 291 292 292 292 292 292 291 290 290 289 289 289 288 288 287 287 286 285 285 285 285 284 284 283 283 283 283 283 282 283 284 285 285 285 284 286 286 285 285 284 283 283 282 282 281 281 281
291 291 290 290 290 289 289 289 290 291 291 292 291 291 290 291 292 292 292 292 291 290 290 289 289 288 288 288 287 286 286 285 285 284 284 283 283 283 282 282 282 282 282 282 283 284 285 285 286 287 288 287 285 284 283 283 282 282 281 281 280 279
292 292 292 292 291 291 290 290 289 289 290 291 291 291 289 290 291 292 292 292 290 289 289 289 288 288 288 287 286 285 285 284 284 283 283 282 282 282 282 282 282 281 281 282 283 284 285 286 288 289 288 287 285 283 282 282 282 281 281 280 280 280
292 293 293 292 292 292 291 291 290 289 290 290 290 289 289 290 291 292 292 290 290 289 289 288 288 288 287 286 285 285 284 283 283 282 282 282 282 281 281 281 281 281 281 281 282 283 284 286 289 289 287 286 285 284 282 281 281 280 280 280 279 279
292 292 292 293 293 292 291 290 291 290 290 289 288 288 289 290 290 291 290 289 289 289 288 287 287 287 286 286 285 284 283 283 283 282 282 281 281 281 280 280 280 280 280 281 282 283 284 286 288 288 287 285 285 284 282 281 280 280 279 279 279 279
292 290 289 291 291 290 289 289 290 288 288 288 287 288 288 289 289 290 289 288 288 288 287 287 287 286 285 284 284 283 283 283 282 281 281 281 281 280 280 279 279 279 279 280 281 282 283 285 288 288 286 285 284 283 281 280 280 279 279 279 279 279
292 292 292 290 290 290 290 290 289 288 288 288 288 287 288 288 288 288 288 288 287 287 287 286 286 286 284 284 283 283 282 282 281 280 280 280 279 279 279 279 279 278 278 280 281 282 282 285 287 287 286 285 284 282 280 279 279 278 278 278 278 278
292 292 289 289 290 289 289 289 288 288 287 287 287 287 287 287 287 287 287 287 286 286 286 286 286 285 284 283 283 282 282 281 280 280 279 279 279 278 278 278 278 278 278 278 280 281 282 283 286 286 285 284 283 280 279 279 278 278 278 278 278 277
288 288 289 288 289 289 289 288 288 288 287 287 287 287 286 287 287 288 287 287 286 286 285 285 285 284 283 283 283 282 282 281 280 279 279 279 278 278 277 277 277 277 277 278 278 280 281 281 284 286 285 283 282 279 278 278 277 277 277 277 277 277
287 287 287 288 288 288 288 288 288 288 287 287 286 287 287 287 288 287 287 287 286 286 285 285 285 284 283 283 283 282 281 280 279 279 279 279 278 277 276 276 276 275 275 276 277 279 279 280 283 285 284 283 281 279 278 277 277 277 277 276 276 277
287 287 288 288 288 287 287 288 288 287 287 287 287 286 287 287 288 288 287 287 286 285 285 284 284 284 283 283 282 282 281 279 278 277 278 277 277 276 276 276 276 275 275 275 276 277 278 279 281 283 284 283 281 280 278 277 277 276 276 276 275 274
288 288 288 288 287 287 287 288 288 287 287 287 286 286 287 287 287 286 286 286 285 284 283 283 283 283 282 282 281 280 278 278 278 277 276 276 275 275 275 275 275 274 274 275 275 275 276 277 280 282 284 283 282 281 279 277 277 277 276 275 275 275
285 285 284 284 286 286 287 287 287 287 287 286 286 287 286 286 286 285 285 284 284 283 282 281 281 281 280 279 279 278 277 276 276 276 276 276 275 274 274 274 274 274 274 274 274 275 275 277 279 281 282 283 282 281 280 278 278 278 276 275 275 275
285 284 284 284 285 286 287 287 287 286 286 286 286 285 286 285 285 285 284 283 282 281 281 280 279 279 278 278 278 277 276 275 275 275 275 275 275 274 274 273 273 273 273 273 274 275 275 276 277 279 280 282 282 282 281 280 279 280 277 275 274 274
282 283 282 283 284 285 286 287 287 286 286 286 285 284 284 284 284 283 282 281 281 280 279 278 278 278 277 277 277 276 275 275 274 274 274 275 275 274 274 273 273 273 273 273 273 273 274 275 275 278 279 280 281 282 281 281 280 279 277 276 275 275
282 282 282 282 282 283 284 285 287 285 285 283 283 283 283 282 282 282 281 280 279 278 277 277 277 276 276 276 276 276 275 274 274 274 274 274 275 275 274 274 274 274 274 273 273 273 273 274 274 276 278 279 280 281 281 280 280 280 279 276 275 275
281 281 281 280 280 281 282 282 283 285 283 281 281 282 282 281 281 280 279 278 277 276 275 275 275 275 275 276 276 276 276 275 274 275 274 275 275 275 275 274 274 274 274 273 273 273 272 273 273 274 275 277 278 279 280 279 279 278 278 276 275 277
281 280 279 279 277 277 279 279 279 280 279 279 280 280 280 279 279 278 277 276 275 274 275 275 275 274 274 274 274 275 275 275 275 275 274 275 275 275 275 275 274 274 274 273 273 273 272 272 272 272 274 275 276 276 277 277 276 277 277 275 275 275
280 278 279 278 277 276 276 275 275 276 277 278 278 278 278 278 278 277 276 275 274 274 274 275 273 273 273 273 273 274 274 274 275 275 275 275 275 275 275 275 274 274 274 274 273 272 271 271 271 272 273 274 274 274 275 275 274 275 274 273 274 271
276 276 277 276 274 274 274 273 273 274 276 277 276 278 278 277 276 275 274 273 273 273 273 273 273 273 273 273 272 272 272 274 274 275 275 275 276 277 277 276 276 276 276 276 273 271 271 271 271 272 275 274 276 274 274 273 274 274 273 274 273 267
274 274 274 273 271 272 273 272 272 273 274 274 276 277 278 276 275 274 273 273 273 272 273 272 272 272 272 272 272 272 270 274 276 275 274 274 277 278 278 279 277 277 276 276 275 274 273 272 273 276 277 278 278 278 277 276 276 276 274 276 275 268
271 272 271 271 270 270 271 271 271 272 272 273 274 276 276 276 275 274 272 272 272 272 272 272 271 271 271 271 271 271 271 271 273 277 277 277 276 277 277 278 279 279 278 276 274 275 276 276 277 278 278 279 279 279 278 278 278 277 277 276 269 264
272 272 272 270 268 269 269 270 270 269 269 271 272 273 275 275 276 275 273 272 272 272 271 271 271 270 270 270 271 271 271 271 271 271 276 277 277 278 278 278 278 278 279 278 275 274 275 278 279 279 279 280 279 279 278 278 278 278 277 275 272 263
271 270 269 268 268 268 269 268 268 268 268 269 270 271 273 273 274 274 272 271 271 271 271 271 270 270 270 270 270 270 270 271 272 272 272 274 278 278 278 279 279 279 278 278 277 277 277 278 279 280 280 279 279 278 278 278 278 277 276 275 267 263
268 268 267 267 267 267 267 266 266 267 266 266 268 269 270 270 270 270 272 271 271 271 270 270 270 270 270 270 270 270 271 271 272 272 273 272 274 276 277 278 279 278 278 278 278 278 278 279 280 280 279 279 278 278 277 277 275 275 274 269 262 263
268 268 268 268 267 267 266 266 266 265 264 265 266 267 268 268 268 267 269 269 270 271 271 270 270 270 269 269 269 270 270 271 271 272 272 272 272 273 273 274 275 277 278 277 277 278 278 279 279 279 279 278 278 277 277 276 271 268 265 264 261 261
267 266 266 266 266 265 266 266 266 265 264 264 265 266 266 265 267 267 268 268 269 269 269 269 269 269 269 269 269 269 270 270 271 271 271 272 272 272 272 272 273 274 276 277 277 277 278 278 278 278 278 277 278 277 277 268 266 265 263 262 261 260

ECMWFFLT1_sfc_thetae_111.txt.gz
Theta_e
310 310 310 309 309 309 309 309 310 311 313 315 317 318 320 322 324 325 326 326 325 326 326 326 327 328 328 330 330 329 328 327 327 326 326 325 324 320 318 316 316 314 315 315 313 313 310 311 310 308 306 305 302 301 299 299 298 297 296 296 296 296
309 308 308 308 307 307 308 308 309 309 311 312 314 317 319 321 323 324 323 324 324 325 326 326 326 327 329 329 328 327 326 326 326 326 325 325 321 319 316 313 312 312 312 311 310 308 308 308 307 306 304 302 300 298 297 297 297 295 294 294 294 295
307 307 307 307 306 306 306 307 307 308 309 310 313 314 316 318 321 321 321 321 322 323 325 326 327 327 327 327 327 326 327 326 324 325 324 322 317 317 313 311 310 309 309 308 307 306 305 305 304 303 301 299 297 296 296 295 294 293 292 292 293 293
305 306 305 305 304 303 303 304 305 306 307 310 311 312 314 315 317 318 318 319 320 321 322 323 324 325 325 325 325 325 326 325 323 322 320 319 314 312 311 309 308 307 307 307 306 305 305 304 302 300 299 297 295 295 296 294 293 292 291 291 290 292
305 305 304 303 303 303 303 304 305 307 308 310 311 312 313 316 316 316 316 317 318 319 320 320 321 322 321 322 322 322 321 321 319 318 316 314 310 308 310 308 307 306 306 305 304 304 303 303 300 299 298 295 294 293 294 293 292 291 290 289 290 290
304 303 303 303 302 303 304 305 307 308 309 309 310 310 312 314 314 314 314 314 314 313 313 316 317 317 318 318 319 319 317 315 313 311 312 309 306 305 303 304 305 304 305 304 302 302 301 300 299 297 296 295 293 292 292 292 291 291 290 290 290 290
302 303 304 304 304 304 305 306 307 308 308 308 308 309 310 311 312 312 311 311 311 311 311 311 312 313 314 315 314 313 310 308 306 306 307 305 303 303 301 299 300 301 302 301 301 300 300 299 298 297 295 293 292 292 291 291 291 290 290 290 289 289
304 304 304 305 305 304 305 306 307 307 308 308 308 308 308 309 309 309 309 309 309 310 309 309 308 310 311 310 307 306 303 301 301 302 300 301 301 299 299 300 299 299 299 300 300 299 299 298 297 295 293 292 292 291 291 291 291 290 290 290 289 289
303 303 304 305 305 305 305 306 306 305 306 307 307 308 307 306 306 307 307 307 307 307 308 307 307 306 304 304 301 298 297 298 297 298 298 297 298 297 296 297 298 297 298 299 299 298 297 296 295 293 292 291 291 290 290 290 289 289 289 288 289 288
304 303 304 304 304 305 305 305 304 304 304 304 306 306 306 305 304 304 305 305 305 306 306 307 304 303 301 298 297 297 295 295 295 296 295 296 297 297 297 297 297 295 295 294 295 296 295 295 293 292 291 291 290 290 289 289 288 288 287 287 287 287
306 305 304 304 304 303 303 303 303 303 303 304 304 304 305 305 303 303 303 302 302 303 303 302 301 301 298 295 295 294 294 294 294 294 294 294 295 296 297 298 298 296 295 293 293 293 293 293 292 291 290 290 289 289 289 288 288 287 286 286 286 286
307 306 306 304 304 303 303 303 303 302 302 302 303 303 303 302 301 301 301 300 300 299 298 297 294 294 293 294 294 293 293 293 293 293 292 293 293 293 292 293 294 295 295 293 292 292 292 291 291 288 290 290 289 289 289 288 287 286 286 285 285 284
306 306 305 305 304 304 304 303 303 303 302 302 302 302 302 301 299 298 298 299 297 295 295 294 293 292 292 293 292 292 292 292 292 291 291 291 291 291 291 292 292 291 292 292 291 290 290 290 289 288 291 291 291 289 288 287 286 286 285 284 284 283
306 306 305 306 305 305 304 303 303 303 302 302 301 301 298 298 299 298 297 297 294 293 293 293 293 292 292 291 291 291 291 290 290 291 291 291 290 289 290 290 291 291 291 291 290 289 289 289 288 290 291 291 291 289 288 287 286 286 285 284 284 283
308 309 308 307 306 305 304 304 303 302 303 302 302 300 296 296 297 298 297 294 293 293 293 292 291 292 292 291 290 290 290 289 289 289 289 290 290 289 289 289 289 289 289 289 289 288 288 287 289 290 291 290 290 290 288 287 286 285 285 284 284 283
308 308 307 307 307 306 305 304 303 303 303 302 300 297 296 296 296 298 296 294 293 293 292 291 291 290 292 291 290 290 289 289 289 289 288 289 288 288 288 288 288 288 288 288 288 287 287 287 288 290 290 290 290 290 288 286 286 285 285 284 283 283
307 308 306 305 305 305 304 302 302 302 301 300 298 297 296 296 296 296 296 294 293 292 291 291 291 291 290 290 289 288 288 289 288 288 288 288 287 287 287 288 287 287 287 287 287 287 286 286 289 290 290 290 290 291 288 286 285 284 284 284 283 283
306 305 306 305 304 303 303 302 301 300 299 299 298 296 296 296 296 296 296 295 294 293 292 292 291 291 290 289 288 288 288 288 288 287 287 287 287 287 287 287 287 286 286 287 287 286 286 286 289 289 289 290 290 289 286 285 284 283 283 282 282 282
307 306 305 304 303 302 302 301 299 298 298 297 297 296 296 296 296 296 295 294 294 293 293 292 291 290 288 288 287 287 287 287 287 287 287 286 287 286 286 286 286 286 286 286 286 286 286 286 288 289 289 289 289 287 285 284 284 283 282 282 282 282
303 301 303 300 300 300 300 299 298 297 296 296 296 295 294 294 295 296 295 295 294 293 293 292 291 289 288 287 287 287 287 287 287 286 286 286 286 286 286 286 286 286 286 286 286 287 286 286 287 288 289 289 288 286 284 284 283 282 281 281 281 281
300 299 299 299 298 299 298 297 297 296 295 295 295 294 293 293 294 294 295 295 295 294 293 292 291 289 288 287 287 287 287 287 286 286 286 286 286 286 286 286 285 285 286 286 286 286 286 286 286 288 288 288 287 285 284 284 283 281 281 280 280 280
296 296 298 298 298 297 296 296 296 294 294 294 294 293 293 293 294 295 295 295 294 293 292 290 289 288 288 287 287 287 287 287 286 285 285 286 286 285 285 285 285 285 285 285 286 286 286 285 285 286 288 287 287 286 284 284 282 281 280 280 279 279
296 297 297 297 295 295 295 295 294 293 293 293 292 291 293 294 295 294 294 294 292 292 290 289 288 288 287 287 287 287 287 286 286 285 285 285 285 285 284 284 284 284 284 285 285 285 286 286 285 285 287 287 286 286 285 283 283 282 281 280 279 279
294 294 293 293 294 294 294 294 292 292 292 292 291 292 294 293 294 294 293 293 292 290 288 288 287 288 287 287 287 286 285 286 285 285 285 285 284 283 283 283 283 283 283 283 284 284 285 285 285 285 286 286 286 286 286 284 283 283 281 280 279 279
293 292 291 291 292 292 292 291 290 290 289 291 291 292 293 292 292 291 290 289 289 288 287 287 287 287 287 286 286 286 285 285 284 284 284 284 283 283 282 282 282 282 281 282 282 283 284 285 285 285 285 285 286 286 286 285 284 285 282 281 279 279
291 290 290 290 291 290 290 289 289 289 289 289 292 291 291 291 290 289 288 287 287 286 286 286 286 286 286 286 286 285 284 283 284 283 283 283 282 282 281 281 281 281 280 280 281 282 283 284 285 285 284 284 285 286 286 285 285 285 282 282 281 281
289 288 288 289 289 290 288 288 287 287 287 289 289 288 288 288 287 287 287 286 286 286 285 285 285 285 285 285 285 284 284 283 283 282 282 282 282 281 281 280 280 280 280 280 280 281 282 282 284 284 284 284 284 285 285 285 284 284 283 281 281 280
287 287 286 287 288 289 288 288 287 286 287 288 288 288 287 286 286 286 285 285 285 285 285 284 284 284 285 285 285 284 284 283 282 283 282 281 282 282 281 281 280 280 280 280 280 281 281 281 282 283 283 284 284 284 284 285 284 283 283 281 280 280
286 285 285 285 286 286 286 285 285 286 286 286 287 286 286 286 285 285 285 284 284 284 284 284 283 283 283 284 284 284 283 282 282 282 281 281 281 281 281 281 280 280 280 280 280 280 280 280 281 281 282 283 283 283 283 283 283 283 282 280 279 279
285 285 285 285 285 284 283 282 282 283 284 285 285 285 285 285 285 285 284 283 283 283 283 284 280 282 282 283 283 283 283 282 282 282 281 281 281 281 280 281 280 279 280 280 280 280 280 279 279 280 281 282 282 282 282 282 282 281 281 279 278 278
284 284 284 283 283 282 281 280 280 281 281 283 284 285 285 284 283 282 282 282 282 282 282 283 282 283 282 282 282 283 283 282 282 282 282 283 284 283 282 281 281 281 281 281 281 280 279 279 279 279 282 282 283 282 282 281 281 281 281 280 279 278
283 283 283 282 281 280 279 278 279 279 280 281 282 283 283 282 282 281 281 281 281 281 281 281 281 281 281 281 281 281 281 280 282 282 282 282 283 283 282 283 282 282 282 282 282 282 280 279 279 282 282 282 283 283 283 282 283 282 281 280 281 278
282 282 280 279 278 277 277 276 277 277 277 278 280 282 282 283 282 281 280 281 281 280 281 281 280 280 280 280 280 280 280 280 280 281 280 280 282 282 282 282 281 281 283 282 281 282 284 283 282 282 282 282 282 283 283 282 283 283 282 282 278 275
280 279 278 277 276 276 276 275 275 275 275 276 278 280 281 282 284 282 281 280 279 279 280 280 280 279 279 279 279 279 279 279 279 279 280 280 280 280 281 281 281 281 281 282 282 282 281 283 283 282 282 282 282 282 283 282 282 283 282 282 279 273
278 277 277 277 276 275 274 273 273 273 273 274 276 278 279 279 281 280 279 279 279 278 278 279 279 278 278 277 277 277 278 278 279 279 279 279 280 280 280 280 281 281 281 281 282 282 282 282 283 283 282 282 282 282 282 283 283 283 282 282 277 274
276 275 275 274 274 273 272 271 271 271 271 272 275 276 276 277 277 278 279 279 278 279 278 278 278 278 278 277 277 278 277 278 278 279 279 279 278 277 278 279 280 280 281 281 282 282 282 282 282 283 282 282 282 282 282 282 281 283 283 281 276 274
274 273 273 273 273 272 270 269 269 269 270 271 273 274 274 275 276 276 273 272 276 279 279 278 278 278 278 277 277 277 277 277 277 277 277 278 278 278 278 278 279 280 280 280 281 281 282 282 282 282 282 282 282 282 282 283 280 278 279 279 278 274
272 272 273 273 272 271 270 269 269 269 269 270 272 274 274 274 275 277 277 276 275 277 278 277 277 278 277 277 277 277 277 277 277 277 277 277 277 277 277 277 279 278 280 281 280 281 281 282 282 281 282 282 282 282 282 278 277 277 277 277 277 275

ECMWFFLT1_sfc_thetae_114.txt.gz
Theta_e
300 300 300 301 302 302 302 302 303 305 306 307 309 310 313 315 317 319 320 322 322 323 322 323 324 324 324 324 324 324 324 324 324 325 325 325 325 322 321 320 318 315 313 314 312 312 312 311 310 309 308 306 304 302 299 298 297 296 295 294 293 292
302 302 302 301 302 302 302 303 304 304 305 306 307 308 309 312 315 317 318 320 320 320 319 320 322 321 322 322 322 322 323 323 323 323 323 324 323 323 321 319 317 314 312 311 311 311 310 309 307 306 305 303 301 298 296 296 295 292 291 291 291 292
301 300 299 299 298 298 300 301 302 302 303 304 305 307 308 310 313 314 316 316 317 315 317 317 317 318 319 318 320 321 321 322 321 323 324 319 321 320 318 316 316 314 312 311 310 310 309 307 305 304 302 299 297 295 295 293 292 290 289 289 289 288
298 298 297 296 296 298 298 298 300 300 300 301 302 304 306 307 309 310 311 312 312 311 312 312 313 315 317 318 316 319 319 320 319 320 317 317 316 316 316 315 314 312 311 310 309 309 308 307 305 303 300 297 295 294 294 291 290 288 288 288 287 287
297 297 297 296 296 297 296 296 299 300 299 300 301 303 303 304 305 308 308 309 310 311 312 312 312 313 312 312 312 313 315 315 315 315 316 315 312 313 313 312 311 310 310 309 308 308 306 305 303 301 299 296 295 293 292 290 288 288 287 287 287 287
297 296 296 295 295 295 295 296 297 299 300 301 301 302 302 304 304 303 303 303 305 307 308 309 309 309 309 311 312 312 312 311 312 312 314 312 310 310 307 309 309 308 307 307 305 305 304 302 300 299 297 295 293 292 291 288 288 287 287 287 287 287
295 295 295 295 295 294 296 297 299 299 298 299 299 300 300 301 303 304 303 301 302 304 306 306 307 310 311 313 312 311 309 308 307 309 312 309 308 308 306 305 305 306 306 305 305 304 302 301 299 298 295 293 292 291 290 288 287 286 286 286 287 287
295 295 295 296 296 297 297 298 299 298 297 298 298 298 298 298 299 299 301 301 304 305 305 305 305 306 308 309 307 308 306 305 304 306 305 307 308 304 304 305 303 304 304 303 303 303 301 299 298 296 294 292 290 289 288 287 286 286 286 286 286 286
296 297 297 297 297 296 298 298 300 298 297 296 297 298 297 297 298 297 297 300 303 302 302 303 303 303 303 303 304 303 301 301 299 301 302 300 303 302 301 299 301 301 303 302 301 300 298 297 296 294 292 291 290 289 287 286 286 286 286 286 286 286
295 295 296 296 297 297 298 299 299 299 297 296 295 296 296 296 296 298 300 300 300 300 300 300 300 300 300 298 296 297 295 295 294 295 295 294 299 298 298 299 299 298 298 299 300 299 297 297 295 293 291 290 289 288 287 287 286 286 285 285 285 285
296 296 296 297 295 296 296 296 296 295 295 295 296 295 296 298 299 298 298 298 298 298 299 299 300 298 295 294 295 294 294 294 293 293 293 293 293 295 296 297 297 296 296 295 295 295 295 296 295 293 291 289 288 287 287 286 286 285 285 284 284 284
297 297 297 296 297 296 296 296 296 296 296 297 298 299 299 299 298 298 298 298 297 296 296 296 296 295 293 293 293 292 292 292 292 292 293 293 293 293 293 294 294 295 296 295 294 294 294 294 294 290 291 290 288 287 287 286 285 285 284 284 283 283
298 297 297 297 297 297 298 298 298 297 296 296 298 299 299 299 298 297 297 297 296 294 293 292 291 290 291 291 290 290 291 291 290 291 291 291 291 291 291 292 293 293 293 294 294 294 294 294 293 290 292 292 291 288 286 285 285 284 284 283 283 282
298 298 298 297 297 297 297 297 297 296 296 296 297 297 298 298 298 297 296 295 293 292 292 290 290 290 289 289 290 290 289 289 289 290 290 289 290 290 289 291 292 292 291 291 291 292 293 293 290 292 292 292 291 289 286 285 284 284 283 283 282 282
298 299 298 296 298 298 298 297 296 296 296 296 295 296 296 297 296 296 295 293 292 291 290 290 290 290 289 289 289 289 288 288 289 289 289 289 289 288 290 291 290 290 290 290 290 290 290 289 290 292 292 291 291 290 287 285 284 283 283 282 282 282
298 298 298 298 298 297 296 297 296 296 295 295 293 294 295 296 295 296 293 291 291 290 290 290 290 290 289 289 288 288 288 288 288 288 288 288 288 289 289 288 289 289 289 290 290 289 289 288 289 292 292 291 291 290 287 284 284 283 282 282 282 282
297 297 296 296 296 294 295 293 293 293 293 293 293 293 295 295 294 294 293 292 291 290 290 289 289 289 289 288 288 288 288 288 288 288 288 288 288 288 289 289 288 289 288 288 288 288 287 287 290 291 291 291 291 290 287 284 284 283 282 282 282 281
297 297 297 294 295 294 294 295 293 294 292 290 291 291 293 293 293 293 292 292 291 290 290 290 289 289 289 288 288 287 287 287 287 287 287 287 287 287 288 287 287 287 287 288 288 287 287 287 290 291 291 291 291 290 284 283 283 282 282 281 281 281
295 295 294 294 294 294 293 292 292 292 290 290 290 291 292 292 292 292 292 292 291 290 290 290 289 288 288 287 287 287 287 287 287 287 287 287 287 287 287 287 287 287 287 286 287 287 286 286 288 290 290 290 291 288 284 283 283 282 281 281 281 281
293 293 294 292 291 291 291 290 291 291 290 289 290 291 291 292 292 292 292 292 292 291 290 290 290 288 287 287 287 287 287 287 287 287 287 287 286 287 287 286 286 286 286 286 286 287 286 286 287 289 290 290 290 286 284 283 282 281 281 280 280 280
290 289 289 289 290 289 288 288 289 289 288 287 289 290 291 291 292 291 292 291 291 291 290 290 289 288 287 287 287 287 287 286 286 286 286 287 286 286 286 286 286 286 286 286 286 286 286 286 286 288 289 290 289 286 283 283 282 280 280 279 279 279
289 289 289 288 288 287 288 288 288 287 287 286 287 288 289 290 291 292 292 292 291 291 290 289 288 288 287 287 287 287 287 286 286 286 286 286 286 286 286 286 286 285 286 286 286 286 286 286 286 287 289 289 289 287 283 282 281 280 279 279 279 278
286 286 286 286 286 286 287 288 288 287 286 286 286 285 287 289 291 291 292 291 291 290 289 288 288 287 287 287 287 287 286 286 286 286 286 285 286 285 285 285 285 285 285 285 285 285 285 286 285 286 288 289 289 288 285 282 281 281 280 279 278 278
285 285 284 284 284 286 286 287 287 286 286 286 286 285 285 288 290 291 291 291 290 289 288 288 287 287 287 286 286 286 286 286 286 286 286 286 285 285 284 285 284 285 285 285 285 285 285 285 285 285 287 288 288 288 287 282 282 282 280 279 278 277
284 284 283 284 284 285 285 286 286 285 285 285 284 285 286 286 287 288 289 289 288 287 287 287 287 287 287 286 286 286 286 285 285 285 285 285 285 284 284 284 284 284 284 284 284 285 285 285 285 285 285 287 288 288 288 286 283 285 280 279 278 278
284 284 283 283 283 283 283 286 286 285 285 284 283 284 285 285 284 285 286 287 287 287 286 286 286 286 286 286 286 286 285 285 285 284 284 284 284 283 283 282 283 282 282 282 282 283 283 283 283 284 285 285 287 288 288 287 286 286 280 280 279 280
284 285 285 285 284 283 282 283 285 284 284 283 283 283 284 284 284 284 283 284 285 285 285 285 285 285 285 285 286 285 285 284 284 283 283 283 283 283 282 281 282 282 282 282 281 281 281 281 281 281 283 284 285 287 287 287 286 286 285 281 281 281
285 285 284 283 282 282 282 282 282 283 281 282 282 281 283 283 283 282 282 281 281 281 282 283 284 285 285 285 285 285 285 284 283 283 282 282 282 282 282 281 281 281 281 281 281 281 281 280 279 281 281 283 283 284 286 286 286 285 285 283 281 282
285 284 284 282 280 280 280 280 281 281 281 281 281 282 282 282 282 281 280 279 279 279 279 279 280 281 283 283 284 284 283 283 283 283 282 282 282 282 281 281 280 280 280 280 280 280 280 280 279 279 280 281 281 281 282 283 284 284 284 282 280 281
284 284 283 281 280 278 278 278 278 278 280 280 281 281 282 282 281 280 278 278 279 279 279 278 279 279 277 279 281 280 280 281 282 282 281 281 281 281 281 281 280 280 280 280 280 280 279 279 279 279 280 281 281 281 281 282 283 282 282 280 279 279
283 282 281 280 279 277 276 275 276 277 277 278 279 281 280 280 279 278 277 278 278 278 278 278 277 277 277 276 278 278 279 279 279 279 279 279 279 279 279 278 278 279 278 278 278 278 278 277 278 280 283 282 283 282 281 281 282 282 281 281 280 278
282 280 279 278 277 276 274 274 274 274 275 276 277 279 279 278 278 277 277 277 277 277 277 277 275 276 276 276 275 276 276 280 282 280 277 278 282 283 283 283 279 278 279 278 279 279 279 279 279 283 284 284 284 284 284 283 283 283 281 282 282 279
280 278 277 277 276 274 273 272 272 273 273 274 274 277 278 278 278 277 277 277 276 276 276 275 275 276 276 276 275 274 274 274 277 282 282 282 281 282 282 283 282 283 283 280 278 280 284 284 285 285 285 284 285 285 285 284 284 284 283 283 280 277
278 277 276 275 273 272 271 271 270 271 271 272 274 275 277 278 278 277 276 275 275 276 276 274 274 274 275 273 273 274 274 273 274 274 280 282 281 281 281 282 282 282 282 283 282 279 276 282 285 285 285 284 284 284 284 284 284 284 284 283 282 276
276 275 274 272 271 270 270 269 269 269 269 271 272 274 276 276 277 276 275 275 275 274 275 274 274 274 274 273 273 274 273 273 273 273 273 275 280 280 281 281 281 282 282 282 282 283 283 282 283 285 284 284 284 284 284 284 284 285 284 284 280 276
273 272 271 270 269 268 268 267 267 267 268 269 271 273 274 274 274 274 274 274 274 274 273 273 273 274 273 273 272 273 273 273 272 271 272 273 272 273 277 280 281 281 281 282 282 282 282 282 283 284 284 284 284 284 284 284 283 284 285 283 279 277
271 270 270 270 269 268 267 266 266 266 266 267 269 272 273 273 273 273 273 273 274 274 274 273 272 272 273 272 272 271 271 271 271 272 272 272 272 273 273 272 274 279 281 279 280 281 282 282 282 283 284 284 284 284 284 284 281 280 280 281 280 278
270 270 269 269 268 267 266 265 265 266 266 267 268 271 272 272 273 273 272 272 273 273 272 272 273 272 273 272 271 271 271 271 271 271 271 272 272 273 273 275 277 277 280 281 281 281 281 281 282 282 282 283 283 283 283 279 278 277 277 278 279 278

ECMWFFLT1_sfc_thetae_117.txt.gz
Theta_e
295 295 296 295 296 297 299 300 302 306 309 314 317 317 318 319 320 320 321 322 323 323 323 324 324 325 324 324 323 322 323 323 323 322 323 321 319 318 318 318 317 317 316 317 316 314 314 314 314 314 313 312 310 309 308 304 304 303 300 297 297 293
295 296 296 296 297 296 297 298 298 300 303 305 307 308 308 309 313 315 317 319 320 321 320 320 323 323 322 322 321 320 321 322 321 321 319 320 317 319 319 318 316 314 314 313 313 312 311 311 312 313 312 311 310 307 304 302 302 301 299 295 294 293
295 295 295 296 296 296 297 298 298 298 299 299 301 304 305 306 308 309 312 312 314 314 316 317 317 318 319 316 318 318 319 319 316 319 320 316 318 318 317 317 317 316 314 312 310 311 311 312 311 311 311 309 307 305 304 300 300 299 296 294 291 289
294 295 293 293 295 296 297 296 298 299 298 299 299 299 301 303 303 305 307 307 311 312 313 313 311 315 315 315 315 315 316 316 316 316 313 315 316 315 316 316 317 316 315 313 312 311 311 311 311 309 308 306 303 301 300 298 298 296 294 292 291 288
293 293 294 293 293 293 293 293 295 296 295 296 297 300 302 302 303 303 304 306 307 308 308 307 308 308 308 311 310 311 312 312 311 312 315 314 313 313 315 316 315 314 314 313 312 312 310 310 308 307 307 305 303 300 299 297 297 295 292 291 290 288
291 292 293 292 291 292 294 295 295 295 294 295 295 296 297 298 298 300 302 301 301 301 301 303 300 302 302 306 304 306 305 307 308 309 313 313 313 314 313 314 315 313 313 312 310 310 309 308 307 305 304 304 302 300 299 296 295 294 292 291 289 287
292 294 294 294 293 292 292 293 294 294 294 294 295 295 294 295 297 299 297 295 297 299 300 302 303 304 302 302 300 302 302 303 305 307 312 311 311 312 311 310 311 312 311 311 310 309 308 307 306 304 303 302 300 300 298 295 294 293 291 291 289 288
293 291 291 292 293 293 294 294 294 294 292 295 293 295 293 293 293 295 295 294 297 297 300 302 303 304 303 302 301 300 302 305 306 308 307 310 312 309 309 311 309 309 310 309 309 309 308 307 305 304 302 300 297 297 296 294 293 292 291 289 288 287
292 293 292 293 292 291 293 294 295 293 293 294 293 294 295 293 293 294 296 294 295 296 296 298 299 299 300 300 300 299 300 302 302 304 306 304 308 308 307 306 307 306 309 309 308 308 307 305 303 302 300 297 295 295 293 292 291 290 289 288 287 287
291 290 292 291 293 292 293 293 294 295 294 295 293 291 292 293 292 291 291 292 292 293 293 295 298 299 299 298 299 299 299 299 300 303 302 300 306 306 307 308 308 307 307 308 307 307 305 303 301 299 297 295 293 292 292 291 290 289 288 287 287 286
292 292 291 292 290 292 291 292 292 291 291 291 292 290 293 290 292 291 292 291 292 294 295 296 295 293 292 294 296 296 297 297 296 296 296 296 298 302 302 303 303 301 301 299 301 300 299 300 300 298 295 293 292 292 290 290 289 288 287 286 285 284
293 292 292 290 292 292 292 292 293 294 295 294 292 293 291 291 292 293 294 295 295 294 294 295 296 297 294 294 294 293 293 293 293 294 293 294 295 295 295 296 296 295 297 298 297 296 296 297 297 292 293 293 293 292 291 289 288 287 287 286 285 284
294 291 292 293 293 293 294 295 295 293 293 293 293 294 292 293 294 295 295 297 295 294 294 295 295 294 294 293 290 290 290 291 290 291 292 292 292 292 291 291 293 292 293 294 294 294 294 296 296 292 294 294 293 292 290 288 287 287 286 285 285 284
294 294 295 294 293 293 293 294 293 293 294 294 294 294 293 295 296 297 296 296 295 294 294 293 292 292 292 291 291 290 289 288 289 289 289 289 290 289 289 291 292 292 291 292 292 293 293 295 293 294 294 294 293 291 289 288 287 286 286 285 284 284
295 296 296 294 294 294 294 294 293 294 295 294 293 294 296 297 296 296 296 294 293 293 292 291 291 291 290 290 290 289 288 288 288 288 289 289 288 288 290 291 291 291 290 291 292 292 292 292 293 293 293 293 293 292 290 288 287 286 285 285 284 283
295 296 296 296 296 296 295 294 295 295 293 292 291 294 296 297 296 296 295 293 293 292 291 290 290 290 289 288 288 288 288 288 289 288 288 288 288 289 289 289 290 290 290 291 292 292 290 291 290 293 293 292 292 292 290 287 286 285 285 284 284 283
296 296 295 294 294 291 291 291 292 289 290 291 292 294 296 296 295 295 293 292 291 290 290 290 290 289 288 288 288 288 288 288 287 288 288 288 288 289 290 289 289 290 289 289 289 290 289 290 291 292 293 292 292 292 289 286 286 285 284 283 283 283
295 296 296 295 291 291 293 294 291 291 290 289 292 292 293 294 294 294 292 291 290 290 290 289 289 288 288 287 287 288 288 288 288 288 287 287 287 288 288 288 289 288 288 288 288 289 289 287 291 292 292 292 292 291 287 286 285 284 283 282 282 282
295 296 293 291 293 293 292 289 290 290 289 289 289 291 292 292 292 292 291 291 290 290 289 289 289 288 288 287 287 287 287 287 287 287 287 287 287 287 287 288 287 288 288 287 288 289 289 287 289 291 291 292 292 290 286 285 285 284 283 282 282 282
291 291 291 290 289 289 288 288 290 289 289 289 289 290 290 291 291 291 290 290 290 289 289 289 289 288 287 287 287 287 287 287 287 287 287 288 287 287 287 287 287 287 287 287 287 288 287 286 287 290 291 291 291 289 286 285 284 283 282 281 281 280
289 288 287 289 291 288 287 288 289 289 289 288 289 290 290 290 290 290 290 290 290 289 289 289 289 288 287 287 287 287 287 287 286 286 286 287 287 286 286 286 286 286 286 286 286 286 287 286 286 289 290 291 291 288 285 285 284 282 282 281 280 279
289 288 289 291 292 288 287 288 289 288 288 287 288 289 290 290 290 290 290 290 289 289 289 289 288 287 287 287 286 286 286 286 286 286 286 286 286 286 286 286 286 286 285 285 286 286 286 286 286 287 290 290 291 289 285 285 283 282 281 281 280 279
288 288 287 286 286 284 285 287 287 286 286 287 288 289 289 289 290 290 290 290 289 289 288 288 288 287 287 287 286 286 286 286 286 286 286 286 286 286 285 285 285 285 285 285 285 285 286 286 286 286 289 290 290 290 286 284 284 283 282 281 280 279
284 284 284 282 283 284 285 286 287 284 285 286 287 286 286 289 289 289 289 289 289 288 287 287 287 287 286 286 286 286 285 285 286 286 286 286 285 285 285 285 285 285 285 285 285 285 285 285 286 286 287 289 290 290 288 284 284 284 282 281 280 279
284 283 283 282 282 283 283 285 284 282 282 285 282 282 284 287 289 289 289 289 288 287 287 287 286 286 286 286 286 286 285 285 285 285 285 285 285 285 284 284 284 284 284 284 284 285 285 285 285 285 286 287 289 290 288 286 284 285 282 281 280 279
283 283 282 281 280 280 281 285 284 282 283 281 282 281 283 287 289 289 288 287 287 286 286 286 286 286 286 286 286 286 285 285 285 285 285 285 285 284 284 283 283 283 283 283 283 283 284 284 285 285 285 286 288 289 289 288 287 286 281 281 280 279
284 283 282 280 280 280 279 281 284 282 282 282 281 282 284 286 287 287 286 286 286 286 286 286 286 286 286 286 286 285 285 285 285 284 284 284 284 284 283 282 282 282 283 282 282 282 282 283 283 284 284 285 286 288 289 288 287 287 285 280 278 278
285 283 282 281 280 279 279 280 282 283 279 280 279 281 283 285 286 285 285 285 285 285 285 285 285 285 285 285 286 285 285 285 284 284 283 284 283 283 283 282 282 282 282 282 282 282 282 282 282 282 282 284 284 285 287 287 287 285 285 282 279 281
284 282 281 280 279 279 279 279 279 279 279 279 280 281 282 282 282 283 283 283 283 284 284 284 284 284 284 285 285 284 284 284 284 283 283 283 283 282 282 282 281 281 281 281 281 281 281 281 281 281 281 282 282 282 282 283 284 284 284 281 279 281
282 281 280 279 278 278 279 279 279 278 278 279 280 281 281 281 281 281 281 281 281 281 282 282 280 282 283 283 283 283 282 283 284 283 282 282 282 281 281 281 281 280 280 280 280 279 278 279 279 280 281 280 280 279 279 278 278 279 278 278 277 277
282 280 279 277 278 278 278 277 276 275 277 279 280 281 280 279 279 279 278 278 278 278 277 278 279 279 279 278 277 276 277 279 277 278 277 277 277 278 278 276 275 275 273 275 274 274 273 273 275 276 281 279 282 280 278 278 279 278 277 279 281 276
280 278 277 277 277 276 275 273 271 271 273 275 279 280 279 278 278 277 276 276 277 276 276 275 275 275 276 275 275 275 275 279 280 278 276 274 280 282 282 281 274 274 275 274 275 276 277 276 276 282 284 284 284 284 284 283 283 283 280 282 284 279
279 277 276 276 275 273 272 271 270 270 271 273 277 279 279 278 278 277 276 276 275 276 276 275 275 275 275 274 275 275 275 273 277 282 283 281 281 282 283 283 284 283 281 277 273 275 283 283 283 284 285 285 285 285 285 285 285 285 284 284 281 276
277 277 275 274 272 271 270 269 268 268 268 270 273 277 278 278 278 277 276 275 275 276 274 274 274 274 274 273 272 274 273 273 273 273 280 282 281 282 283 283 282 283 283 283 280 275 272 280 284 285 285 285 285 285 285 285 285 285 285 285 284 276
277 276 274 273 272 271 270 269 267 267 267 269 272 275 276 275 276 275 274 274 274 274 274 274 274 273 274 273 273 273 272 272 272 273 271 274 280 281 281 281 282 282 282 282 282 283 282 281 283 285 285 285 285 285 285 285 286 286 286 285 281 276
274 273 272 271 270 269 269 267 265 266 266 268 272 274 274 274 274 274 274 274 274 274 273 273 273 273 272 272 272 272 272 271 271 270 271 270 271 272 275 279 281 281 281 282 282 282 282 282 282 283 284 285 285 285 285 285 283 285 286 284 279 277
272 271 270 269 268 268 267 266 265 264 265 268 272 273 273 273 273 273 272 272 273 273 273 272 272 272 272 272 272 271 271 270 269 270 270 269 270 270 269 269 272 278 282 278 279 281 281 281 282 282 282 283 284 284 285 284 279 278 279 281 281 279
270 269 268 267 267 267 266 265 265 265 265 267 271 273 272 272 273 273 272 272 272 272 271 271 271 271 271 271 270 270 269 270 270 270 269 270 269 269 269 269 269 270 275 280 281 282 282 281 282 282 282 282 282 283 283 277 276 275 276 277 278 279

ECMWFFLT1_sfc_thetae_120.txt.gz
Theta_e
295 296 297 297 298 299 303 307 310 313 315 316 317 317 318 318 319 320 321 321 322 323 322 323 323 324 324 324 323 322 322 322 322 322 322 321 319 317 318 318 319 319 318 319 320 319 319 320 320 319 319 318 318 316 316 313 311 311 309 306 305 303
293 293 293 293 293 293 294 296 299 306 311 312 314 315 316 316 316 317 318 319 321 321 320 320 322 322 323 323 322 321 321 321 321 321 320 321 317 319 319 318 318 317 316 316 317 318 318 318 319 318 318 317 317 314 312 309 309 308 306 301 300 301
291 290 291 291 291 292 291 294 297 301 301 305 308 311 312 312 314 314 316 315 316 316 317 318 318 319 321 320 321 321 321 321 318 320 320 316 318 318 317 317 317 317 316 315 315 317 317 316 316 316 316 315 314 312 312 308 307 307 305 302 298 298
292 293 292 292 292 293 294 294 295 294 295 298 298 299 304 304 303 306 309 308 312 313 316 315 312 315 316 317 318 318 319 319 318 318 315 316 318 316 318 317 317 315 315 315 316 316 316 316 317 314 314 312 312 310 310 307 305 306 305 302 301 297
290 291 292 292 293 293 292 292 294 294 294 294 295 296 298 298 301 301 303 306 307 309 309 308 309 310 310 313 314 314 315 315 313 313 315 315 315 313 316 316 315 314 314 314 315 316 315 315 315 314 313 313 312 310 307 306 305 305 304 300 300 297
288 290 292 291 291 291 292 292 292 292 292 292 292 294 293 295 295 295 298 300 302 302 301 304 302 303 305 308 309 309 309 310 310 310 312 314 313 313 312 313 315 314 314 315 314 314 314 313 312 310 309 310 308 308 307 305 304 305 304 301 299 295
290 293 292 293 291 289 289 291 292 291 292 290 292 292 291 291 291 295 296 296 298 297 300 301 301 303 303 305 304 305 304 304 305 305 309 309 310 311 311 311 313 314 315 315 314 313 312 311 311 310 308 308 308 308 307 305 304 304 303 301 299 294
290 289 290 290 290 291 291 291 292 292 292 293 290 291 289 290 288 293 294 294 298 298 299 299 299 302 303 302 299 299 298 300 301 304 305 308 312 309 311 313 312 313 314 314 314 313 312 310 309 308 308 308 306 306 306 304 302 301 300 298 296 293
291 291 290 291 290 289 291 291 292 289 289 290 289 289 289 289 289 290 293 293 297 298 299 300 301 300 299 298 298 297 296 298 299 303 307 306 310 310 310 309 311 310 312 313 312 311 311 311 309 308 306 306 305 304 302 298 296 296 295 294 293 292
291 290 290 289 290 290 289 290 290 291 291 291 289 288 288 288 290 291 293 294 295 297 297 298 296 295 295 295 296 296 297 297 298 299 301 300 306 307 308 309 309 308 307 310 310 311 309 307 305 305 306 305 303 300 297 295 294 293 292 290 290 290
292 292 290 290 288 289 288 288 289 288 288 288 288 287 290 288 290 291 293 292 295 295 294 293 293 293 294 294 296 297 297 297 297 297 297 296 299 301 302 303 303 302 302 301 302 303 303 305 305 303 303 303 300 298 297 295 293 292 291 290 289 288
291 291 291 288 290 290 289 290 290 291 291 291 290 290 292 289 291 293 292 294 294 291 290 291 292 292 291 293 295 294 293 294 294 294 295 295 295 296 296 297 298 298 299 299 297 297 299 301 302 297 298 298 299 297 296 294 293 292 291 289 288 287
292 290 290 292 291 292 292 293 292 290 290 291 292 293 293 291 292 292 293 295 292 292 292 292 293 293 294 293 292 290 292 292 291 292 293 293 293 293 292 293 295 294 294 296 297 296 296 298 298 295 297 298 296 295 294 293 292 291 290 289 289 288
293 292 293 293 292 292 292 292 291 290 292 292 292 293 292 291 292 294 293 294 293 293 294 293 293 293 293 293 292 290 289 288 289 290 290 290 291 291 290 293 293 293 292 293 293 293 292 292 294 295 295 296 296 294 293 292 291 290 289 289 288 288
295 295 294 293 293 292 292 293 291 292 294 293 293 292 292 293 293 294 294 294 294 293 292 291 291 291 291 291 290 289 288 289 289 289 290 291 289 288 290 290 290 291 290 291 292 292 291 291 293 295 295 295 295 294 293 291 290 289 289 288 288 288
295 294 295 295 295 294 293 292 294 295 293 292 291 293 294 296 295 296 295 293 294 293 292 291 291 291 291 290 289 288 288 288 289 289 288 287 287 288 289 288 289 289 289 290 290 291 291 291 292 294 294 294 294 294 292 289 289 289 288 288 288 287
294 293 293 294 294 291 291 291 292 289 290 290 292 293 295 296 296 296 295 293 292 292 291 291 290 290 289 288 288 287 288 288 289 287 287 287 288 288 288 288 289 289 289 289 290 290 290 290 291 293 293 293 294 293 291 288 288 288 287 286 286 285
293 294 295 296 293 291 292 293 291 290 289 289 291 292 294 296 296 295 293 292 292 291 290 290 289 288 288 287 287 287 288 288 288 287 287 287 287 287 287 287 287 288 288 288 288 289 289 289 291 292 292 293 293 293 289 288 287 287 286 286 286 285
294 295 295 293 294 293 292 290 290 290 288 289 290 291 292 293 294 293 292 291 290 290 289 289 289 288 287 287 287 287 287 287 287 287 287 287 287 287 287 287 286 287 287 287 288 288 288 288 289 291 292 292 293 291 287 286 286 286 286 284 283 284
291 291 293 293 292 293 291 289 290 289 289 289 289 290 291 292 292 291 290 290 289 289 289 289 288 288 287 287 287 287 286 286 286 286 287 287 287 287 286 286 286 286 287 287 287 288 288 287 287 290 291 292 292 290 287 286 286 285 284 283 282 282
292 291 289 289 291 289 288 289 289 290 289 289 289 290 290 290 290 290 290 290 290 289 289 288 288 288 287 287 287 287 287 286 286 286 286 286 286 286 286 286 286 286 286 286 286 286 287 286 286 289 291 291 292 289 286 286 286 285 284 283 282 282
289 287 289 290 292 288 287 288 289 289 289 288 288 289 290 290 290 290 290 289 289 289 288 288 288 287 287 287 286 286 286 286 286 286 286 286 286 286 286 286 286 285 285 285 285 286 286 286 285 287 290 291 291 290 286 286 285 285 284 283 283 281
292 293 292 290 287 286 287 288 289 288 287 287 288 288 289 289 289 289 289 289 289 288 288 288 288 287 287 287 286 286 286 286 286 286 286 286 286 286 286 285 285 285 285 285 285 285 285 286 286 286 289 290 291 290 287 285 286 286 284 283 282 282
286 284 283 283 285 286 287 289 289 287 286 287 287 288 288 289 289 289 289 289 288 288 287 287 287 287 287 286 286 286 285 286 286 286 286 286 286 285 285 285 285 285 285 285 285 285 285 285 285 285 287 290 290 290 289 285 284 285 284 283 282 281
286 286 285 282 283 285 287 288 287 285 285 287 287 287 288 289 289 289 289 288 288 287 287 287 287 286 286 286 286 286 285 285 285 285 286 286 285 285 285 285 285 285 284 284 284 285 285 285 285 285 285 287 290 290 289 288 285 287 284 283 282 281
285 284 282 282 281 283 285 288 287 285 285 286 285 286 287 288 288 288 288 287 287 287 286 286 286 286 286 286 286 286 285 285 285 285 286 286 285 285 284 284 284 284 284 283 283 284 284 284 285 285 285 286 288 290 290 288 288 287 283 283 283 283
285 283 282 280 280 281 283 284 287 284 285 284 284 286 287 288 288 287 287 287 286 286 286 286 286 286 286 286 286 286 285 285 285 285 285 285 285 285 284 283 284 284 284 283 283 282 283 283 284 284 284 285 285 288 290 289 288 288 286 283 282 281
283 283 282 280 279 279 279 281 285 286 285 283 285 287 287 287 287 287 286 286 286 286 286 286 286 286 286 286 286 286 286 285 285 285 285 285 285 285 284 283 283 283 283 282 282 282 282 282 283 283 283 284 284 285 287 288 287 286 285 283 281 282
283 282 282 280 280 279 278 279 281 283 283 283 286 287 287 287 287 286 286 286 286 286 286 286 286 286 286 286 286 286 286 286 285 285 284 285 284 284 283 283 282 282 282 282 282 282 281 281 282 282 282 282 283 283 284 285 284 284 284 279 276 280
284 282 282 280 279 281 281 281 280 280 281 283 285 287 287 286 286 286 286 286 286 286 286 286 283 285 285 285 285 285 285 285 285 285 284 284 284 283 283 282 282 282 282 281 281 280 279 279 279 279 280 280 281 280 279 278 277 276 276 276 272 273
283 282 282 279 279 280 281 280 279 278 280 282 284 286 286 286 285 285 285 285 285 284 284 285 284 285 285 284 284 283 283 284 284 284 282 280 281 284 283 281 280 279 278 278 277 274 272 271 272 275 280 277 281 278 275 275 276 275 274 278 279 274
283 281 279 278 279 279 279 279 278 276 276 279 282 285 286 285 285 284 283 283 283 282 282 283 283 282 282 281 280 279 278 279 282 281 281 277 280 282 282 280 272 274 273 273 273 274 274 274 274 280 283 283 284 284 284 282 282 282 278 281 284 278
281 279 277 278 278 278 277 277 275 276 275 276 276 281 283 284 283 282 281 281 281 280 281 280 279 279 279 279 279 278 277 276 278 282 283 281 281 282 283 284 284 282 279 276 271 273 282 282 283 283 284 285 285 285 285 285 285 285 284 284 280 273
279 278 276 276 276 275 274 273 272 272 272 273 276 279 281 282 282 281 280 279 278 278 278 278 278 277 277 275 275 276 275 275 274 273 280 282 282 283 283 283 283 283 283 283 278 272 271 280 284 285 285 285 285 285 286 286 286 285 285 285 284 274
279 277 275 274 273 273 272 272 270 271 272 274 277 279 279 279 279 278 277 277 277 276 276 275 275 275 275 273 273 273 274 274 274 274 271 275 281 282 282 282 282 283 283 283 283 283 281 281 283 284 284 285 285 285 285 286 286 286 286 286 280 273
275 274 273 272 271 271 271 270 268 268 269 271 275 275 275 275 275 275 275 274 274 274 274 274 273 273 273 272 272 272 272 271 272 272 273 273 271 273 277 280 282 282 282 282 282 282 282 282 282 283 283 284 284 285 285 285 282 286 286 284 277 275
272 271 271 271 270 270 269 267 266 266 266 270 273 274 273 273 273 273 273 273 273 273 273 272 272 272 271 271 271 271 271 270 269 271 272 272 272 272 271 268 271 278 281 277 279 282 282 282 282 282 282 282 283 283 284 283 276 276 276 277 276 276
271 270 270 270 270 269 268 266 265 265 265 270 273 273 273 273 273 273 273 272 272 272 271 271 271 271 272 271 270 270 270 271 271 271 270 270 270 270 269 268 267 268 275 277 278 280 281 282 282 282 282 282 282 282 283 272 270 270 271 272 272 274

ECMWFFLT1_sfc_thetae_123.txt.gz
Theta_e
293 294 295 294 295 299 304 307 309 312 313 315 316 316 317 318 319 319 319 320 320 321 320 321 322 323 323 323 322 322 322 322 323 323 323 323 321 318 320 319 320 320 320 321 321 321 321 321 322 321 321 320 319 318 318 319 318 317 315 315 314 314
293 293 293 293 294 295 295 296 299 306 311 311 313 315 315 314 315 316 317 318 319 319 319 319 320 321 322 322 321 322 322 322 322 322 322 322 319 319 319 317 317 316 317 318 320 321 321 320 321 321 320 320 319 318 317 317 317 316 315 314 311 309
291 290 289 290 289 289 290 294 298 302 303 307 310 312 313 312 314 314 316 316 316 316 317 318 318 319 320 319 320 320 321 321 319 322 322 319 320 318 315 316 316 316 316 316 316 319 320 319 319 319 319 318 317 317 317 316 314 314 313 312 310 307
290 288 287 287 288 290 290 291 291 295 300 305 306 306 309 310 309 311 313 311 313 314 316 316 311 315 316 317 318 318 320 320 320 320 317 318 319 316 317 316 317 315 316 316 317 318 319 319 319 318 317 316 315 315 315 314 311 310 310 307 307 304
288 288 289 290 290 291 289 289 292 293 293 295 298 303 305 304 306 306 307 309 310 311 312 310 310 311 311 314 316 316 317 317 314 313 316 316 316 313 317 318 318 317 317 316 316 317 317 318 317 317 316 315 315 314 312 311 310 310 311 310 309 307
284 287 289 290 290 290 290 290 290 290 290 290 291 294 295 295 298 299 302 304 306 307 305 307 306 305 306 308 310 311 312 312 311 311 313 315 315 315 315 316 318 316 316 315 315 315 315 315 315 315 314 316 315 314 315 313 311 311 311 310 309 306
289 291 290 290 289 287 287 289 290 289 291 288 290 291 289 291 291 295 298 299 302 300 303 304 304 306 306 307 307 307 307 307 307 307 310 312 313 314 313 312 313 314 315 315 314 314 314 314 314 314 313 313 314 314 314 313 311 307 304 302 302 300
288 287 288 289 288 289 290 290 290 290 290 291 289 291 288 287 286 294 295 294 298 300 300 301 301 303 305 305 305 304 303 303 302 305 304 306 311 309 310 312 312 312 314 314 314 314 314 314 313 313 313 311 310 310 308 304 304 304 306 305 304 301
290 291 289 289 288 288 290 290 291 289 288 289 287 287 287 288 288 289 292 292 296 298 298 299 300 301 302 302 303 301 300 301 301 302 304 302 304 306 307 308 310 309 312 313 313 313 314 314 313 312 311 310 308 306 305 304 302 300 299 298 297 296
290 290 290 288 289 288 288 288 288 290 289 290 289 288 287 287 288 289 291 293 294 297 298 299 298 298 299 299 298 299 297 296 296 299 301 300 303 305 306 308 309 310 309 311 311 312 311 311 310 308 307 307 307 305 304 303 301 298 295 294 293 293
292 291 289 289 286 287 287 287 287 287 287 287 287 286 288 287 290 292 293 293 294 296 296 296 294 295 295 294 296 296 296 295 295 294 294 295 299 301 302 303 304 306 307 305 305 305 303 305 305 304 304 305 305 304 303 302 298 294 294 292 291 290
292 290 289 288 288 288 287 287 288 288 288 289 288 288 289 287 291 293 292 293 294 293 292 293 293 294 294 295 295 294 293 293 293 293 293 294 294 295 295 297 298 300 300 300 298 299 299 300 301 298 299 299 302 301 299 297 294 293 292 292 290 289
290 288 289 291 291 290 291 291 290 287 287 288 289 290 291 290 291 292 292 293 293 292 290 292 293 293 293 292 290 289 291 292 291 292 292 292 292 293 293 293 295 294 294 295 295 295 296 298 298 297 298 298 299 297 296 295 293 291 291 291 292 291
289 290 291 292 292 291 290 291 289 287 290 290 290 290 290 290 292 293 293 294 292 292 292 293 292 293 292 291 290 289 287 288 290 291 291 291 291 289 289 291 291 291 291 292 292 292 292 293 294 297 297 297 297 295 295 294 292 291 291 291 291 290
291 292 292 292 292 292 292 292 290 291 292 291 290 290 292 291 292 293 293 293 293 293 293 292 293 292 291 290 289 288 287 288 288 289 290 290 288 288 289 289 290 289 289 290 291 291 290 291 293 295 295 296 296 296 295 293 292 291 291 290 290 289
292 292 293 294 294 294 292 290 293 294 291 290 289 292 293 293 293 293 294 293 293 292 292 291 291 291 289 289 288 288 288 288 288 287 287 287 287 288 288 288 288 288 289 289 290 290 289 290 291 294 294 294 295 295 294 291 292 291 290 290 290 289
293 293 292 292 292 291 289 289 291 289 289 289 291 292 293 294 294 294 294 292 292 291 291 291 290 289 289 288 287 287 287 288 287 287 287 287 288 288 288 288 288 288 288 288 289 289 289 289 291 293 293 294 294 295 293 289 289 290 289 289 288 288
293 293 294 295 293 291 291 293 291 289 289 288 291 291 293 294 295 294 293 292 291 291 291 290 289 289 288 287 287 287 287 287 288 287 287 287 287 286 287 287 287 287 287 287 288 288 288 288 291 292 293 293 294 294 289 288 288 288 288 287 287 287
293 294 295 295 294 294 293 292 290 291 289 289 289 290 291 292 293 294 293 292 291 291 290 290 290 288 288 287 287 287 287 287 287 286 287 287 287 287 287 287 286 287 287 287 288 288 287 287 290 291 292 293 294 291 287 288 287 287 287 286 286 286
293 292 292 293 293 294 293 290 290 290 289 289 289 290 291 291 293 293 292 292 290 290 290 290 290 289 287 287 288 288 287 286 286 287 287 288 287 287 286 286 286 286 287 287 287 288 288 287 287 290 291 292 293 290 287 287 287 286 286 285 284 284
292 290 289 289 291 291 289 289 289 290 290 289 289 289 290 291 292 292 292 291 291 290 290 290 290 289 288 288 288 288 287 287 287 286 287 287 287 287 286 286 287 286 286 286 287 286 287 286 286 289 291 292 292 289 287 287 286 286 285 284 283 283
288 288 289 290 292 292 289 288 289 290 290 289 288 289 290 291 291 291 291 291 290 290 289 289 289 288 288 288 288 287 287 287 286 286 287 286 287 287 286 286 286 286 286 286 286 286 286 286 286 287 290 291 291 290 287 287 287 286 285 284 284 283
291 292 292 292 293 290 288 289 290 290 290 289 288 289 290 290 290 290 291 290 290 289 289 289 289 288 288 288 288 287 287 287 287 286 286 286 286 286 286 286 286 286 285 285 285 285 286 286 286 286 290 291 291 290 288 286 287 287 286 285 284 284
289 289 289 288 289 288 288 289 290 290 289 288 288 290 288 288 289 290 290 289 289 289 288 288 288 288 288 287 287 287 286 287 287 287 287 287 286 286 286 286 286 285 285 285 285 285 285 285 285 285 288 290 291 290 289 286 286 286 286 285 284 283
289 290 290 288 285 287 288 289 290 289 288 288 289 288 288 289 289 289 289 289 289 288 288 288 288 288 288 287 287 287 286 286 286 286 286 286 286 286 285 285 285 285 285 284 284 284 285 285 285 285 286 288 290 290 289 288 286 288 286 285 283 283
290 290 287 284 284 286 287 289 289 289 288 289 287 287 288 288 289 289 288 288 288 288 287 287 287 287 287 287 287 287 286 286 286 286 286 286 286 286 285 285 285 285 284 284 283 284 284 284 285 285 285 286 289 290 290 289 288 288 285 285 284 284
290 289 286 284 284 285 287 288 290 289 289 288 287 287 288 288 288 288 288 288 287 287 287 287 287 287 287 286 287 286 286 286 286 286 286 286 286 286 285 285 285 285 284 284 283 283 283 284 284 284 285 285 286 289 290 289 289 288 287 284 283 283
287 287 286 284 283 284 285 287 289 289 289 285 286 287 288 287 287 287 287 287 287 287 287 286 286 286 286 286 287 286 286 286 286 286 285 285 285 285 285 284 284 284 284 283 283 283 282 282 283 283 284 284 285 286 288 288 287 286 285 284 283 283
286 286 286 286 284 284 283 283 283 284 284 285 287 287 287 287 287 287 287 287 287 287 286 287 286 286 286 286 286 286 286 286 286 286 285 285 285 285 284 284 284 284 283 283 283 282 282 282 282 282 283 283 284 284 285 286 285 285 284 279 279 280
288 288 287 288 286 283 282 280 281 282 284 285 286 287 287 287 287 287 287 287 287 287 287 287 284 285 286 286 286 285 285 286 286 286 285 285 285 284 284 284 283 284 284 283 283 282 281 281 281 281 282 282 283 282 281 280 280 279 276 274 270 271
288 288 288 287 283 282 282 281 279 282 284 286 286 287 287 287 287 287 286 286 286 286 286 286 286 286 285 285 285 284 285 285 286 285 283 282 284 286 285 284 284 284 284 284 282 281 278 277 277 278 282 279 282 279 277 275 275 272 271 276 278 273
284 284 284 281 281 282 282 280 280 281 284 286 287 287 287 286 286 286 286 286 286 286 285 285 286 285 285 284 282 281 280 281 284 284 284 282 283 283 284 284 280 282 281 280 279 278 276 276 274 280 283 283 284 284 283 281 281 281 276 281 283 276
280 281 280 279 280 280 280 279 279 280 282 285 286 287 287 286 286 286 285 285 285 284 285 285 284 284 283 283 282 281 280 279 281 283 283 283 283 283 283 283 282 281 280 278 274 274 282 282 283 284 284 284 285 285 285 285 284 284 283 284 278 271
280 280 280 279 279 279 278 277 277 278 279 282 285 286 286 286 286 285 285 284 283 282 282 283 282 281 281 281 281 281 280 279 278 278 282 283 283 283 283 283 282 282 283 282 277 272 270 280 284 284 284 285 285 285 285 285 285 285 285 285 282 271
280 279 278 278 278 277 277 275 273 274 277 280 283 285 285 285 285 284 283 282 281 281 280 280 280 280 280 280 280 280 280 280 279 277 276 278 282 283 282 283 283 283 283 283 283 282 280 281 283 284 284 285 285 285 285 286 286 286 286 285 278 271
278 277 276 276 276 275 275 272 271 272 274 278 281 284 284 284 283 282 281 281 280 280 280 280 280 280 280 280 280 279 279 279 278 277 275 274 274 275 278 281 282 283 283 283 283 283 283 283 283 283 283 284 284 285 285 285 281 286 286 283 276 274
276 274 274 274 274 274 273 270 269 270 271 277 281 281 282 281 280 280 277 276 277 280 279 279 279 279 278 278 277 277 276 276 274 274 274 274 273 273 273 270 273 279 281 278 280 282 283 282 283 283 283 283 284 284 285 283 274 272 272 274 275 275
274 273 273 273 273 272 271 268 269 270 271 277 279 279 279 278 278 278 278 278 277 278 278 278 277 277 277 276 275 274 273 273 273 273 272 271 272 272 271 268 267 269 275 277 279 282 282 282 283 283 283 283 283 283 281 271 270 271 269 269 269 273

ECMWFFLT1_sfc_thetae_126.txt.gz
Theta_e
294 294 295 295 295 296 299 301 304 307 309 312 314 314 316 316 318 318 319 320 320 321 320 320 321 322 322 322 321 320 320 320 321 321 322 321 320 319 321 320 321 320 320 320 321 321 320 321 321 321 321 320 319 319 318 319 318 318 316 316 316 316
293 293 294 294 293 293 294 296 298 305 308 309 311 312 313 313 314 315 316 317 319 319 319 319 320 320 321 321 321 321 321 321 320 320 320 321 318 321 321 320 320 319 318 318 320 320 320 320 320 321 321 320 320 319 318 317 318 317 316 315 314 315
291 290 290 290 288 288 289 293 297 303 303 307 309 311 311 311 313 314 316 316 316 316 317 317 318 319 320 320 320 319 320 320 318 320 320 318 321 320 319 319 319 319 319 319 318 320 320 320 320 320 320 320 319 318 318 317 316 316 316 314 313 311
290 289 287 285 285 288 289 291 291 294 300 306 307 307 309 310 311 312 314 313 315 315 316 316 316 317 317 317 318 317 319 319 319 320 319 320 321 319 319 319 319 318 318 318 319 318 319 320 320 320 319 318 317 317 318 316 315 314 315 314 313 311
289 287 286 287 288 289 288 288 290 293 295 297 300 305 307 308 309 309 310 311 311 313 314 313 313 312 312 314 316 315 316 317 315 314 317 318 318 316 319 318 318 317 317 317 317 318 318 319 318 318 317 316 316 316 316 316 314 313 312 311 311 311
286 285 287 289 288 288 289 290 289 290 290 293 294 299 301 300 303 304 306 308 309 310 308 309 308 306 307 309 312 312 313 313 311 310 314 317 316 315 316 318 318 317 316 316 316 316 317 317 317 316 315 317 315 315 315 313 313 312 312 312 311 309
288 290 290 289 289 287 287 289 290 290 291 289 292 294 294 296 295 298 301 302 304 302 304 305 304 306 306 308 309 309 309 309 309 308 311 313 314 316 315 314 315 316 316 316 316 316 315 315 316 317 315 314 314 314 314 313 312 311 311 311 310 303
289 288 288 288 288 289 290 290 290 289 290 290 289 291 289 290 288 295 298 298 301 302 301 303 303 305 306 306 306 306 306 306 307 309 308 310 315 313 313 314 313 314 315 315 315 315 315 314 312 311 312 313 312 312 312 312 311 310 310 308 306 304
291 291 289 289 287 287 288 288 290 289 289 289 288 287 287 287 288 291 294 295 298 301 302 303 304 304 305 305 305 302 301 303 302 304 307 305 309 311 311 311 312 311 313 313 313 313 313 313 312 312 312 312 311 311 310 308 306 305 304 304 303 302
292 291 290 288 288 287 287 287 287 289 289 290 288 286 286 286 287 288 291 293 294 297 299 300 299 299 300 299 299 299 298 298 298 300 300 299 303 304 306 308 309 309 309 311 311 312 311 312 312 311 310 309 309 307 307 307 306 304 301 298 298 296
293 293 292 291 287 287 288 287 287 286 286 286 287 286 287 286 288 289 289 291 292 294 294 294 294 295 296 295 296 296 297 298 298 297 298 299 302 302 304 306 307 307 307 306 307 308 307 308 308 307 306 306 306 306 306 305 303 301 299 295 293 292
293 292 290 288 289 289 288 288 288 288 288 288 287 287 287 287 288 291 290 291 292 292 293 294 294 295 295 296 297 297 295 294 293 293 294 296 296 297 297 299 302 303 304 304 302 300 301 303 305 299 300 301 305 302 302 300 299 297 296 294 291 290
291 289 290 290 291 291 291 291 290 288 287 287 288 289 289 288 289 291 292 292 292 292 292 293 294 294 295 296 294 292 293 293 291 291 292 291 292 293 293 295 298 298 297 299 299 298 300 300 300 296 299 300 300 301 300 300 297 294 293 292 292 292
291 290 291 291 291 291 291 291 290 288 289 288 288 289 289 289 291 292 292 292 292 292 292 293 293 293 294 292 293 292 290 289 290 291 290 290 290 290 290 293 294 294 294 294 294 296 295 295 294 297 297 298 298 297 298 297 295 293 293 292 293 292
292 291 291 290 292 292 292 293 290 291 292 291 289 289 290 289 291 292 293 292 292 292 292 292 292 293 292 292 291 289 289 289 289 289 290 291 289 289 292 292 292 291 290 293 294 293 292 292 294 296 296 296 297 297 296 296 295 293 292 290 290 289
291 291 291 292 293 292 291 290 292 292 291 289 288 290 291 290 291 293 293 292 292 292 291 291 292 292 292 291 290 289 289 290 290 288 288 288 287 290 290 289 290 289 290 292 293 292 291 291 292 295 295 295 296 296 296 293 292 290 290 289 289 289
293 292 290 290 291 290 289 289 290 288 288 288 289 290 291 292 292 292 293 292 292 291 292 292 292 292 291 290 290 290 290 290 288 288 288 289 290 290 291 290 290 290 290 290 290 290 290 290 292 294 294 295 295 296 294 290 290 289 289 289 289 289
294 294 293 292 290 291 290 292 290 289 289 286 289 289 291 292 293 293 292 292 291 292 292 292 292 291 290 289 289 290 289 289 289 289 287 288 288 287 288 288 289 289 289 289 289 290 289 288 291 292 293 294 295 295 290 289 289 289 288 288 288 288
293 292 291 290 291 291 291 291 289 289 288 287 287 288 289 291 292 292 291 292 291 292 292 292 292 291 290 289 289 289 289 288 288 288 288 288 288 288 288 289 287 288 289 288 289 289 288 287 289 292 292 293 294 292 289 289 288 288 287 287 287 287
293 293 292 292 291 291 290 289 289 289 289 288 287 288 289 290 291 292 291 292 292 292 292 292 292 291 289 289 289 289 288 288 288 288 288 289 288 288 288 288 287 287 288 288 288 289 289 288 288 291 292 293 293 290 288 288 288 287 286 286 285 285
297 294 291 291 291 291 290 290 289 289 289 289 288 288 289 290 291 291 291 292 292 292 291 291 291 291 289 289 289 289 288 288 288 288 288 289 289 288 287 287 288 287 287 287 287 287 288 287 287 289 291 292 292 289 288 288 287 286 286 285 284 284
294 290 291 291 292 292 290 289 289 289 290 290 288 288 289 290 291 292 291 291 291 291 291 291 290 290 290 289 289 288 288 288 288 287 288 288 289 288 287 287 287 287 286 286 286 286 286 287 286 287 291 291 291 290 288 287 288 286 285 285 284 283
296 296 295 295 294 290 289 289 289 290 290 290 288 289 290 292 291 289 290 291 291 291 291 290 290 290 289 289 289 288 288 288 288 287 287 287 287 287 287 286 286 286 285 285 285 285 285 286 286 287 290 291 291 290 288 287 287 287 286 285 285 284
293 293 293 292 291 290 289 289 290 290 290 289 289 291 292 290 289 289 289 290 290 290 290 289 289 289 289 288 288 288 287 287 287 287 287 287 287 286 286 286 286 286 285 285 285 285 285 285 286 286 288 290 291 290 289 287 287 287 286 285 285 284
293 293 294 294 289 288 288 289 289 290 289 289 291 292 291 289 288 289 289 289 289 289 289 288 288 288 288 288 288 288 287 286 286 286 286 286 286 286 286 285 285 285 285 284 284 285 285 285 285 286 287 289 290 290 289 288 287 289 286 286 284 284
292 293 293 292 288 287 287 288 289 289 289 290 292 290 287 287 287 288 288 288 288 288 288 288 288 288 288 288 287 287 287 286 286 286 286 286 287 286 286 285 285 285 285 284 284 284 284 285 285 285 286 288 289 290 289 289 289 288 286 286 285 284
294 294 293 293 288 286 287 288 289 289 289 291 291 288 288 287 287 288 288 288 288 288 288 288 288 288 288 287 287 287 287 286 286 286 286 286 286 287 286 285 286 285 285 284 283 283 283 284 284 285 285 286 288 289 290 289 289 289 288 285 284 284
290 290 291 292 289 287 286 287 288 289 290 291 288 288 287 287 287 287 287 287 288 287 287 287 287 287 287 287 287 287 287 286 286 286 286 286 286 286 286 285 285 285 285 284 283 283 283 283 284 284 285 285 286 287 288 288 287 286 285 284 283 283
289 289 289 290 291 287 286 286 287 289 288 285 286 286 287 287 287 287 287 287 287 287 287 287 287 287 287 287 287 287 287 287 287 286 286 286 286 286 286 286 285 285 285 284 283 283 282 282 283 283 283 284 286 286 286 286 285 284 283 282 282 283
289 289 289 290 291 288 286 285 286 286 282 283 286 286 287 287 287 287 287 287 287 287 287 288 286 286 286 286 287 286 286 286 287 287 286 286 286 286 285 285 285 285 285 284 283 282 282 282 282 283 283 284 285 285 286 285 284 283 281 278 276 276
288 289 289 290 289 285 285 284 283 281 282 285 286 287 287 287 287 287 287 287 287 287 287 287 287 287 286 286 286 286 287 286 286 287 286 286 288 288 287 286 286 286 286 286 284 282 282 282 282 283 285 283 285 284 284 283 282 280 277 278 278 274
286 287 288 288 283 282 283 282 280 281 283 285 286 287 287 287 287 287 287 287 287 287 287 287 287 286 286 286 285 283 282 283 286 286 287 285 284 286 286 287 287 287 286 285 283 282 284 283 283 284 284 284 285 285 284 283 282 280 278 282 282 276
283 283 284 284 279 279 280 281 280 282 284 285 286 287 287 287 287 287 287 287 287 287 287 287 286 286 286 285 284 284 282 282 282 284 284 284 284 285 285 285 285 286 285 283 280 280 283 284 284 285 285 285 285 285 285 284 284 283 284 283 278 272
282 282 282 280 279 280 280 280 279 281 283 285 286 287 287 287 287 287 287 287 287 286 286 287 286 285 284 284 283 283 282 281 280 280 283 284 283 283 283 283 283 283 283 282 280 279 279 283 284 285 285 285 285 285 285 285 285 285 285 284 281 271
279 278 277 278 279 279 279 279 278 278 281 284 286 286 286 287 287 287 286 286 286 286 285 285 285 284 284 283 283 282 282 281 280 279 278 280 283 284 283 283 283 283 283 282 282 282 281 282 284 284 284 285 285 285 285 285 285 285 285 283 274 271
277 277 277 277 278 278 277 277 275 276 278 280 284 286 286 286 286 286 286 286 285 285 285 285 285 284 284 284 283 283 282 282 281 279 278 277 278 279 280 282 283 283 283 283 284 284 284 284 284 284 284 284 285 285 285 285 283 285 285 280 272 272
276 275 275 276 276 276 275 274 271 271 272 277 283 285 286 286 285 285 281 280 281 285 284 284 284 284 283 283 283 282 282 281 280 279 278 278 277 277 276 276 278 281 282 281 281 283 283 284 284 284 284 284 285 285 285 285 281 280 278 276 272 272
275 274 274 274 274 274 273 272 271 272 272 276 281 284 284 284 283 282 282 282 282 283 283 283 283 283 283 282 282 282 282 280 278 278 277 276 275 274 273 272 272 273 279 281 282 283 283 283 283 284 284 284 285 284 283 276 275 275 274 274 274 276

ECMWFFLT1_sfc_thetae_129.txt.gz
Theta_e
296 296 296 297 297 297 298 300 301 303 306 309 311 312 314 316 318 319 320 321 321 322 322 322 322 322 322 322 322 322 321 321 322 322 322 323 322 321 320 320 320 320 319 320 320 320 319 320 320 320 319 319 318 318 318 319 319 318 317 317 317 318
295 295 294 295 295 295 296 296 297 300 304 307 309 311 312 313 315 317 318 320 321 321 322 322 322 322 322 322 322 321 321 321 322 322 322 322 322 321 321 321 321 320 320 319 320 320 320 320 320 320 320 319 319 319 318 318 318 317 317 317 317 317
296 293 291 292 292 291 292 293 295 298 301 304 307 309 310 312 314 316 317 318 319 319 320 321 321 321 322 322 322 322 322 322 321 322 322 322 321 321 320 320 321 321 320 320 319 320 320 320 320 320 320 319 319 319 318 318 317 317 316 315 315 316
295 293 290 289 288 290 290 292 292 294 297 303 305 307 309 311 312 314 316 316 318 318 319 320 320 321 321 321 321 321 322 322 321 322 321 320 322 321 321 321 321 321 320 320 320 320 320 320 321 320 320 318 318 318 319 318 316 315 316 316 315 314
291 290 290 290 290 291 291 290 291 293 295 297 301 305 308 309 311 311 313 314 315 316 317 317 317 317 317 318 319 319 320 321 320 320 320 320 320 320 321 321 321 320 320 320 320 320 319 320 320 320 319 318 318 317 317 318 317 316 315 314 314 314
290 289 291 292 291 290 291 291 291 292 293 294 297 300 304 303 306 307 308 310 312 313 313 314 314 312 313 315 317 317 318 319 318 317 318 320 320 318 319 321 320 319 319 319 318 318 318 318 318 318 318 319 317 317 318 316 316 315 315 315 314 314
293 293 293 292 292 291 291 291 292 292 292 292 293 296 297 300 300 303 306 306 308 308 309 310 310 310 311 312 314 314 315 315 314 313 315 318 318 319 318 317 318 319 318 318 318 317 317 317 317 318 317 318 318 317 317 316 315 314 314 314 314 307
293 292 291 291 291 292 292 291 291 291 291 292 291 293 293 295 294 299 302 303 304 306 305 307 307 308 310 310 310 311 311 311 311 312 313 316 319 317 317 317 316 317 317 317 317 317 317 317 317 317 317 316 315 315 315 315 314 313 313 313 313 313
292 293 293 292 292 290 291 291 292 291 290 291 290 290 291 291 292 294 298 300 302 305 305 306 306 308 308 307 308 306 306 307 309 310 311 311 314 316 315 315 315 314 316 316 316 316 316 317 316 316 316 315 314 313 312 312 312 311 311 311 311 310
293 293 293 292 292 290 289 290 290 291 291 292 291 290 289 289 289 291 293 297 299 301 304 304 304 305 306 305 304 305 305 305 305 307 308 307 310 312 313 313 314 314 313 315 315 316 316 316 315 314 313 312 312 312 311 311 310 310 309 307 307 306
293 294 294 293 291 290 290 290 290 289 289 289 290 289 290 288 288 290 291 293 296 299 300 300 300 300 301 301 302 303 303 303 304 303 304 304 306 308 310 311 312 312 311 312 313 313 312 313 312 312 311 311 310 311 310 310 309 308 307 304 300 298
292 293 293 292 292 292 291 291 291 290 291 291 290 290 290 287 288 290 290 291 294 296 296 296 297 298 299 300 301 301 300 300 299 300 299 301 302 303 304 305 307 308 309 308 307 307 308 309 311 302 302 303 309 309 309 308 306 305 304 300 297 294
291 291 291 293 293 292 292 293 293 291 290 291 290 290 290 288 288 290 291 291 292 293 293 294 295 296 297 299 299 298 297 298 296 297 297 298 298 299 299 299 301 301 303 305 306 304 305 306 306 299 301 301 302 306 307 305 304 302 299 298 297 295
296 293 293 294 293 292 292 292 292 290 291 291 291 290 289 287 289 291 292 292 292 293 293 293 294 295 296 295 296 296 295 295 294 295 296 296 295 295 294 296 298 299 299 301 301 302 302 303 298 300 300 300 300 300 304 304 302 299 297 296 296 295
297 296 295 293 294 293 293 292 291 292 293 293 291 289 289 288 289 291 292 292 292 293 293 293 293 294 294 294 294 294 293 293 294 294 294 294 294 293 294 297 297 297 297 298 299 299 298 298 297 298 299 299 299 299 300 302 300 296 295 295 295 294
295 295 294 294 294 293 293 291 292 293 292 291 289 289 290 290 289 291 292 292 292 293 292 292 292 293 294 293 293 293 293 293 295 294 294 293 291 293 294 294 295 295 295 296 297 298 296 296 294 296 297 297 297 298 299 299 297 295 294 294 293 292
295 295 294 293 293 292 291 291 292 291 290 289 289 289 290 290 290 291 292 293 293 292 292 292 292 292 293 293 292 292 293 294 294 292 292 292 292 293 294 293 293 292 293 293 293 294 294 295 293 295 296 296 297 297 297 294 293 292 291 291 291 291
299 298 299 298 292 292 291 292 293 291 291 289 290 289 290 291 291 292 292 292 292 292 292 291 291 292 292 292 292 292 293 293 293 292 290 290 291 291 291 291 291 292 291 291 292 292 293 291 292 294 294 295 296 296 293 292 291 291 290 290 290 290
301 301 297 294 294 294 294 293 290 290 289 289 289 289 289 290 291 292 292 292 292 292 292 292 292 292 292 292 292 292 292 292 291 290 289 290 290 290 290 290 289 290 291 290 290 292 292 290 291 293 293 294 295 293 291 290 290 289 289 289 289 289
299 297 295 295 294 294 294 291 290 290 290 290 289 289 289 289 290 291 291 292 292 292 292 292 293 292 292 292 292 292 292 291 290 290 289 291 290 289 289 289 289 289 290 290 290 291 292 290 289 291 293 294 294 292 291 290 290 289 288 288 288 289
299 297 295 293 293 295 293 291 290 290 290 290 290 289 290 290 291 291 291 292 293 292 292 293 293 293 292 292 292 292 291 290 290 290 289 290 290 290 289 289 290 288 288 288 289 288 291 290 288 290 292 293 293 291 290 290 290 288 287 287 287 286
294 296 297 296 295 295 292 290 289 290 291 291 290 289 290 291 292 293 293 292 291 292 292 292 292 292 292 291 291 291 290 290 290 289 289 289 290 290 289 289 289 288 288 287 287 288 289 289 289 289 292 292 292 291 290 290 290 288 287 287 287 286
295 296 296 297 297 295 292 290 290 291 291 291 290 290 291 292 293 293 292 291 291 291 291 292 292 292 291 291 291 290 290 290 290 289 288 289 289 289 288 288 288 288 287 286 286 287 287 288 288 288 291 292 292 291 290 289 290 289 288 287 286 287
293 294 294 295 295 293 291 289 290 291 292 291 291 292 293 292 293 292 290 290 291 291 291 291 291 291 291 290 289 289 289 288 288 288 288 289 289 288 287 287 287 287 286 286 286 286 286 286 287 288 289 291 291 291 291 290 289 289 288 287 287 286
293 294 294 295 294 292 289 288 289 291 291 291 292 294 293 292 292 291 290 290 289 289 289 290 290 290 290 289 289 289 288 288 288 287 288 288 287 288 287 287 287 286 286 285 286 286 286 286 286 287 288 289 291 291 291 290 289 290 288 288 287 287
291 292 293 293 294 292 289 288 289 290 290 291 294 293 291 291 290 289 289 288 289 288 288 289 289 289 289 289 289 289 288 287 287 287 288 288 288 288 287 287 287 287 286 285 285 285 285 285 287 287 287 288 290 291 291 290 290 289 288 288 288 287
290 290 291 292 292 292 290 288 288 289 289 293 293 290 290 290 288 288 288 288 288 288 288 288 289 289 288 288 289 288 288 287 287 287 287 288 288 288 287 287 287 287 286 286 285 285 285 285 286 287 287 287 288 290 290 290 289 289 288 286 286 286
287 288 288 290 291 291 290 289 288 288 291 293 291 290 289 288 287 287 288 288 288 288 288 288 288 288 288 288 289 289 289 288 288 288 287 288 288 288 288 287 287 287 286 286 286 286 285 285 286 286 287 287 287 287 288 289 288 287 286 285 285 284
288 288 288 288 290 290 290 289 288 288 289 289 289 288 287 287 287 287 287 287 287 287 287 287 288 288 288 288 289 289 289 289 288 288 287 288 288 288 288 287 287 287 286 286 286 285 285 285 285 286 286 287 287 287 287 287 286 285 284 284 284 284
287 287 287 288 289 289 289 288 288 288 287 287 287 286 286 287 287 287 287 287 287 287 287 288 287 288 288 288 288 288 288 288 288 288 288 288 289 288 288 287 287 287 287 286 286 285 285 285 285 285 286 286 287 287 287 286 285 284 284 283 283 283
287 287 287 287 288 287 287 287 287 286 285 285 285 285 285 286 286 287 286 286 287 287 287 288 288 288 288 288 288 288 288 288 288 288 288 289 290 290 290 288 288 288 288 287 286 285 285 284 284 285 286 287 287 287 286 285 284 283 282 282 282 278
286 286 286 286 286 286 285 285 285 283 280 281 283 283 285 286 286 285 286 286 287 287 287 288 288 288 288 288 287 287 286 286 288 288 289 288 287 288 288 289 289 288 288 287 287 287 287 286 286 286 286 286 287 287 287 286 285 283 281 282 282 280
285 285 284 285 284 283 283 283 283 282 282 282 284 284 285 285 286 286 286 286 287 287 287 288 288 288 288 287 287 286 285 283 284 285 287 287 287 287 287 288 288 288 288 288 286 285 285 286 287 286 286 286 287 287 287 286 284 283 283 283 279 277
284 284 283 283 282 281 281 281 282 281 282 283 285 285 285 285 285 286 286 287 287 287 287 288 287 287 287 287 286 286 285 283 282 282 284 285 285 286 286 287 286 287 287 287 286 285 284 285 286 286 285 286 286 286 286 285 284 285 284 283 282 276
283 282 281 281 280 280 280 280 280 279 279 281 283 285 285 285 285 285 286 286 287 287 287 287 287 287 287 286 285 285 285 283 282 281 280 282 284 284 285 285 286 286 286 285 285 285 285 284 285 285 285 285 285 285 285 285 285 285 284 283 278 275
281 281 280 279 279 278 278 278 278 276 276 276 278 281 284 285 286 286 287 287 287 287 287 287 287 287 286 286 286 286 285 285 284 283 280 279 280 281 282 284 284 284 284 285 285 284 285 285 285 285 284 285 285 285 285 285 284 285 284 280 276 275
280 280 279 277 277 277 277 277 276 273 273 274 277 279 282 285 286 286 283 282 283 287 287 287 286 286 286 285 285 285 285 285 283 282 281 280 280 280 279 279 281 283 284 283 284 285 285 285 285 284 284 285 285 285 286 285 283 280 277 276 274 275
278 278 277 276 276 276 276 276 274 273 273 274 276 278 280 283 285 285 285 284 284 286 286 286 286 286 286 285 285 285 285 283 282 281 281 280 279 278 278 277 278 279 282 283 284 284 284 284 285 285 285 285 285 285 285 281 279 278 276 275 274 274